<?xml version='1.0' encoding='UTF-8'?><gpx version="1.1" creator="JPX - https://github.com/jenetics/jpx" xmlns="http://www.topografix.com/GPX/1/1"><trk><trkseg><trkpt lat="45.90908806071735" lon="11.908388079827965"><ele>293.4</ele><time>2026-04-18T12:15:55.887Z</time></trkpt><trkpt lat="45.90909999584467" lon="11.908544738469073"><ele>292.79999999999995</ele><time>2026-04-18T12:15:57.884Z</time></trkpt><trkpt lat="45.908983696143686" lon="11.908672141732104"><ele>292.20000000000005</ele><time>2026-04-18T12:15:59.886Z</time></trkpt><trkpt lat="45.9089110653407" lon="11.908701261574205"><ele>291.6</ele><time>2026-04-18T12:16:00.888Z</time></trkpt><trkpt lat="45.908828506472005" lon="11.90873366794089"><ele>291.0</ele><time>2026-04-18T12:16:01.888Z</time></trkpt><trkpt lat="45.90873932774397" lon="11.908764565758041"><ele>291.0</ele><time>2026-04-18T12:16:02.886Z</time></trkpt><trkpt lat="45.90864645049457" lon="11.908808371777363"><ele>291.0</ele><time>2026-04-18T12:16:03.886Z</time></trkpt><trkpt lat="45.90855722925613" lon="11.908855062748563"><ele>291.0</ele><time>2026-04-18T12:16:04.881Z</time></trkpt><trkpt lat="45.90846653530592" lon="11.908895930593813"><ele>291.0</ele><time>2026-04-18T12:16:05.884Z</time></trkpt><trkpt lat="45.908373211376734" lon="11.908936600816844"><ele>291.0</ele><time>2026-04-18T12:16:06.885Z</time></trkpt><trkpt lat="45.90828255750967" lon="11.908984140826966"><ele>291.1666666666667</ele><time>2026-04-18T12:16:07.887Z</time></trkpt><trkpt lat="45.90820744678155" lon="11.908995973314433"><ele>291.3333333333333</ele><time>2026-04-18T12:16:08.887Z</time></trkpt><trkpt lat="45.90811946791407" lon="11.909038700544476"><ele>291.5</ele><time>2026-04-18T12:16:09.888Z</time></trkpt><trkpt lat="45.90805249359727" lon="11.909068729944092"><ele>291.66666666666663</ele><time>2026-04-18T12:16:11.999Z</time></trkpt><trkpt lat="45.90799722637834" lon="11.90923505229881"><ele>291.8333333333333</ele><time>2026-04-18T12:16:16.999Z</time></trkpt><trkpt lat="45.90801191887153" lon="11.909347135032991"><ele>292.0</ele><time>2026-04-18T12:16:17.999Z</time></trkpt><trkpt lat="45.90804909067583" lon="11.90946963239451"><ele>292.0</ele><time>2026-04-18T12:16:19Z</time></trkpt><trkpt lat="45.90808721869139" lon="11.909607053032557"><ele>292.0</ele><time>2026-04-18T12:16:20Z</time></trkpt><trkpt lat="45.90813306750279" lon="11.9097869001024"><ele>292.0</ele><time>2026-04-18T12:16:21Z</time></trkpt><trkpt lat="45.90817401747152" lon="11.909987231547477"><ele>292.0</ele><time>2026-04-18T12:16:22Z</time></trkpt><trkpt lat="45.90822121810873" lon="11.910169885339688"><ele>291.25</ele><time>2026-04-18T12:16:23Z</time></trkpt><trkpt lat="45.90826847698028" lon="11.910338435143416"><ele>290.5</ele><time>2026-04-18T12:16:24Z</time></trkpt><trkpt lat="45.90831367070019" lon="11.910493413673894"><ele>289.75</ele><time>2026-04-18T12:16:25Z</time></trkpt><trkpt lat="45.908357790398554" lon="11.91065781400998"><ele>289.0</ele><time>2026-04-18T12:16:26Z</time></trkpt><trkpt lat="45.908404096806564" lon="11.910826730426445"><ele>286.75</ele><time>2026-04-18T12:16:27Z</time></trkpt><trkpt lat="45.908448612797656" lon="11.910981200969367"><ele>284.5</ele><time>2026-04-18T12:16:28Z</time></trkpt><trkpt lat="45.90848876596477" lon="11.911137412161844"><ele>282.25</ele><time>2026-04-18T12:16:29Z</time></trkpt><trkpt lat="45.90852292278115" lon="11.911306176964754"><ele>280.0</ele><time>2026-04-18T12:16:30Z</time></trkpt><trkpt lat="45.908559742254205" lon="11.911472393990056"><ele>280.0</ele><time>2026-04-18T12:16:31Z</time></trkpt><trkpt lat="45.90859459103906" lon="11.911633644257918"><ele>280.0</ele><time>2026-04-18T12:16:32Z</time></trkpt><trkpt lat="45.90862462369188" lon="11.91179180502024"><ele>280.0</ele><time>2026-04-18T12:16:33Z</time></trkpt><trkpt lat="45.908659113147884" lon="11.911949551027984"><ele>280.0</ele><time>2026-04-18T12:16:34Z</time></trkpt><trkpt lat="45.90869009557369" lon="11.912116342684767"><ele>279.25</ele><time>2026-04-18T12:16:35Z</time></trkpt><trkpt lat="45.90869933392539" lon="11.912287326917381"><ele>278.5</ele><time>2026-04-18T12:16:36Z</time></trkpt><trkpt lat="45.90872163639002" lon="11.912469164938084"><ele>277.75</ele><time>2026-04-18T12:16:37Z</time></trkpt><trkpt lat="45.9087472389788" lon="11.912655086504524"><ele>277.0</ele><time>2026-04-18T12:16:38Z</time></trkpt><trkpt lat="45.90877360483251" lon="11.91282283985302"><ele>276.5</ele><time>2026-04-18T12:16:39Z</time></trkpt><trkpt lat="45.90880497424424" lon="11.912990635835552"><ele>276.0</ele><time>2026-04-18T12:16:40Z</time></trkpt><trkpt lat="45.90883756662351" lon="11.913156883962602"><ele>275.5</ele><time>2026-04-18T12:16:41Z</time></trkpt><trkpt lat="45.908874761957506" lon="11.913331889867456"><ele>275.0</ele><time>2026-04-18T12:16:42Z</time></trkpt><trkpt lat="45.90891203469948" lon="11.913500381076414"><ele>274.4</ele><time>2026-04-18T12:16:43Z</time></trkpt><trkpt lat="45.908941640066736" lon="11.913654291696524"><ele>273.8</ele><time>2026-04-18T12:16:44Z</time></trkpt><trkpt lat="45.9089854213777" lon="11.913786190818191"><ele>273.2</ele><time>2026-04-18T12:16:45Z</time></trkpt><trkpt lat="45.90901798219402" lon="11.913937838014245"><ele>272.6</ele><time>2026-04-18T12:16:46Z</time></trkpt><trkpt lat="45.90906382946218" lon="11.914073028613094"><ele>272.0</ele><time>2026-04-18T12:16:47Z</time></trkpt><trkpt lat="45.90912385915892" lon="11.914199132772076"><ele>272.0</ele><time>2026-04-18T12:16:48Z</time></trkpt><trkpt lat="45.90921588428253" lon="11.914233257758587"><ele>272.0</ele><time>2026-04-18T12:16:49Z</time></trkpt><trkpt lat="45.9093128512758" lon="11.914288930595191"><ele>272.0</ele><time>2026-04-18T12:16:50Z</time></trkpt><trkpt lat="45.90945089238206" lon="11.914365345284153"><ele>272.0</ele><time>2026-04-18T12:16:51Z</time></trkpt><trkpt lat="45.90959569418821" lon="11.914434420505708"><ele>270.25</ele><time>2026-04-18T12:16:52Z</time></trkpt><trkpt lat="45.90971369044122" lon="11.914479434611167"><ele>268.5</ele><time>2026-04-18T12:16:53Z</time></trkpt><trkpt lat="45.90983434331211" lon="11.914510408089384"><ele>266.75</ele><time>2026-04-18T12:16:54Z</time></trkpt><trkpt lat="45.90997117844341" lon="11.914526234878856"><ele>265.0</ele><time>2026-04-18T12:16:55Z</time></trkpt><trkpt lat="45.91010536078977" lon="11.914529928991023"><ele>263.0</ele><time>2026-04-18T12:16:56Z</time></trkpt><trkpt lat="45.910243742192854" lon="11.914532903682243"><ele>261.0</ele><time>2026-04-18T12:16:57Z</time></trkpt><trkpt lat="45.9104097706594" lon="11.914535435561747"><ele>259.0</ele><time>2026-04-18T12:16:58Z</time></trkpt><trkpt lat="45.91054784380436" lon="11.914537484472993"><ele>257.0</ele><time>2026-04-18T12:16:59Z</time></trkpt><trkpt lat="45.910683241822824" lon="11.914548686693019"><ele>257.0</ele><time>2026-04-18T12:17:00Z</time></trkpt><trkpt lat="45.91080832643727" lon="11.91455442178745"><ele>257.0</ele><time>2026-04-18T12:17:01Z</time></trkpt><trkpt lat="45.910936967506046" lon="11.914620381636741"><ele>257.0</ele><time>2026-04-18T12:17:02Z</time></trkpt><trkpt lat="45.9110545587545" lon="11.91469904630806"><ele>257.0</ele><time>2026-04-18T12:17:03Z</time></trkpt><trkpt lat="45.91115853813396" lon="11.914788329786441"><ele>258.0</ele><time>2026-04-18T12:17:04Z</time></trkpt><trkpt lat="45.91124103342757" lon="11.914858679996273"><ele>259.0</ele><time>2026-04-18T12:17:05Z</time></trkpt><trkpt lat="45.91132086858206" lon="11.914941744095872"><ele>260.0</ele><time>2026-04-18T12:17:06Z</time></trkpt><trkpt lat="45.91137747126347" lon="11.915110663930792"><ele>261.0</ele><time>2026-04-18T12:17:07Z</time></trkpt><trkpt lat="45.911412385720126" lon="11.915302481161381"><ele>261.75</ele><time>2026-04-18T12:17:08Z</time></trkpt><trkpt lat="45.91138297320297" lon="11.91544383784644"><ele>262.5</ele><time>2026-04-18T12:17:09Z</time></trkpt><trkpt lat="45.911369233781116" lon="11.915614249403776"><ele>263.25</ele><time>2026-04-18T12:17:10Z</time></trkpt><trkpt lat="45.91134442495053" lon="11.915823722907149"><ele>264.0</ele><time>2026-04-18T12:17:11Z</time></trkpt><trkpt lat="45.91128252700003" lon="11.916002261725163"><ele>264.0</ele><time>2026-04-18T12:17:12Z</time></trkpt><trkpt lat="45.91122794133171" lon="11.916203671207134"><ele>264.0</ele><time>2026-04-18T12:17:13Z</time></trkpt><trkpt lat="45.91112663429974" lon="11.916407903200255"><ele>264.0</ele><time>2026-04-18T12:17:14Z</time></trkpt><trkpt lat="45.911016873396946" lon="11.916613449657307"><ele>260.3333333333333</ele><time>2026-04-18T12:17:15Z</time></trkpt><trkpt lat="45.910867176491585" lon="11.916788792815401"><ele>256.66666666666663</ele><time>2026-04-18T12:17:16Z</time></trkpt><trkpt lat="45.9107642211188" lon="11.916998715615643"><ele>253.0</ele><time>2026-04-18T12:17:17Z</time></trkpt><trkpt lat="45.910677093904525" lon="11.917222895635465"><ele>253.0</ele><time>2026-04-18T12:17:18Z</time></trkpt><trkpt lat="45.910567330332384" lon="11.917493639581359"><ele>253.0</ele><time>2026-04-18T12:17:19Z</time></trkpt><trkpt lat="45.91049670344522" lon="11.917741575419152"><ele>253.0</ele><time>2026-04-18T12:17:20Z</time></trkpt><trkpt lat="45.910427977388885" lon="11.917991913533092"><ele>253.0</ele><time>2026-04-18T12:17:21Z</time></trkpt><trkpt lat="45.910354497601226" lon="11.918265799565093"><ele>253.0</ele><time>2026-04-18T12:17:22Z</time></trkpt><trkpt lat="45.910296103114874" lon="11.918528483360163"><ele>253.0</ele><time>2026-04-18T12:17:23Z</time></trkpt><trkpt lat="45.91023644637849" lon="11.91881812295778"><ele>253.0</ele><time>2026-04-18T12:17:24Z</time></trkpt><trkpt lat="45.91015096765798" lon="11.91909792115668"><ele>253.0</ele><time>2026-04-18T12:17:25Z</time></trkpt><trkpt lat="45.910058028496024" lon="11.919373908968282"><ele>253.0</ele><time>2026-04-18T12:17:26Z</time></trkpt><trkpt lat="45.909947885349084" lon="11.919639995158688"><ele>249.0</ele><time>2026-04-18T12:17:27Z</time></trkpt><trkpt lat="45.90982397320062" lon="11.91989892818692"><ele>245.0</ele><time>2026-04-18T12:17:28Z</time></trkpt><trkpt lat="45.90970521186694" lon="11.920152495110464"><ele>241.0</ele><time>2026-04-18T12:17:29Z</time></trkpt><trkpt lat="45.909587249678125" lon="11.920405385708193"><ele>241.0</ele><time>2026-04-18T12:17:30Z</time></trkpt><trkpt lat="45.90948282543192" lon="11.920670271006522"><ele>241.0</ele><time>2026-04-18T12:17:31Z</time></trkpt><trkpt lat="45.909362040211384" lon="11.920938378212842"><ele>241.0</ele><time>2026-04-18T12:17:32Z</time></trkpt><trkpt lat="45.909253423679814" lon="11.921204964969977"><ele>239.0</ele><time>2026-04-18T12:17:33Z</time></trkpt><trkpt lat="45.909133409451904" lon="11.92148536014998"><ele>237.0</ele><time>2026-04-18T12:17:34Z</time></trkpt><trkpt lat="45.90902059625901" lon="11.92174510253575"><ele>235.0</ele><time>2026-04-18T12:17:35Z</time></trkpt><trkpt lat="45.90893506107087" lon="11.921999684302623"><ele>235.0</ele><time>2026-04-18T12:17:36Z</time></trkpt><trkpt lat="45.90883901504334" lon="11.922274808057896"><ele>235.0</ele><time>2026-04-18T12:17:37Z</time></trkpt><trkpt lat="45.90875923015404" lon="11.922546944100148"><ele>235.0</ele><time>2026-04-18T12:17:38Z</time></trkpt><trkpt lat="45.90869784847204" lon="11.922855096691888"><ele>235.33333333333331</ele><time>2026-04-18T12:17:39Z</time></trkpt><trkpt lat="45.90863110272651" lon="11.923120993941238"><ele>235.66666666666669</ele><time>2026-04-18T12:17:40Z</time></trkpt><trkpt lat="45.90855537099408" lon="11.923399061678309"><ele>236.0</ele><time>2026-04-18T12:17:41Z</time></trkpt><trkpt lat="45.908493387647574" lon="11.923683800111041"><ele>234.0</ele><time>2026-04-18T12:17:42Z</time></trkpt><trkpt lat="45.9084527201491" lon="11.923972312797005"><ele>232.0</ele><time>2026-04-18T12:17:43Z</time></trkpt><trkpt lat="45.90843849110028" lon="11.92428459507011"><ele>230.0</ele><time>2026-04-18T12:17:44Z</time></trkpt><trkpt lat="45.90844515561828" lon="11.924580033816232"><ele>229.66666666666669</ele><time>2026-04-18T12:17:45Z</time></trkpt><trkpt lat="45.908455074314865" lon="11.924873279764077"><ele>229.33333333333331</ele><time>2026-04-18T12:17:46Z</time></trkpt><trkpt lat="45.908461938593824" lon="11.925180364491117"><ele>229.0</ele><time>2026-04-18T12:17:47Z</time></trkpt><trkpt lat="45.90847084763162" lon="11.925480723313035"><ele>229.0</ele><time>2026-04-18T12:17:48Z</time></trkpt><trkpt lat="45.90848980466884" lon="11.925772982926652"><ele>229.0</ele><time>2026-04-18T12:17:49Z</time></trkpt><trkpt lat="45.90847595212363" lon="11.926079892994828"><ele>229.0</ele><time>2026-04-18T12:17:50Z</time></trkpt><trkpt lat="45.90849647193404" lon="11.92635608595295"><ele>228.33333333333331</ele><time>2026-04-18T12:17:51Z</time></trkpt><trkpt lat="45.90850534359936" lon="11.926642375262018"><ele>227.66666666666669</ele><time>2026-04-18T12:17:52Z</time></trkpt><trkpt lat="45.908507689377494" lon="11.926925378953117"><ele>227.0</ele><time>2026-04-18T12:17:53Z</time></trkpt><trkpt lat="45.90848961809773" lon="11.927226588732614"><ele>224.66666666666669</ele><time>2026-04-18T12:17:54Z</time></trkpt><trkpt lat="45.908472161309106" lon="11.927523146432183"><ele>222.33333333333331</ele><time>2026-04-18T12:17:55Z</time></trkpt><trkpt lat="45.90845024463827" lon="11.92781584297564"><ele>220.0</ele><time>2026-04-18T12:17:56Z</time></trkpt><trkpt lat="45.908446567801526" lon="11.92809583714322"><ele>216.0</ele><time>2026-04-18T12:17:57Z</time></trkpt><trkpt lat="45.90841005873168" lon="11.928369777437531"><ele>212.0</ele><time>2026-04-18T12:17:58Z</time></trkpt><trkpt lat="45.90839343209775" lon="11.928633349886052"><ele>208.0</ele><time>2026-04-18T12:17:59Z</time></trkpt><trkpt lat="45.90839086225772" lon="11.928904255440152"><ele>207.0</ele><time>2026-04-18T12:18:00Z</time></trkpt><trkpt lat="45.90841770200425" lon="11.929159069552249"><ele>206.0</ele><time>2026-04-18T12:18:01Z</time></trkpt><trkpt lat="45.90845298905786" lon="11.929413092684433"><ele>205.0</ele><time>2026-04-18T12:18:02Z</time></trkpt><trkpt lat="45.90850531755415" lon="11.929646468134642"><ele>204.33333333333331</ele><time>2026-04-18T12:18:03Z</time></trkpt><trkpt lat="45.908565715060774" lon="11.92988362153085"><ele>203.66666666666669</ele><time>2026-04-18T12:18:04Z</time></trkpt><trkpt lat="45.908645512597104" lon="11.930139563358457"><ele>203.0</ele><time>2026-04-18T12:18:05Z</time></trkpt><trkpt lat="45.9087120495448" lon="11.930386087335654"><ele>201.0</ele><time>2026-04-18T12:18:06Z</time></trkpt><trkpt lat="45.90877583471021" lon="11.930630440657113"><ele>199.0</ele><time>2026-04-18T12:18:07Z</time></trkpt><trkpt lat="45.90884015912964" lon="11.930859066006624"><ele>197.0</ele><time>2026-04-18T12:18:08Z</time></trkpt><trkpt lat="45.90888556050526" lon="11.931051878470477"><ele>196.25</ele><time>2026-04-18T12:18:09Z</time></trkpt><trkpt lat="45.90893894636748" lon="11.931247957858787"><ele>195.5</ele><time>2026-04-18T12:18:10Z</time></trkpt><trkpt lat="45.908981385263054" lon="11.931429536211473"><ele>194.75</ele><time>2026-04-18T12:18:11Z</time></trkpt><trkpt lat="45.909030627467246" lon="11.931626545791602"><ele>194.0</ele><time>2026-04-18T12:18:12Z</time></trkpt><trkpt lat="45.90906641141166" lon="11.93177134385477"><ele>193.39999999999998</ele><time>2026-04-18T12:18:13Z</time></trkpt><trkpt lat="45.90910441814302" lon="11.93189244360919"><ele>192.8</ele><time>2026-04-18T12:18:14Z</time></trkpt><trkpt lat="45.909121130881296" lon="11.932035704920766"><ele>192.2</ele><time>2026-04-18T12:18:15Z</time></trkpt><trkpt lat="45.90910624851627" lon="11.932186196184551"><ele>191.60000000000002</ele><time>2026-04-18T12:18:16Z</time></trkpt><trkpt lat="45.909042855712045" lon="11.932301742165023"><ele>191.0</ele><time>2026-04-18T12:18:17Z</time></trkpt><trkpt lat="45.90896822591588" lon="11.932445804287376"><ele>191.5</ele><time>2026-04-18T12:18:18.002Z</time></trkpt><trkpt lat="45.9088794155025" lon="11.93257957301471"><ele>192.0</ele><time>2026-04-18T12:18:19.002Z</time></trkpt><trkpt lat="45.90880905308888" lon="11.932714546049429"><ele>192.5</ele><time>2026-04-18T12:18:20.001Z</time></trkpt><trkpt lat="45.90874317293503" lon="11.932835671699511"><ele>193.0</ele><time>2026-04-18T12:18:21.001Z</time></trkpt><trkpt lat="45.90868006979228" lon="11.932970647515258"><ele>193.0</ele><time>2026-04-18T12:18:22.001Z</time></trkpt><trkpt lat="45.90861288174565" lon="11.933115768931188"><ele>193.0</ele><time>2026-04-18T12:18:23.001Z</time></trkpt><trkpt lat="45.90853845310503" lon="11.933256125298504"><ele>193.0</ele><time>2026-04-18T12:18:24.001Z</time></trkpt><trkpt lat="45.90847190294465" lon="11.933382172410452"><ele>193.0</ele><time>2026-04-18T12:18:25.001Z</time></trkpt><trkpt lat="45.908392060245504" lon="11.933507328903335"><ele>193.2</ele><time>2026-04-18T12:18:26.001Z</time></trkpt><trkpt lat="45.90832137468737" lon="11.93361081116131"><ele>193.4</ele><time>2026-04-18T12:18:27.001Z</time></trkpt><trkpt lat="45.90825370928201" lon="11.933709550126261"><ele>193.6</ele><time>2026-04-18T12:18:28.001Z</time></trkpt><trkpt lat="45.90818430759819" lon="11.933785865191753"><ele>193.79999999999998</ele><time>2026-04-18T12:18:29.001Z</time></trkpt><trkpt lat="45.90813106639744" lon="11.933866660572745"><ele>194.0</ele><time>2026-04-18T12:18:30.001Z</time></trkpt><trkpt lat="45.90806838130978" lon="11.933962325224783"><ele>194.0</ele><time>2026-04-18T12:18:32.001Z</time></trkpt><trkpt lat="45.90801967338083" lon="11.934062308706528"><ele>194.0</ele><time>2026-04-18T12:18:35.001Z</time></trkpt><trkpt lat="45.90796823751425" lon="11.93411594942004"><ele>194.0</ele><time>2026-04-18T12:18:36.001Z</time></trkpt><trkpt lat="45.90783477511198" lon="11.934205687279984"><ele>194.0</ele><time>2026-04-18T12:18:38.001Z</time></trkpt><trkpt lat="45.90776553935607" lon="11.934305812288846"><ele>194.0</ele><time>2026-04-18T12:18:39.001Z</time></trkpt><trkpt lat="45.90769349636107" lon="11.934404347550307"><ele>194.6</ele><time>2026-04-18T12:18:40.001Z</time></trkpt><trkpt lat="45.90765359590959" lon="11.934521631564266"><ele>195.2</ele><time>2026-04-18T12:18:41.001Z</time></trkpt><trkpt lat="45.90760255581097" lon="11.934638420259994"><ele>195.79999999999998</ele><time>2026-04-18T12:18:42.001Z</time></trkpt><trkpt lat="45.90752750667659" lon="11.934785318785083"><ele>196.39999999999998</ele><time>2026-04-18T12:18:43Z</time></trkpt><trkpt lat="45.90745465638868" lon="11.934939785506687"><ele>197.0</ele><time>2026-04-18T12:18:44Z</time></trkpt><trkpt lat="45.90738407190424" lon="11.93510098953544"><ele>195.25</ele><time>2026-04-18T12:18:45Z</time></trkpt><trkpt lat="45.907313633013054" lon="11.935249906733556"><ele>193.5</ele><time>2026-04-18T12:18:46Z</time></trkpt><trkpt lat="45.90723970722077" lon="11.935406619521691"><ele>191.75</ele><time>2026-04-18T12:18:47Z</time></trkpt><trkpt lat="45.907167679338336" lon="11.935562569337655"><ele>190.0</ele><time>2026-04-18T12:18:48Z</time></trkpt><trkpt lat="45.90710361247432" lon="11.935725058567046"><ele>190.0</ele><time>2026-04-18T12:18:49Z</time></trkpt><trkpt lat="45.90702624259588" lon="11.93587629231111"><ele>190.0</ele><time>2026-04-18T12:18:50Z</time></trkpt><trkpt lat="45.9069511293477" lon="11.936036176694815"><ele>190.0</ele><time>2026-04-18T12:18:51Z</time></trkpt><trkpt lat="45.90686518956724" lon="11.936179227005416"><ele>190.0</ele><time>2026-04-18T12:18:52Z</time></trkpt><trkpt lat="45.906791600966606" lon="11.936339694940429"><ele>190.75</ele><time>2026-04-18T12:18:53Z</time></trkpt><trkpt lat="45.9067087417425" lon="11.936493492637181"><ele>191.5</ele><time>2026-04-18T12:18:54Z</time></trkpt><trkpt lat="45.906601440190045" lon="11.936642584016573"><ele>192.25</ele><time>2026-04-18T12:18:55Z</time></trkpt><trkpt lat="45.906524789159285" lon="11.936781234409334"><ele>193.0</ele><time>2026-04-18T12:18:56Z</time></trkpt><trkpt lat="45.90642890194507" lon="11.936907390103805"><ele>191.5</ele><time>2026-04-18T12:18:57Z</time></trkpt><trkpt lat="45.90632705325021" lon="11.937051436328819"><ele>190.0</ele><time>2026-04-18T12:18:58Z</time></trkpt><trkpt lat="45.9062334179576" lon="11.937198670052544"><ele>188.5</ele><time>2026-04-18T12:18:59Z</time></trkpt><trkpt lat="45.906144394510285" lon="11.93735492537047"><ele>187.0</ele><time>2026-04-18T12:19:00Z</time></trkpt><trkpt lat="45.90606873269312" lon="11.937517245723978"><ele>186.25</ele><time>2026-04-18T12:19:01Z</time></trkpt><trkpt lat="45.90600855357837" lon="11.937682904795302"><ele>185.5</ele><time>2026-04-18T12:19:02Z</time></trkpt><trkpt lat="45.90596932961105" lon="11.93784450721975"><ele>184.75</ele><time>2026-04-18T12:19:03Z</time></trkpt><trkpt lat="45.90590916493743" lon="11.938014446138835"><ele>184.0</ele><time>2026-04-18T12:19:04Z</time></trkpt><trkpt lat="45.905850708641616" lon="11.938173729026936"><ele>184.75</ele><time>2026-04-18T12:19:05Z</time></trkpt><trkpt lat="45.90580691878699" lon="11.938326037638914"><ele>185.5</ele><time>2026-04-18T12:19:06Z</time></trkpt><trkpt lat="45.905755360010765" lon="11.938476909082466"><ele>186.25</ele><time>2026-04-18T12:19:07Z</time></trkpt><trkpt lat="45.90569054557715" lon="11.938638097275492"><ele>187.0</ele><time>2026-04-18T12:19:08Z</time></trkpt><trkpt lat="45.90564119197958" lon="11.938786103928518"><ele>187.0</ele><time>2026-04-18T12:19:09Z</time></trkpt><trkpt lat="45.90557920344633" lon="11.938952766346624"><ele>187.0</ele><time>2026-04-18T12:19:10Z</time></trkpt><trkpt lat="45.90555943882153" lon="11.939121051746923"><ele>187.0</ele><time>2026-04-18T12:19:11Z</time></trkpt><trkpt lat="45.90555550747642" lon="11.939279797085577"><ele>187.0</ele><time>2026-04-18T12:19:12Z</time></trkpt><trkpt lat="45.9055478089641" lon="11.939444794798602"><ele>186.25</ele><time>2026-04-18T12:19:13Z</time></trkpt><trkpt lat="45.905538896397104" lon="11.939610099503474"><ele>185.5</ele><time>2026-04-18T12:19:14Z</time></trkpt><trkpt lat="45.905530727833415" lon="11.939769176652922"><ele>184.75</ele><time>2026-04-18T12:19:15Z</time></trkpt><trkpt lat="45.905520248279046" lon="11.93993516506401"><ele>184.0</ele><time>2026-04-18T12:19:16Z</time></trkpt><trkpt lat="45.905498778113824" lon="11.940091649376335"><ele>184.0</ele><time>2026-04-18T12:19:17Z</time></trkpt><trkpt lat="45.90547720451046" lon="11.940249938481736"><ele>184.0</ele><time>2026-04-18T12:19:18Z</time></trkpt><trkpt lat="45.90544688494221" lon="11.940385108362314"><ele>184.0</ele><time>2026-04-18T12:19:19Z</time></trkpt><trkpt lat="45.90539277036074" lon="11.940516572172557"><ele>184.0</ele><time>2026-04-18T12:19:20Z</time></trkpt><trkpt lat="45.9053520340293" lon="11.9406312497986"><ele>184.0</ele><time>2026-04-18T12:19:21Z</time></trkpt><trkpt lat="45.905292972320865" lon="11.940746314348765"><ele>184.0</ele><time>2026-04-18T12:19:22Z</time></trkpt><trkpt lat="45.90521685664466" lon="11.940848491675228"><ele>184.0</ele><time>2026-04-18T12:19:23Z</time></trkpt><trkpt lat="45.905134382971376" lon="11.940958173475096"><ele>184.0</ele><time>2026-04-18T12:19:24Z</time></trkpt><trkpt lat="45.90507653796703" lon="11.941087021205572"><ele>184.0</ele><time>2026-04-18T12:19:25Z</time></trkpt><trkpt lat="45.90503796292911" lon="11.941226193557526"><ele>184.0</ele><time>2026-04-18T12:19:26Z</time></trkpt><trkpt lat="45.90499723579668" lon="11.94134800262805"><ele>185.2</ele><time>2026-04-18T12:19:27Z</time></trkpt><trkpt lat="45.90491706609995" lon="11.9414580803801"><ele>186.39999999999998</ele><time>2026-04-18T12:19:28Z</time></trkpt><trkpt lat="45.904825368861765" lon="11.941532361214417"><ele>187.6</ele><time>2026-04-18T12:19:29Z</time></trkpt><trkpt lat="45.90471618678014" lon="11.941594688294296"><ele>188.8</ele><time>2026-04-18T12:19:30Z</time></trkpt><trkpt lat="45.904606436291395" lon="11.941637153934806"><ele>190.0</ele><time>2026-04-18T12:19:31Z</time></trkpt><trkpt lat="45.90450396643224" lon="11.941665406081484"><ele>190.0</ele><time>2026-04-18T12:19:32Z</time></trkpt><trkpt lat="45.904415322425294" lon="11.941694727609788"><ele>190.0</ele><time>2026-04-18T12:19:33Z</time></trkpt><trkpt lat="45.904325011311634" lon="11.9417340186662"><ele>190.0</ele><time>2026-04-18T12:19:34Z</time></trkpt><trkpt lat="45.90423700016301" lon="11.941772473311378"><ele>190.0</ele><time>2026-04-18T12:19:35Z</time></trkpt><trkpt lat="45.904135233266715" lon="11.941810487037792"><ele>190.0</ele><time>2026-04-18T12:19:36Z</time></trkpt><trkpt lat="45.90403326796112" lon="11.941851455515595"><ele>189.75</ele><time>2026-04-18T12:19:37Z</time></trkpt><trkpt lat="45.903933128331985" lon="11.941901500919816"><ele>189.5</ele><time>2026-04-18T12:19:38Z</time></trkpt><trkpt lat="45.90381899227215" lon="11.941943128794389"><ele>189.25</ele><time>2026-04-18T12:19:39Z</time></trkpt><trkpt lat="45.90368705625511" lon="11.941982701657698"><ele>189.0</ele><time>2026-04-18T12:19:40Z</time></trkpt><trkpt lat="45.90357020357573" lon="11.942031838229585"><ele>189.0</ele><time>2026-04-18T12:19:41Z</time></trkpt><trkpt lat="45.903453408354196" lon="11.942068503033017"><ele>189.0</ele><time>2026-04-18T12:19:42Z</time></trkpt><trkpt lat="45.90333745604294" lon="11.942136450889217"><ele>189.0</ele><time>2026-04-18T12:19:43Z</time></trkpt><trkpt lat="45.90320919110648" lon="11.942183156273732"><ele>189.0</ele><time>2026-04-18T12:19:44Z</time></trkpt><trkpt lat="45.903078476335324" lon="11.942225331015768"><ele>189.25</ele><time>2026-04-18T12:19:45Z</time></trkpt><trkpt lat="45.90295303349258" lon="11.942273338069988"><ele>189.5</ele><time>2026-04-18T12:19:46Z</time></trkpt><trkpt lat="45.902820737782314" lon="11.942310255133444"><ele>189.75</ele><time>2026-04-18T12:19:47Z</time></trkpt><trkpt lat="45.90268287328416" lon="11.94235706166294"><ele>190.0</ele><time>2026-04-18T12:19:48Z</time></trkpt><trkpt lat="45.90253593289726" lon="11.942401378101033"><ele>189.5</ele><time>2026-04-18T12:19:49Z</time></trkpt><trkpt lat="45.90239232576414" lon="11.942445340655185"><ele>189.0</ele><time>2026-04-18T12:19:50Z</time></trkpt><trkpt lat="45.902255375460435" lon="11.94247755914233"><ele>188.5</ele><time>2026-04-18T12:19:51Z</time></trkpt><trkpt lat="45.902114403819674" lon="11.942511324219044"><ele>188.0</ele><time>2026-04-18T12:19:52Z</time></trkpt><trkpt lat="45.901980568817244" lon="11.942558696026353"><ele>188.0</ele><time>2026-04-18T12:19:53Z</time></trkpt><trkpt lat="45.90183332903363" lon="11.942583770043607"><ele>188.0</ele><time>2026-04-18T12:19:54Z</time></trkpt><trkpt lat="45.90169378337884" lon="11.942625387005382"><ele>188.0</ele><time>2026-04-18T12:19:55Z</time></trkpt><trkpt lat="45.90155560981177" lon="11.942676241205014"><ele>188.0</ele><time>2026-04-18T12:19:56Z</time></trkpt><trkpt lat="45.90141696815035" lon="11.942710140432622"><ele>187.5</ele><time>2026-04-18T12:19:57Z</time></trkpt><trkpt lat="45.90127767788223" lon="11.942730317366669"><ele>187.0</ele><time>2026-04-18T12:19:58Z</time></trkpt><trkpt lat="45.90113392847967" lon="11.942753855934637"><ele>186.5</ele><time>2026-04-18T12:19:59Z</time></trkpt><trkpt lat="45.90100295580228" lon="11.942798151424887"><ele>186.0</ele><time>2026-04-18T12:20:00Z</time></trkpt><trkpt lat="45.90086936168473" lon="11.942822859651294"><ele>186.0</ele><time>2026-04-18T12:20:01Z</time></trkpt><trkpt lat="45.900746399786236" lon="11.942823893645842"><ele>186.0</ele><time>2026-04-18T12:20:02Z</time></trkpt><trkpt lat="45.90062655329598" lon="11.9428369554556"><ele>186.0</ele><time>2026-04-18T12:20:03Z</time></trkpt><trkpt lat="45.90051494889444" lon="11.942861094459408"><ele>186.0</ele><time>2026-04-18T12:20:04Z</time></trkpt><trkpt lat="45.90040030409914" lon="11.942852197103921"><ele>186.0</ele><time>2026-04-18T12:20:05Z</time></trkpt><trkpt lat="45.900278221326225" lon="11.94288475771081"><ele>186.0</ele><time>2026-04-18T12:20:06Z</time></trkpt><trkpt lat="45.90017099042871" lon="11.942893206732572"><ele>186.0</ele><time>2026-04-18T12:20:07Z</time></trkpt><trkpt lat="45.9000731309442" lon="11.942897437602845"><ele>186.0</ele><time>2026-04-18T12:20:08Z</time></trkpt><trkpt lat="45.89998212128946" lon="11.942902021426901"><ele>186.0</ele><time>2026-04-18T12:20:09Z</time></trkpt><trkpt lat="45.899891089803404" lon="11.942897335902114"><ele>185.66666666666666</ele><time>2026-04-18T12:20:11Z</time></trkpt><trkpt lat="45.8998158786941" lon="11.942861731342937"><ele>185.33333333333334</ele><time>2026-04-18T12:20:15Z</time></trkpt><trkpt lat="45.89974241447093" lon="11.942855144735097"><ele>185.0</ele><time>2026-04-18T12:20:16Z</time></trkpt><trkpt lat="45.89968424775196" lon="11.942805832268322"><ele>184.66666666666669</ele><time>2026-04-18T12:20:17Z</time></trkpt><trkpt lat="45.89959633828154" lon="11.942792606180333"><ele>184.33333333333334</ele><time>2026-04-18T12:20:18Z</time></trkpt><trkpt lat="45.899510071973566" lon="11.942854208354978"><ele>184.0</ele><time>2026-04-18T12:20:19Z</time></trkpt><trkpt lat="45.8993750819239" lon="11.942755509614784"><ele>182.66666666666669</ele><time>2026-04-18T12:20:20Z</time></trkpt><trkpt lat="45.89924825260709" lon="11.942694963702435"><ele>181.33333333333334</ele><time>2026-04-18T12:20:21Z</time></trkpt><trkpt lat="45.899095889257445" lon="11.942632836824938"><ele>180.0</ele><time>2026-04-18T12:20:22Z</time></trkpt><trkpt lat="45.89892582260118" lon="11.942597654084315"><ele>180.0</ele><time>2026-04-18T12:20:23Z</time></trkpt><trkpt lat="45.89874677368343" lon="11.942565410284509"><ele>180.0</ele><time>2026-04-18T12:20:24.001Z</time></trkpt><trkpt lat="45.898549017437446" lon="11.942536448888985"><ele>180.0</ele><time>2026-04-18T12:20:25.001Z</time></trkpt><trkpt lat="45.89833878057785" lon="11.942549217072301"><ele>178.0</ele><time>2026-04-18T12:20:26.001Z</time></trkpt><trkpt lat="45.89814693969297" lon="11.942561773830779"><ele>176.0</ele><time>2026-04-18T12:20:27.001Z</time></trkpt><trkpt lat="45.8979596141328" lon="11.94259060592566"><ele>174.0</ele><time>2026-04-18T12:20:28.001Z</time></trkpt><trkpt lat="45.897778168861706" lon="11.942606592724324"><ele>174.0</ele><time>2026-04-18T12:20:29.001Z</time></trkpt><trkpt lat="45.897600329459856" lon="11.942626811833415"><ele>174.0</ele><time>2026-04-18T12:20:30.001Z</time></trkpt><trkpt lat="45.89743519281072" lon="11.942645648506227"><ele>174.0</ele><time>2026-04-18T12:20:31.001Z</time></trkpt><trkpt lat="45.897266259256206" lon="11.942643553252479"><ele>174.0</ele><time>2026-04-18T12:20:32.001Z</time></trkpt><trkpt lat="45.897101150108185" lon="11.94264142277225"><ele>174.0</ele><time>2026-04-18T12:20:33.001Z</time></trkpt><trkpt lat="45.896933850408956" lon="11.942625373566466"><ele>174.0</ele><time>2026-04-18T12:20:34.001Z</time></trkpt><trkpt lat="45.896760998984846" lon="11.94260962662129"><ele>174.66666666666666</ele><time>2026-04-18T12:20:35.001Z</time></trkpt><trkpt lat="45.89659042703182" lon="11.942588884237553"><ele>175.33333333333331</ele><time>2026-04-18T12:20:36.001Z</time></trkpt><trkpt lat="45.89641870262274" lon="11.94256064470043"><ele>176.0</ele><time>2026-04-18T12:20:37.001Z</time></trkpt><trkpt lat="45.89624729691519" lon="11.942533398089845"><ele>178.33333333333331</ele><time>2026-04-18T12:20:38Z</time></trkpt><trkpt lat="45.89606892384841" lon="11.942499766697761"><ele>180.66666666666666</ele><time>2026-04-18T12:20:39Z</time></trkpt><trkpt lat="45.89589067946867" lon="11.942468577822218"><ele>183.0</ele><time>2026-04-18T12:20:40Z</time></trkpt><trkpt lat="45.895710117983896" lon="11.942437704662122"><ele>183.0</ele><time>2026-04-18T12:20:41Z</time></trkpt><trkpt lat="45.89553659397785" lon="11.942411506125888"><ele>183.0</ele><time>2026-04-18T12:20:42Z</time></trkpt><trkpt lat="45.89537090278954" lon="11.942392374661209"><ele>183.0</ele><time>2026-04-18T12:20:43Z</time></trkpt><trkpt lat="45.89520073560654" lon="11.942362363017354"><ele>181.33333333333334</ele><time>2026-04-18T12:20:44Z</time></trkpt><trkpt lat="45.89502744239206" lon="11.942344685383892"><ele>179.66666666666669</ele><time>2026-04-18T12:20:45Z</time></trkpt><trkpt lat="45.89486333241825" lon="11.942329191087655"><ele>178.0</ele><time>2026-04-18T12:20:46Z</time></trkpt><trkpt lat="45.89469729681608" lon="11.942306415295942"><ele>178.0</ele><time>2026-04-18T12:20:47Z</time></trkpt><trkpt lat="45.894528297470174" lon="11.942290414615535"><ele>178.0</ele><time>2026-04-18T12:20:48Z</time></trkpt><trkpt lat="45.89434838811667" lon="11.942294322805292"><ele>178.0</ele><time>2026-04-18T12:20:49Z</time></trkpt><trkpt lat="45.894186857832345" lon="11.942342348760949"><ele>179.33333333333334</ele><time>2026-04-18T12:20:50Z</time></trkpt><trkpt lat="45.89402016206997" lon="11.942422036934257"><ele>180.66666666666666</ele><time>2026-04-18T12:20:51Z</time></trkpt><trkpt lat="45.89386062212957" lon="11.94250139355224"><ele>182.0</ele><time>2026-04-18T12:20:52Z</time></trkpt><trkpt lat="45.89370922376792" lon="11.942598374575844"><ele>180.66666666666666</ele><time>2026-04-18T12:20:53Z</time></trkpt><trkpt lat="45.89356235774288" lon="11.94272134943781"><ele>179.33333333333334</ele><time>2026-04-18T12:20:54Z</time></trkpt><trkpt lat="45.893422335355886" lon="11.942842761213726"><ele>178.0</ele><time>2026-04-18T12:20:55Z</time></trkpt><trkpt lat="45.89327329524086" lon="11.942963567250047"><ele>178.0</ele><time>2026-04-18T12:20:56Z</time></trkpt><trkpt lat="45.89311113685873" lon="11.943072900709797"><ele>178.0</ele><time>2026-04-18T12:20:57Z</time></trkpt><trkpt lat="45.89297337344969" lon="11.943167591622435"><ele>178.0</ele><time>2026-04-18T12:20:58Z</time></trkpt><trkpt lat="45.89282140728168" lon="11.94327617563803"><ele>178.0</ele><time>2026-04-18T12:20:59Z</time></trkpt><trkpt lat="45.89265192310817" lon="11.943373002387164"><ele>178.0</ele><time>2026-04-18T12:21:00Z</time></trkpt><trkpt lat="45.89246838712512" lon="11.94346189523149"><ele>178.0</ele><time>2026-04-18T12:21:01Z</time></trkpt><trkpt lat="45.89229174960672" lon="11.943524354721896"><ele>177.33333333333334</ele><time>2026-04-18T12:21:02Z</time></trkpt><trkpt lat="45.89212308599776" lon="11.943581913016303"><ele>176.66666666666666</ele><time>2026-04-18T12:21:03Z</time></trkpt><trkpt lat="45.89194349896988" lon="11.943630574128512"><ele>176.0</ele><time>2026-04-18T12:21:04Z</time></trkpt><trkpt lat="45.89176640336449" lon="11.94367157723249"><ele>175.66666666666666</ele><time>2026-04-18T12:21:05Z</time></trkpt><trkpt lat="45.89158364872267" lon="11.943716796500539"><ele>175.33333333333334</ele><time>2026-04-18T12:21:06Z</time></trkpt><trkpt lat="45.89139874840245" lon="11.943750813020655"><ele>175.0</ele><time>2026-04-18T12:21:07Z</time></trkpt><trkpt lat="45.89122466533071" lon="11.943786903538527"><ele>175.0</ele><time>2026-04-18T12:21:08Z</time></trkpt><trkpt lat="45.89104362796818" lon="11.943825862712956"><ele>175.0</ele><time>2026-04-18T12:21:09Z</time></trkpt><trkpt lat="45.89086098521355" lon="11.943854551710144"><ele>175.0</ele><time>2026-04-18T12:21:10Z</time></trkpt><trkpt lat="45.890685650679444" lon="11.943883851481376"><ele>175.33333333333334</ele><time>2026-04-18T12:21:11Z</time></trkpt><trkpt lat="45.89051445250163" lon="11.943919222013756"><ele>175.66666666666666</ele><time>2026-04-18T12:21:12Z</time></trkpt><trkpt lat="45.89033562585257" lon="11.943979439956426"><ele>176.0</ele><time>2026-04-18T12:21:13Z</time></trkpt><trkpt lat="45.89016423219428" lon="11.94406533042429"><ele>175.33333333333331</ele><time>2026-04-18T12:21:14Z</time></trkpt><trkpt lat="45.88999757846756" lon="11.944183574314238"><ele>174.66666666666666</ele><time>2026-04-18T12:21:15Z</time></trkpt><trkpt lat="45.889838726579896" lon="11.94431604899213"><ele>174.0</ele><time>2026-04-18T12:21:16Z</time></trkpt><trkpt lat="45.889688261662656" lon="11.944450866591623"><ele>174.0</ele><time>2026-04-18T12:21:17Z</time></trkpt><trkpt lat="45.889544281464836" lon="11.94457464194239"><ele>174.0</ele><time>2026-04-18T12:21:18Z</time></trkpt><trkpt lat="45.88940393749005" lon="11.944697921642774"><ele>174.0</ele><time>2026-04-18T12:21:19Z</time></trkpt><trkpt lat="45.889257734506806" lon="11.944825321028473"><ele>172.33333333333334</ele><time>2026-04-18T12:21:20Z</time></trkpt><trkpt lat="45.889117501035464" lon="11.944958596078482"><ele>170.66666666666669</ele><time>2026-04-18T12:21:21Z</time></trkpt><trkpt lat="45.888974307426345" lon="11.945082003558435"><ele>169.0</ele><time>2026-04-18T12:21:22Z</time></trkpt><trkpt lat="45.88882946658918" lon="11.945212667069276"><ele>169.0</ele><time>2026-04-18T12:21:23Z</time></trkpt><trkpt lat="45.888689618080925" lon="11.945332956862954"><ele>169.0</ele><time>2026-04-18T12:21:24Z</time></trkpt><trkpt lat="45.88854980891195" lon="11.945471665797575"><ele>169.0</ele><time>2026-04-18T12:21:25Z</time></trkpt><trkpt lat="45.88841380101658" lon="11.945606407195102"><ele>169.33333333333334</ele><time>2026-04-18T12:21:26Z</time></trkpt><trkpt lat="45.88827282319656" lon="11.945746952544546"><ele>169.66666666666666</ele><time>2026-04-18T12:21:27Z</time></trkpt><trkpt lat="45.88812552339755" lon="11.945874971489356"><ele>170.0</ele><time>2026-04-18T12:21:28Z</time></trkpt><trkpt lat="45.88797839299921" lon="11.946011689680203"><ele>170.0</ele><time>2026-04-18T12:21:29Z</time></trkpt><trkpt lat="45.88781941100515" lon="11.946134157273926"><ele>170.0</ele><time>2026-04-18T12:21:30Z</time></trkpt><trkpt lat="45.88767686893538" lon="11.946264722230437"><ele>170.0</ele><time>2026-04-18T12:21:31Z</time></trkpt><trkpt lat="45.88752649577508" lon="11.946403346133556"><ele>170.0</ele><time>2026-04-18T12:21:32Z</time></trkpt><trkpt lat="45.88738640906612" lon="11.946532067741519"><ele>170.0</ele><time>2026-04-18T12:21:33Z</time></trkpt><trkpt lat="45.88723630418999" lon="11.946668937962189"><ele>170.0</ele><time>2026-04-18T12:21:34Z</time></trkpt><trkpt lat="45.88708096267886" lon="11.94681006349691"><ele>170.0</ele><time>2026-04-18T12:21:35Z</time></trkpt><trkpt lat="45.886919728570156" lon="11.946952783350177"><ele>170.0</ele><time>2026-04-18T12:21:36Z</time></trkpt><trkpt lat="45.88677696450039" lon="11.947084598810545"><ele>170.0</ele><time>2026-04-18T12:21:37Z</time></trkpt><trkpt lat="45.88662949096036" lon="11.947238697131484"><ele>169.66666666666666</ele><time>2026-04-18T12:21:38Z</time></trkpt><trkpt lat="45.88649981006354" lon="11.947410753447846"><ele>169.33333333333334</ele><time>2026-04-18T12:21:39Z</time></trkpt><trkpt lat="45.886381232942696" lon="11.947607072029928"><ele>169.0</ele><time>2026-04-18T12:21:40Z</time></trkpt><trkpt lat="45.886280683254796" lon="11.94779266496833"><ele>169.0</ele><time>2026-04-18T12:21:41Z</time></trkpt><trkpt lat="45.886176805568645" lon="11.947998253972829"><ele>169.0</ele><time>2026-04-18T12:21:42Z</time></trkpt><trkpt lat="45.886076067738905" lon="11.948214319459668"><ele>169.0</ele><time>2026-04-18T12:21:43Z</time></trkpt><trkpt lat="45.88598339160565" lon="11.948419089705409"><ele>173.33333333333334</ele><time>2026-04-18T12:21:44Z</time></trkpt><trkpt lat="45.885895694992314" lon="11.948620852814164"><ele>177.66666666666666</ele><time>2026-04-18T12:21:45Z</time></trkpt><trkpt lat="45.885808293438494" lon="11.948845316203894"><ele>182.0</ele><time>2026-04-18T12:21:46Z</time></trkpt><trkpt lat="45.885733051796635" lon="11.949060047302497"><ele>178.0</ele><time>2026-04-18T12:21:47Z</time></trkpt><trkpt lat="45.88565373057224" lon="11.949280232145538"><ele>174.0</ele><time>2026-04-18T12:21:48Z</time></trkpt><trkpt lat="45.885576893756344" lon="11.949499795487029"><ele>170.0</ele><time>2026-04-18T12:21:49Z</time></trkpt><trkpt lat="45.88550499803771" lon="11.949718427511888"><ele>170.0</ele><time>2026-04-18T12:21:49.999Z</time></trkpt><trkpt lat="45.885459305338145" lon="11.9499532652254"><ele>170.0</ele><time>2026-04-18T12:21:50.999Z</time></trkpt><trkpt lat="45.88540546108706" lon="11.950176917057028"><ele>170.0</ele><time>2026-04-18T12:21:51.999Z</time></trkpt><trkpt lat="45.88534263028996" lon="11.950394951037879"><ele>168.66666666666666</ele><time>2026-04-18T12:21:52.999Z</time></trkpt><trkpt lat="45.8852902976672" lon="11.950634073395445"><ele>167.33333333333334</ele><time>2026-04-18T12:21:53.999Z</time></trkpt><trkpt lat="45.885238455109764" lon="11.950872906834531"><ele>166.0</ele><time>2026-04-18T12:21:54.999Z</time></trkpt><trkpt lat="45.885192606125294" lon="11.951087375766589"><ele>166.0</ele><time>2026-04-18T12:21:55.999Z</time></trkpt><trkpt lat="45.88514513315342" lon="11.95130958516443"><ele>166.0</ele><time>2026-04-18T12:21:56.999Z</time></trkpt><trkpt lat="45.88509898385323" lon="11.951534626994604"><ele>166.0</ele><time>2026-04-18T12:21:57.999Z</time></trkpt><trkpt lat="45.88506900848478" lon="11.951763133978345"><ele>172.0</ele><time>2026-04-18T12:21:58.999Z</time></trkpt><trkpt lat="45.88502844190667" lon="11.95198092956667"><ele>178.0</ele><time>2026-04-18T12:21:59.999Z</time></trkpt><trkpt lat="45.884989906140014" lon="11.952208054747981"><ele>184.0</ele><time>2026-04-18T12:22:00.999Z</time></trkpt><trkpt lat="45.88494291019819" lon="11.952412726314389"><ele>181.66666666666669</ele><time>2026-04-18T12:22:01.999Z</time></trkpt><trkpt lat="45.884905340902364" lon="11.952640153439186"><ele>179.33333333333334</ele><time>2026-04-18T12:22:02.999Z</time></trkpt><trkpt lat="45.88486810621834" lon="11.952863636387413"><ele>177.0</ele><time>2026-04-18T12:22:03.999Z</time></trkpt><trkpt lat="45.884829629760496" lon="11.953093648817944"><ele>177.0</ele><time>2026-04-18T12:22:04.999Z</time></trkpt><trkpt lat="45.88479224975664" lon="11.953325226569206"><ele>177.0</ele><time>2026-04-18T12:22:05.999Z</time></trkpt><trkpt lat="45.884751988599376" lon="11.953568646804941"><ele>177.0</ele><time>2026-04-18T12:22:06.999Z</time></trkpt><trkpt lat="45.8847047449849" lon="11.953794319072383"><ele>175.33333333333334</ele><time>2026-04-18T12:22:07.999Z</time></trkpt><trkpt lat="45.88463590663912" lon="11.954027160969712"><ele>173.66666666666669</ele><time>2026-04-18T12:22:08.999Z</time></trkpt><trkpt lat="45.884550309527036" lon="11.954231205233457"><ele>172.0</ele><time>2026-04-18T12:22:09.999Z</time></trkpt><trkpt lat="45.88444746267725" lon="11.954423322144653"><ele>172.0</ele><time>2026-04-18T12:22:10.999Z</time></trkpt><trkpt lat="45.88433465295779" lon="11.95461161257342"><ele>172.0</ele><time>2026-04-18T12:22:11.999Z</time></trkpt><trkpt lat="45.88422647810131" lon="11.95479341007999"><ele>172.0</ele><time>2026-04-18T12:22:12.999Z</time></trkpt><trkpt lat="45.884121027724724" lon="11.95497015481627"><ele>171.0</ele><time>2026-04-18T12:22:13.999Z</time></trkpt><trkpt lat="45.88400355142586" lon="11.9551670558258"><ele>170.0</ele><time>2026-04-18T12:22:14.999Z</time></trkpt><trkpt lat="45.883893987963816" lon="11.955350694500364"><ele>169.0</ele><time>2026-04-18T12:22:15.999Z</time></trkpt><trkpt lat="45.8837785911319" lon="11.955543903708783"><ele>169.0</ele><time>2026-04-18T12:22:16.999Z</time></trkpt><trkpt lat="45.88366279709175" lon="11.955737830524768"><ele>169.0</ele><time>2026-04-18T12:22:17.999Z</time></trkpt><trkpt lat="45.88354836649986" lon="11.955929837084813"><ele>169.0</ele><time>2026-04-18T12:22:18.999Z</time></trkpt><trkpt lat="45.88343542398353" lon="11.956117514391353"><ele>168.66666666666669</ele><time>2026-04-18T12:22:19.999Z</time></trkpt><trkpt lat="45.883315567708216" lon="11.956316574595666"><ele>168.33333333333334</ele><time>2026-04-18T12:22:20.999Z</time></trkpt><trkpt lat="45.88319525200729" lon="11.956516160474015"><ele>168.0</ele><time>2026-04-18T12:22:21.999Z</time></trkpt><trkpt lat="45.88308072170133" lon="11.95670538582126"><ele>168.0</ele><time>2026-04-18T12:22:22.999Z</time></trkpt><trkpt lat="45.882959975179524" lon="11.956902735082158"><ele>168.0</ele><time>2026-04-18T12:22:23.999Z</time></trkpt><trkpt lat="45.88283879214971" lon="11.957099916551334"><ele>168.0</ele><time>2026-04-18T12:22:24.999Z</time></trkpt><trkpt lat="45.88271160655102" lon="11.957305549243989"><ele>168.33333333333334</ele><time>2026-04-18T12:22:25.999Z</time></trkpt><trkpt lat="45.882586334396684" lon="11.957503587057683"><ele>168.66666666666669</ele><time>2026-04-18T12:22:26.999Z</time></trkpt><trkpt lat="45.882457696492914" lon="11.957704948727635"><ele>169.0</ele><time>2026-04-18T12:22:27.999Z</time></trkpt><trkpt lat="45.88232472107696" lon="11.957900965218832"><ele>169.0</ele><time>2026-04-18T12:22:28.999Z</time></trkpt><trkpt lat="45.88220188325544" lon="11.958103991239279"><ele>169.0</ele><time>2026-04-18T12:22:30Z</time></trkpt><trkpt lat="45.88208077268693" lon="11.958299028259763"><ele>169.0</ele><time>2026-04-18T12:22:31Z</time></trkpt><trkpt lat="45.88194478163151" lon="11.958490314642066"><ele>170.0</ele><time>2026-04-18T12:22:32Z</time></trkpt><trkpt lat="45.88181108254098" lon="11.958680007927363"><ele>171.0</ele><time>2026-04-18T12:22:33Z</time></trkpt><trkpt lat="45.881710111129856" lon="11.958883420093803"><ele>172.0</ele><time>2026-04-18T12:22:34Z</time></trkpt><trkpt lat="45.88160152590498" lon="11.959101703133223"><ele>170.66666666666669</ele><time>2026-04-18T12:22:35Z</time></trkpt><trkpt lat="45.881501009084886" lon="11.959335926984036"><ele>169.33333333333334</ele><time>2026-04-18T12:22:36Z</time></trkpt><trkpt lat="45.881398281516226" lon="11.959554732544001"><ele>168.0</ele><time>2026-04-18T12:22:37Z</time></trkpt><trkpt lat="45.88129234478497" lon="11.95977480405151"><ele>168.0</ele><time>2026-04-18T12:22:38Z</time></trkpt><trkpt lat="45.881188148638444" lon="11.959999198515415"><ele>168.0</ele><time>2026-04-18T12:22:39Z</time></trkpt><trkpt lat="45.8810885610055" lon="11.96021427912452"><ele>168.0</ele><time>2026-04-18T12:22:40Z</time></trkpt><trkpt lat="45.88098103086059" lon="11.960436898863746"><ele>169.33333333333334</ele><time>2026-04-18T12:22:41Z</time></trkpt><trkpt lat="45.88087665398058" lon="11.96065140432883"><ele>170.66666666666669</ele><time>2026-04-18T12:22:42Z</time></trkpt><trkpt lat="45.88076868223142" lon="11.960870144400806"><ele>172.0</ele><time>2026-04-18T12:22:43Z</time></trkpt><trkpt lat="45.88064490998043" lon="11.961076478910792"><ele>172.0</ele><time>2026-04-18T12:22:44Z</time></trkpt><trkpt lat="45.88051178756161" lon="11.961253380308817"><ele>172.0</ele><time>2026-04-18T12:22:45Z</time></trkpt><trkpt lat="45.88037678080817" lon="11.961428382515283"><ele>172.0</ele><time>2026-04-18T12:22:46Z</time></trkpt><trkpt lat="45.88024509552608" lon="11.96159208089505"><ele>171.66666666666669</ele><time>2026-04-18T12:22:47Z</time></trkpt><trkpt lat="45.88010676933081" lon="11.961763968800689"><ele>171.33333333333334</ele><time>2026-04-18T12:22:48Z</time></trkpt><trkpt lat="45.87997006605528" lon="11.961932050900783"><ele>171.0</ele><time>2026-04-18T12:22:49Z</time></trkpt><trkpt lat="45.87984303549788" lon="11.962096874414351"><ele>171.0</ele><time>2026-04-18T12:22:50Z</time></trkpt><trkpt lat="45.87972088636064" lon="11.962262786901926"><ele>171.0</ele><time>2026-04-18T12:22:51Z</time></trkpt><trkpt lat="45.879589835089945" lon="11.962422068007474"><ele>171.0</ele><time>2026-04-18T12:22:52Z</time></trkpt><trkpt lat="45.879470860806904" lon="11.962558370217353"><ele>170.0</ele><time>2026-04-18T12:22:53Z</time></trkpt><trkpt lat="45.87932044126613" lon="11.962689699788184"><ele>169.0</ele><time>2026-04-18T12:22:54Z</time></trkpt><trkpt lat="45.8791427809361" lon="11.962769092714883"><ele>168.0</ele><time>2026-04-18T12:22:55Z</time></trkpt><trkpt lat="45.87896393418449" lon="11.962814837348278"><ele>168.0</ele><time>2026-04-18T12:22:56Z</time></trkpt><trkpt lat="45.87879618247276" lon="11.962864648314852"><ele>168.0</ele><time>2026-04-18T12:22:57Z</time></trkpt><trkpt lat="45.87863876731234" lon="11.962902514144874"><ele>168.0</ele><time>2026-04-18T12:22:58Z</time></trkpt><trkpt lat="45.87848740916705" lon="11.962932833714156"><ele>170.5</ele><time>2026-04-18T12:22:59Z</time></trkpt><trkpt lat="45.878343506317535" lon="11.962972497204959"><ele>173.0</ele><time>2026-04-18T12:23:00Z</time></trkpt><trkpt lat="45.878199277430156" lon="11.96299811272038"><ele>175.5</ele><time>2026-04-18T12:23:01Z</time></trkpt><trkpt lat="45.87804758719084" lon="11.963030217924993"><ele>178.0</ele><time>2026-04-18T12:23:02Z</time></trkpt><trkpt lat="45.877889158296924" lon="11.963057695829184"><ele>178.0</ele><time>2026-04-18T12:23:03Z</time></trkpt><trkpt lat="45.87774017895838" lon="11.963086286779152"><ele>178.0</ele><time>2026-04-18T12:23:04Z</time></trkpt><trkpt lat="45.877582668354954" lon="11.963120939720824"><ele>178.0</ele><time>2026-04-18T12:23:05Z</time></trkpt><trkpt lat="45.877429574855064" lon="11.963149850065513"><ele>178.33333333333334</ele><time>2026-04-18T12:23:06Z</time></trkpt><trkpt lat="45.87727859288859" lon="11.963178357810685"><ele>178.66666666666666</ele><time>2026-04-18T12:23:07Z</time></trkpt><trkpt lat="45.877121325693814" lon="11.963203867009659"><ele>179.0</ele><time>2026-04-18T12:23:08Z</time></trkpt><trkpt lat="45.87696911633958" lon="11.963234570355441"><ele>179.0</ele><time>2026-04-18T12:23:09Z</time></trkpt><trkpt lat="45.876806340957415" lon="11.963261756409986"><ele>179.0</ele><time>2026-04-18T12:23:10Z</time></trkpt><trkpt lat="45.87664783053286" lon="11.963294751615967"><ele>179.0</ele><time>2026-04-18T12:23:11Z</time></trkpt><trkpt lat="45.87649410116237" lon="11.963338616288958"><ele>176.66666666666666</ele><time>2026-04-18T12:23:12Z</time></trkpt><trkpt lat="45.87633786603502" lon="11.96338356397252"><ele>174.33333333333334</ele><time>2026-04-18T12:23:13Z</time></trkpt><trkpt lat="45.876193834517366" lon="11.963430854931824"><ele>172.0</ele><time>2026-04-18T12:23:14Z</time></trkpt><trkpt lat="45.87604474706358" lon="11.96349424011971"><ele>174.66666666666669</ele><time>2026-04-18T12:23:15Z</time></trkpt><trkpt lat="45.875901911777106" lon="11.963561991351291"><ele>177.33333333333334</ele><time>2026-04-18T12:23:16Z</time></trkpt><trkpt lat="45.87575455388563" lon="11.963639470824662"><ele>180.0</ele><time>2026-04-18T12:23:17Z</time></trkpt><trkpt lat="45.875609544137696" lon="11.963727833601162"><ele>180.0</ele><time>2026-04-18T12:23:18Z</time></trkpt><trkpt lat="45.87546619298535" lon="11.963821433359632"><ele>180.0</ele><time>2026-04-18T12:23:19Z</time></trkpt><trkpt lat="45.87532907367999" lon="11.963908849287524"><ele>180.0</ele><time>2026-04-18T12:23:20Z</time></trkpt><trkpt lat="45.87518535590588" lon="11.964003172710116"><ele>181.0</ele><time>2026-04-18T12:23:21Z</time></trkpt><trkpt lat="45.875038884173506" lon="11.964099588753287"><ele>182.0</ele><time>2026-04-18T12:23:22Z</time></trkpt><trkpt lat="45.87488923562977" lon="11.964195393920573"><ele>183.0</ele><time>2026-04-18T12:23:23Z</time></trkpt><trkpt lat="45.87473665479609" lon="11.964296662107762"><ele>179.66666666666666</ele><time>2026-04-18T12:23:24Z</time></trkpt><trkpt lat="45.87458881911701" lon="11.964382227304753"><ele>176.33333333333331</ele><time>2026-04-18T12:23:25Z</time></trkpt><trkpt lat="45.874446800844936" lon="11.964474640785374"><ele>173.0</ele><time>2026-04-18T12:23:26Z</time></trkpt><trkpt lat="45.8743059060078" lon="11.964580121757187"><ele>175.33333333333331</ele><time>2026-04-18T12:23:27Z</time></trkpt><trkpt lat="45.874157598700336" lon="11.964683372795935"><ele>177.66666666666666</ele><time>2026-04-18T12:23:28Z</time></trkpt><trkpt lat="45.87399579978834" lon="11.96476341280963"><ele>180.0</ele><time>2026-04-18T12:23:29Z</time></trkpt><trkpt lat="45.873830152455035" lon="11.964819545294713"><ele>180.0</ele><time>2026-04-18T12:23:30Z</time></trkpt><trkpt lat="45.87366187209968" lon="11.964838585008568"><ele>180.0</ele><time>2026-04-18T12:23:31Z</time></trkpt><trkpt lat="45.873490470028" lon="11.96481736564009"><ele>180.0</ele><time>2026-04-18T12:23:32Z</time></trkpt><trkpt lat="45.87331921262195" lon="11.964749034008044"><ele>181.33333333333334</ele><time>2026-04-18T12:23:33Z</time></trkpt><trkpt lat="45.8731506474853" lon="11.964641376846016"><ele>182.66666666666669</ele><time>2026-04-18T12:23:34Z</time></trkpt><trkpt lat="45.87299234965343" lon="11.964504664826837"><ele>184.0</ele><time>2026-04-18T12:23:35Z</time></trkpt><trkpt lat="45.87283435989894" lon="11.964350124761422"><ele>184.0</ele><time>2026-04-18T12:23:36Z</time></trkpt><trkpt lat="45.87267804538229" lon="11.96420151673791"><ele>184.0</ele><time>2026-04-18T12:23:37Z</time></trkpt><trkpt lat="45.872527074759795" lon="11.964057479924628"><ele>184.0</ele><time>2026-04-18T12:23:38Z</time></trkpt><trkpt lat="45.872391510356856" lon="11.963915804959912"><ele>184.33333333333334</ele><time>2026-04-18T12:23:39Z</time></trkpt><trkpt lat="45.87226498503621" lon="11.963755992000621"><ele>184.66666666666666</ele><time>2026-04-18T12:23:40Z</time></trkpt><trkpt lat="45.87214962527299" lon="11.963579484059505"><ele>185.0</ele><time>2026-04-18T12:23:41Z</time></trkpt><trkpt lat="45.87204657837808" lon="11.963368544960709"><ele>186.33333333333331</ele><time>2026-04-18T12:23:42Z</time></trkpt><trkpt lat="45.871959957817644" lon="11.963139277853847"><ele>187.66666666666666</ele><time>2026-04-18T12:23:43Z</time></trkpt><trkpt lat="45.87188145513233" lon="11.962890637086716"><ele>189.0</ele><time>2026-04-18T12:23:44Z</time></trkpt><trkpt lat="45.87179122308471" lon="11.962618643165985"><ele>188.5</ele><time>2026-04-18T12:23:45Z</time></trkpt><trkpt lat="45.8716776928171" lon="11.962333539132695"><ele>188.0</ele><time>2026-04-18T12:23:46Z</time></trkpt><trkpt lat="45.87157687088551" lon="11.962043538041994"><ele>188.0</ele><time>2026-04-18T12:23:47Z</time></trkpt><trkpt lat="45.87145945629894" lon="11.961724308985804"><ele>188.0</ele><time>2026-04-18T12:23:48Z</time></trkpt><trkpt lat="45.871347412783734" lon="11.961408005630629"><ele>190.5</ele><time>2026-04-18T12:23:48.999Z</time></trkpt><trkpt lat="45.87124004413643" lon="11.961080047289716"><ele>193.0</ele><time>2026-04-18T12:23:49.999Z</time></trkpt><trkpt lat="45.87112588875883" lon="11.960761361943657"><ele>195.5</ele><time>2026-04-18T12:23:50.999Z</time></trkpt><trkpt lat="45.87101320916036" lon="11.960455000834457"><ele>198.0</ele><time>2026-04-18T12:23:51.999Z</time></trkpt><trkpt lat="45.87089329355822" lon="11.960146908193886"><ele>197.0</ele><time>2026-04-18T12:23:52.999Z</time></trkpt><trkpt lat="45.870780788405504" lon="11.959843210353952"><ele>196.0</ele><time>2026-04-18T12:23:53.999Z</time></trkpt><trkpt lat="45.87066780455309" lon="11.959537056973742"><ele>196.0</ele><time>2026-04-18T12:23:54.999Z</time></trkpt><trkpt lat="45.870557012534334" lon="11.95924694269882"><ele>196.0</ele><time>2026-04-18T12:23:55.999Z</time></trkpt><trkpt lat="45.87044471567921" lon="11.958947068974242"><ele>196.0</ele><time>2026-04-18T12:23:56.999Z</time></trkpt><trkpt lat="45.870324807193484" lon="11.958646598534024"><ele>196.0</ele><time>2026-04-18T12:23:57.999Z</time></trkpt><trkpt lat="45.87020330328845" lon="11.9583425691804"><ele>197.0</ele><time>2026-04-18T12:23:58.999Z</time></trkpt><trkpt lat="45.87007511985006" lon="11.958052353788878"><ele>198.0</ele><time>2026-04-18T12:23:59.999Z</time></trkpt><trkpt lat="45.869934599323464" lon="11.95776337042254"><ele>198.0</ele><time>2026-04-18T12:24:00.999Z</time></trkpt><trkpt lat="45.86979948857502" lon="11.957475165170543"><ele>198.0</ele><time>2026-04-18T12:24:01.999Z</time></trkpt><trkpt lat="45.86966422510211" lon="11.957188569773365"><ele>198.0</ele><time>2026-04-18T12:24:02.999Z</time></trkpt><trkpt lat="45.86951861834139" lon="11.956925128334886"><ele>198.0</ele><time>2026-04-18T12:24:03.999Z</time></trkpt><trkpt lat="45.86936948638124" lon="11.956665031088917"><ele>197.0</ele><time>2026-04-18T12:24:04.999Z</time></trkpt><trkpt lat="45.86920603818964" lon="11.95640641856513"><ele>196.0</ele><time>2026-04-18T12:24:05.999Z</time></trkpt><trkpt lat="45.86903453389125" lon="11.956134946666369"><ele>195.0</ele><time>2026-04-18T12:24:06.999Z</time></trkpt><trkpt lat="45.868861211547866" lon="11.95586258688541"><ele>194.0</ele><time>2026-04-18T12:24:07.999Z</time></trkpt><trkpt lat="45.86868951706124" lon="11.955581852833465"><ele>194.0</ele><time>2026-04-18T12:24:08.999Z</time></trkpt><trkpt lat="45.868498038387415" lon="11.95528740273534"><ele>194.0</ele><time>2026-04-18T12:24:09.999Z</time></trkpt><trkpt lat="45.86831918069818" lon="11.954981488824265"><ele>193.0</ele><time>2026-04-18T12:24:10.999Z</time></trkpt><trkpt lat="45.86814082050305" lon="11.954684949692949"><ele>192.0</ele><time>2026-04-18T12:24:11.999Z</time></trkpt><trkpt lat="45.86797809431514" lon="11.95442369539207"><ele>192.33333333333331</ele><time>2026-04-18T12:24:12.999Z</time></trkpt><trkpt lat="45.86783235971211" lon="11.954184193625279"><ele>192.66666666666666</ele><time>2026-04-18T12:24:13.999Z</time></trkpt><trkpt lat="45.86769761769446" lon="11.953944670832625"><ele>193.0</ele><time>2026-04-18T12:24:14.999Z</time></trkpt><trkpt lat="45.86758532265644" lon="11.95373952092486"><ele>193.0</ele><time>2026-04-18T12:24:15.999Z</time></trkpt><trkpt lat="45.86748023794361" lon="11.953554601579944"><ele>193.0</ele><time>2026-04-18T12:24:16.999Z</time></trkpt><trkpt lat="45.8673875661023" lon="11.953374853804378"><ele>193.0</ele><time>2026-04-18T12:24:17.999Z</time></trkpt><trkpt lat="45.86733602202088" lon="11.953209074822388"><ele>193.0</ele><time>2026-04-18T12:24:18.999Z</time></trkpt><trkpt lat="45.867310306489266" lon="11.953022019037924"><ele>193.0</ele><time>2026-04-18T12:24:19.999Z</time></trkpt><trkpt lat="45.86732489583466" lon="11.952853206302857"><ele>193.0</ele><time>2026-04-18T12:24:20.999Z</time></trkpt><trkpt lat="45.86738086687421" lon="11.952691774360526"><ele>193.0</ele><time>2026-04-18T12:24:21.999Z</time></trkpt><trkpt lat="45.86748209454395" lon="11.952532163816727"><ele>193.0</ele><time>2026-04-18T12:24:22.999Z</time></trkpt><trkpt lat="45.867610473291016" lon="11.952402838604122"><ele>193.66666666666666</ele><time>2026-04-18T12:24:23.999Z</time></trkpt><trkpt lat="45.86775127164042" lon="11.952279402438615"><ele>194.33333333333331</ele><time>2026-04-18T12:24:24.999Z</time></trkpt><trkpt lat="45.86788359962654" lon="11.952130043964232"><ele>195.0</ele><time>2026-04-18T12:24:25.999Z</time></trkpt><trkpt lat="45.86802874946278" lon="11.951976348816986"><ele>195.0</ele><time>2026-04-18T12:24:26.999Z</time></trkpt><trkpt lat="45.86818426857911" lon="11.95181974507847"><ele>195.0</ele><time>2026-04-18T12:24:27.999Z</time></trkpt><trkpt lat="45.86833796211481" lon="11.95164346466986"><ele>195.0</ele><time>2026-04-18T12:24:28.999Z</time></trkpt><trkpt lat="45.86850984183598" lon="11.951459899683991"><ele>196.0</ele><time>2026-04-18T12:24:29.999Z</time></trkpt><trkpt lat="45.868667098617884" lon="11.951297441571896"><ele>197.0</ele><time>2026-04-18T12:24:30.999Z</time></trkpt><trkpt lat="45.86880825477317" lon="11.951147880436482"><ele>198.0</ele><time>2026-04-18T12:24:31.999Z</time></trkpt><trkpt lat="45.86893799000455" lon="11.951008910063647"><ele>198.0</ele><time>2026-04-18T12:24:32.999Z</time></trkpt><trkpt lat="45.869065276173224" lon="11.9508804160319"><ele>198.0</ele><time>2026-04-18T12:24:33.999Z</time></trkpt><trkpt lat="45.8691916858747" lon="11.950763802148826"><ele>198.0</ele><time>2026-04-18T12:24:34.999Z</time></trkpt><trkpt lat="45.86932029165456" lon="11.95062579376921"><ele>199.33333333333331</ele><time>2026-04-18T12:24:36Z</time></trkpt><trkpt lat="45.86943905116663" lon="11.950480082284283"><ele>200.66666666666666</ele><time>2026-04-18T12:24:37Z</time></trkpt><trkpt lat="45.869558123101875" lon="11.950338618899973"><ele>202.0</ele><time>2026-04-18T12:24:38Z</time></trkpt><trkpt lat="45.869682691881096" lon="11.950209760354731"><ele>202.0</ele><time>2026-04-18T12:24:39Z</time></trkpt><trkpt lat="45.86981356065413" lon="11.950078765273282"><ele>202.0</ele><time>2026-04-18T12:24:40Z</time></trkpt><trkpt lat="45.86994625948513" lon="11.949954220241663"><ele>202.0</ele><time>2026-04-18T12:24:41Z</time></trkpt><trkpt lat="45.87007285326244" lon="11.94980856916633"><ele>203.33333333333331</ele><time>2026-04-18T12:24:42Z</time></trkpt><trkpt lat="45.87021489310982" lon="11.949676607214322"><ele>204.66666666666669</ele><time>2026-04-18T12:24:43Z</time></trkpt><trkpt lat="45.87034955485342" lon="11.949538634983464"><ele>206.0</ele><time>2026-04-18T12:24:44Z</time></trkpt><trkpt lat="45.87048501604248" lon="11.949410688071264"><ele>206.0</ele><time>2026-04-18T12:24:45Z</time></trkpt><trkpt lat="45.870619995587205" lon="11.949270836990658"><ele>206.0</ele><time>2026-04-18T12:24:46Z</time></trkpt><trkpt lat="45.87074346455162" lon="11.949139784293832"><ele>206.0</ele><time>2026-04-18T12:24:47Z</time></trkpt><trkpt lat="45.87088614547035" lon="11.94901291971017"><ele>208.0</ele><time>2026-04-18T12:24:48Z</time></trkpt><trkpt lat="45.87102395065038" lon="11.9488789504658"><ele>210.0</ele><time>2026-04-18T12:24:49Z</time></trkpt><trkpt lat="45.87116823821007" lon="11.948749847487067"><ele>212.0</ele><time>2026-04-18T12:24:50Z</time></trkpt><trkpt lat="45.87130476442087" lon="11.94860906384321"><ele>212.0</ele><time>2026-04-18T12:24:51Z</time></trkpt><trkpt lat="45.87144649744231" lon="11.948468643695323"><ele>212.0</ele><time>2026-04-18T12:24:52Z</time></trkpt><trkpt lat="45.87156740637428" lon="11.948337129637636"><ele>212.0</ele><time>2026-04-18T12:24:53Z</time></trkpt><trkpt lat="45.87169230303763" lon="11.948209153212085"><ele>213.0</ele><time>2026-04-18T12:24:54Z</time></trkpt><trkpt lat="45.871805878805596" lon="11.948083815487335"><ele>214.0</ele><time>2026-04-18T12:24:55Z</time></trkpt><trkpt lat="45.87191106443479" lon="11.94796951093677"><ele>215.0</ele><time>2026-04-18T12:24:56Z</time></trkpt><trkpt lat="45.87200660982548" lon="11.94787108360902"><ele>216.0</ele><time>2026-04-18T12:24:57Z</time></trkpt><trkpt lat="45.87210243633843" lon="11.947784843335858"><ele>216.0</ele><time>2026-04-18T12:24:58Z</time></trkpt><trkpt lat="45.87218755788751" lon="11.947707671987105"><ele>216.00000000000003</ele><time>2026-04-18T12:24:59Z</time></trkpt><trkpt lat="45.872279523519374" lon="11.947622791416764"><ele>216.00000000000003</ele><time>2026-04-18T12:25:00Z</time></trkpt><trkpt lat="45.872375398810284" lon="11.947530570869754"><ele>216.0</ele><time>2026-04-18T12:25:01Z</time></trkpt><trkpt lat="45.87247691017516" lon="11.9474377258349"><ele>216.0</ele><time>2026-04-18T12:25:02Z</time></trkpt><trkpt lat="45.872571656793504" lon="11.947336886539366"><ele>217.20000000000002</ele><time>2026-04-18T12:25:03Z</time></trkpt><trkpt lat="45.87264466087008" lon="11.947247884063916"><ele>218.40000000000003</ele><time>2026-04-18T12:25:04Z</time></trkpt><trkpt lat="45.87271375029194" lon="11.947189578994564"><ele>219.6</ele><time>2026-04-18T12:25:05Z</time></trkpt><trkpt lat="45.87282425878366" lon="11.947157382088045"><ele>220.8</ele><time>2026-04-18T12:25:07Z</time></trkpt><trkpt lat="45.872916217397595" lon="11.947146873856743"><ele>222.0</ele><time>2026-04-18T12:25:09Z</time></trkpt><trkpt lat="45.87296234586032" lon="11.947037874598552"><ele>222.0</ele><time>2026-04-18T12:25:11Z</time></trkpt><trkpt lat="45.87291004786184" lon="11.946920654385075"><ele>222.0</ele><time>2026-04-18T12:25:13Z</time></trkpt><trkpt lat="45.87284534684018" lon="11.946863312547114"><ele>222.0</ele><time>2026-04-18T12:25:14Z</time></trkpt><trkpt lat="45.87276661126059" lon="11.946781717562933"><ele>222.0</ele><time>2026-04-18T12:25:15Z</time></trkpt><trkpt lat="45.872679969865914" lon="11.94668692393415"><ele>222.0</ele><time>2026-04-18T12:25:16Z</time></trkpt><trkpt lat="45.872582941157745" lon="11.94657010784141"><ele>222.66666666666669</ele><time>2026-04-18T12:25:17Z</time></trkpt><trkpt lat="45.87247572863077" lon="11.946420972662612"><ele>223.33333333333334</ele><time>2026-04-18T12:25:18Z</time></trkpt><trkpt lat="45.872332983919044" lon="11.946253685043894"><ele>224.0</ele><time>2026-04-18T12:25:19Z</time></trkpt><trkpt lat="45.87219496414736" lon="11.946085965313287"><ele>224.0</ele><time>2026-04-18T12:25:20Z</time></trkpt><trkpt lat="45.87206352941085" lon="11.945924925923276"><ele>224.0</ele><time>2026-04-18T12:25:21Z</time></trkpt><trkpt lat="45.87192333522066" lon="11.945754251071024"><ele>224.0</ele><time>2026-04-18T12:25:22Z</time></trkpt><trkpt lat="45.87179910863357" lon="11.94560618386622"><ele>224.0</ele><time>2026-04-18T12:25:23Z</time></trkpt><trkpt lat="45.871643085966696" lon="11.945487647391635"><ele>224.0</ele><time>2026-04-18T12:25:24Z</time></trkpt><trkpt lat="45.871490422564044" lon="11.945415204601774"><ele>224.0</ele><time>2026-04-18T12:25:25Z</time></trkpt><trkpt lat="45.87131243929594" lon="11.94538815522192"><ele>224.0</ele><time>2026-04-18T12:25:26Z</time></trkpt><trkpt lat="45.87112313635137" lon="11.945383193114745"><ele>224.0</ele><time>2026-04-18T12:25:27Z</time></trkpt><trkpt lat="45.870950133917454" lon="11.945403020606564"><ele>224.0</ele><time>2026-04-18T12:25:28Z</time></trkpt><trkpt lat="45.87076106295718" lon="11.945440659626207"><ele>222.66666666666669</ele><time>2026-04-18T12:25:29Z</time></trkpt><trkpt lat="45.870564082707176" lon="11.94549324882469"><ele>221.33333333333331</ele><time>2026-04-18T12:25:30Z</time></trkpt><trkpt lat="45.87041682363352" lon="11.945513745384142"><ele>220.0</ele><time>2026-04-18T12:25:31Z</time></trkpt><trkpt lat="45.87025221268632" lon="11.945485415486635"><ele>220.0</ele><time>2026-04-18T12:25:32Z</time></trkpt><trkpt lat="45.87011333333909" lon="11.9454235039447"><ele>220.0</ele><time>2026-04-18T12:25:33Z</time></trkpt><trkpt lat="45.870009401522644" lon="11.945339844348716"><ele>220.0</ele><time>2026-04-18T12:25:34Z</time></trkpt><trkpt lat="45.86987469730597" lon="11.94513613429787"><ele>218.33333333333331</ele><time>2026-04-18T12:25:35Z</time></trkpt><trkpt lat="45.869748645270796" lon="11.944972292819909"><ele>216.66666666666669</ele><time>2026-04-18T12:25:36Z</time></trkpt><trkpt lat="45.86962190958238" lon="11.944790047916952"><ele>215.0</ele><time>2026-04-18T12:25:37Z</time></trkpt><trkpt lat="45.869503583788344" lon="11.944602298198728"><ele>215.0</ele><time>2026-04-18T12:25:38Z</time></trkpt><trkpt lat="45.869372662528356" lon="11.94440741391135"><ele>215.0</ele><time>2026-04-18T12:25:39Z</time></trkpt><trkpt lat="45.869241732333926" lon="11.944226347757116"><ele>215.0</ele><time>2026-04-18T12:25:40Z</time></trkpt><trkpt lat="45.86910867109466" lon="11.944030802441706"><ele>213.33333333333334</ele><time>2026-04-18T12:25:41Z</time></trkpt><trkpt lat="45.86897802397208" lon="11.943842868956681"><ele>211.66666666666669</ele><time>2026-04-18T12:25:42Z</time></trkpt><trkpt lat="45.86885620517409" lon="11.943668158743836"><ele>210.0</ele><time>2026-04-18T12:25:42.999Z</time></trkpt><trkpt lat="45.86872542933357" lon="11.943500968566413"><ele>209.66666666666669</ele><time>2026-04-18T12:25:43.999Z</time></trkpt><trkpt lat="45.868606888480834" lon="11.94332757830948"><ele>209.33333333333334</ele><time>2026-04-18T12:25:44.999Z</time></trkpt><trkpt lat="45.86850897388416" lon="11.943149726490677"><ele>209.0</ele><time>2026-04-18T12:25:45.999Z</time></trkpt><trkpt lat="45.86847361055379" lon="11.94292019002197"><ele>209.66666666666669</ele><time>2026-04-18T12:25:46.999Z</time></trkpt><trkpt lat="45.86843929024379" lon="11.94269328685052"><ele>210.33333333333331</ele><time>2026-04-18T12:25:47.999Z</time></trkpt><trkpt lat="45.868459464141864" lon="11.942449356006971"><ele>211.0</ele><time>2026-04-18T12:25:48.999Z</time></trkpt><trkpt lat="45.868491175741056" lon="11.94220997134947"><ele>211.0</ele><time>2026-04-18T12:25:49.999Z</time></trkpt><trkpt lat="45.86856756453895" lon="11.941986203141406"><ele>211.0</ele><time>2026-04-18T12:25:50.999Z</time></trkpt><trkpt lat="45.868666181681995" lon="11.941798818032241"><ele>211.0</ele><time>2026-04-18T12:25:51.999Z</time></trkpt><trkpt lat="45.86877468693719" lon="11.941593371086743"><ele>210.0</ele><time>2026-04-18T12:25:52.999Z</time></trkpt><trkpt lat="45.86891449608502" lon="11.941382472453705"><ele>209.0</ele><time>2026-04-18T12:25:53.999Z</time></trkpt><trkpt lat="45.86903107111124" lon="11.941184324944052"><ele>208.0</ele><time>2026-04-18T12:25:54.999Z</time></trkpt><trkpt lat="45.86916088703757" lon="11.94098095987475"><ele>208.33333333333331</ele><time>2026-04-18T12:25:55.999Z</time></trkpt><trkpt lat="45.86930596540589" lon="11.940785442658827"><ele>208.66666666666669</ele><time>2026-04-18T12:25:56.999Z</time></trkpt><trkpt lat="45.8694299403425" lon="11.940587711694617"><ele>209.0</ele><time>2026-04-18T12:25:57.999Z</time></trkpt><trkpt lat="45.8695221846185" lon="11.94038254830631"><ele>209.0</ele><time>2026-04-18T12:25:58.999Z</time></trkpt><trkpt lat="45.8695731118159" lon="11.940154153599012"><ele>209.0</ele><time>2026-04-18T12:25:59.999Z</time></trkpt><trkpt lat="45.86957033622166" lon="11.939904577404116"><ele>209.0</ele><time>2026-04-18T12:26:00.999Z</time></trkpt><trkpt lat="45.86955032974203" lon="11.939657836302304"><ele>209.0</ele><time>2026-04-18T12:26:01.999Z</time></trkpt><trkpt lat="45.869514883739626" lon="11.939413956959173"><ele>209.0</ele><time>2026-04-18T12:26:02.999Z</time></trkpt><trkpt lat="45.86947134113144" lon="11.939165769023095"><ele>209.0</ele><time>2026-04-18T12:26:03.999Z</time></trkpt><trkpt lat="45.86941105271458" lon="11.938928891639117"><ele>209.66666666666669</ele><time>2026-04-18T12:26:04.999Z</time></trkpt><trkpt lat="45.86935264429519" lon="11.938673832982317"><ele>210.33333333333331</ele><time>2026-04-18T12:26:05.999Z</time></trkpt><trkpt lat="45.86930978180127" lon="11.938413476185504"><ele>211.0</ele><time>2026-04-18T12:26:06.999Z</time></trkpt><trkpt lat="45.869277490146956" lon="11.938146278225366"><ele>210.66666666666666</ele><time>2026-04-18T12:26:07.999Z</time></trkpt><trkpt lat="45.86923979538894" lon="11.937888131111652"><ele>210.33333333333331</ele><time>2026-04-18T12:26:08.999Z</time></trkpt><trkpt lat="45.869197303954664" lon="11.93761890588768"><ele>210.0</ele><time>2026-04-18T12:26:09.999Z</time></trkpt><trkpt lat="45.86914739317731" lon="11.937354202115515"><ele>211.33333333333331</ele><time>2026-04-18T12:26:10.999Z</time></trkpt><trkpt lat="45.86909159608473" lon="11.9370886387025"><ele>212.66666666666666</ele><time>2026-04-18T12:26:11.999Z</time></trkpt><trkpt lat="45.86904586349976" lon="11.936822236827805"><ele>214.0</ele><time>2026-04-18T12:26:12.999Z</time></trkpt><trkpt lat="45.86899902533282" lon="11.936558168890343"><ele>214.33333333333331</ele><time>2026-04-18T12:26:13.999Z</time></trkpt><trkpt lat="45.8689524281389" lon="11.936295583286956"><ele>214.66666666666669</ele><time>2026-04-18T12:26:14.999Z</time></trkpt><trkpt lat="45.86891177475011" lon="11.936031690162347"><ele>215.0</ele><time>2026-04-18T12:26:15.999Z</time></trkpt><trkpt lat="45.868869405491594" lon="11.935766721560682"><ele>216.0</ele><time>2026-04-18T12:26:16.999Z</time></trkpt><trkpt lat="45.868837471826424" lon="11.935495727513963"><ele>217.0</ele><time>2026-04-18T12:26:17.999Z</time></trkpt><trkpt lat="45.86883195587193" lon="11.935221456131545"><ele>218.0</ele><time>2026-04-18T12:26:18.999Z</time></trkpt><trkpt lat="45.86885296904011" lon="11.934951468709764"><ele>219.0</ele><time>2026-04-18T12:26:19.999Z</time></trkpt><trkpt lat="45.868891062991" lon="11.934685179113089"><ele>220.0</ele><time>2026-04-18T12:26:20.999Z</time></trkpt><trkpt lat="45.86893450162516" lon="11.934422365102614"><ele>221.0</ele><time>2026-04-18T12:26:21.999Z</time></trkpt><trkpt lat="45.868981023586414" lon="11.93416080535545"><ele>221.66666666666669</ele><time>2026-04-18T12:26:22.999Z</time></trkpt><trkpt lat="45.86902778381424" lon="11.93389479869938"><ele>222.33333333333331</ele><time>2026-04-18T12:26:23.999Z</time></trkpt><trkpt lat="45.86908076825335" lon="11.933637744287791"><ele>223.0</ele><time>2026-04-18T12:26:24.999Z</time></trkpt><trkpt lat="45.86913018932333" lon="11.933385699097771"><ele>224.66666666666666</ele><time>2026-04-18T12:26:25.999Z</time></trkpt><trkpt lat="45.86917644553732" lon="11.933133192298353"><ele>226.33333333333331</ele><time>2026-04-18T12:26:26.999Z</time></trkpt><trkpt lat="45.86922625416743" lon="11.932879198543537"><ele>228.0</ele><time>2026-04-18T12:26:27.999Z</time></trkpt><trkpt lat="45.8692761933652" lon="11.93262143437471"><ele>230.33333333333331</ele><time>2026-04-18T12:26:28.999Z</time></trkpt><trkpt lat="45.86932619431537" lon="11.932363088624932"><ele>232.66666666666666</ele><time>2026-04-18T12:26:29.999Z</time></trkpt><trkpt lat="45.86937660485753" lon="11.932112408079185"><ele>235.0</ele><time>2026-04-18T12:26:30.999Z</time></trkpt><trkpt lat="45.869422534990974" lon="11.931869165155415"><ele>236.33333333333331</ele><time>2026-04-18T12:26:31.999Z</time></trkpt><trkpt lat="45.86945857376646" lon="11.931640019688592"><ele>237.66666666666669</ele><time>2026-04-18T12:26:32.999Z</time></trkpt><trkpt lat="45.869497743420546" lon="11.931411073196811"><ele>239.0</ele><time>2026-04-18T12:26:33.999Z</time></trkpt><trkpt lat="45.86952290741525" lon="11.931177179750032"><ele>239.0</ele><time>2026-04-18T12:26:34.999Z</time></trkpt><trkpt lat="45.86950262903599" lon="11.930936943319754"><ele>239.0</ele><time>2026-04-18T12:26:35.999Z</time></trkpt><trkpt lat="45.86945539339877" lon="11.930703885230695"><ele>239.0</ele><time>2026-04-18T12:26:36.999Z</time></trkpt><trkpt lat="45.8693953462093" lon="11.930498929702082"><ele>239.0</ele><time>2026-04-18T12:26:37.999Z</time></trkpt><trkpt lat="45.86933520274947" lon="11.930317129524926"><ele>239.0</ele><time>2026-04-18T12:26:38.999Z</time></trkpt><trkpt lat="45.86928201039865" lon="11.930143965420719"><ele>239.0</ele><time>2026-04-18T12:26:39.999Z</time></trkpt><trkpt lat="45.86923549181407" lon="11.929999152086546"><ele>239.0</ele><time>2026-04-18T12:26:40.999Z</time></trkpt><trkpt lat="45.86918504951756" lon="11.929878219337231"><ele>239.0</ele><time>2026-04-18T12:26:42Z</time></trkpt><trkpt lat="45.86914401600921" lon="11.929760311622122"><ele>238.99999999999997</ele><time>2026-04-18T12:26:43Z</time></trkpt><trkpt lat="45.869105051070996" lon="11.929650274006189"><ele>238.99999999999997</ele><time>2026-04-18T12:26:44Z</time></trkpt><trkpt lat="45.869059691386525" lon="11.929527211981837"><ele>239.0</ele><time>2026-04-18T12:26:45Z</time></trkpt><trkpt lat="45.869006821027575" lon="11.929401897574175"><ele>239.0</ele><time>2026-04-18T12:26:46Z</time></trkpt><trkpt lat="45.868957620087286" lon="11.929252184498988"><ele>239.5</ele><time>2026-04-18T12:26:47Z</time></trkpt><trkpt lat="45.868908746234254" lon="11.929085790352982"><ele>240.0</ele><time>2026-04-18T12:26:48Z</time></trkpt><trkpt lat="45.86887378355508" lon="11.928898302013621"><ele>240.5</ele><time>2026-04-18T12:26:49Z</time></trkpt><trkpt lat="45.86882061397154" lon="11.92871078620833"><ele>241.0</ele><time>2026-04-18T12:26:50Z</time></trkpt><trkpt lat="45.86876025016984" lon="11.928515330651225"><ele>241.33333333333331</ele><time>2026-04-18T12:26:51Z</time></trkpt><trkpt lat="45.868717276902345" lon="11.928306746784305"><ele>241.66666666666669</ele><time>2026-04-18T12:26:52Z</time></trkpt><trkpt lat="45.868693455814366" lon="11.928051411117375"><ele>242.0</ele><time>2026-04-18T12:26:53Z</time></trkpt><trkpt lat="45.86869918382569" lon="11.927787713815134"><ele>242.0</ele><time>2026-04-18T12:26:54Z</time></trkpt><trkpt lat="45.8687145695319" lon="11.92748277349342"><ele>242.0</ele><time>2026-04-18T12:26:55Z</time></trkpt><trkpt lat="45.86871755028291" lon="11.927211319834717"><ele>242.0</ele><time>2026-04-18T12:26:56Z</time></trkpt><trkpt lat="45.868668753079966" lon="11.926976996563184"><ele>242.0</ele><time>2026-04-18T12:26:57Z</time></trkpt><trkpt lat="45.868614654794726" lon="11.926736161754835"><ele>242.0</ele><time>2026-04-18T12:26:58Z</time></trkpt><trkpt lat="45.86854828624449" lon="11.926495847070553"><ele>242.0</ele><time>2026-04-18T12:26:59Z</time></trkpt><trkpt lat="45.86848168429046" lon="11.926260124539134"><ele>238.66666666666669</ele><time>2026-04-18T12:27:00Z</time></trkpt><trkpt lat="45.868417709681374" lon="11.926033560602901"><ele>235.33333333333331</ele><time>2026-04-18T12:27:01Z</time></trkpt><trkpt lat="45.86836570171542" lon="11.925799683449148"><ele>232.0</ele><time>2026-04-18T12:27:02Z</time></trkpt><trkpt lat="45.86830060032534" lon="11.925572005577003"><ele>232.0</ele><time>2026-04-18T12:27:03Z</time></trkpt><trkpt lat="45.868219430330015" lon="11.925328615357397"><ele>232.0</ele><time>2026-04-18T12:27:04Z</time></trkpt><trkpt lat="45.868163649579955" lon="11.925105796222832"><ele>232.0</ele><time>2026-04-18T12:27:05Z</time></trkpt><trkpt lat="45.868102165211944" lon="11.924894957463328"><ele>233.5</ele><time>2026-04-18T12:27:06Z</time></trkpt><trkpt lat="45.86805154070768" lon="11.924690571171375"><ele>235.0</ele><time>2026-04-18T12:27:07Z</time></trkpt><trkpt lat="45.86800397724699" lon="11.924494630876966"><ele>236.5</ele><time>2026-04-18T12:27:08Z</time></trkpt><trkpt lat="45.86794620249765" lon="11.924330753319927"><ele>238.0</ele><time>2026-04-18T12:27:09Z</time></trkpt><trkpt lat="45.86788610372382" lon="11.92415311994808"><ele>238.33333333333331</ele><time>2026-04-18T12:27:10Z</time></trkpt><trkpt lat="45.867833983558455" lon="11.923946555248726"><ele>238.66666666666669</ele><time>2026-04-18T12:27:11Z</time></trkpt><trkpt lat="45.8677849286704" lon="11.923745677242318"><ele>239.0</ele><time>2026-04-18T12:27:12Z</time></trkpt><trkpt lat="45.86769763182164" lon="11.923561655684637"><ele>241.0</ele><time>2026-04-18T12:27:13Z</time></trkpt><trkpt lat="45.86766122131381" lon="11.923320409140983"><ele>243.0</ele><time>2026-04-18T12:27:14Z</time></trkpt><trkpt lat="45.867590470311384" lon="11.923087275918657"><ele>245.0</ele><time>2026-04-18T12:27:15Z</time></trkpt><trkpt lat="45.86751629446216" lon="11.92285520717998"><ele>241.0</ele><time>2026-04-18T12:27:16Z</time></trkpt><trkpt lat="45.8674366366682" lon="11.92262172982998"><ele>237.0</ele><time>2026-04-18T12:27:17Z</time></trkpt><trkpt lat="45.867363646001586" lon="11.922383152803588"><ele>233.0</ele><time>2026-04-18T12:27:18Z</time></trkpt><trkpt lat="45.86729630066014" lon="11.922136775925265"><ele>233.0</ele><time>2026-04-18T12:27:19Z</time></trkpt><trkpt lat="45.8672529941981" lon="11.921895139739547"><ele>233.0</ele><time>2026-04-18T12:27:20Z</time></trkpt><trkpt lat="45.86726144374692" lon="11.921674351687976"><ele>233.0</ele><time>2026-04-18T12:27:21Z</time></trkpt><trkpt lat="45.86728759489757" lon="11.92147799229539"><ele>233.5</ele><time>2026-04-18T12:27:22Z</time></trkpt><trkpt lat="45.86735571466334" lon="11.921298063736108"><ele>234.0</ele><time>2026-04-18T12:27:23Z</time></trkpt><trkpt lat="45.8674483312316" lon="11.921134938681423"><ele>234.5</ele><time>2026-04-18T12:27:24Z</time></trkpt><trkpt lat="45.86752940363969" lon="11.920939523861577"><ele>235.0</ele><time>2026-04-18T12:27:25Z</time></trkpt><trkpt lat="45.86765302401904" lon="11.920774811642502"><ele>235.33333333333331</ele><time>2026-04-18T12:27:26Z</time></trkpt><trkpt lat="45.8677920446014" lon="11.920607103675142"><ele>235.66666666666669</ele><time>2026-04-18T12:27:27Z</time></trkpt><trkpt lat="45.867933389036786" lon="11.92042945490251"><ele>236.0</ele><time>2026-04-18T12:27:28Z</time></trkpt><trkpt lat="45.86808128611628" lon="11.920278686780058"><ele>236.0</ele><time>2026-04-18T12:27:29Z</time></trkpt><trkpt lat="45.868215815805804" lon="11.920096428512773"><ele>236.0</ele><time>2026-04-18T12:27:30Z</time></trkpt><trkpt lat="45.868332951473874" lon="11.919892789076156"><ele>236.0</ele><time>2026-04-18T12:27:31Z</time></trkpt><trkpt lat="45.86845862730474" lon="11.919698534778613"><ele>237.33333333333334</ele><time>2026-04-18T12:27:32Z</time></trkpt><trkpt lat="45.86853746299759" lon="11.919464824102436"><ele>238.66666666666669</ele><time>2026-04-18T12:27:33Z</time></trkpt><trkpt lat="45.86858342435077" lon="11.919196526397062"><ele>240.0</ele><time>2026-04-18T12:27:34Z</time></trkpt><trkpt lat="45.86860218960128" lon="11.918916562038188"><ele>240.0</ele><time>2026-04-18T12:27:35Z</time></trkpt><trkpt lat="45.86864593178629" lon="11.918643367539108"><ele>240.0</ele><time>2026-04-18T12:27:36Z</time></trkpt><trkpt lat="45.8687001091158" lon="11.918381413689994"><ele>240.0</ele><time>2026-04-18T12:27:37Z</time></trkpt><trkpt lat="45.86873782916931" lon="11.918150525293902"><ele>241.5</ele><time>2026-04-18T12:27:38Z</time></trkpt><trkpt lat="45.86877272608473" lon="11.917933358888407"><ele>243.0</ele><time>2026-04-18T12:27:39Z</time></trkpt><trkpt lat="45.8687694223916" lon="11.917735189785551"><ele>244.5</ele><time>2026-04-18T12:27:40Z</time></trkpt><trkpt lat="45.868755574735054" lon="11.917562487642279"><ele>246.0</ele><time>2026-04-18T12:27:41Z</time></trkpt><trkpt lat="45.86869818453011" lon="11.917414432971464"><ele>244.5</ele><time>2026-04-18T12:27:42Z</time></trkpt><trkpt lat="45.868606353651174" lon="11.917305344568978"><ele>243.0</ele><time>2026-04-18T12:27:43Z</time></trkpt><trkpt lat="45.86849764716379" lon="11.917259327607278"><ele>241.5</ele><time>2026-04-18T12:27:44Z</time></trkpt><trkpt lat="45.86837843595183" lon="11.917291480827025"><ele>240.0</ele><time>2026-04-18T12:27:44.999Z</time></trkpt><trkpt lat="45.86827348559702" lon="11.917371287689258"><ele>240.0</ele><time>2026-04-18T12:27:45.999Z</time></trkpt><trkpt lat="45.86818428363615" lon="11.917506429150606"><ele>240.0</ele><time>2026-04-18T12:27:46.999Z</time></trkpt><trkpt lat="45.868096622879875" lon="11.91764389898217"><ele>240.0</ele><time>2026-04-18T12:27:47.999Z</time></trkpt><trkpt lat="45.867998430541945" lon="11.917735085461732"><ele>240.0</ele><time>2026-04-18T12:27:48.999Z</time></trkpt><trkpt lat="45.86788292341147" lon="11.91777953446161"><ele>241.5</ele><time>2026-04-18T12:27:49.999Z</time></trkpt><trkpt lat="45.86775521804755" lon="11.91777167710569"><ele>243.0</ele><time>2026-04-18T12:27:50.999Z</time></trkpt><trkpt lat="45.867633816036374" lon="11.917723153940127"><ele>244.5</ele><time>2026-04-18T12:27:51.999Z</time></trkpt><trkpt lat="45.86752436058662" lon="11.91762264095733"><ele>246.0</ele><time>2026-04-18T12:27:52.999Z</time></trkpt><trkpt lat="45.86743155710442" lon="11.917472684294658"><ele>246.0</ele><time>2026-04-18T12:27:53.999Z</time></trkpt><trkpt lat="45.86731772494109" lon="11.91731676959622"><ele>246.0</ele><time>2026-04-18T12:27:54.999Z</time></trkpt><trkpt lat="45.86721179856054" lon="11.917179890340785"><ele>246.0</ele><time>2026-04-18T12:27:55.999Z</time></trkpt><trkpt lat="45.8671363730524" lon="11.916983758483747"><ele>246.0</ele><time>2026-04-18T12:27:56.999Z</time></trkpt><trkpt lat="45.86708839383879" lon="11.916804430054833"><ele>246.0</ele><time>2026-04-18T12:27:57.999Z</time></trkpt><trkpt lat="45.867058974491506" lon="11.916607552466376"><ele>246.0</ele><time>2026-04-18T12:27:58.999Z</time></trkpt><trkpt lat="45.86696807461096" lon="11.916547075833744"><ele>246.0</ele><time>2026-04-18T12:27:59.999Z</time></trkpt><trkpt lat="45.866860968245824" lon="11.91650418984664"><ele>246.5</ele><time>2026-04-18T12:28:00.999Z</time></trkpt><trkpt lat="45.8667270121305" lon="11.91652526775561"><ele>247.0</ele><time>2026-04-18T12:28:01.999Z</time></trkpt><trkpt lat="45.866585349943016" lon="11.9165795337767"><ele>247.5</ele><time>2026-04-18T12:28:02.999Z</time></trkpt><trkpt lat="45.86644203835461" lon="11.916614076559485"><ele>248.0</ele><time>2026-04-18T12:28:03.999Z</time></trkpt><trkpt lat="45.866294063000815" lon="11.91665686551061"><ele>248.0</ele><time>2026-04-18T12:28:04.999Z</time></trkpt><trkpt lat="45.866160105465916" lon="11.916630300429974"><ele>248.0</ele><time>2026-04-18T12:28:05.999Z</time></trkpt><trkpt lat="45.86603951735715" lon="11.916552617000852"><ele>248.0</ele><time>2026-04-18T12:28:06.999Z</time></trkpt><trkpt lat="45.86590513357258" lon="11.916452120208584"><ele>248.0</ele><time>2026-04-18T12:28:07.999Z</time></trkpt><trkpt lat="45.86578975558087" lon="11.91633224997528"><ele>247.75</ele><time>2026-04-18T12:28:08.999Z</time></trkpt><trkpt lat="45.86572899313811" lon="11.916200630434126"><ele>247.5</ele><time>2026-04-18T12:28:09.999Z</time></trkpt><trkpt lat="45.86568488323327" lon="11.916007057762577"><ele>247.25</ele><time>2026-04-18T12:28:10.999Z</time></trkpt><trkpt lat="45.865635780253356" lon="11.915804825490412"><ele>247.0</ele><time>2026-04-18T12:28:11.999Z</time></trkpt><trkpt lat="45.86558655241923" lon="11.915604071835366"><ele>249.66666666666666</ele><time>2026-04-18T12:28:12.999Z</time></trkpt><trkpt lat="45.86551976786397" lon="11.91540212959371"><ele>252.33333333333331</ele><time>2026-04-18T12:28:13.999Z</time></trkpt><trkpt lat="45.86547431647751" lon="11.915193384994152"><ele>255.0</ele><time>2026-04-18T12:28:14.999Z</time></trkpt><trkpt lat="45.86542925470755" lon="11.914994869575509"><ele>256.3333333333333</ele><time>2026-04-18T12:28:15.999Z</time></trkpt><trkpt lat="45.86541447389472" lon="11.914782604444499"><ele>257.66666666666663</ele><time>2026-04-18T12:28:16.999Z</time></trkpt><trkpt lat="45.86539329209431" lon="11.914564478169853"><ele>259.0</ele><time>2026-04-18T12:28:17.999Z</time></trkpt><trkpt lat="45.86535667249738" lon="11.914275316165261"><ele>259.66666666666663</ele><time>2026-04-18T12:28:18.999Z</time></trkpt><trkpt lat="45.865345253025026" lon="11.914065046988371"><ele>260.3333333333333</ele><time>2026-04-18T12:28:19.999Z</time></trkpt><trkpt lat="45.86534955344061" lon="11.9138283350641"><ele>261.0</ele><time>2026-04-18T12:28:20.999Z</time></trkpt><trkpt lat="45.86534227645424" lon="11.913589569539944"><ele>261.3333333333333</ele><time>2026-04-18T12:28:21.999Z</time></trkpt><trkpt lat="45.86533602327141" lon="11.91334013971308"><ele>261.66666666666663</ele><time>2026-04-18T12:28:22.999Z</time></trkpt><trkpt lat="45.86533374059246" lon="11.913104160998406"><ele>262.0</ele><time>2026-04-18T12:28:23.999Z</time></trkpt><trkpt lat="45.865326114045416" lon="11.912865727275184"><ele>262.0</ele><time>2026-04-18T12:28:24.999Z</time></trkpt><trkpt lat="45.86531852742728" lon="11.912635625689633"><ele>262.0</ele><time>2026-04-18T12:28:25.999Z</time></trkpt><trkpt lat="45.865310364798795" lon="11.912411551505878"><ele>262.0</ele><time>2026-04-18T12:28:26.999Z</time></trkpt><trkpt lat="45.86529668734669" lon="11.912203370881386"><ele>262.0</ele><time>2026-04-18T12:28:27.999Z</time></trkpt><trkpt lat="45.865288245273696" lon="11.912006005275186"><ele>262.0</ele><time>2026-04-18T12:28:28.999Z</time></trkpt><trkpt lat="45.86528680091817" lon="11.911828262666353"><ele>262.0</ele><time>2026-04-18T12:28:29.999Z</time></trkpt><trkpt lat="45.86527355948497" lon="11.911686550212705"><ele>262.0</ele><time>2026-04-18T12:28:30.999Z</time></trkpt><trkpt lat="45.865280344997494" lon="11.91155493961063"><ele>262.0</ele><time>2026-04-18T12:28:31.999Z</time></trkpt><trkpt lat="45.8652699041532" lon="11.911424781093142"><ele>262.0</ele><time>2026-04-18T12:28:32.999Z</time></trkpt><trkpt lat="45.8651024804213" lon="11.91125375223165"><ele>262.0</ele><time>2026-04-18T12:28:34.999Z</time></trkpt><trkpt lat="45.86499821913392" lon="11.911152922078433"><ele>262.0</ele><time>2026-04-18T12:28:35.999Z</time></trkpt><trkpt lat="45.864879140025174" lon="11.911031788525156"><ele>260.3333333333333</ele><time>2026-04-18T12:28:36.999Z</time></trkpt><trkpt lat="45.86475114175163" lon="11.910890193290703"><ele>258.6666666666667</ele><time>2026-04-18T12:28:37.999Z</time></trkpt><trkpt lat="45.864628256033306" lon="11.91073994227514"><ele>257.0</ele><time>2026-04-18T12:28:38.999Z</time></trkpt><trkpt lat="45.86450918825761" lon="11.910600688955885"><ele>257.0</ele><time>2026-04-18T12:28:39.999Z</time></trkpt><trkpt lat="45.86440327693372" lon="11.910476479275413"><ele>257.0</ele><time>2026-04-18T12:28:40.999Z</time></trkpt><trkpt lat="45.86428493877713" lon="11.910377947350437"><ele>257.0</ele><time>2026-04-18T12:28:41.999Z</time></trkpt><trkpt lat="45.864140524689624" lon="11.910332704429631"><ele>257.0</ele><time>2026-04-18T12:28:42.999Z</time></trkpt><trkpt lat="45.86398190247934" lon="11.910327700543736"><ele>256.0</ele><time>2026-04-18T12:28:43.999Z</time></trkpt><trkpt lat="45.863820697335896" lon="11.910348506664965"><ele>255.0</ele><time>2026-04-18T12:28:44.999Z</time></trkpt><trkpt lat="45.86365062175949" lon="11.910350543713612"><ele>254.0</ele><time>2026-04-18T12:28:45.999Z</time></trkpt><trkpt lat="45.86347026072849" lon="11.910347614311519"><ele>250.66666666666669</ele><time>2026-04-18T12:28:46.999Z</time></trkpt><trkpt lat="45.86328795800032" lon="11.910343216704176"><ele>247.33333333333331</ele><time>2026-04-18T12:28:48Z</time></trkpt><trkpt lat="45.86309570135162" lon="11.910343261411162"><ele>244.0</ele><time>2026-04-18T12:28:49Z</time></trkpt><trkpt lat="45.86290653431867" lon="11.910336405054274"><ele>244.0</ele><time>2026-04-18T12:28:50Z</time></trkpt><trkpt lat="45.86270871513426" lon="11.91032197290717"><ele>244.0</ele><time>2026-04-18T12:28:51Z</time></trkpt><trkpt lat="45.86251390433601" lon="11.910291540622376"><ele>244.0</ele><time>2026-04-18T12:28:52Z</time></trkpt><trkpt lat="45.8623208391656" lon="11.91024687374088"><ele>243.0</ele><time>2026-04-18T12:28:53Z</time></trkpt><trkpt lat="45.86212754830223" lon="11.910218345514695"><ele>242.0</ele><time>2026-04-18T12:28:54Z</time></trkpt><trkpt lat="45.861936031687215" lon="11.910243616383262"><ele>241.0</ele><time>2026-04-18T12:28:55Z</time></trkpt><trkpt lat="45.86173836949602" lon="11.910259752189642"><ele>239.66666666666666</ele><time>2026-04-18T12:28:56Z</time></trkpt><trkpt lat="45.86155083750378" lon="11.910291976502345"><ele>238.33333333333331</ele><time>2026-04-18T12:28:57Z</time></trkpt><trkpt lat="45.86136637343644" lon="11.910308705332824"><ele>237.0</ele><time>2026-04-18T12:28:58Z</time></trkpt><trkpt lat="45.861173574802166" lon="11.910333222907653"><ele>237.0</ele><time>2026-04-18T12:28:59Z</time></trkpt><trkpt lat="45.8609745073645" lon="11.91035127613703"><ele>237.0</ele><time>2026-04-18T12:29:00Z</time></trkpt><trkpt lat="45.860783189927155" lon="11.910374108125218"><ele>237.0</ele><time>2026-04-18T12:29:01Z</time></trkpt><trkpt lat="45.86058349264262" lon="11.910417817737489"><ele>235.66666666666669</ele><time>2026-04-18T12:29:02Z</time></trkpt><trkpt lat="45.86037673654316" lon="11.910454500889475"><ele>234.33333333333334</ele><time>2026-04-18T12:29:03Z</time></trkpt><trkpt lat="45.86017298978962" lon="11.910507976925238"><ele>233.0</ele><time>2026-04-18T12:29:04Z</time></trkpt><trkpt lat="45.85997802089493" lon="11.910548868735393"><ele>231.66666666666669</ele><time>2026-04-18T12:29:05Z</time></trkpt><trkpt lat="45.859778140399946" lon="11.910594764832405"><ele>230.33333333333331</ele><time>2026-04-18T12:29:06Z</time></trkpt><trkpt lat="45.85957751383618" lon="11.910626517110783"><ele>229.0</ele><time>2026-04-18T12:29:07Z</time></trkpt><trkpt lat="45.859374956914806" lon="11.910661053201585"><ele>227.33333333333331</ele><time>2026-04-18T12:29:08Z</time></trkpt><trkpt lat="45.85917114082407" lon="11.910708825768477"><ele>225.66666666666669</ele><time>2026-04-18T12:29:09Z</time></trkpt><trkpt lat="45.85898643912868" lon="11.91076324345634"><ele>224.0</ele><time>2026-04-18T12:29:10Z</time></trkpt><trkpt lat="45.85880895792745" lon="11.910831162515045"><ele>224.0</ele><time>2026-04-18T12:29:11Z</time></trkpt><trkpt lat="45.85864114587436" lon="11.910892018359727"><ele>224.0</ele><time>2026-04-18T12:29:12Z</time></trkpt><trkpt lat="45.858487005163354" lon="11.910949069726767"><ele>224.0</ele><time>2026-04-18T12:29:13Z</time></trkpt><trkpt lat="45.85836267325115" lon="11.910996248780554"><ele>223.75</ele><time>2026-04-18T12:29:14Z</time></trkpt><trkpt lat="45.85824811342072" lon="11.910991612469626"><ele>223.5</ele><time>2026-04-18T12:29:15Z</time></trkpt><trkpt lat="45.85812852526275" lon="11.910946788920393"><ele>223.25</ele><time>2026-04-18T12:29:16Z</time></trkpt><trkpt lat="45.858030673978845" lon="11.91084803381269"><ele>223.0</ele><time>2026-04-18T12:29:17Z</time></trkpt><trkpt lat="45.8579420235297" lon="11.910702237811146"><ele>223.0</ele><time>2026-04-18T12:29:18Z</time></trkpt><trkpt lat="45.85786086529851" lon="11.910521934853616"><ele>223.0</ele><time>2026-04-18T12:29:19Z</time></trkpt><trkpt lat="45.857777986596105" lon="11.910335890965635"><ele>223.0</ele><time>2026-04-18T12:29:20Z</time></trkpt><trkpt lat="45.857689315588374" lon="11.91013291754861"><ele>221.0</ele><time>2026-04-18T12:29:21Z</time></trkpt><trkpt lat="45.85759477976697" lon="11.909931760182022"><ele>219.0</ele><time>2026-04-18T12:29:22Z</time></trkpt><trkpt lat="45.85749968997825" lon="11.909719216948835"><ele>217.0</ele><time>2026-04-18T12:29:23Z</time></trkpt><trkpt lat="45.85739494033684" lon="11.909486272821093"><ele>216.33333333333331</ele><time>2026-04-18T12:29:24Z</time></trkpt><trkpt lat="45.85728305109781" lon="11.909226352341813"><ele>215.66666666666669</ele><time>2026-04-18T12:29:25Z</time></trkpt><trkpt lat="45.85718694780607" lon="11.908919523940869"><ele>215.0</ele><time>2026-04-18T12:29:26Z</time></trkpt><trkpt lat="45.85710993279433" lon="11.908572618340187"><ele>215.0</ele><time>2026-04-18T12:29:27Z</time></trkpt><trkpt lat="45.85706480377925" lon="11.90826235711362"><ele>215.0</ele><time>2026-04-18T12:29:28Z</time></trkpt><trkpt lat="45.85701300472537" lon="11.90793751952462"><ele>215.0</ele><time>2026-04-18T12:29:29Z</time></trkpt><trkpt lat="45.856944937564435" lon="11.90763543621756"><ele>215.0</ele><time>2026-04-18T12:29:30Z</time></trkpt><trkpt lat="45.85686583742401" lon="11.907341641674973"><ele>215.0</ele><time>2026-04-18T12:29:31Z</time></trkpt><trkpt lat="45.856776745183325" lon="11.907077718215154"><ele>214.66666666666669</ele><time>2026-04-18T12:29:32Z</time></trkpt><trkpt lat="45.856697202718394" lon="11.906850916137543"><ele>214.33333333333331</ele><time>2026-04-18T12:29:33Z</time></trkpt><trkpt lat="45.85664568915495" lon="11.906598334665318"><ele>214.0</ele><time>2026-04-18T12:29:34Z</time></trkpt><trkpt lat="45.85662006609856" lon="11.906339711717552"><ele>214.66666666666666</ele><time>2026-04-18T12:29:35Z</time></trkpt><trkpt lat="45.856635418251926" lon="11.90609653482552"><ele>215.33333333333331</ele><time>2026-04-18T12:29:36Z</time></trkpt><trkpt lat="45.8566901120261" lon="11.90587981761407"><ele>216.0</ele><time>2026-04-18T12:29:37Z</time></trkpt><trkpt lat="45.85675048086072" lon="11.905601727432469"><ele>216.33333333333331</ele><time>2026-04-18T12:29:38Z</time></trkpt><trkpt lat="45.85676424688786" lon="11.905356522632099"><ele>216.66666666666666</ele><time>2026-04-18T12:29:39Z</time></trkpt><trkpt lat="45.85678481726937" lon="11.905109387914367"><ele>217.0</ele><time>2026-04-18T12:29:40Z</time></trkpt><trkpt lat="45.85677677721273" lon="11.904846797921595"><ele>217.0</ele><time>2026-04-18T12:29:41Z</time></trkpt><trkpt lat="45.85676390982783" lon="11.904582202833573"><ele>217.0</ele><time>2026-04-18T12:29:42Z</time></trkpt><trkpt lat="45.856745228475944" lon="11.904316048918272"><ele>217.0</ele><time>2026-04-18T12:29:43Z</time></trkpt><trkpt lat="45.8567366552978" lon="11.904039639383576"><ele>217.33333333333331</ele><time>2026-04-18T12:29:44Z</time></trkpt><trkpt lat="45.856738175406186" lon="11.903760759063756"><ele>217.66666666666669</ele><time>2026-04-18T12:29:45Z</time></trkpt><trkpt lat="45.85674027086884" lon="11.903482581072502"><ele>218.0</ele><time>2026-04-18T12:29:45.999Z</time></trkpt><trkpt lat="45.85675455754897" lon="11.903200292829474"><ele>218.0</ele><time>2026-04-18T12:29:46.999Z</time></trkpt><trkpt lat="45.856756718988336" lon="11.90291463506347"><ele>218.0</ele><time>2026-04-18T12:29:47.999Z</time></trkpt><trkpt lat="45.856757243808374" lon="11.902623359659515"><ele>218.0</ele><time>2026-04-18T12:29:48.999Z</time></trkpt><trkpt lat="45.85675383368488" lon="11.902350293859499"><ele>218.33333333333334</ele><time>2026-04-18T12:29:49.999Z</time></trkpt><trkpt lat="45.8567458305296" lon="11.902091784646807"><ele>218.66666666666669</ele><time>2026-04-18T12:29:50.999Z</time></trkpt><trkpt lat="45.856732594298855" lon="11.901836519547974"><ele>219.0</ele><time>2026-04-18T12:29:51.999Z</time></trkpt><trkpt lat="45.85670950588936" lon="11.901567238375382"><ele>219.33333333333331</ele><time>2026-04-18T12:29:52.999Z</time></trkpt><trkpt lat="45.85667216814607" lon="11.90132407488921"><ele>219.66666666666666</ele><time>2026-04-18T12:29:53.999Z</time></trkpt><trkpt lat="45.856640167923295" lon="11.901063264724858"><ele>220.0</ele><time>2026-04-18T12:29:54.999Z</time></trkpt><trkpt lat="45.85660729298951" lon="11.900834466787535"><ele>220.75</ele><time>2026-04-18T12:29:55.999Z</time></trkpt><trkpt lat="45.85659196203499" lon="11.90062683259384"><ele>221.5</ele><time>2026-04-18T12:29:56.999Z</time></trkpt><trkpt lat="45.85655369580199" lon="11.900445909115172"><ele>222.25</ele><time>2026-04-18T12:29:57.999Z</time></trkpt><trkpt lat="45.85652731917956" lon="11.900267588381904"><ele>223.0</ele><time>2026-04-18T12:29:58.999Z</time></trkpt><trkpt lat="45.85648645530713" lon="11.90011369463912"><ele>222.83333333333331</ele><time>2026-04-18T12:29:59.999Z</time></trkpt><trkpt lat="45.85642268252749" lon="11.899992359434993"><ele>222.66666666666666</ele><time>2026-04-18T12:30:00.999Z</time></trkpt><trkpt lat="45.856356369444285" lon="11.899895061817983"><ele>222.5</ele><time>2026-04-18T12:30:01.999Z</time></trkpt><trkpt lat="45.85627601734456" lon="11.899835364125767"><ele>222.33333333333331</ele><time>2026-04-18T12:30:02.999Z</time></trkpt><trkpt lat="45.8562055310209" lon="11.899807617029655"><ele>222.16666666666666</ele><time>2026-04-18T12:30:03.999Z</time></trkpt><trkpt lat="45.8561618475119" lon="11.899722065423061"><ele>222.0</ele><time>2026-04-18T12:30:05.999Z</time></trkpt><trkpt lat="45.85615578900407" lon="11.899599792082245"><ele>222.0</ele><time>2026-04-18T12:30:07.999Z</time></trkpt><trkpt lat="45.85608882293451" lon="11.899556426424242"><ele>222.0</ele><time>2026-04-18T12:30:08.999Z</time></trkpt><trkpt lat="45.85602895188013" lon="11.89951699926485"><ele>222.0</ele><time>2026-04-18T12:30:09.999Z</time></trkpt><trkpt lat="45.85594145259252" lon="11.899441535722344"><ele>222.0</ele><time>2026-04-18T12:30:11.999Z</time></trkpt><trkpt lat="45.85585571533027" lon="11.899370692411663"><ele>222.0</ele><time>2026-04-18T12:30:13.999Z</time></trkpt><trkpt lat="45.855786129481395" lon="11.8992870051297"><ele>222.0</ele><time>2026-04-18T12:30:15.999Z</time></trkpt><trkpt lat="45.85573396617263" lon="11.899230222268075"><ele>221.25</ele><time>2026-04-18T12:30:17.999Z</time></trkpt><trkpt lat="45.85563821920874" lon="11.899466146687596"><ele>220.5</ele><time>2026-04-18T12:30:20.999Z</time></trkpt><trkpt lat="45.85569958675584" lon="11.899545389305214"><ele>219.75</ele><time>2026-04-18T12:30:21.999Z</time></trkpt><trkpt lat="45.85578852513507" lon="11.89962811206225"><ele>219.0</ele><time>2026-04-18T12:30:22.999Z</time></trkpt><trkpt lat="45.85585145265643" lon="11.899675696953548"><ele>219.0</ele><time>2026-04-18T12:30:23.999Z</time></trkpt><trkpt lat="45.855920526734174" lon="11.899721996806502"><ele>219.0</ele><time>2026-04-18T12:30:24.999Z</time></trkpt><trkpt lat="45.856034137897815" lon="11.899782725600353"><ele>219.0</ele><time>2026-04-18T12:30:26.999Z</time></trkpt><trkpt lat="45.85617505036138" lon="11.899610847626725"><ele>219.0</ele><time>2026-04-18T12:30:28.999Z</time></trkpt><trkpt lat="45.856225681530965" lon="11.899537502030908"><ele>219.33333333333334</ele><time>2026-04-18T12:30:29.999Z</time></trkpt><trkpt lat="45.85627135668958" lon="11.899448129401732"><ele>219.66666666666669</ele><time>2026-04-18T12:30:30.999Z</time></trkpt><trkpt lat="45.85630562157615" lon="11.899355311659114"><ele>220.0</ele><time>2026-04-18T12:30:31.999Z</time></trkpt><trkpt lat="45.856344075551306" lon="11.899251339497267"><ele>220.33333333333334</ele><time>2026-04-18T12:30:32.999Z</time></trkpt><trkpt lat="45.85638639578203" lon="11.899146393325173"><ele>220.66666666666669</ele><time>2026-04-18T12:30:33.999Z</time></trkpt><trkpt lat="45.856445321943134" lon="11.89900111176802"><ele>221.0</ele><time>2026-04-18T12:30:35.999Z</time></trkpt><trkpt lat="45.85651609938448" lon="11.898917515451469"><ele>221.0</ele><time>2026-04-18T12:30:37.999Z</time></trkpt><trkpt lat="45.85661258695941" lon="11.898885640088777"><ele>221.00000000000003</ele><time>2026-04-18T12:30:40.999Z</time></trkpt><trkpt lat="45.856723358406555" lon="11.898857013346055"><ele>221.00000000000003</ele><time>2026-04-18T12:30:42.999Z</time></trkpt><trkpt lat="45.85680780723" lon="11.898837586549044"><ele>221.0</ele><time>2026-04-18T12:30:44.999Z</time></trkpt><trkpt lat="45.856870157037115" lon="11.898823243585054"><ele>221.0</ele><time>2026-04-18T12:30:47.999Z</time></trkpt><trkpt lat="45.85686378681442" lon="11.89864246283231"><ele>221.0</ele><time>2026-04-18T12:30:50.999Z</time></trkpt><trkpt lat="45.85684929949394" lon="11.898520332397629"><ele>221.00000000000003</ele><time>2026-04-18T12:30:55Z</time></trkpt><trkpt lat="45.85682953422741" lon="11.898404482280508"><ele>221.00000000000003</ele><time>2026-04-18T12:30:57Z</time></trkpt><trkpt lat="45.85681452555441" lon="11.898285737148415"><ele>221.0</ele><time>2026-04-18T12:30:59Z</time></trkpt><trkpt lat="45.85678852179754" lon="11.898169065035004"><ele>221.0</ele><time>2026-04-18T12:31:01Z</time></trkpt><trkpt lat="45.85668307114644" lon="11.898115319787355"><ele>221.00000000000003</ele><time>2026-04-18T12:31:04Z</time></trkpt><trkpt lat="45.85661181795219" lon="11.898084986675324"><ele>221.0</ele><time>2026-04-18T12:31:06Z</time></trkpt><trkpt lat="45.85655256513365" lon="11.898035666342034"><ele>221.0</ele><time>2026-04-18T12:31:09Z</time></trkpt><trkpt lat="45.85650793222744" lon="11.897966608579974"><ele>221.0</ele><time>2026-04-18T12:31:12Z</time></trkpt><trkpt lat="45.856441540113074" lon="11.897935913589565"><ele>221.0</ele><time>2026-04-18T12:31:16Z</time></trkpt><trkpt lat="45.856375788281056" lon="11.89797148411514"><ele>221.00000000000003</ele><time>2026-04-18T12:31:21Z</time></trkpt><trkpt lat="45.856435243752365" lon="11.898020605896745"><ele>221.0</ele><time>2026-04-18T12:37:06.999Z</time></trkpt><trkpt lat="45.856375955478065" lon="11.897975686809138"><ele>221.00000000000003</ele><time>2026-04-18T12:37:37Z</time></trkpt><trkpt lat="45.85635795807539" lon="11.897851762971138"><ele>221.0</ele><time>2026-04-18T12:50:14Z</time></trkpt><trkpt lat="45.85632424394094" lon="11.897771460629734"><ele>221.0</ele><time>2026-04-18T12:50:16Z</time></trkpt><trkpt lat="45.85627501180562" lon="11.897692536994715"><ele>221.0</ele><time>2026-04-18T12:50:19Z</time></trkpt><trkpt lat="45.856162887402505" lon="11.897725655496"><ele>221.00000000000003</ele><time>2026-04-18T12:50:21Z</time></trkpt><trkpt lat="45.85610965110793" lon="11.897797605508181"><ele>221.0</ele><time>2026-04-18T12:50:22Z</time></trkpt><trkpt lat="45.856072599524275" lon="11.897878043168392"><ele>221.00000000000003</ele><time>2026-04-18T12:50:23Z</time></trkpt><trkpt lat="45.856027857871055" lon="11.897964648615217"><ele>221.0</ele><time>2026-04-18T12:50:24Z</time></trkpt><trkpt lat="45.85597149871812" lon="11.89805167051542"><ele>221.0</ele><time>2026-04-18T12:50:25Z</time></trkpt><trkpt lat="45.85591575643372" lon="11.898150513187542"><ele>221.0</ele><time>2026-04-18T12:50:26Z</time></trkpt><trkpt lat="45.855863765504125" lon="11.898256712081562"><ele>221.00000000000003</ele><time>2026-04-18T12:50:27Z</time></trkpt><trkpt lat="45.85580259319512" lon="11.89836384295622"><ele>221.0</ele><time>2026-04-18T12:50:28Z</time></trkpt><trkpt lat="45.855737516569356" lon="11.898471164843297"><ele>220.5</ele><time>2026-04-18T12:50:29Z</time></trkpt><trkpt lat="45.8556705902543" lon="11.89859870040319"><ele>220.0</ele><time>2026-04-18T12:50:30Z</time></trkpt><trkpt lat="45.85560011924887" lon="11.898720555864534"><ele>219.5</ele><time>2026-04-18T12:50:31Z</time></trkpt><trkpt lat="45.85552287269595" lon="11.898839310794637"><ele>219.0</ele><time>2026-04-18T12:50:32Z</time></trkpt><trkpt lat="45.855431641525676" lon="11.898946187004885"><ele>219.0</ele><time>2026-04-18T12:50:33Z</time></trkpt><trkpt lat="45.85530420564939" lon="11.899012417665148"><ele>219.0</ele><time>2026-04-18T12:50:34Z</time></trkpt><trkpt lat="45.85518872965094" lon="11.899092525180828"><ele>219.0</ele><time>2026-04-18T12:50:35Z</time></trkpt><trkpt lat="45.85507168921983" lon="11.899175168778303"><ele>219.0</ele><time>2026-04-18T12:50:36Z</time></trkpt><trkpt lat="45.85493281534639" lon="11.899245017208344"><ele>218.5</ele><time>2026-04-18T12:50:37Z</time></trkpt><trkpt lat="45.85479965068597" lon="11.899284883895701"><ele>218.0</ele><time>2026-04-18T12:50:38Z</time></trkpt><trkpt lat="45.854649027386785" lon="11.899324471545192"><ele>217.5</ele><time>2026-04-18T12:50:39Z</time></trkpt><trkpt lat="45.85451151563978" lon="11.899360055431675"><ele>217.0</ele><time>2026-04-18T12:50:40Z</time></trkpt><trkpt lat="45.85439482605865" lon="11.899390206736424"><ele>216.8</ele><time>2026-04-18T12:50:41Z</time></trkpt><trkpt lat="45.85428601868486" lon="11.899416275946825"><ele>216.6</ele><time>2026-04-18T12:50:42Z</time></trkpt><trkpt lat="45.85418023880468" lon="11.89944694023272"><ele>216.40000000000003</ele><time>2026-04-18T12:50:43Z</time></trkpt><trkpt lat="45.85407918922736" lon="11.899480311037221"><ele>216.20000000000002</ele><time>2026-04-18T12:50:44Z</time></trkpt><trkpt lat="45.85397943149533" lon="11.899510913613158"><ele>216.0</ele><time>2026-04-18T12:50:45Z</time></trkpt><trkpt lat="45.85389794723064" lon="11.899534179232083"><ele>216.0</ele><time>2026-04-18T12:50:46Z</time></trkpt><trkpt lat="45.85381233220189" lon="11.89954934132888"><ele>216.0</ele><time>2026-04-18T12:50:47Z</time></trkpt><trkpt lat="45.85373989921766" lon="11.899545691535653"><ele>216.0</ele><time>2026-04-18T12:50:48Z</time></trkpt><trkpt lat="45.853664297425134" lon="11.899584482316"><ele>216.0</ele><time>2026-04-18T12:50:49.999Z</time></trkpt><trkpt lat="45.85363663458464" lon="11.89947814101905"><ele>216.0</ele><time>2026-04-18T12:50:50.999Z</time></trkpt><trkpt lat="45.8535782597844" lon="11.899370226043498"><ele>216.0</ele><time>2026-04-18T12:50:52.999Z</time></trkpt><trkpt lat="45.85353597169632" lon="11.89930138839072"><ele>215.8</ele><time>2026-04-18T12:50:53.999Z</time></trkpt><trkpt lat="45.853527398649334" lon="11.899153791367922"><ele>215.60000000000002</ele><time>2026-04-18T12:50:54.999Z</time></trkpt><trkpt lat="45.853503623188686" lon="11.89903335660917"><ele>215.4</ele><time>2026-04-18T12:50:55.999Z</time></trkpt><trkpt lat="45.85347199087483" lon="11.898896810660377"><ele>215.2</ele><time>2026-04-18T12:50:56.999Z</time></trkpt><trkpt lat="45.85344115494621" lon="11.898727374847903"><ele>215.0</ele><time>2026-04-18T12:50:57.999Z</time></trkpt><trkpt lat="45.85339386972713" lon="11.898539900383676"><ele>215.0</ele><time>2026-04-18T12:50:58.999Z</time></trkpt><trkpt lat="45.853349839004196" lon="11.898352444898244"><ele>215.0</ele><time>2026-04-18T12:50:59.999Z</time></trkpt><trkpt lat="45.85330979245371" lon="11.898167585573749"><ele>215.0</ele><time>2026-04-18T12:51:00.999Z</time></trkpt><trkpt lat="45.8532668760059" lon="11.897966020137362"><ele>215.0</ele><time>2026-04-18T12:51:01.999Z</time></trkpt><trkpt lat="45.853220713134085" lon="11.897753862825565"><ele>215.75</ele><time>2026-04-18T12:51:02.999Z</time></trkpt><trkpt lat="45.85317215711017" lon="11.897556145366533"><ele>216.5</ele><time>2026-04-18T12:51:03.999Z</time></trkpt><trkpt lat="45.85312773601804" lon="11.897367141029564"><ele>217.25</ele><time>2026-04-18T12:51:04.999Z</time></trkpt><trkpt lat="45.85307709970189" lon="11.89718143232346"><ele>218.0</ele><time>2026-04-18T12:51:05.999Z</time></trkpt><trkpt lat="45.85303039850061" lon="11.89698485255116"><ele>218.0</ele><time>2026-04-18T12:51:06.999Z</time></trkpt><trkpt lat="45.85298166726887" lon="11.896792643677676"><ele>218.0</ele><time>2026-04-18T12:51:07.999Z</time></trkpt><trkpt lat="45.85294591595652" lon="11.896586787465504"><ele>218.0</ele><time>2026-04-18T12:51:08.999Z</time></trkpt><trkpt lat="45.85290284529428" lon="11.896367556142756"><ele>218.0</ele><time>2026-04-18T12:51:09.999Z</time></trkpt><trkpt lat="45.85284702183768" lon="11.896136844022372"><ele>218.0</ele><time>2026-04-18T12:51:10.999Z</time></trkpt><trkpt lat="45.85279852420681" lon="11.895924337750245"><ele>218.0</ele><time>2026-04-18T12:51:11.999Z</time></trkpt><trkpt lat="45.85274542149964" lon="11.895716891781191"><ele>218.0</ele><time>2026-04-18T12:51:12.999Z</time></trkpt><trkpt lat="45.85269150629323" lon="11.895522653838368"><ele>218.0</ele><time>2026-04-18T12:51:13.999Z</time></trkpt><trkpt lat="45.8526619073543" lon="11.895309588075307"><ele>218.0</ele><time>2026-04-18T12:51:14.999Z</time></trkpt><trkpt lat="45.85261626642008" lon="11.895105181703556"><ele>218.0</ele><time>2026-04-18T12:51:15.999Z</time></trkpt><trkpt lat="45.85258232906121" lon="11.89490525250417"><ele>218.0</ele><time>2026-04-18T12:51:16.999Z</time></trkpt><trkpt lat="45.85252665964288" lon="11.894696517968013"><ele>218.33333333333334</ele><time>2026-04-18T12:51:17.999Z</time></trkpt><trkpt lat="45.852480811934335" lon="11.894488184084766"><ele>218.66666666666669</ele><time>2026-04-18T12:51:18.999Z</time></trkpt><trkpt lat="45.85243085205824" lon="11.894280752813998"><ele>219.0</ele><time>2026-04-18T12:51:19.999Z</time></trkpt><trkpt lat="45.852387133351584" lon="11.894072531577482"><ele>219.0</ele><time>2026-04-18T12:51:20.999Z</time></trkpt><trkpt lat="45.85233753723179" lon="11.8938617235193"><ele>219.0</ele><time>2026-04-18T12:51:21.999Z</time></trkpt><trkpt lat="45.85228167497642" lon="11.893645422363598"><ele>219.0</ele><time>2026-04-18T12:51:22.999Z</time></trkpt><trkpt lat="45.85223488352738" lon="11.89342647541905"><ele>218.66666666666669</ele><time>2026-04-18T12:51:23.999Z</time></trkpt><trkpt lat="45.85218432207325" lon="11.893204710249114"><ele>218.33333333333334</ele><time>2026-04-18T12:51:24.999Z</time></trkpt><trkpt lat="45.852134836788935" lon="11.892975061363924"><ele>218.0</ele><time>2026-04-18T12:51:25.999Z</time></trkpt><trkpt lat="45.85207396588244" lon="11.892750310449033"><ele>217.66666666666669</ele><time>2026-04-18T12:51:26.999Z</time></trkpt><trkpt lat="45.85200607061168" lon="11.892521404133117"><ele>217.33333333333331</ele><time>2026-04-18T12:51:27.999Z</time></trkpt><trkpt lat="45.851930583939314" lon="11.892298620396426"><ele>217.0</ele><time>2026-04-18T12:51:28.999Z</time></trkpt><trkpt lat="45.85183909500066" lon="11.89208180188073"><ele>218.0</ele><time>2026-04-18T12:51:29.999Z</time></trkpt><trkpt lat="45.85174755157485" lon="11.891876926566486"><ele>219.0</ele><time>2026-04-18T12:51:30.999Z</time></trkpt><trkpt lat="45.85164494538325" lon="11.891687383969275"><ele>220.0</ele><time>2026-04-18T12:51:31.999Z</time></trkpt><trkpt lat="45.851533091099256" lon="11.89148941593248"><ele>220.0</ele><time>2026-04-18T12:51:32.999Z</time></trkpt><trkpt lat="45.85145008640694" lon="11.891303146348461"><ele>220.0</ele><time>2026-04-18T12:51:33.999Z</time></trkpt><trkpt lat="45.851341750622296" lon="11.891113484697867"><ele>220.0</ele><time>2026-04-18T12:51:34.999Z</time></trkpt><trkpt lat="45.85123464965756" lon="11.890916572175094"><ele>220.0</ele><time>2026-04-18T12:51:35.999Z</time></trkpt><trkpt lat="45.85112810244498" lon="11.890723357820198"><ele>220.0</ele><time>2026-04-18T12:51:36.999Z</time></trkpt><trkpt lat="45.851036022177084" lon="11.890541629132601"><ele>220.0</ele><time>2026-04-18T12:51:37.999Z</time></trkpt><trkpt lat="45.850936233654515" lon="11.890365492187765"><ele>221.33333333333331</ele><time>2026-04-18T12:51:38.999Z</time></trkpt><trkpt lat="45.85082576242347" lon="11.890169396881362"><ele>222.66666666666669</ele><time>2026-04-18T12:51:39.999Z</time></trkpt><trkpt lat="45.85073909500128" lon="11.889996101537342"><ele>224.0</ele><time>2026-04-18T12:51:40.999Z</time></trkpt><trkpt lat="45.85067046200472" lon="11.889842246652659"><ele>224.25</ele><time>2026-04-18T12:51:41.999Z</time></trkpt><trkpt lat="45.85059944913057" lon="11.88969893475787"><ele>224.5</ele><time>2026-04-18T12:51:42.999Z</time></trkpt><trkpt lat="45.85052543364753" lon="11.889555472803602"><ele>224.75</ele><time>2026-04-18T12:51:43.999Z</time></trkpt><trkpt lat="45.85045271463459" lon="11.88940803661371"><ele>225.0</ele><time>2026-04-18T12:51:44.999Z</time></trkpt><trkpt lat="45.85036784390399" lon="11.889259881541687"><ele>225.4</ele><time>2026-04-18T12:51:45.999Z</time></trkpt><trkpt lat="45.850295531555936" lon="11.88911649858211"><ele>225.8</ele><time>2026-04-18T12:51:46.999Z</time></trkpt><trkpt lat="45.85023562668802" lon="11.888996600681887"><ele>226.2</ele><time>2026-04-18T12:51:47.999Z</time></trkpt><trkpt lat="45.85018351376426" lon="11.88888139183812"><ele>226.6</ele><time>2026-04-18T12:51:48.999Z</time></trkpt><trkpt lat="45.85013435502368" lon="11.888774064862938"><ele>227.0</ele><time>2026-04-18T12:51:49.999Z</time></trkpt><trkpt lat="45.85006663229037" lon="11.888662839546502"><ele>227.0</ele><time>2026-04-18T12:51:50.999Z</time></trkpt><trkpt lat="45.849999578045086" lon="11.888557080301918"><ele>227.0</ele><time>2026-04-18T12:51:51.999Z</time></trkpt><trkpt lat="45.84994651967996" lon="11.888461836019305"><ele>227.0</ele><time>2026-04-18T12:51:52.999Z</time></trkpt><trkpt lat="45.84989749291988" lon="11.888354985296543"><ele>227.0</ele><time>2026-04-18T12:51:54Z</time></trkpt><trkpt lat="45.849810737024946" lon="11.888236726806229"><ele>227.0</ele><time>2026-04-18T12:51:55Z</time></trkpt><trkpt lat="45.84979007385944" lon="11.888125968896523"><ele>227.25</ele><time>2026-04-18T12:51:56Z</time></trkpt><trkpt lat="45.84974830029875" lon="11.887992166289104"><ele>227.5</ele><time>2026-04-18T12:51:57Z</time></trkpt><trkpt lat="45.849698713816245" lon="11.887833836120652"><ele>227.75</ele><time>2026-04-18T12:51:58Z</time></trkpt><trkpt lat="45.8496431939917" lon="11.887667405987512"><ele>228.0</ele><time>2026-04-18T12:51:59Z</time></trkpt><trkpt lat="45.84958572039588" lon="11.887496626215189"><ele>228.5</ele><time>2026-04-18T12:52:00Z</time></trkpt><trkpt lat="45.84953470395606" lon="11.88730704474522"><ele>229.0</ele><time>2026-04-18T12:52:01Z</time></trkpt><trkpt lat="45.849490704811885" lon="11.88709948626331"><ele>229.5</ele><time>2026-04-18T12:52:02Z</time></trkpt><trkpt lat="45.849447391966315" lon="11.886890413192404"><ele>230.0</ele><time>2026-04-18T12:52:03Z</time></trkpt><trkpt lat="45.84939566563517" lon="11.886671830088567"><ele>231.0</ele><time>2026-04-18T12:52:04Z</time></trkpt><trkpt lat="45.84934498763413" lon="11.886453483352845"><ele>232.0</ele><time>2026-04-18T12:52:05Z</time></trkpt><trkpt lat="45.84929268770273" lon="11.886228609772953"><ele>233.0</ele><time>2026-04-18T12:52:06Z</time></trkpt><trkpt lat="45.84927058380027" lon="11.886019514928108"><ele>233.33333333333334</ele><time>2026-04-18T12:52:07Z</time></trkpt><trkpt lat="45.84922371800243" lon="11.885796330657694"><ele>233.66666666666669</ele><time>2026-04-18T12:52:08Z</time></trkpt><trkpt lat="45.84916369739386" lon="11.885562925255439"><ele>234.0</ele><time>2026-04-18T12:52:09Z</time></trkpt><trkpt lat="45.84910943028793" lon="11.885335068041138"><ele>234.0</ele><time>2026-04-18T12:52:10Z</time></trkpt><trkpt lat="45.84905526656165" lon="11.885107269610954"><ele>234.0</ele><time>2026-04-18T12:52:11Z</time></trkpt><trkpt lat="45.849001346374116" lon="11.88487463417059"><ele>234.0</ele><time>2026-04-18T12:52:12Z</time></trkpt><trkpt lat="45.84895523697547" lon="11.884643958531585"><ele>234.0</ele><time>2026-04-18T12:52:13Z</time></trkpt><trkpt lat="45.84890359908374" lon="11.884410087230291"><ele>234.0</ele><time>2026-04-18T12:52:14Z</time></trkpt><trkpt lat="45.84885623034832" lon="11.884180867286934"><ele>234.0</ele><time>2026-04-18T12:52:15Z</time></trkpt><trkpt lat="45.848823115459496" lon="11.883936966503475"><ele>234.25</ele><time>2026-04-18T12:52:16Z</time></trkpt><trkpt lat="45.84879586537418" lon="11.883731434217367"><ele>234.5</ele><time>2026-04-18T12:52:17Z</time></trkpt><trkpt lat="45.84877662132839" lon="11.883521835248551"><ele>234.75</ele><time>2026-04-18T12:52:18Z</time></trkpt><trkpt lat="45.84875779780349" lon="11.883317241171861"><ele>235.0</ele><time>2026-04-18T12:52:19Z</time></trkpt><trkpt lat="45.848735793493475" lon="11.883131420693251"><ele>235.49999999999997</ele><time>2026-04-18T12:52:20Z</time></trkpt><trkpt lat="45.84873089696505" lon="11.882979495918198"><ele>236.0</ele><time>2026-04-18T12:52:21Z</time></trkpt><trkpt lat="45.848716797233" lon="11.882849930294581"><ele>236.5</ele><time>2026-04-18T12:52:22Z</time></trkpt><trkpt lat="45.84870983881034" lon="11.882754464991512"><ele>237.0</ele><time>2026-04-18T12:52:23Z</time></trkpt><trkpt lat="45.84873442348123" lon="11.88263095648361"><ele>237.49999999999997</ele><time>2026-04-18T12:52:25Z</time></trkpt><trkpt lat="45.84873396329723" lon="11.882528167858162"><ele>238.0</ele><time>2026-04-18T12:52:29Z</time></trkpt><trkpt lat="45.84862123778167" lon="11.882236221682989"><ele>238.0</ele><time>2026-04-18T12:57:31.999Z</time></trkpt><trkpt lat="45.84860835153087" lon="11.882125701659767"><ele>238.0</ele><time>2026-04-18T12:57:32.999Z</time></trkpt><trkpt lat="45.848601200976766" lon="11.882000987190915"><ele>238.0</ele><time>2026-04-18T12:57:33.999Z</time></trkpt><trkpt lat="45.84859533740509" lon="11.881861901207285"><ele>238.0</ele><time>2026-04-18T12:57:34.999Z</time></trkpt><trkpt lat="45.84857768883628" lon="11.881713270361182"><ele>238.0</ele><time>2026-04-18T12:57:35.999Z</time></trkpt><trkpt lat="45.848549282142294" lon="11.881514617622658"><ele>238.5</ele><time>2026-04-18T12:57:36.999Z</time></trkpt><trkpt lat="45.848530129135185" lon="11.881313424831708"><ele>239.0</ele><time>2026-04-18T12:57:37.999Z</time></trkpt><trkpt lat="45.848511539058656" lon="11.88111626031302"><ele>239.5</ele><time>2026-04-18T12:57:38.999Z</time></trkpt><trkpt lat="45.84849455504967" lon="11.880904857227016"><ele>240.0</ele><time>2026-04-18T12:57:39.999Z</time></trkpt><trkpt lat="45.84847103192475" lon="11.880686350349455"><ele>240.33333333333331</ele><time>2026-04-18T12:57:40.999Z</time></trkpt><trkpt lat="45.84844952316381" lon="11.880470116259463"><ele>240.66666666666666</ele><time>2026-04-18T12:57:41.999Z</time></trkpt><trkpt lat="45.84843189896294" lon="11.880228590643771"><ele>241.0</ele><time>2026-04-18T12:57:42.999Z</time></trkpt><trkpt lat="45.84840594068729" lon="11.879991281836933"><ele>242.0</ele><time>2026-04-18T12:57:43.999Z</time></trkpt><trkpt lat="45.84837635640784" lon="11.879751322941006"><ele>243.0</ele><time>2026-04-18T12:57:44.999Z</time></trkpt><trkpt lat="45.848355461202125" lon="11.879511572792543"><ele>244.0</ele><time>2026-04-18T12:57:45.999Z</time></trkpt><trkpt lat="45.84833523192883" lon="11.879278563285347"><ele>244.66666666666666</ele><time>2026-04-18T12:57:46.999Z</time></trkpt><trkpt lat="45.84831048659023" lon="11.879038966890882"><ele>245.33333333333331</ele><time>2026-04-18T12:57:47.999Z</time></trkpt><trkpt lat="45.848300863750275" lon="11.878810036045639"><ele>246.0</ele><time>2026-04-18T12:57:48.999Z</time></trkpt><trkpt lat="45.84826701625843" lon="11.878589086367137"><ele>246.75</ele><time>2026-04-18T12:57:49.999Z</time></trkpt><trkpt lat="45.84825188644905" lon="11.878370161337745"><ele>247.5</ele><time>2026-04-18T12:57:50.999Z</time></trkpt><trkpt lat="45.84823644256151" lon="11.87816783105362"><ele>248.25</ele><time>2026-04-18T12:57:51.999Z</time></trkpt><trkpt lat="45.84822163806472" lon="11.87799022431142"><ele>249.0</ele><time>2026-04-18T12:57:52.999Z</time></trkpt><trkpt lat="45.84820576064072" lon="11.877834470111534"><ele>249.0</ele><time>2026-04-18T12:57:53.999Z</time></trkpt><trkpt lat="45.8481886256171" lon="11.877696457508804"><ele>249.0</ele><time>2026-04-18T12:57:54.999Z</time></trkpt><trkpt lat="45.84819009016253" lon="11.877567331259757"><ele>249.0</ele><time>2026-04-18T12:57:55.999Z</time></trkpt><trkpt lat="45.84822311104825" lon="11.877406358464661"><ele>249.0</ele><time>2026-04-18T12:57:57.999Z</time></trkpt><trkpt lat="45.84825025489551" lon="11.877324549438105"><ele>249.0</ele><time>2026-04-18T12:57:58.999Z</time></trkpt><trkpt lat="45.84828703685639" lon="11.877238896641915"><ele>249.0</ele><time>2026-04-18T12:57:59.999Z</time></trkpt><trkpt lat="45.84832622117144" lon="11.87716034199466"><ele>249.16666666666666</ele><time>2026-04-18T12:58:00.999Z</time></trkpt><trkpt lat="45.848373077833905" lon="11.877084418337148"><ele>249.33333333333331</ele><time>2026-04-18T12:58:01.999Z</time></trkpt><trkpt lat="45.84842664512166" lon="11.877010390044761"><ele>249.5</ele><time>2026-04-18T12:58:02.999Z</time></trkpt><trkpt lat="45.848492182125916" lon="11.87693982710348"><ele>249.66666666666666</ele><time>2026-04-18T12:58:03.999Z</time></trkpt><trkpt lat="45.84855910658646" lon="11.876884359085441"><ele>249.83333333333331</ele><time>2026-04-18T12:58:04.999Z</time></trkpt><trkpt lat="45.84863655493798" lon="11.876828920947917"><ele>250.0</ele><time>2026-04-18T12:58:05.999Z</time></trkpt><trkpt lat="45.84870729300108" lon="11.876761571524279"><ele>250.2</ele><time>2026-04-18T12:58:06.999Z</time></trkpt><trkpt lat="45.84879085463184" lon="11.876710074665752"><ele>250.4</ele><time>2026-04-18T12:58:07.999Z</time></trkpt><trkpt lat="45.84886960053558" lon="11.876635335487585"><ele>250.60000000000002</ele><time>2026-04-18T12:58:08.999Z</time></trkpt><trkpt lat="45.848964767775065" lon="11.87655609566707"><ele>250.8</ele><time>2026-04-18T12:58:09.999Z</time></trkpt><trkpt lat="45.8490740450763" lon="11.876468574967511"><ele>251.0</ele><time>2026-04-18T12:58:10.999Z</time></trkpt><trkpt lat="45.849177619151384" lon="11.876359316486232"><ele>252.25</ele><time>2026-04-18T12:58:12Z</time></trkpt><trkpt lat="45.849304846933755" lon="11.876253462537534"><ele>253.5</ele><time>2026-04-18T12:58:13Z</time></trkpt><trkpt lat="45.84943294736167" lon="11.876141996688139"><ele>254.75</ele><time>2026-04-18T12:58:14Z</time></trkpt><trkpt lat="45.84956801090718" lon="11.876045907988125"><ele>256.0</ele><time>2026-04-18T12:58:15Z</time></trkpt><trkpt lat="45.84970847596036" lon="11.875958493206948"><ele>256.66666666666663</ele><time>2026-04-18T12:58:16Z</time></trkpt><trkpt lat="45.84985465468236" lon="11.875855288111655"><ele>257.3333333333333</ele><time>2026-04-18T12:58:17Z</time></trkpt><trkpt lat="45.84999716743808" lon="11.875742634943183"><ele>258.0</ele><time>2026-04-18T12:58:18Z</time></trkpt><trkpt lat="45.85011984320569" lon="11.875626184543952"><ele>258.75</ele><time>2026-04-18T12:58:19Z</time></trkpt><trkpt lat="45.850242212158264" lon="11.875529988254058"><ele>259.5</ele><time>2026-04-18T12:58:20Z</time></trkpt><trkpt lat="45.85034022179521" lon="11.87543155611966"><ele>260.25</ele><time>2026-04-18T12:58:21Z</time></trkpt><trkpt lat="45.8504466053625" lon="11.875341053411507"><ele>261.0</ele><time>2026-04-18T12:58:22Z</time></trkpt><trkpt lat="45.850523224438945" lon="11.875224633907186"><ele>261.0</ele><time>2026-04-18T12:58:23Z</time></trkpt><trkpt lat="45.85062410708611" lon="11.875117202977846"><ele>261.0</ele><time>2026-04-18T12:58:24Z</time></trkpt><trkpt lat="45.850703349845375" lon="11.874997442455609"><ele>261.0</ele><time>2026-04-18T12:58:25Z</time></trkpt><trkpt lat="45.85077456724468" lon="11.87486304197028"><ele>261.0</ele><time>2026-04-18T12:58:26Z</time></trkpt><trkpt lat="45.850854485387174" lon="11.874728276486193"><ele>261.40000000000003</ele><time>2026-04-18T12:58:27Z</time></trkpt><trkpt lat="45.85093579865315" lon="11.874576909478685"><ele>261.8</ele><time>2026-04-18T12:58:28Z</time></trkpt><trkpt lat="45.85101272823019" lon="11.874449462536152"><ele>262.20000000000005</ele><time>2026-04-18T12:58:29Z</time></trkpt><trkpt lat="45.85107574708278" lon="11.874338126615001"><ele>262.6</ele><time>2026-04-18T12:58:30Z</time></trkpt><trkpt lat="45.851140522153045" lon="11.874233606607795"><ele>263.0</ele><time>2026-04-18T12:58:31Z</time></trkpt><trkpt lat="45.85120385526188" lon="11.87412839781339"><ele>264.75</ele><time>2026-04-18T12:58:32Z</time></trkpt><trkpt lat="45.85126881115318" lon="11.874059826422808"><ele>266.5</ele><time>2026-04-18T12:58:33Z</time></trkpt><trkpt lat="45.85143349571478" lon="11.874026598235814"><ele>268.25</ele><time>2026-04-18T12:58:35Z</time></trkpt><trkpt lat="45.8514995685659" lon="11.874134417184404"><ele>270.0</ele><time>2026-04-18T12:58:36Z</time></trkpt><trkpt lat="45.85156757993676" lon="11.874250618429288"><ele>270.25</ele><time>2026-04-18T12:58:37Z</time></trkpt><trkpt lat="45.85161929660901" lon="11.874400857834944"><ele>270.5</ele><time>2026-04-18T12:58:38Z</time></trkpt><trkpt lat="45.85167876028247" lon="11.874561122058674"><ele>270.75</ele><time>2026-04-18T12:58:39Z</time></trkpt><trkpt lat="45.85175123045722" lon="11.874712227369576"><ele>271.0</ele><time>2026-04-18T12:58:40Z</time></trkpt><trkpt lat="45.85181545230518" lon="11.87487831082283"><ele>271.75</ele><time>2026-04-18T12:58:41Z</time></trkpt><trkpt lat="45.85187313621646" lon="11.8750083171416"><ele>272.5</ele><time>2026-04-18T12:58:42Z</time></trkpt><trkpt lat="45.8520085380454" lon="11.875067620013992"><ele>273.25</ele><time>2026-04-18T12:58:43Z</time></trkpt><trkpt lat="45.85213605875616" lon="11.875139816788618"><ele>274.0</ele><time>2026-04-18T12:58:44Z</time></trkpt><trkpt lat="45.85224800903849" lon="11.875251756061347"><ele>274.25</ele><time>2026-04-18T12:58:45Z</time></trkpt><trkpt lat="45.85235707469356" lon="11.875364491874207"><ele>274.5</ele><time>2026-04-18T12:58:46Z</time></trkpt><trkpt lat="45.852507283734816" lon="11.875416485226914"><ele>274.75</ele><time>2026-04-18T12:58:47Z</time></trkpt><trkpt lat="45.852657161017454" lon="11.875417318696146"><ele>275.0</ele><time>2026-04-18T12:58:48Z</time></trkpt><trkpt lat="45.852779051021024" lon="11.875387878907082"><ele>276.5</ele><time>2026-04-18T12:58:49Z</time></trkpt><trkpt lat="45.852891558591274" lon="11.875332642821748"><ele>278.0</ele><time>2026-04-18T12:58:50Z</time></trkpt><trkpt lat="45.85301180995533" lon="11.87527405781892"><ele>279.5</ele><time>2026-04-18T12:58:51Z</time></trkpt><trkpt lat="45.853131139837856" lon="11.875219140191751"><ele>281.0</ele><time>2026-04-18T12:58:52Z</time></trkpt><trkpt lat="45.853233921658855" lon="11.875177084204553"><ele>281.0</ele><time>2026-04-18T12:58:53Z</time></trkpt><trkpt lat="45.85336018934142" lon="11.875155749338585"><ele>281.0</ele><time>2026-04-18T12:58:54Z</time></trkpt><trkpt lat="45.853472513412044" lon="11.875150391091077"><ele>281.0</ele><time>2026-04-18T12:58:55Z</time></trkpt><trkpt lat="45.8535613169545" lon="11.875160797316138"><ele>281.0</ele><time>2026-04-18T12:58:56Z</time></trkpt><trkpt lat="45.853674095803825" lon="11.87517648706495"><ele>281.0</ele><time>2026-04-18T12:58:57Z</time></trkpt><trkpt lat="45.85379082148703" lon="11.875200373639666"><ele>283.25</ele><time>2026-04-18T12:58:58Z</time></trkpt><trkpt lat="45.853927079407335" lon="11.875236619162944"><ele>285.5</ele><time>2026-04-18T12:58:59Z</time></trkpt><trkpt lat="45.854039260376744" lon="11.875270481298369"><ele>287.75</ele><time>2026-04-18T12:59:00Z</time></trkpt><trkpt lat="45.854154052143095" lon="11.87528361736509"><ele>290.0</ele><time>2026-04-18T12:59:01Z</time></trkpt><trkpt lat="45.85422897095576" lon="11.875336705066077"><ele>291.6</ele><time>2026-04-18T12:59:02Z</time></trkpt><trkpt lat="45.85436383742733" lon="11.87535121206565"><ele>293.2</ele><time>2026-04-18T12:59:03Z</time></trkpt><trkpt lat="45.85447066066539" lon="11.875410427913527"><ele>294.8</ele><time>2026-04-18T12:59:04Z</time></trkpt><trkpt lat="45.85454199624258" lon="11.875421674482412"><ele>296.4</ele><time>2026-04-18T12:59:05Z</time></trkpt><trkpt lat="45.854636476099444" lon="11.875470480510518"><ele>298.0</ele><time>2026-04-18T12:59:06Z</time></trkpt><trkpt lat="45.85472626072482" lon="11.875548093412847"><ele>298.0</ele><time>2026-04-18T12:59:07Z</time></trkpt><trkpt lat="45.8548385053027" lon="11.875601046049033"><ele>298.0</ele><time>2026-04-18T12:59:08Z</time></trkpt><trkpt lat="45.854947606481765" lon="11.875655158454236"><ele>298.0</ele><time>2026-04-18T12:59:09Z</time></trkpt><trkpt lat="45.855061770962934" lon="11.875676049606973"><ele>298.0</ele><time>2026-04-18T12:59:10Z</time></trkpt><trkpt lat="45.85518418747586" lon="11.875705383215681"><ele>298.8</ele><time>2026-04-18T12:59:11Z</time></trkpt><trkpt lat="45.85530672288102" lon="11.875755421783959"><ele>299.6</ele><time>2026-04-18T12:59:12Z</time></trkpt><trkpt lat="45.855393014602235" lon="11.875823262160198"><ele>300.4</ele><time>2026-04-18T12:59:13Z</time></trkpt><trkpt lat="45.8554705809139" lon="11.875926968932456"><ele>301.2</ele><time>2026-04-18T12:59:14Z</time></trkpt><trkpt lat="45.85555546263522" lon="11.87598365889785"><ele>302.0</ele><time>2026-04-18T12:59:15Z</time></trkpt><trkpt lat="45.85565521262845" lon="11.876075335542044"><ele>302.8</ele><time>2026-04-18T12:59:16Z</time></trkpt><trkpt lat="45.85574685477405" lon="11.876155899779823"><ele>303.6</ele><time>2026-04-18T12:59:17Z</time></trkpt><trkpt lat="45.85584096921565" lon="11.876238131083802"><ele>304.40000000000003</ele><time>2026-04-18T12:59:18Z</time></trkpt><trkpt lat="45.85593918182611" lon="11.876320314740388"><ele>305.2</ele><time>2026-04-18T12:59:19Z</time></trkpt><trkpt lat="45.85602717659367" lon="11.876385264282456"><ele>306.0</ele><time>2026-04-18T12:59:20Z</time></trkpt><trkpt lat="45.85610006652672" lon="11.876447892483371"><ele>308.0</ele><time>2026-04-18T12:59:21Z</time></trkpt><trkpt lat="45.856155905905084" lon="11.876517301279781"><ele>310.0</ele><time>2026-04-18T12:59:22Z</time></trkpt><trkpt lat="45.856149570638905" lon="11.87664937639875"><ele>312.0</ele><time>2026-04-18T12:59:23Z</time></trkpt><trkpt lat="45.856122427439495" lon="11.8767394261779"><ele>314.0</ele><time>2026-04-18T12:59:23.999Z</time></trkpt><trkpt lat="45.85608740017473" lon="11.876845427332729"><ele>316.0</ele><time>2026-04-18T12:59:24.999Z</time></trkpt><trkpt lat="45.85603661788931" lon="11.87696621816834"><ele>318.0</ele><time>2026-04-18T12:59:25.999Z</time></trkpt><trkpt lat="45.85598317025131" lon="11.877082673279629"><ele>317.0</ele><time>2026-04-18T12:59:26.999Z</time></trkpt><trkpt lat="45.85594051722162" lon="11.877210393160636"><ele>316.0</ele><time>2026-04-18T12:59:27.999Z</time></trkpt><trkpt lat="45.855907988075" lon="11.877357421862632"><ele>315.0</ele><time>2026-04-18T12:59:28.999Z</time></trkpt><trkpt lat="45.85587887762519" lon="11.87746811977198"><ele>314.0</ele><time>2026-04-18T12:59:29.999Z</time></trkpt><trkpt lat="45.85588966646561" lon="11.877567484460018"><ele>313.0</ele><time>2026-04-18T12:59:30.999Z</time></trkpt><trkpt lat="45.85589087749758" lon="11.877680262629573"><ele>312.0</ele><time>2026-04-18T12:59:31.999Z</time></trkpt><trkpt lat="45.855873834416194" lon="11.877779845115331"><ele>313.2</ele><time>2026-04-18T12:59:33.999Z</time></trkpt><trkpt lat="45.85602389263322" lon="11.877848039960197"><ele>314.4</ele><time>2026-04-18T12:59:35.999Z</time></trkpt><trkpt lat="45.85609211420544" lon="11.877879944309509"><ele>315.6</ele><time>2026-04-18T12:59:37.999Z</time></trkpt><trkpt lat="45.85615028556028" lon="11.877991146169887"><ele>316.8</ele><time>2026-04-18T12:59:39.999Z</time></trkpt><trkpt lat="45.85625069870329" lon="11.8780621080965"><ele>318.0</ele><time>2026-04-18T12:59:41.999Z</time></trkpt><trkpt lat="45.85632770343102" lon="11.8780882429641"><ele>318.0</ele><time>2026-04-18T12:59:46.999Z</time></trkpt><trkpt lat="45.85645915876964" lon="11.878076536337263"><ele>318.0</ele><time>2026-04-18T12:59:48.999Z</time></trkpt><trkpt lat="45.85653129456121" lon="11.878071011748519"><ele>318.0</ele><time>2026-04-18T12:59:49.999Z</time></trkpt><trkpt lat="45.85660298332996" lon="11.878067028656986"><ele>318.0</ele><time>2026-04-18T12:59:50.999Z</time></trkpt><trkpt lat="45.85669200968729" lon="11.878067465514942"><ele>318.0</ele><time>2026-04-18T12:59:51.999Z</time></trkpt><trkpt lat="45.856767503306614" lon="11.878063547382212"><ele>318.0</ele><time>2026-04-18T12:59:52.999Z</time></trkpt><trkpt lat="45.85684590528831" lon="11.878055722810064"><ele>319.5</ele><time>2026-04-18T12:59:53.999Z</time></trkpt><trkpt lat="45.856931959923756" lon="11.878043795541759"><ele>321.0</ele><time>2026-04-18T12:59:54.999Z</time></trkpt><trkpt lat="45.85701036230619" lon="11.878031468477197"><ele>322.5</ele><time>2026-04-18T12:59:55.999Z</time></trkpt><trkpt lat="45.85713193220953" lon="11.878058320448147"><ele>324.0</ele><time>2026-04-18T12:59:57.999Z</time></trkpt><trkpt lat="45.85720638882856" lon="11.878103902602744"><ele>325.5</ele><time>2026-04-18T12:59:58.999Z</time></trkpt><trkpt lat="45.85726590791237" lon="11.878142298531388"><ele>327.0</ele><time>2026-04-18T12:59:59.999Z</time></trkpt><trkpt lat="45.85735170423257" lon="11.878220905876555"><ele>327.0</ele><time>2026-04-18T13:00:01.999Z</time></trkpt><trkpt lat="45.857437599175675" lon="11.878328314541898"><ele>327.0</ele><time>2026-04-18T13:00:03.999Z</time></trkpt><trkpt lat="45.85751848587212" lon="11.87844442625102"><ele>327.0</ele><time>2026-04-18T13:00:05.999Z</time></trkpt><trkpt lat="45.8576067523707" lon="11.87848898848262"><ele>327.0</ele><time>2026-04-18T13:00:07.999Z</time></trkpt><trkpt lat="45.85765977030948" lon="11.878572667341052"><ele>327.0</ele><time>2026-04-18T13:00:10.999Z</time></trkpt><trkpt lat="45.85756080626594" lon="11.878649271954831"><ele>325.3333333333333</ele><time>2026-04-18T13:07:06Z</time></trkpt><trkpt lat="45.857510187413844" lon="11.87871397615045"><ele>323.6666666666667</ele><time>2026-04-18T13:07:07Z</time></trkpt><trkpt lat="45.85740846302521" lon="11.878814232568498"><ele>322.0</ele><time>2026-04-18T13:07:09Z</time></trkpt><trkpt lat="45.857350853366036" lon="11.878879157522233"><ele>320.33333333333337</ele><time>2026-04-18T13:07:10Z</time></trkpt><trkpt lat="45.8572798365197" lon="11.878948480011982"><ele>318.6666666666667</ele><time>2026-04-18T13:07:11Z</time></trkpt><trkpt lat="45.857213891892336" lon="11.879011929292107"><ele>317.0</ele><time>2026-04-18T13:07:12Z</time></trkpt><trkpt lat="45.85714562250763" lon="11.87907017570214"><ele>317.0</ele><time>2026-04-18T13:07:13Z</time></trkpt><trkpt lat="45.85707258466352" lon="11.879133542239632"><ele>317.0</ele><time>2026-04-18T13:07:14Z</time></trkpt><trkpt lat="45.85699797768874" lon="11.879190872509506"><ele>317.0</ele><time>2026-04-18T13:07:15Z</time></trkpt><trkpt lat="45.85692508280694" lon="11.87925523105208"><ele>317.0</ele><time>2026-04-18T13:07:16Z</time></trkpt><trkpt lat="45.85684014769444" lon="11.879316330653454"><ele>317.0</ele><time>2026-04-18T13:07:17Z</time></trkpt><trkpt lat="45.85676540985335" lon="11.87938760271178"><ele>317.0</ele><time>2026-04-18T13:07:18Z</time></trkpt><trkpt lat="45.85668137577624" lon="11.879455888731636"><ele>315.4</ele><time>2026-04-18T13:07:19Z</time></trkpt><trkpt lat="45.856597096959526" lon="11.879524073640574"><ele>313.79999999999995</ele><time>2026-04-18T13:07:20Z</time></trkpt><trkpt lat="45.85651217038114" lon="11.879599558884058"><ele>312.2</ele><time>2026-04-18T13:07:21Z</time></trkpt><trkpt lat="45.856424019734945" lon="11.879676035544797"><ele>310.59999999999997</ele><time>2026-04-18T13:07:22Z</time></trkpt><trkpt lat="45.85633417096733" lon="11.87974863833105"><ele>309.0</ele><time>2026-04-18T13:07:23Z</time></trkpt><trkpt lat="45.85625174615269" lon="11.879819866951742"><ele>309.0</ele><time>2026-04-18T13:07:24Z</time></trkpt><trkpt lat="45.856163944234865" lon="11.879895632321137"><ele>309.0</ele><time>2026-04-18T13:07:25Z</time></trkpt><trkpt lat="45.856074039761026" lon="11.879966668228242"><ele>309.0</ele><time>2026-04-18T13:07:26Z</time></trkpt><trkpt lat="45.85598467117464" lon="11.880041138502728"><ele>309.0</ele><time>2026-04-18T13:07:27Z</time></trkpt><trkpt lat="45.85590337127767" lon="11.880116600844637"><ele>309.0</ele><time>2026-04-18T13:07:28Z</time></trkpt><trkpt lat="45.85581558406387" lon="11.880195625858263"><ele>306.2</ele><time>2026-04-18T13:07:29Z</time></trkpt><trkpt lat="45.855723332894044" lon="11.880274834113768"><ele>303.4</ele><time>2026-04-18T13:07:30Z</time></trkpt><trkpt lat="45.855631873497195" lon="11.880357672077725"><ele>300.6</ele><time>2026-04-18T13:07:31Z</time></trkpt><trkpt lat="45.85554020787254" lon="11.880436355670206"><ele>297.8</ele><time>2026-04-18T13:07:32Z</time></trkpt><trkpt lat="45.85545874736756" lon="11.880506055740769"><ele>295.0</ele><time>2026-04-18T13:07:33Z</time></trkpt><trkpt lat="45.85537466777131" lon="11.880582095757566"><ele>295.0</ele><time>2026-04-18T13:07:34Z</time></trkpt><trkpt lat="45.855287097617826" lon="11.880654262753065"><ele>295.0</ele><time>2026-04-18T13:07:35Z</time></trkpt><trkpt lat="45.855204663156194" lon="11.880722685573097"><ele>295.0</ele><time>2026-04-18T13:07:36Z</time></trkpt><trkpt lat="45.855128373545575" lon="11.880787002331187"><ele>295.0</ele><time>2026-04-18T13:07:37Z</time></trkpt><trkpt lat="45.85506029186474" lon="11.880846924384127"><ele>295.0</ele><time>2026-04-18T13:07:38Z</time></trkpt><trkpt lat="45.854995664777654" lon="11.880902994018319"><ele>295.0</ele><time>2026-04-18T13:07:39Z</time></trkpt><trkpt lat="45.854926999053696" lon="11.880933016466056"><ele>293.66666666666663</ele><time>2026-04-18T13:07:40Z</time></trkpt><trkpt lat="45.85484933616948" lon="11.880995516989168"><ele>292.3333333333333</ele><time>2026-04-18T13:07:42Z</time></trkpt><trkpt lat="45.854781585086194" lon="11.881017754595145"><ele>291.0</ele><time>2026-04-18T13:07:46.999Z</time></trkpt><trkpt lat="45.854710571022046" lon="11.880889747427606"><ele>289.6666666666667</ele><time>2026-04-18T13:07:48.999Z</time></trkpt><trkpt lat="45.854660328848915" lon="11.880811353168507"><ele>288.33333333333337</ele><time>2026-04-18T13:07:49.999Z</time></trkpt><trkpt lat="45.85459797869868" lon="11.880712395991269"><ele>287.0</ele><time>2026-04-18T13:07:50.999Z</time></trkpt><trkpt lat="45.85454422097679" lon="11.880623447066816"><ele>287.0</ele><time>2026-04-18T13:07:51.999Z</time></trkpt><trkpt lat="45.854477962268085" lon="11.880518924010484"><ele>287.0</ele><time>2026-04-18T13:07:52.999Z</time></trkpt><trkpt lat="45.85441069063609" lon="11.88039886631152"><ele>287.0</ele><time>2026-04-18T13:07:53.999Z</time></trkpt><trkpt lat="45.854350433748436" lon="11.880278101324798"><ele>287.0</ele><time>2026-04-18T13:07:54.999Z</time></trkpt><trkpt lat="45.85427204343685" lon="11.880146648931111"><ele>287.0</ele><time>2026-04-18T13:07:55.999Z</time></trkpt><trkpt lat="45.85419782972182" lon="11.880012728857066"><ele>286.5</ele><time>2026-04-18T13:07:56.999Z</time></trkpt><trkpt lat="45.85411229512498" lon="11.879884463179335"><ele>286.0</ele><time>2026-04-18T13:07:57.999Z</time></trkpt><trkpt lat="45.85403831548045" lon="11.879756661831623"><ele>285.5</ele><time>2026-04-18T13:07:58.999Z</time></trkpt><trkpt lat="45.853963351375654" lon="11.879607252870148"><ele>285.0</ele><time>2026-04-18T13:07:59.999Z</time></trkpt><trkpt lat="45.85386395883445" lon="11.879474146909988"><ele>285.0</ele><time>2026-04-18T13:08:00.999Z</time></trkpt><trkpt lat="45.853786587801316" lon="11.879329017835522"><ele>285.0</ele><time>2026-04-18T13:08:01.999Z</time></trkpt><trkpt lat="45.85370290906348" lon="11.879182563537194"><ele>285.0</ele><time>2026-04-18T13:08:02.999Z</time></trkpt><trkpt lat="45.85362398632478" lon="11.879037600350525"><ele>285.0</ele><time>2026-04-18T13:08:03.999Z</time></trkpt><trkpt lat="45.853541661577935" lon="11.87888042620338"><ele>285.5</ele><time>2026-04-18T13:08:04.999Z</time></trkpt><trkpt lat="45.85347179429388" lon="11.878714814437878"><ele>286.0</ele><time>2026-04-18T13:08:05.999Z</time></trkpt><trkpt lat="45.85340386781748" lon="11.878538005664522"><ele>286.5</ele><time>2026-04-18T13:08:06.999Z</time></trkpt><trkpt lat="45.853342628506205" lon="11.87837335651217"><ele>287.0</ele><time>2026-04-18T13:08:07.999Z</time></trkpt><trkpt lat="45.85326548305706" lon="11.878206175220804"><ele>285.5</ele><time>2026-04-18T13:08:08.999Z</time></trkpt><trkpt lat="45.85318712850792" lon="11.878035047125461"><ele>284.0</ele><time>2026-04-18T13:08:09.999Z</time></trkpt><trkpt lat="45.853116508698044" lon="11.877866936245887"><ele>282.5</ele><time>2026-04-18T13:08:10.999Z</time></trkpt><trkpt lat="45.853048144947174" lon="11.877709524198245"><ele>281.0</ele><time>2026-04-18T13:08:11.999Z</time></trkpt><trkpt lat="45.85297816845413" lon="11.877536209091442"><ele>281.0</ele><time>2026-04-18T13:08:12.999Z</time></trkpt><trkpt lat="45.852897896144945" lon="11.87736067141936"><ele>281.0</ele><time>2026-04-18T13:08:13.999Z</time></trkpt><trkpt lat="45.85282247299964" lon="11.877186791888928"><ele>281.0</ele><time>2026-04-18T13:08:14.999Z</time></trkpt><trkpt lat="45.85274150135525" lon="11.877005826303014"><ele>281.0</ele><time>2026-04-18T13:08:15.999Z</time></trkpt><trkpt lat="45.8526646506821" lon="11.876829282967181"><ele>279.25</ele><time>2026-04-18T13:08:16.999Z</time></trkpt><trkpt lat="45.85259637961457" lon="11.876659129997062"><ele>277.5</ele><time>2026-04-18T13:08:17.999Z</time></trkpt><trkpt lat="45.85252809362224" lon="11.876489583327125"><ele>275.75</ele><time>2026-04-18T13:08:18.999Z</time></trkpt><trkpt lat="45.852452593549955" lon="11.876310337003812"><ele>274.0</ele><time>2026-04-18T13:08:19.999Z</time></trkpt><trkpt lat="45.852371562705784" lon="11.87613007723018"><ele>274.0</ele><time>2026-04-18T13:08:20.999Z</time></trkpt><trkpt lat="45.852300876801166" lon="11.875953573897222"><ele>274.0</ele><time>2026-04-18T13:08:21.999Z</time></trkpt><trkpt lat="45.85222515959988" lon="11.875770931723897"><ele>274.0</ele><time>2026-04-18T13:08:22.999Z</time></trkpt><trkpt lat="45.85215606831054" lon="11.875589041790054"><ele>274.0</ele><time>2026-04-18T13:08:23.999Z</time></trkpt><trkpt lat="45.85208854643983" lon="11.875417732908534"><ele>274.0</ele><time>2026-04-18T13:08:24.999Z</time></trkpt><trkpt lat="45.85203225835167" lon="11.875254201019777"><ele>274.0</ele><time>2026-04-18T13:08:25.999Z</time></trkpt><trkpt lat="45.85196491955745" lon="11.875085229666182"><ele>274.0</ele><time>2026-04-18T13:08:26.999Z</time></trkpt><trkpt lat="45.851890475622376" lon="11.874908897226229"><ele>274.0</ele><time>2026-04-18T13:08:27.999Z</time></trkpt><trkpt lat="45.851805661294776" lon="11.874728395171203"><ele>273.25</ele><time>2026-04-18T13:08:28.999Z</time></trkpt><trkpt lat="45.85172689599807" lon="11.87455342036601"><ele>272.5</ele><time>2026-04-18T13:08:29.999Z</time></trkpt><trkpt lat="45.851661179957034" lon="11.874394470680805"><ele>271.75</ele><time>2026-04-18T13:08:30.999Z</time></trkpt><trkpt lat="45.85160060544593" lon="11.874239652180137"><ele>271.0</ele><time>2026-04-18T13:08:31.999Z</time></trkpt><trkpt lat="45.851545359740975" lon="11.87410756127468"><ele>270.8333333333333</ele><time>2026-04-18T13:08:32.999Z</time></trkpt><trkpt lat="45.85149114258171" lon="11.8739929597903"><ele>270.66666666666663</ele><time>2026-04-18T13:08:33.999Z</time></trkpt><trkpt lat="45.85144369759231" lon="11.873883587076772"><ele>270.5</ele><time>2026-04-18T13:08:34.999Z</time></trkpt><trkpt lat="45.851393329544585" lon="11.873778693784683"><ele>270.3333333333333</ele><time>2026-04-18T13:08:35.999Z</time></trkpt><trkpt lat="45.8513498806991" lon="11.873681813769588"><ele>270.1666666666667</ele><time>2026-04-18T13:08:36.999Z</time></trkpt><trkpt lat="45.851312056147684" lon="11.873559381336952"><ele>270.0</ele><time>2026-04-18T13:08:37.999Z</time></trkpt><trkpt lat="45.8512311699158" lon="11.87345648970015"><ele>270.0</ele><time>2026-04-18T13:08:38.999Z</time></trkpt><trkpt lat="45.851198984694825" lon="11.873266490845975"><ele>270.0</ele><time>2026-04-18T13:08:39.999Z</time></trkpt><trkpt lat="45.85113143848795" lon="11.873104914955572"><ele>270.0</ele><time>2026-04-18T13:08:40.999Z</time></trkpt><trkpt lat="45.85105056234446" lon="11.87292823130764"><ele>270.0</ele><time>2026-04-18T13:08:42Z</time></trkpt><trkpt lat="45.85096741499692" lon="11.872750405876952"><ele>268.6666666666667</ele><time>2026-04-18T13:08:43Z</time></trkpt><trkpt lat="45.850887949816794" lon="11.872567175579103"><ele>267.33333333333337</ele><time>2026-04-18T13:08:44Z</time></trkpt><trkpt lat="45.850804365551234" lon="11.872383427428176"><ele>266.0</ele><time>2026-04-18T13:08:45Z</time></trkpt><trkpt lat="45.85071871872849" lon="11.872202344395523"><ele>266.0</ele><time>2026-04-18T13:08:46Z</time></trkpt><trkpt lat="45.85060993427298" lon="11.872028083658684"><ele>266.0</ele><time>2026-04-18T13:08:47Z</time></trkpt><trkpt lat="45.850486471877005" lon="11.871865255499952"><ele>266.0</ele><time>2026-04-18T13:08:48Z</time></trkpt><trkpt lat="45.85034313096882" lon="11.871719433830748"><ele>266.0</ele><time>2026-04-18T13:08:49Z</time></trkpt><trkpt lat="45.85020997641227" lon="11.871596451791648"><ele>266.0</ele><time>2026-04-18T13:08:50Z</time></trkpt><trkpt lat="45.850071079903664" lon="11.871481359706014"><ele>266.0</ele><time>2026-04-18T13:08:51Z</time></trkpt><trkpt lat="45.84993529501303" lon="11.871364207418011"><ele>266.0</ele><time>2026-04-18T13:08:52Z</time></trkpt><trkpt lat="45.84980607688148" lon="11.871244299993236"><ele>266.0</ele><time>2026-04-18T13:08:53Z</time></trkpt><trkpt lat="45.84966681510623" lon="11.871119211679035"><ele>266.0</ele><time>2026-04-18T13:08:54Z</time></trkpt><trkpt lat="45.849534799007465" lon="11.870999607663437"><ele>265.6666666666667</ele><time>2026-04-18T13:08:55Z</time></trkpt><trkpt lat="45.849402882798444" lon="11.870889258916417"><ele>265.3333333333333</ele><time>2026-04-18T13:08:56Z</time></trkpt><trkpt lat="45.849275634656344" lon="11.870786321445268"><ele>265.0</ele><time>2026-04-18T13:08:57Z</time></trkpt><trkpt lat="45.84914431467512" lon="11.870677764773726"><ele>264.3333333333333</ele><time>2026-04-18T13:08:58Z</time></trkpt><trkpt lat="45.849010228030714" lon="11.87056706169422"><ele>263.6666666666667</ele><time>2026-04-18T13:08:59Z</time></trkpt><trkpt lat="45.84888661736784" lon="11.870428569101724"><ele>263.0</ele><time>2026-04-18T13:09:00Z</time></trkpt><trkpt lat="45.84875214260176" lon="11.870321070166195"><ele>263.0</ele><time>2026-04-18T13:09:01Z</time></trkpt><trkpt lat="45.848613100127416" lon="11.870199130911663"><ele>263.0</ele><time>2026-04-18T13:09:02Z</time></trkpt><trkpt lat="45.848467427902385" lon="11.870061191446148"><ele>263.0</ele><time>2026-04-18T13:09:03Z</time></trkpt><trkpt lat="45.84832691950759" lon="11.869939207551434"><ele>261.33333333333337</ele><time>2026-04-18T13:09:04Z</time></trkpt><trkpt lat="45.84819096151886" lon="11.869810236928375"><ele>259.6666666666667</ele><time>2026-04-18T13:09:05Z</time></trkpt><trkpt lat="45.8480566806632" lon="11.869688559225043"><ele>258.0</ele><time>2026-04-18T13:09:06Z</time></trkpt><trkpt lat="45.84791399185904" lon="11.869564675482396"><ele>258.0</ele><time>2026-04-18T13:09:07Z</time></trkpt><trkpt lat="45.84777019827958" lon="11.869435388276086"><ele>258.0</ele><time>2026-04-18T13:09:08Z</time></trkpt><trkpt lat="45.84762638358477" lon="11.869311294311668"><ele>258.0</ele><time>2026-04-18T13:09:09Z</time></trkpt><trkpt lat="45.84748126278272" lon="11.869183788935025"><ele>259.6666666666667</ele><time>2026-04-18T13:09:10Z</time></trkpt><trkpt lat="45.847342283219135" lon="11.869054803363884"><ele>261.33333333333337</ele><time>2026-04-18T13:09:11Z</time></trkpt><trkpt lat="45.84719599601898" lon="11.868921312066334"><ele>263.0</ele><time>2026-04-18T13:09:12Z</time></trkpt><trkpt lat="45.84704316022" lon="11.86878528667645"><ele>263.0</ele><time>2026-04-18T13:09:13Z</time></trkpt><trkpt lat="45.846894841219445" lon="11.868649955365028"><ele>263.0</ele><time>2026-04-18T13:09:14Z</time></trkpt><trkpt lat="45.84674658278826" lon="11.868517242288517"><ele>263.0</ele><time>2026-04-18T13:09:15Z</time></trkpt><trkpt lat="45.84659101828057" lon="11.86838265975069"><ele>263.6666666666667</ele><time>2026-04-18T13:09:16Z</time></trkpt><trkpt lat="45.84643629868077" lon="11.868251392120666"><ele>264.3333333333333</ele><time>2026-04-18T13:09:17Z</time></trkpt><trkpt lat="45.84628318364576" lon="11.868118757116035"><ele>265.0</ele><time>2026-04-18T13:09:18Z</time></trkpt><trkpt lat="45.84612766364309" lon="11.86798000703274"><ele>265.0</ele><time>2026-04-18T13:09:19Z</time></trkpt><trkpt lat="45.84597507620584" lon="11.867835077180056"><ele>265.0</ele><time>2026-04-18T13:09:20Z</time></trkpt><trkpt lat="45.8458385928948" lon="11.867681224746926"><ele>265.0</ele><time>2026-04-18T13:09:21Z</time></trkpt><trkpt lat="45.845719535099825" lon="11.867485284060919"><ele>265.3333333333333</ele><time>2026-04-18T13:09:22Z</time></trkpt><trkpt lat="45.84560714093912" lon="11.86727959608989"><ele>265.6666666666667</ele><time>2026-04-18T13:09:23Z</time></trkpt><trkpt lat="45.84551329778189" lon="11.867052870298938"><ele>266.0</ele><time>2026-04-18T13:09:24Z</time></trkpt><trkpt lat="45.845432209678854" lon="11.866807340884215"><ele>267.33333333333337</ele><time>2026-04-18T13:09:25Z</time></trkpt><trkpt lat="45.845362454317936" lon="11.866559300105783"><ele>268.6666666666667</ele><time>2026-04-18T13:09:26Z</time></trkpt><trkpt lat="45.84532237752899" lon="11.86631221567902"><ele>270.0</ele><time>2026-04-18T13:09:27Z</time></trkpt><trkpt lat="45.845297173421876" lon="11.866051641358068"><ele>269.6666666666667</ele><time>2026-04-18T13:09:28Z</time></trkpt><trkpt lat="45.84527783612742" lon="11.865799349615385"><ele>269.33333333333337</ele><time>2026-04-18T13:09:29Z</time></trkpt><trkpt lat="45.84525093844052" lon="11.865549808072625"><ele>269.0</ele><time>2026-04-18T13:09:30Z</time></trkpt><trkpt lat="45.845224450114706" lon="11.865298023947705"><ele>269.6666666666667</ele><time>2026-04-18T13:09:31Z</time></trkpt><trkpt lat="45.84520219393539" lon="11.865066878142041"><ele>270.3333333333333</ele><time>2026-04-18T13:09:32Z</time></trkpt><trkpt lat="45.845180495765014" lon="11.864803130168596"><ele>271.0</ele><time>2026-04-18T13:09:33Z</time></trkpt><trkpt lat="45.84515396199441" lon="11.864547478848547"><ele>271.0</ele><time>2026-04-18T13:09:34Z</time></trkpt><trkpt lat="45.84513238654897" lon="11.864306187301894"><ele>271.0</ele><time>2026-04-18T13:09:35Z</time></trkpt><trkpt lat="45.845108873638516" lon="11.864054542179957"><ele>271.0</ele><time>2026-04-18T13:09:36Z</time></trkpt><trkpt lat="45.84509063223317" lon="11.863805246006383"><ele>276.0</ele><time>2026-04-18T13:09:37Z</time></trkpt><trkpt lat="45.84506545718818" lon="11.86355786302716"><ele>281.0</ele><time>2026-04-18T13:09:38Z</time></trkpt><trkpt lat="45.84504081307614" lon="11.863272718265009"><ele>286.0</ele><time>2026-04-18T13:09:39Z</time></trkpt><trkpt lat="45.84500381905327" lon="11.863011005037842"><ele>288.3333333333333</ele><time>2026-04-18T13:09:40Z</time></trkpt><trkpt lat="45.84497324250329" lon="11.862754148770685"><ele>290.6666666666667</ele><time>2026-04-18T13:09:41Z</time></trkpt><trkpt lat="45.84494055036987" lon="11.862495325499623"><ele>293.0</ele><time>2026-04-18T13:09:42Z</time></trkpt><trkpt lat="45.8449345291957" lon="11.862226152947882"><ele>296.6666666666667</ele><time>2026-04-18T13:09:43Z</time></trkpt><trkpt lat="45.84495218721072" lon="11.861959403765246"><ele>300.3333333333333</ele><time>2026-04-18T13:09:44Z</time></trkpt><trkpt lat="45.844967351194555" lon="11.861700854535695"><ele>304.0</ele><time>2026-04-18T13:09:44.999Z</time></trkpt><trkpt lat="45.84498064652653" lon="11.861462698112875"><ele>304.66666666666663</ele><time>2026-04-18T13:09:45.999Z</time></trkpt><trkpt lat="45.84501563566792" lon="11.861233363423617"><ele>305.3333333333333</ele><time>2026-04-18T13:09:46.999Z</time></trkpt><trkpt lat="45.84508763775389" lon="11.861019722790505"><ele>306.0</ele><time>2026-04-18T13:09:47.999Z</time></trkpt><trkpt lat="45.84519542600182" lon="11.860837624302231"><ele>312.0</ele><time>2026-04-18T13:09:48.999Z</time></trkpt><trkpt lat="45.84530022972325" lon="11.86067276393742"><ele>318.0</ele><time>2026-04-18T13:09:49.999Z</time></trkpt><trkpt lat="45.84537152093973" lon="11.860490398505563"><ele>324.0</ele><time>2026-04-18T13:09:50.999Z</time></trkpt><trkpt lat="45.84544757965268" lon="11.860323293328006"><ele>330.0</ele><time>2026-04-18T13:09:51.999Z</time></trkpt><trkpt lat="45.845477079104086" lon="11.860170989456705"><ele>330.25</ele><time>2026-04-18T13:09:52.999Z</time></trkpt><trkpt lat="45.84545950300082" lon="11.860006852724458"><ele>330.5</ele><time>2026-04-18T13:09:53.999Z</time></trkpt><trkpt lat="45.84540269835762" lon="11.859848492399431"><ele>330.75</ele><time>2026-04-18T13:09:54.999Z</time></trkpt><trkpt lat="45.845303247412865" lon="11.859723673292693"><ele>331.0</ele><time>2026-04-18T13:09:55.999Z</time></trkpt><trkpt lat="45.84520207049315" lon="11.859653681428826"><ele>330.6</ele><time>2026-04-18T13:09:56.999Z</time></trkpt><trkpt lat="45.84511286936324" lon="11.859587692982977"><ele>330.20000000000005</ele><time>2026-04-18T13:09:57.999Z</time></trkpt><trkpt lat="45.84502718825323" lon="11.85953678879892"><ele>329.79999999999995</ele><time>2026-04-18T13:09:58.999Z</time></trkpt><trkpt lat="45.844929852564526" lon="11.859436368371833"><ele>329.4</ele><time>2026-04-18T13:09:59.999Z</time></trkpt><trkpt lat="45.844824615084214" lon="11.8593518089304"><ele>329.0</ele><time>2026-04-18T13:10:00.999Z</time></trkpt><trkpt lat="45.84471720377784" lon="11.859263219663314"><ele>329.0</ele><time>2026-04-18T13:10:01.999Z</time></trkpt><trkpt lat="45.8446156312802" lon="11.859181119675895"><ele>329.0</ele><time>2026-04-18T13:10:02.999Z</time></trkpt><trkpt lat="45.84449552919552" lon="11.859130919815502"><ele>329.0</ele><time>2026-04-18T13:10:03.999Z</time></trkpt><trkpt lat="45.84439154698024" lon="11.859126196907198"><ele>329.0</ele><time>2026-04-18T13:10:04.999Z</time></trkpt><trkpt lat="45.84428133439546" lon="11.859189021552815"><ele>327.5</ele><time>2026-04-18T13:10:05.999Z</time></trkpt><trkpt lat="45.84418271787092" lon="11.859295063265542"><ele>326.0</ele><time>2026-04-18T13:10:06.999Z</time></trkpt><trkpt lat="45.8441230747823" lon="11.859450456760102"><ele>324.5</ele><time>2026-04-18T13:10:07.999Z</time></trkpt><trkpt lat="45.844065549099255" lon="11.859632808956423"><ele>323.0</ele><time>2026-04-18T13:10:08.999Z</time></trkpt><trkpt lat="45.84402212770322" lon="11.859813499036537"><ele>323.0</ele><time>2026-04-18T13:10:09.999Z</time></trkpt><trkpt lat="45.84399877103337" lon="11.859990342524826"><ele>323.0</ele><time>2026-04-18T13:10:10.999Z</time></trkpt><trkpt lat="45.84402257474285" lon="11.86017492562738"><ele>323.0</ele><time>2026-04-18T13:10:11.999Z</time></trkpt><trkpt lat="45.84405858996222" lon="11.86037143971066"><ele>323.0</ele><time>2026-04-18T13:10:12.999Z</time></trkpt><trkpt lat="45.844089495984186" lon="11.860561872544462"><ele>322.5</ele><time>2026-04-18T13:10:13.999Z</time></trkpt><trkpt lat="45.844096772950785" lon="11.860726424654727"><ele>322.0</ele><time>2026-04-18T13:10:14.999Z</time></trkpt><trkpt lat="45.84407265799848" lon="11.860884296561519"><ele>321.5</ele><time>2026-04-18T13:10:15.999Z</time></trkpt><trkpt lat="45.844010361325985" lon="11.861047099456474"><ele>321.0</ele><time>2026-04-18T13:10:16.999Z</time></trkpt><trkpt lat="45.84391552824334" lon="11.861179160583767"><ele>321.0</ele><time>2026-04-18T13:10:17.999Z</time></trkpt><trkpt lat="45.84379752027612" lon="11.861228490050543"><ele>321.0</ele><time>2026-04-18T13:10:18.999Z</time></trkpt><trkpt lat="45.84367629632184" lon="11.861251691362817"><ele>321.0</ele><time>2026-04-18T13:10:19.999Z</time></trkpt><trkpt lat="45.843572919603346" lon="11.861243562701905"><ele>321.0</ele><time>2026-04-18T13:10:20.999Z</time></trkpt><trkpt lat="45.84345901679625" lon="11.86119182991933"><ele>321.0</ele><time>2026-04-18T13:10:21.999Z</time></trkpt><trkpt lat="45.84337666636088" lon="11.861113603109294"><ele>321.0</ele><time>2026-04-18T13:10:22.999Z</time></trkpt><trkpt lat="45.843284083173366" lon="11.861001598052203"><ele>321.0</ele><time>2026-04-18T13:10:23.999Z</time></trkpt><trkpt lat="45.84321704774106" lon="11.860861849217946"><ele>321.0</ele><time>2026-04-18T13:10:24.999Z</time></trkpt><trkpt lat="45.84314690935837" lon="11.860717676093797"><ele>322.4</ele><time>2026-04-18T13:10:25.999Z</time></trkpt><trkpt lat="45.84309546838326" lon="11.860588771064183"><ele>323.8</ele><time>2026-04-18T13:10:26.999Z</time></trkpt><trkpt lat="45.8430413999786" lon="11.860473136779348"><ele>325.2</ele><time>2026-04-18T13:10:27.999Z</time></trkpt><trkpt lat="45.84302131069659" lon="11.860350375400635"><ele>326.59999999999997</ele><time>2026-04-18T13:10:28.999Z</time></trkpt><trkpt lat="45.8429765003356" lon="11.860257576191684"><ele>328.0</ele><time>2026-04-18T13:10:29.999Z</time></trkpt><trkpt lat="45.84292838708687" lon="11.86012536651729"><ele>329.59999999999997</ele><time>2026-04-18T13:10:31.999Z</time></trkpt><trkpt lat="45.84291799238541" lon="11.86003617739489"><ele>331.2</ele><time>2026-04-18T13:10:33.999Z</time></trkpt><trkpt lat="45.84290921437095" lon="11.859923810962487"><ele>332.8</ele><time>2026-04-18T13:10:49Z</time></trkpt><trkpt lat="45.84295552946861" lon="11.85972013315337"><ele>334.4</ele><time>2026-04-18T13:10:51Z</time></trkpt><trkpt lat="45.842969798542654" lon="11.859601623015573"><ele>336.0</ele><time>2026-04-18T13:10:52Z</time></trkpt><trkpt lat="45.842973603317276" lon="11.859472580892104"><ele>336.0</ele><time>2026-04-18T13:10:53Z</time></trkpt><trkpt lat="45.8429874940817" lon="11.859330361105787"><ele>336.0</ele><time>2026-04-18T13:10:54Z</time></trkpt><trkpt lat="45.84302063774619" lon="11.859172525620416"><ele>336.0</ele><time>2026-04-18T13:10:55Z</time></trkpt><trkpt lat="45.84305448522416" lon="11.859000514440043"><ele>336.0</ele><time>2026-04-18T13:10:56Z</time></trkpt><trkpt lat="45.84308012570741" lon="11.858842371795234"><ele>337.6666666666667</ele><time>2026-04-18T13:10:57Z</time></trkpt><trkpt lat="45.843159011892155" lon="11.85863782765869"><ele>339.33333333333337</ele><time>2026-04-18T13:10:58Z</time></trkpt><trkpt lat="45.843284497649435" lon="11.858419563143242"><ele>341.0</ele><time>2026-04-18T13:10:59Z</time></trkpt><trkpt lat="45.84336495090555" lon="11.858242045170337"><ele>342.0</ele><time>2026-04-18T13:11:00Z</time></trkpt><trkpt lat="45.84341964988353" lon="11.858059405980544"><ele>343.0</ele><time>2026-04-18T13:11:01Z</time></trkpt><trkpt lat="45.843467459156365" lon="11.857895716990969"><ele>344.0</ele><time>2026-04-18T13:11:02Z</time></trkpt><trkpt lat="45.84351708121182" lon="11.857750440329603"><ele>345.0</ele><time>2026-04-18T13:11:03Z</time></trkpt><trkpt lat="45.84355044920097" lon="11.8576133197998"><ele>346.2</ele><time>2026-04-18T13:11:04Z</time></trkpt><trkpt lat="45.84356495924196" lon="11.857473690007746"><ele>347.4</ele><time>2026-04-18T13:11:05Z</time></trkpt><trkpt lat="45.84355699437515" lon="11.85734061203009"><ele>348.6</ele><time>2026-04-18T13:11:06Z</time></trkpt><trkpt lat="45.84354524379229" lon="11.857199268553078"><ele>349.8</ele><time>2026-04-18T13:11:07Z</time></trkpt><trkpt lat="45.84342429663777" lon="11.857112576710035"><ele>351.0</ele><time>2026-04-18T13:11:08Z</time></trkpt><trkpt lat="45.84334318965154" lon="11.857010764665036"><ele>351.0</ele><time>2026-04-18T13:11:09Z</time></trkpt><trkpt lat="45.84326355236051" lon="11.85689241267546"><ele>351.0</ele><time>2026-04-18T13:11:10Z</time></trkpt><trkpt lat="45.843181097542775" lon="11.85671924265104"><ele>351.0</ele><time>2026-04-18T13:11:11Z</time></trkpt><trkpt lat="45.84312441250579" lon="11.856549375273792"><ele>351.0</ele><time>2026-04-18T13:11:12Z</time></trkpt><trkpt lat="45.84305679311427" lon="11.85635358585657"><ele>351.75</ele><time>2026-04-18T13:11:13Z</time></trkpt><trkpt lat="45.843018866274456" lon="11.85615565134062"><ele>352.5</ele><time>2026-04-18T13:11:14Z</time></trkpt><trkpt lat="45.84298934922903" lon="11.855961393674788"><ele>353.25</ele><time>2026-04-18T13:11:15Z</time></trkpt><trkpt lat="45.84295404028209" lon="11.855769740505384"><ele>354.0</ele><time>2026-04-18T13:11:16Z</time></trkpt><trkpt lat="45.842923392447894" lon="11.855573555021799"><ele>355.25</ele><time>2026-04-18T13:11:17Z</time></trkpt><trkpt lat="45.84289255638875" lon="11.855373501179457"><ele>356.5</ele><time>2026-04-18T13:11:18Z</time></trkpt><trkpt lat="45.842855452246575" lon="11.855181801145255"><ele>357.75</ele><time>2026-04-18T13:11:19Z</time></trkpt><trkpt lat="45.84281109466811" lon="11.854982213159275"><ele>359.0</ele><time>2026-04-18T13:11:20Z</time></trkpt><trkpt lat="45.84277785421514" lon="11.854770010379157"><ele>360.25</ele><time>2026-04-18T13:11:21Z</time></trkpt><trkpt lat="45.84274556022098" lon="11.854586989808436"><ele>361.5</ele><time>2026-04-18T13:11:22Z</time></trkpt><trkpt lat="45.8427087905946" lon="11.854402566613222"><ele>362.75</ele><time>2026-04-18T13:11:23Z</time></trkpt><trkpt lat="45.84269878786588" lon="11.85419130747323"><ele>364.0</ele><time>2026-04-18T13:11:24Z</time></trkpt><trkpt lat="45.842683001725234" lon="11.853991542791158"><ele>364.0</ele><time>2026-04-18T13:11:25Z</time></trkpt><trkpt lat="45.842650554631334" lon="11.853801387073908"><ele>364.0</ele><time>2026-04-18T13:11:26Z</time></trkpt><trkpt lat="45.84255660032884" lon="11.853658231199942"><ele>364.0</ele><time>2026-04-18T13:11:27Z</time></trkpt><trkpt lat="45.84247094553371" lon="11.85352171182803"><ele>364.0</ele><time>2026-04-18T13:11:28Z</time></trkpt><trkpt lat="45.842371527767575" lon="11.853370316921298"><ele>365.66666666666663</ele><time>2026-04-18T13:11:29Z</time></trkpt><trkpt lat="45.84226424524157" lon="11.853214751065412"><ele>367.3333333333333</ele><time>2026-04-18T13:11:30Z</time></trkpt><trkpt lat="45.8421896835584" lon="11.85304849983958"><ele>369.0</ele><time>2026-04-18T13:11:31Z</time></trkpt><trkpt lat="45.842113480089616" lon="11.852843782863232"><ele>369.0</ele><time>2026-04-18T13:11:32Z</time></trkpt><trkpt lat="45.84204286045972" lon="11.852666062942617"><ele>369.0</ele><time>2026-04-18T13:11:33Z</time></trkpt><trkpt lat="45.841979822517445" lon="11.852464155857731"><ele>369.0</ele><time>2026-04-18T13:11:34Z</time></trkpt><trkpt lat="45.84193471511754" lon="11.852246927059246"><ele>369.25</ele><time>2026-04-18T13:11:35Z</time></trkpt><trkpt lat="45.84186996658932" lon="11.852080440560876"><ele>369.5</ele><time>2026-04-18T13:11:36Z</time></trkpt><trkpt lat="45.84182682461333" lon="11.851922333902287"><ele>369.75</ele><time>2026-04-18T13:11:37Z</time></trkpt><trkpt lat="45.84177302786222" lon="11.85177267185187"><ele>370.0</ele><time>2026-04-18T13:11:38Z</time></trkpt><trkpt lat="45.841709866369676" lon="11.851638228768907"><ele>370.0</ele><time>2026-04-18T13:11:39Z</time></trkpt><trkpt lat="45.8416568844159" lon="11.851511922487896"><ele>370.0</ele><time>2026-04-18T13:11:40Z</time></trkpt><trkpt lat="45.84163218444457" lon="11.851403694583226"><ele>370.0</ele><time>2026-04-18T13:11:41Z</time></trkpt><trkpt lat="45.841599772574334" lon="11.85129252969696"><ele>370.0</ele><time>2026-04-18T13:11:43Z</time></trkpt><trkpt lat="45.84164721114014" lon="11.85122151522242"><ele>370.0</ele><time>2026-04-18T13:11:59.999Z</time></trkpt><trkpt lat="45.841729436643085" lon="11.851180717395097"><ele>370.0</ele><time>2026-04-18T13:12:00.999Z</time></trkpt><trkpt lat="45.841811016957635" lon="11.851139086227112"><ele>371.2</ele><time>2026-04-18T13:12:01.999Z</time></trkpt><trkpt lat="45.84188276597516" lon="11.851103457522463"><ele>372.4</ele><time>2026-04-18T13:12:02.999Z</time></trkpt><trkpt lat="45.841991954027186" lon="11.851049662429533"><ele>373.6</ele><time>2026-04-18T13:12:03.999Z</time></trkpt><trkpt lat="45.842098274282094" lon="11.850984730422383"><ele>374.8</ele><time>2026-04-18T13:12:04.999Z</time></trkpt><trkpt lat="45.84219281590957" lon="11.850931632088447"><ele>376.0</ele><time>2026-04-18T13:12:05.999Z</time></trkpt><trkpt lat="45.84229731366115" lon="11.850880248097612"><ele>377.0</ele><time>2026-04-18T13:12:06.999Z</time></trkpt><trkpt lat="45.842408876812236" lon="11.850789172852293"><ele>378.0</ele><time>2026-04-18T13:12:07.999Z</time></trkpt><trkpt lat="45.84251419344843" lon="11.850692464938163"><ele>379.0</ele><time>2026-04-18T13:12:08.999Z</time></trkpt><trkpt lat="45.842603450751454" lon="11.850545351557578"><ele>380.0</ele><time>2026-04-18T13:12:09.999Z</time></trkpt><trkpt lat="45.842677822712886" lon="11.850374748351605"><ele>380.33333333333337</ele><time>2026-04-18T13:12:10.999Z</time></trkpt><trkpt lat="45.84271916837359" lon="11.850177542848037"><ele>380.6666666666667</ele><time>2026-04-18T13:12:11.999Z</time></trkpt><trkpt lat="45.842762947221715" lon="11.84996408750238"><ele>381.0</ele><time>2026-04-18T13:12:12.999Z</time></trkpt><trkpt lat="45.84280513175935" lon="11.849753776266452"><ele>382.0</ele><time>2026-04-18T13:12:13.999Z</time></trkpt><trkpt lat="45.84285208977761" lon="11.849554189352235"><ele>383.0</ele><time>2026-04-18T13:12:14.999Z</time></trkpt><trkpt lat="45.84289645677098" lon="11.849353507304333"><ele>384.0</ele><time>2026-04-18T13:12:15.999Z</time></trkpt><trkpt lat="45.84297615161476" lon="11.849202295629052"><ele>385.0</ele><time>2026-04-18T13:12:16.999Z</time></trkpt><trkpt lat="45.843071742916955" lon="11.849022828160678"><ele>385.75</ele><time>2026-04-18T13:12:17.999Z</time></trkpt><trkpt lat="45.84314758267806" lon="11.848866808082914"><ele>386.5</ele><time>2026-04-18T13:12:18.999Z</time></trkpt><trkpt lat="45.843239090404246" lon="11.848716107079223"><ele>387.25</ele><time>2026-04-18T13:12:19.999Z</time></trkpt><trkpt lat="45.84332937331641" lon="11.848551033802329"><ele>388.0</ele><time>2026-04-18T13:12:20.999Z</time></trkpt><trkpt lat="45.84342681269334" lon="11.848385812861181"><ele>390.75</ele><time>2026-04-18T13:12:21.999Z</time></trkpt><trkpt lat="45.84351349482075" lon="11.84821916314548"><ele>393.5</ele><time>2026-04-18T13:12:22.999Z</time></trkpt><trkpt lat="45.843599238567606" lon="11.848081116525025"><ele>396.25</ele><time>2026-04-18T13:12:23.999Z</time></trkpt><trkpt lat="45.843685646708344" lon="11.847932469553369"><ele>399.0</ele><time>2026-04-18T13:12:24.999Z</time></trkpt><trkpt lat="45.84376488844269" lon="11.847797000732328"><ele>399.0</ele><time>2026-04-18T13:12:25.999Z</time></trkpt><trkpt lat="45.843826357846574" lon="11.847661908721083"><ele>399.0</ele><time>2026-04-18T13:12:26.999Z</time></trkpt><trkpt lat="45.843859163320275" lon="11.847550222704658"><ele>399.0</ele><time>2026-04-18T13:12:27.999Z</time></trkpt><trkpt lat="45.84380997157166" lon="11.84738392730077"><ele>399.0</ele><time>2026-04-18T13:12:28.999Z</time></trkpt><trkpt lat="45.84379787023188" lon="11.847261476524164"><ele>399.0</ele><time>2026-04-18T13:12:29.999Z</time></trkpt><trkpt lat="45.84376991455551" lon="11.847165981177907"><ele>399.6666666666667</ele><time>2026-04-18T13:12:30.999Z</time></trkpt><trkpt lat="45.8437812263377" lon="11.847046525817346"><ele>400.33333333333337</ele><time>2026-04-18T13:12:31.999Z</time></trkpt><trkpt lat="45.843782421374726" lon="11.846927318515991"><ele>401.0</ele><time>2026-04-18T13:12:32.999Z</time></trkpt><trkpt lat="45.84382734088089" lon="11.846827468928383"><ele>401.6666666666667</ele><time>2026-04-18T13:12:33.999Z</time></trkpt><trkpt lat="45.843899897261515" lon="11.846757591745673"><ele>402.33333333333337</ele><time>2026-04-18T13:12:34.999Z</time></trkpt><trkpt lat="45.84398756421866" lon="11.846694594354197"><ele>403.0</ele><time>2026-04-18T13:12:35.999Z</time></trkpt><trkpt lat="45.8440641800081" lon="11.846607535868408"><ele>403.4</ele><time>2026-04-18T13:12:36.999Z</time></trkpt><trkpt lat="45.84413423753269" lon="11.846522056151693"><ele>403.79999999999995</ele><time>2026-04-18T13:12:37.999Z</time></trkpt><trkpt lat="45.84420558431235" lon="11.846440284190825"><ele>404.2</ele><time>2026-04-18T13:12:38.999Z</time></trkpt><trkpt lat="45.844274442856126" lon="11.846338814909346"><ele>404.6</ele><time>2026-04-18T13:12:39.999Z</time></trkpt><trkpt lat="45.84434996335647" lon="11.846252885617773"><ele>405.0</ele><time>2026-04-18T13:12:40.999Z</time></trkpt><trkpt lat="45.84442364453352" lon="11.846165548102313"><ele>406.2</ele><time>2026-04-18T13:12:41.999Z</time></trkpt><trkpt lat="45.844507253602984" lon="11.846097099659247"><ele>407.4</ele><time>2026-04-18T13:12:42.999Z</time></trkpt><trkpt lat="45.84458822027904" lon="11.846003279533262"><ele>408.6</ele><time>2026-04-18T13:12:43.999Z</time></trkpt><trkpt lat="45.844665653167525" lon="11.845919900893435"><ele>409.8</ele><time>2026-04-18T13:12:44.999Z</time></trkpt><trkpt lat="45.844743963710265" lon="11.845839270996162"><ele>411.0</ele><time>2026-04-18T13:12:45.999Z</time></trkpt><trkpt lat="45.84481879308576" lon="11.845739718931615"><ele>411.8</ele><time>2026-04-18T13:12:46.999Z</time></trkpt><trkpt lat="45.84491875060327" lon="11.845687389060997"><ele>412.6</ele><time>2026-04-18T13:12:47.999Z</time></trkpt><trkpt lat="45.84500797262161" lon="11.845618582701034"><ele>413.4</ele><time>2026-04-18T13:12:48.999Z</time></trkpt><trkpt lat="45.84510107331237" lon="11.845523267233565"><ele>414.2</ele><time>2026-04-18T13:12:49.999Z</time></trkpt><trkpt lat="45.84519758958929" lon="11.84544182330861"><ele>415.0</ele><time>2026-04-18T13:12:50.999Z</time></trkpt><trkpt lat="45.84531065859283" lon="11.845359206320877"><ele>417.2</ele><time>2026-04-18T13:12:51.999Z</time></trkpt><trkpt lat="45.845397840121805" lon="11.845266389656421"><ele>419.4</ele><time>2026-04-18T13:12:52.999Z</time></trkpt><trkpt lat="45.845504251714424" lon="11.845166264146965"><ele>421.6</ele><time>2026-04-18T13:12:54Z</time></trkpt><trkpt lat="45.84560755462279" lon="11.845076869045355"><ele>423.8</ele><time>2026-04-18T13:12:55Z</time></trkpt><trkpt lat="45.845685020811665" lon="11.845011898549197"><ele>426.0</ele><time>2026-04-18T13:12:56Z</time></trkpt><trkpt lat="45.84576507067878" lon="11.844947596771586"><ele>426.0</ele><time>2026-04-18T13:12:57Z</time></trkpt><trkpt lat="45.84585822660069" lon="11.844871625934916"><ele>426.0</ele><time>2026-04-18T13:12:58Z</time></trkpt><trkpt lat="45.84596300292272" lon="11.844813273264815"><ele>426.0</ele><time>2026-04-18T13:12:59Z</time></trkpt><trkpt lat="45.84607715746146" lon="11.844752666666373"><ele>426.0</ele><time>2026-04-18T13:13:00Z</time></trkpt><trkpt lat="45.84619048768806" lon="11.844705183077009"><ele>427.8</ele><time>2026-04-18T13:13:01Z</time></trkpt><trkpt lat="45.84630080272723" lon="11.844682793666868"><ele>429.6</ele><time>2026-04-18T13:13:02Z</time></trkpt><trkpt lat="45.846390482064216" lon="11.844699546364126"><ele>431.4</ele><time>2026-04-18T13:13:03Z</time></trkpt><trkpt lat="45.846465781487474" lon="11.84469575580662"><ele>433.2</ele><time>2026-04-18T13:13:04Z</time></trkpt><trkpt lat="45.846570908234284" lon="11.844689543929457"><ele>435.0</ele><time>2026-04-18T13:13:05Z</time></trkpt><trkpt lat="45.84666916158214" lon="11.844671973760402"><ele>435.0</ele><time>2026-04-18T13:13:06Z</time></trkpt><trkpt lat="45.84676314911323" lon="11.844671446184508"><ele>435.0</ele><time>2026-04-18T13:13:07Z</time></trkpt><trkpt lat="45.8468610843235" lon="11.844659666956355"><ele>435.0</ele><time>2026-04-18T13:13:08Z</time></trkpt><trkpt lat="45.846938890122395" lon="11.844635011942827"><ele>435.0</ele><time>2026-04-18T13:13:09Z</time></trkpt><trkpt lat="45.84702527415835" lon="11.844638627010648"><ele>435.0</ele><time>2026-04-18T13:13:10Z</time></trkpt><trkpt lat="45.84711319712739" lon="11.844601686972425"><ele>436.8333333333333</ele><time>2026-04-18T13:13:11Z</time></trkpt><trkpt lat="45.84718662653477" lon="11.844549597313058"><ele>438.66666666666663</ele><time>2026-04-18T13:13:12Z</time></trkpt><trkpt lat="45.84726646966293" lon="11.84451802064996"><ele>440.5</ele><time>2026-04-18T13:13:14Z</time></trkpt><trkpt lat="45.847328662153565" lon="11.84446000321981"><ele>442.3333333333333</ele><time>2026-04-18T13:13:27Z</time></trkpt><trkpt lat="45.84737158916138" lon="11.844349892345432"><ele>444.16666666666663</ele><time>2026-04-18T13:13:29Z</time></trkpt><trkpt lat="45.84746337923539" lon="11.844241844578448"><ele>446.0</ele><time>2026-04-18T13:13:31Z</time></trkpt><trkpt lat="45.847511758920696" lon="11.844177580380041"><ele>446.20000000000005</ele><time>2026-04-18T13:13:32Z</time></trkpt><trkpt lat="45.847560668546386" lon="11.84411634843848"><ele>446.40000000000003</ele><time>2026-04-18T13:13:33Z</time></trkpt><trkpt lat="45.84765680220188" lon="11.844015978723412"><ele>446.6</ele><time>2026-04-18T13:13:35Z</time></trkpt><trkpt lat="45.847739899954206" lon="11.843911176437468"><ele>446.8</ele><time>2026-04-18T13:13:37Z</time></trkpt><trkpt lat="45.84779671151651" lon="11.843846465411032"><ele>447.0</ele><time>2026-04-18T13:13:38Z</time></trkpt><trkpt lat="45.847871513052446" lon="11.84378132091188"><ele>448.8</ele><time>2026-04-18T13:13:39Z</time></trkpt><trkpt lat="45.847945066247156" lon="11.843711988432858"><ele>450.6</ele><time>2026-04-18T13:13:40Z</time></trkpt><trkpt lat="45.848029987862276" lon="11.843642809962908"><ele>452.40000000000003</ele><time>2026-04-18T13:13:41Z</time></trkpt><trkpt lat="45.84812928708398" lon="11.843562315316923"><ele>454.20000000000005</ele><time>2026-04-18T13:13:42Z</time></trkpt><trkpt lat="45.848219707614504" lon="11.843470925394596"><ele>456.0</ele><time>2026-04-18T13:13:43Z</time></trkpt><trkpt lat="45.84831026388433" lon="11.84336806647336"><ele>457.0</ele><time>2026-04-18T13:13:44Z</time></trkpt><trkpt lat="45.848401938268786" lon="11.843271427950173"><ele>458.0</ele><time>2026-04-18T13:13:45Z</time></trkpt><trkpt lat="45.848493109780655" lon="11.843168995450913"><ele>459.0</ele><time>2026-04-18T13:13:46Z</time></trkpt><trkpt lat="45.848576064443854" lon="11.84306659879439"><ele>460.0</ele><time>2026-04-18T13:13:47Z</time></trkpt><trkpt lat="45.84867056707687" lon="11.842962523070414"><ele>462.5</ele><time>2026-04-18T13:13:48Z</time></trkpt><trkpt lat="45.848758854218" lon="11.842859436462362"><ele>465.0</ele><time>2026-04-18T13:13:49Z</time></trkpt><trkpt lat="45.84885532246711" lon="11.842768276328751"><ele>467.5</ele><time>2026-04-18T13:13:50Z</time></trkpt><trkpt lat="45.848968128859255" lon="11.84269215073114"><ele>470.0</ele><time>2026-04-18T13:13:51Z</time></trkpt><trkpt lat="45.84908274357961" lon="11.842627882404987"><ele>471.0</ele><time>2026-04-18T13:13:52Z</time></trkpt><trkpt lat="45.84920164493926" lon="11.842549703842622"><ele>472.0</ele><time>2026-04-18T13:13:53Z</time></trkpt><trkpt lat="45.849326067624375" lon="11.84247659527274"><ele>473.0</ele><time>2026-04-18T13:13:54Z</time></trkpt><trkpt lat="45.84945137961656" lon="11.842422725399649"><ele>474.0</ele><time>2026-04-18T13:13:55Z</time></trkpt><trkpt lat="45.849573474528725" lon="11.842359732963242"><ele>477.25</ele><time>2026-04-18T13:13:56Z</time></trkpt><trkpt lat="45.849695648221214" lon="11.842320243264814"><ele>480.5</ele><time>2026-04-18T13:13:57Z</time></trkpt><trkpt lat="45.849828420557095" lon="11.842288776590014"><ele>483.75</ele><time>2026-04-18T13:13:58Z</time></trkpt><trkpt lat="45.849970469682404" lon="11.842253482228882"><ele>487.0</ele><time>2026-04-18T13:13:59Z</time></trkpt><trkpt lat="45.850107881649514" lon="11.842234724459523"><ele>489.75</ele><time>2026-04-18T13:14:00Z</time></trkpt><trkpt lat="45.85024770962991" lon="11.842251973366851"><ele>492.5</ele><time>2026-04-18T13:14:00.999Z</time></trkpt><trkpt lat="45.85039232012976" lon="11.842286162235448"><ele>495.25</ele><time>2026-04-18T13:14:01.999Z</time></trkpt><trkpt lat="45.85052686122461" lon="11.842317808610545"><ele>498.0</ele><time>2026-04-18T13:14:02.999Z</time></trkpt><trkpt lat="45.850672782509214" lon="11.842340247106131"><ele>498.0</ele><time>2026-04-18T13:14:03.999Z</time></trkpt><trkpt lat="45.850816831976964" lon="11.842359181467057"><ele>498.0</ele><time>2026-04-18T13:14:04.999Z</time></trkpt><trkpt lat="45.85095624004247" lon="11.842381992426697"><ele>498.0</ele><time>2026-04-18T13:14:05.999Z</time></trkpt><trkpt lat="45.85109826967688" lon="11.84242667686688"><ele>498.0</ele><time>2026-04-18T13:14:06.999Z</time></trkpt><trkpt lat="45.851244624776314" lon="11.842458251734593"><ele>497.5</ele><time>2026-04-18T13:14:07.999Z</time></trkpt><trkpt lat="45.85139620422224" lon="11.842479313150296"><ele>497.0</ele><time>2026-04-18T13:14:08.999Z</time></trkpt><trkpt lat="45.851517659951476" lon="11.84252182218224"><ele>496.5</ele><time>2026-04-18T13:14:09.999Z</time></trkpt><trkpt lat="45.85166414304552" lon="11.842568389343564"><ele>496.0</ele><time>2026-04-18T13:14:10.999Z</time></trkpt><trkpt lat="45.85179300166772" lon="11.84261934962929"><ele>500.0</ele><time>2026-04-18T13:14:11.999Z</time></trkpt><trkpt lat="45.85192543426606" lon="11.842695693128384"><ele>504.0</ele><time>2026-04-18T13:14:12.999Z</time></trkpt><trkpt lat="45.852038952853" lon="11.84280567685014"><ele>508.0</ele><time>2026-04-18T13:14:13.999Z</time></trkpt><trkpt lat="45.85213949397051" lon="11.842938169934351"><ele>512.0</ele><time>2026-04-18T13:14:14.999Z</time></trkpt><trkpt lat="45.85220746439951" lon="11.84309536705703"><ele>512.0</ele><time>2026-04-18T13:14:15.999Z</time></trkpt><trkpt lat="45.85222534578142" lon="11.843272873641576"><ele>512.0</ele><time>2026-04-18T13:14:16.999Z</time></trkpt><trkpt lat="45.85223054097958" lon="11.84345832203525"><ele>512.0</ele><time>2026-04-18T13:14:17.999Z</time></trkpt><trkpt lat="45.852247888048254" lon="11.843619811568995"><ele>512.0</ele><time>2026-04-18T13:14:18.999Z</time></trkpt><trkpt lat="45.8523006894028" lon="11.843766867214596"><ele>512.25</ele><time>2026-04-18T13:14:19.999Z</time></trkpt><trkpt lat="45.85239606022699" lon="11.843889355923178"><ele>512.5</ele><time>2026-04-18T13:14:20.999Z</time></trkpt><trkpt lat="45.8525105391573" lon="11.844001791181181"><ele>512.75</ele><time>2026-04-18T13:14:21.999Z</time></trkpt><trkpt lat="45.85261340698138" lon="11.844133690150326"><ele>513.0</ele><time>2026-04-18T13:14:22.999Z</time></trkpt><trkpt lat="45.852736227682136" lon="11.844215559816757"><ele>514.0</ele><time>2026-04-18T13:14:23.999Z</time></trkpt><trkpt lat="45.85289172123589" lon="11.844236017919227"><ele>515.0</ele><time>2026-04-18T13:14:24.999Z</time></trkpt><trkpt lat="45.85305094789095" lon="11.844212827350342"><ele>516.0</ele><time>2026-04-18T13:14:25.999Z</time></trkpt><trkpt lat="45.853204878056594" lon="11.844165601578078"><ele>516.0</ele><time>2026-04-18T13:14:26.999Z</time></trkpt><trkpt lat="45.85336280804454" lon="11.844099294914422"><ele>516.0</ele><time>2026-04-18T13:14:27.999Z</time></trkpt><trkpt lat="45.85351883315151" lon="11.844024621296034"><ele>516.0</ele><time>2026-04-18T13:14:28.999Z</time></trkpt><trkpt lat="45.85367039541163" lon="11.843954295493399"><ele>515.0</ele><time>2026-04-18T13:14:29.999Z</time></trkpt><trkpt lat="45.85382345711286" lon="11.84388816170379"><ele>514.0</ele><time>2026-04-18T13:14:30.999Z</time></trkpt><trkpt lat="45.85397016793747" lon="11.843830118833397"><ele>513.0</ele><time>2026-04-18T13:14:31.999Z</time></trkpt><trkpt lat="45.854126601166634" lon="11.843791659449698"><ele>513.0</ele><time>2026-04-18T13:14:32.999Z</time></trkpt><trkpt lat="45.8542830710105" lon="11.843790625470564"><ele>513.0</ele><time>2026-04-18T13:14:33.999Z</time></trkpt><trkpt lat="45.85443838326593" lon="11.84381327844923"><ele>513.0</ele><time>2026-04-18T13:14:34.999Z</time></trkpt><trkpt lat="45.85458975683674" lon="11.843838809703513"><ele>516.0</ele><time>2026-04-18T13:14:35.999Z</time></trkpt><trkpt lat="45.854727657775356" lon="11.843843415758373"><ele>519.0</ele><time>2026-04-18T13:14:36.999Z</time></trkpt><trkpt lat="45.85485317473567" lon="11.843844406918997"><ele>522.0</ele><time>2026-04-18T13:14:37.999Z</time></trkpt><trkpt lat="45.85496039359393" lon="11.843847696959402"><ele>525.0</ele><time>2026-04-18T13:14:38.999Z</time></trkpt><trkpt lat="45.85505445809195" lon="11.843845178805033"><ele>525.8333333333334</ele><time>2026-04-18T13:14:39.999Z</time></trkpt><trkpt lat="45.85514189002756" lon="11.843842763795784"><ele>526.6666666666666</ele><time>2026-04-18T13:14:40.999Z</time></trkpt><trkpt lat="45.855224087451965" lon="11.843837844888204"><ele>527.5</ele><time>2026-04-18T13:14:41.999Z</time></trkpt><trkpt lat="45.855296333308566" lon="11.843834648224663"><ele>528.3333333333333</ele><time>2026-04-18T13:14:42.999Z</time></trkpt><trkpt lat="45.85536394612807" lon="11.843827381378524"><ele>529.1666666666666</ele><time>2026-04-18T13:14:43.999Z</time></trkpt><trkpt lat="45.855472335528944" lon="11.843849943821867"><ele>530.0</ele><time>2026-04-18T13:14:45.999Z</time></trkpt><trkpt lat="45.85555989322189" lon="11.843850562269177"><ele>530.0</ele><time>2026-04-18T13:14:47.999Z</time></trkpt><trkpt lat="45.85562291729173" lon="11.843846073105018"><ele>530.0</ele><time>2026-04-18T13:14:49.999Z</time></trkpt><trkpt lat="45.85570224508692" lon="11.843836327216339"><ele>530.0</ele><time>2026-04-18T13:14:52.999Z</time></trkpt><trkpt lat="45.8557655274061" lon="11.84384931229152"><ele>530.0</ele><time>2026-04-18T13:15:00Z</time></trkpt><trkpt lat="45.8558335122896" lon="11.84385260599639"><ele>530.0</ele><time>2026-04-18T13:15:01Z</time></trkpt><trkpt lat="45.85590974747138" lon="11.843845815939869"><ele>530.0</ele><time>2026-04-18T13:15:02Z</time></trkpt><trkpt lat="45.85604997729566" lon="11.843815736365299"><ele>531.2</ele><time>2026-04-18T13:15:04Z</time></trkpt><trkpt lat="45.856172460947136" lon="11.843773580627543"><ele>532.4</ele><time>2026-04-18T13:15:06Z</time></trkpt><trkpt lat="45.85624461521816" lon="11.843757529197394"><ele>533.6</ele><time>2026-04-18T13:15:07Z</time></trkpt><trkpt lat="45.85633042154497" lon="11.843730394293495"><ele>534.8</ele><time>2026-04-18T13:15:08Z</time></trkpt><trkpt lat="45.85641930251448" lon="11.843717235209624"><ele>536.0</ele><time>2026-04-18T13:15:09Z</time></trkpt><trkpt lat="45.8565298842946" lon="11.843666397093731"><ele>536.0</ele><time>2026-04-18T13:15:10Z</time></trkpt><trkpt lat="45.85663257863718" lon="11.843638559067415"><ele>536.0</ele><time>2026-04-18T13:15:11Z</time></trkpt><trkpt lat="45.85674661987047" lon="11.84361151756392"><ele>536.0</ele><time>2026-04-18T13:15:12Z</time></trkpt><trkpt lat="45.85686254036232" lon="11.84360398739782"><ele>536.0</ele><time>2026-04-18T13:15:13Z</time></trkpt><trkpt lat="45.8569763321567" lon="11.843622852700392"><ele>539.0</ele><time>2026-04-18T13:15:14Z</time></trkpt><trkpt lat="45.857070188541364" lon="11.843587659549618"><ele>542.0</ele><time>2026-04-18T13:15:15Z</time></trkpt><trkpt lat="45.857174629927044" lon="11.843498314782472"><ele>545.0</ele><time>2026-04-18T13:15:16Z</time></trkpt><trkpt lat="45.857272171379265" lon="11.843408896691535"><ele>548.0</ele><time>2026-04-18T13:15:17Z</time></trkpt><trkpt lat="45.85735849841664" lon="11.843290510547332"><ele>548.0</ele><time>2026-04-18T13:15:18Z</time></trkpt><trkpt lat="45.857466009838426" lon="11.843202723457672"><ele>548.0</ele><time>2026-04-18T13:15:19Z</time></trkpt><trkpt lat="45.85753599209721" lon="11.843085658192457"><ele>548.0</ele><time>2026-04-18T13:15:20Z</time></trkpt><trkpt lat="45.85761530410754" lon="11.842972246366385"><ele>548.0</ele><time>2026-04-18T13:15:21Z</time></trkpt><trkpt lat="45.8576981226559" lon="11.842893332660344"><ele>548.0</ele><time>2026-04-18T13:15:22Z</time></trkpt><trkpt lat="45.85779227491692" lon="11.8427915020032"><ele>550.25</ele><time>2026-04-18T13:15:23Z</time></trkpt><trkpt lat="45.857878858523314" lon="11.842674301504365"><ele>552.5</ele><time>2026-04-18T13:15:24Z</time></trkpt><trkpt lat="45.85798928601724" lon="11.842576879968973"><ele>554.75</ele><time>2026-04-18T13:15:25Z</time></trkpt><trkpt lat="45.85808837902279" lon="11.842463902105889"><ele>557.0</ele><time>2026-04-18T13:15:26Z</time></trkpt><trkpt lat="45.858179390458005" lon="11.8423448147636"><ele>557.0</ele><time>2026-04-18T13:15:27Z</time></trkpt><trkpt lat="45.858253097263" lon="11.842224946773825"><ele>557.0</ele><time>2026-04-18T13:15:28Z</time></trkpt><trkpt lat="45.85831881686051" lon="11.842101295721752"><ele>557.0</ele><time>2026-04-18T13:15:29Z</time></trkpt><trkpt lat="45.858368564175855" lon="11.841989023300155"><ele>557.0</ele><time>2026-04-18T13:15:30Z</time></trkpt><trkpt lat="45.85841659353791" lon="11.84188226342243"><ele>557.0</ele><time>2026-04-18T13:15:31Z</time></trkpt><trkpt lat="45.85847341716543" lon="11.84179393341932"><ele>555.4</ele><time>2026-04-18T13:15:32Z</time></trkpt><trkpt lat="45.858547984287675" lon="11.841704465099966"><ele>553.8000000000001</ele><time>2026-04-18T13:15:33Z</time></trkpt><trkpt lat="45.8586291902997" lon="11.84165560693594"><ele>552.2</ele><time>2026-04-18T13:15:34Z</time></trkpt><trkpt lat="45.85871083413984" lon="11.84163532371252"><ele>550.6</ele><time>2026-04-18T13:15:35Z</time></trkpt><trkpt lat="45.85883951036626" lon="11.841652036183358"><ele>549.0</ele><time>2026-04-18T13:15:36Z</time></trkpt><trkpt lat="45.85892404598257" lon="11.841660660825799"><ele>549.0</ele><time>2026-04-18T13:15:37Z</time></trkpt><trkpt lat="45.85902607649769" lon="11.841665814287511"><ele>549.0</ele><time>2026-04-18T13:15:38Z</time></trkpt><trkpt lat="45.859086362692906" lon="11.841631053319409"><ele>549.0</ele><time>2026-04-18T13:15:39Z</time></trkpt><trkpt lat="45.85919415200206" lon="11.841607986799934"><ele>549.0</ele><time>2026-04-18T13:15:40Z</time></trkpt><trkpt lat="45.85930273725652" lon="11.841564127052592"><ele>549.0</ele><time>2026-04-18T13:15:41Z</time></trkpt><trkpt lat="45.85942567952181" lon="11.841556506770498"><ele>551.25</ele><time>2026-04-18T13:15:42Z</time></trkpt><trkpt lat="45.85953931304224" lon="11.841539104975462"><ele>553.5</ele><time>2026-04-18T13:15:43Z</time></trkpt><trkpt lat="45.85963468874792" lon="11.841490656838658"><ele>555.75</ele><time>2026-04-18T13:15:44Z</time></trkpt><trkpt lat="45.85973811169285" lon="11.841465218895673"><ele>558.0</ele><time>2026-04-18T13:15:45Z</time></trkpt><trkpt lat="45.85986475199424" lon="11.841419995904767"><ele>558.0</ele><time>2026-04-18T13:15:46Z</time></trkpt><trkpt lat="45.85996304023781" lon="11.841394921303548"><ele>558.0</ele><time>2026-04-18T13:15:47Z</time></trkpt><trkpt lat="45.860081170561884" lon="11.841357220321106"><ele>558.0</ele><time>2026-04-18T13:15:48Z</time></trkpt><trkpt lat="45.860166423758805" lon="11.841336996671817"><ele>558.0</ele><time>2026-04-18T13:15:49Z</time></trkpt><trkpt lat="45.86028754703901" lon="11.841302300764166"><ele>558.0</ele><time>2026-04-18T13:15:50Z</time></trkpt><trkpt lat="45.860415588184246" lon="11.841245523393063"><ele>558.5</ele><time>2026-04-18T13:15:51Z</time></trkpt><trkpt lat="45.86052380818209" lon="11.841162563645284"><ele>559.0</ele><time>2026-04-18T13:15:52Z</time></trkpt><trkpt lat="45.86064420671945" lon="11.841038776077294"><ele>559.5</ele><time>2026-04-18T13:15:53Z</time></trkpt><trkpt lat="45.86076709072322" lon="11.840954651206484"><ele>560.0</ele><time>2026-04-18T13:15:54Z</time></trkpt><trkpt lat="45.86088777629389" lon="11.840853852221816"><ele>561.75</ele><time>2026-04-18T13:15:55Z</time></trkpt><trkpt lat="45.86099674151203" lon="11.8407561888603"><ele>563.5</ele><time>2026-04-18T13:15:56Z</time></trkpt><trkpt lat="45.86110632294058" lon="11.840689946592583"><ele>565.25</ele><time>2026-04-18T13:15:57Z</time></trkpt><trkpt lat="45.86121218747201" lon="11.840614232122547"><ele>567.0</ele><time>2026-04-18T13:15:58Z</time></trkpt><trkpt lat="45.861276772432845" lon="11.840510952532716"><ele>567.0</ele><time>2026-04-18T13:15:59Z</time></trkpt><trkpt lat="45.86132548908626" lon="11.84038571917729"><ele>567.0</ele><time>2026-04-18T13:16:00Z</time></trkpt><trkpt lat="45.86135297580876" lon="11.84025314993135"><ele>567.0</ele><time>2026-04-18T13:16:01Z</time></trkpt><trkpt lat="45.861393706509986" lon="11.840112242317112"><ele>567.0</ele><time>2026-04-18T13:16:02Z</time></trkpt><trkpt lat="45.86143788303882" lon="11.839963692539314"><ele>567.0</ele><time>2026-04-18T13:16:03Z</time></trkpt><trkpt lat="45.861455231953535" lon="11.839804539947087"><ele>561.75</ele><time>2026-04-18T13:16:04Z</time></trkpt><trkpt lat="45.86149568982023" lon="11.839638023897868"><ele>556.5</ele><time>2026-04-18T13:16:05Z</time></trkpt><trkpt lat="45.86154851945984" lon="11.839464848710438"><ele>551.25</ele><time>2026-04-18T13:16:06Z</time></trkpt><trkpt lat="45.86160672321323" lon="11.83929121810824"><ele>546.0</ele><time>2026-04-18T13:16:07Z</time></trkpt><trkpt lat="45.86165570710183" lon="11.839112090493138"><ele>545.25</ele><time>2026-04-18T13:16:08Z</time></trkpt><trkpt lat="45.8617071465038" lon="11.838931731725632"><ele>544.5</ele><time>2026-04-18T13:16:08.999Z</time></trkpt><trkpt lat="45.86175401838846" lon="11.838745795727522"><ele>543.75</ele><time>2026-04-18T13:16:09.999Z</time></trkpt><trkpt lat="45.861797306470386" lon="11.838540651875164"><ele>543.0</ele><time>2026-04-18T13:16:10.999Z</time></trkpt><trkpt lat="45.861818369842624" lon="11.838318030776348"><ele>544.4</ele><time>2026-04-18T13:16:11.999Z</time></trkpt><trkpt lat="45.86177959048135" lon="11.838139209893974"><ele>545.8</ele><time>2026-04-18T13:16:12.999Z</time></trkpt><trkpt lat="45.861779092408334" lon="11.837986878047577"><ele>547.2</ele><time>2026-04-18T13:16:13.999Z</time></trkpt><trkpt lat="45.86179707276477" lon="11.837854496577865"><ele>548.6</ele><time>2026-04-18T13:16:14.999Z</time></trkpt><trkpt lat="45.861842762557025" lon="11.83774033956269"><ele>550.0</ele><time>2026-04-18T13:16:15.999Z</time></trkpt><trkpt lat="45.861887360878086" lon="11.837625780032763"><ele>554.2</ele><time>2026-04-18T13:16:16.999Z</time></trkpt><trkpt lat="45.86194051830502" lon="11.83752784274996"><ele>558.4</ele><time>2026-04-18T13:16:17.999Z</time></trkpt><trkpt lat="45.862005732561634" lon="11.8374175972889"><ele>562.6</ele><time>2026-04-18T13:16:18.999Z</time></trkpt><trkpt lat="45.86208304927928" lon="11.837321520540444"><ele>566.8</ele><time>2026-04-18T13:16:19.999Z</time></trkpt><trkpt lat="45.8621746394803" lon="11.837255575985846"><ele>571.0</ele><time>2026-04-18T13:16:20.999Z</time></trkpt><trkpt lat="45.86226725620029" lon="11.837190911423876"><ele>571.0</ele><time>2026-04-18T13:16:21.999Z</time></trkpt><trkpt lat="45.862342865430804" lon="11.837114159195286"><ele>571.0</ele><time>2026-04-18T13:16:22.999Z</time></trkpt><trkpt lat="45.86242794011932" lon="11.837036970566269"><ele>571.0</ele><time>2026-04-18T13:16:23.999Z</time></trkpt><trkpt lat="45.86251070459878" lon="11.836933074625458"><ele>571.0</ele><time>2026-04-18T13:16:24.999Z</time></trkpt><trkpt lat="45.86257716555238" lon="11.836818444707658"><ele>571.0</ele><time>2026-04-18T13:16:25.999Z</time></trkpt><trkpt lat="45.862633450288634" lon="11.836685352803908"><ele>570.4</ele><time>2026-04-18T13:16:26.999Z</time></trkpt><trkpt lat="45.86267634831137" lon="11.836571002414898"><ele>569.8</ele><time>2026-04-18T13:16:27.999Z</time></trkpt><trkpt lat="45.86273757063705" lon="11.836454008866744"><ele>569.1999999999999</ele><time>2026-04-18T13:16:29.999Z</time></trkpt><trkpt lat="45.862819889484825" lon="11.83644998960458"><ele>568.6</ele><time>2026-04-18T13:16:31.999Z</time></trkpt><trkpt lat="45.862934500849995" lon="11.836507108740875"><ele>568.0</ele><time>2026-04-18T13:16:33.999Z</time></trkpt><trkpt lat="45.863050393154865" lon="11.836742318406401"><ele>568.0</ele><time>2026-04-18T13:16:34.999Z</time></trkpt><trkpt lat="45.86312797187734" lon="11.836788514948449"><ele>568.0</ele><time>2026-04-18T13:16:35.999Z</time></trkpt><trkpt lat="45.863195493714926" lon="11.836826794108068"><ele>568.0</ele><time>2026-04-18T13:16:36.999Z</time></trkpt><trkpt lat="45.86328431936773" lon="11.836793304746074"><ele>568.0</ele><time>2026-04-18T13:16:37.999Z</time></trkpt><trkpt lat="45.86337279903747" lon="11.836742191701942"><ele>568.0</ele><time>2026-04-18T13:16:38.999Z</time></trkpt><trkpt lat="45.86340647719368" lon="11.836659211640601"><ele>568.0</ele><time>2026-04-18T13:16:39.999Z</time></trkpt><trkpt lat="45.863450408468836" lon="11.83656031501234"><ele>572.8</ele><time>2026-04-18T13:16:40.999Z</time></trkpt><trkpt lat="45.863503880022094" lon="11.836460774794155"><ele>577.5999999999999</ele><time>2026-04-18T13:16:41.999Z</time></trkpt><trkpt lat="45.86357079134738" lon="11.836378550721458"><ele>582.4000000000001</ele><time>2026-04-18T13:16:42.999Z</time></trkpt><trkpt lat="45.86364495355433" lon="11.836280471735984"><ele>587.2</ele><time>2026-04-18T13:16:43.999Z</time></trkpt><trkpt lat="45.86375672923988" lon="11.836221486973363"><ele>592.0</ele><time>2026-04-18T13:16:44.999Z</time></trkpt><trkpt lat="45.863860586822405" lon="11.836176609888405"><ele>592.0</ele><time>2026-04-18T13:16:45.999Z</time></trkpt><trkpt lat="45.863958447482204" lon="11.83612210278965"><ele>592.0</ele><time>2026-04-18T13:16:46.999Z</time></trkpt><trkpt lat="45.86404333267646" lon="11.836049897809431"><ele>592.0</ele><time>2026-04-18T13:16:47.999Z</time></trkpt><trkpt lat="45.86412837365675" lon="11.835965366191052"><ele>592.0</ele><time>2026-04-18T13:16:48.999Z</time></trkpt><trkpt lat="45.86419976045188" lon="11.835868612264848"><ele>592.0</ele><time>2026-04-18T13:16:49.999Z</time></trkpt><trkpt lat="45.864310624580426" lon="11.835830270432792"><ele>589.4</ele><time>2026-04-18T13:16:50.999Z</time></trkpt><trkpt lat="45.86442807422819" lon="11.835843305698704"><ele>586.8000000000001</ele><time>2026-04-18T13:16:51.999Z</time></trkpt><trkpt lat="45.86453766841663" lon="11.835854097825498"><ele>584.2</ele><time>2026-04-18T13:16:52.999Z</time></trkpt><trkpt lat="45.86464163359518" lon="11.835829995021623"><ele>581.6</ele><time>2026-04-18T13:16:53.999Z</time></trkpt><trkpt lat="45.86472952221785" lon="11.83579859101378"><ele>579.0</ele><time>2026-04-18T13:16:54.999Z</time></trkpt><trkpt lat="45.86481648780151" lon="11.835748774242905"><ele>579.0</ele><time>2026-04-18T13:16:55.999Z</time></trkpt><trkpt lat="45.86490394381798" lon="11.835699878124824"><ele>579.0</ele><time>2026-04-18T13:16:56.999Z</time></trkpt><trkpt lat="45.8649961388278" lon="11.835651730419995"><ele>579.0</ele><time>2026-04-18T13:16:57.999Z</time></trkpt><trkpt lat="45.865094829475595" lon="11.835607797606379"><ele>579.0</ele><time>2026-04-18T13:16:58.999Z</time></trkpt><trkpt lat="45.86518703524047" lon="11.835555511596116"><ele>579.0</ele><time>2026-04-18T13:16:59.999Z</time></trkpt><trkpt lat="45.86528387487451" lon="11.835500412754264"><ele>580.2</ele><time>2026-04-18T13:17:00.999Z</time></trkpt><trkpt lat="45.86538660285805" lon="11.835442288487023"><ele>581.4</ele><time>2026-04-18T13:17:01.999Z</time></trkpt><trkpt lat="45.865486543480124" lon="11.835377968396186"><ele>582.6</ele><time>2026-04-18T13:17:02.999Z</time></trkpt><trkpt lat="45.86557491387968" lon="11.835283497815102"><ele>583.8</ele><time>2026-04-18T13:17:03.999Z</time></trkpt><trkpt lat="45.86563226491355" lon="11.835162609704307"><ele>585.0</ele><time>2026-04-18T13:17:04.999Z</time></trkpt><trkpt lat="45.865685826584084" lon="11.835058288590107"><ele>585.0</ele><time>2026-04-18T13:17:06Z</time></trkpt><trkpt lat="45.8657786129263" lon="11.834991106371731"><ele>585.0</ele><time>2026-04-18T13:17:07Z</time></trkpt><trkpt lat="45.865895396227174" lon="11.834964380856857"><ele>585.0</ele><time>2026-04-18T13:17:08Z</time></trkpt><trkpt lat="45.86598984634468" lon="11.83495564650764"><ele>585.0</ele><time>2026-04-18T13:17:09Z</time></trkpt><trkpt lat="45.866084044993244" lon="11.834963540181853"><ele>585.0</ele><time>2026-04-18T13:17:10Z</time></trkpt><trkpt lat="45.86616042830383" lon="11.834973448409038"><ele>586.3333333333334</ele><time>2026-04-18T13:17:11Z</time></trkpt><trkpt lat="45.86625546485036" lon="11.83497877858511"><ele>587.6666666666666</ele><time>2026-04-18T13:17:12Z</time></trkpt><trkpt lat="45.866333737262664" lon="11.835007161959316"><ele>589.0</ele><time>2026-04-18T13:17:13Z</time></trkpt><trkpt lat="45.86640892728257" lon="11.835017942267656"><ele>590.3333333333333</ele><time>2026-04-18T13:17:14Z</time></trkpt><trkpt lat="45.86649323590584" lon="11.835017562570995"><ele>591.6666666666666</ele><time>2026-04-18T13:17:15Z</time></trkpt><trkpt lat="45.86657292417269" lon="11.835005892783743"><ele>593.0</ele><time>2026-04-18T13:17:16Z</time></trkpt><trkpt lat="45.866646629355046" lon="11.834979374272239"><ele>593.0</ele><time>2026-04-18T13:17:17Z</time></trkpt><trkpt lat="45.86672399867772" lon="11.83492305247754"><ele>593.0</ele><time>2026-04-18T13:17:18Z</time></trkpt><trkpt lat="45.86679363084831" lon="11.834861339866979"><ele>593.0</ele><time>2026-04-18T13:17:19Z</time></trkpt><trkpt lat="45.86684645968838" lon="11.834793094721324"><ele>593.0</ele><time>2026-04-18T13:17:20Z</time></trkpt><trkpt lat="45.86687903900781" lon="11.834696009164615"><ele>593.0</ele><time>2026-04-18T13:17:21Z</time></trkpt><trkpt lat="45.86689207185863" lon="11.83453027718375"><ele>593.0</ele><time>2026-04-18T13:17:23Z</time></trkpt><trkpt lat="45.86687930731991" lon="11.834405893001827"><ele>595.8</ele><time>2026-04-18T13:17:25Z</time></trkpt><trkpt lat="45.86686424103073" lon="11.834306089640156"><ele>598.5999999999999</ele><time>2026-04-18T13:17:28Z</time></trkpt><trkpt lat="45.86692088945703" lon="11.834254989413608"><ele>601.4000000000001</ele><time>2026-04-18T13:17:32Z</time></trkpt><trkpt lat="45.86701079739521" lon="11.834245117513467"><ele>604.2</ele><time>2026-04-18T13:17:37Z</time></trkpt><trkpt lat="45.867160727930305" lon="11.83415741507719"><ele>607.0</ele><time>2026-04-18T13:17:39Z</time></trkpt><trkpt lat="45.867257422519884" lon="11.834100696249594"><ele>607.0</ele><time>2026-04-18T13:17:41Z</time></trkpt><trkpt lat="45.86729389140919" lon="11.834020224982906"><ele>607.0</ele><time>2026-04-18T13:17:47Z</time></trkpt><trkpt lat="45.867361641517185" lon="11.83400665723767"><ele>607.0</ele><time>2026-04-18T13:18:02Z</time></trkpt><trkpt lat="45.8672607156094" lon="11.834024847335394"><ele>607.0</ele><time>2026-04-18T13:19:40Z</time></trkpt><trkpt lat="45.86735290323195" lon="11.833993017114778"><ele>607.0</ele><time>2026-04-18T13:20:54.999Z</time></trkpt><trkpt lat="45.8672858507496" lon="11.834058896664818"><ele>607.0</ele><time>2026-04-18T13:21:05.999Z</time></trkpt><trkpt lat="45.86721850583593" lon="11.834071736946454"><ele>607.0</ele><time>2026-04-18T13:21:08.999Z</time></trkpt><trkpt lat="45.86713770691038" lon="11.83408552072879"><ele>607.0</ele><time>2026-04-18T13:21:11.999Z</time></trkpt><trkpt lat="45.86706831723525" lon="11.834123087911664"><ele>607.0</ele><time>2026-04-18T13:21:14.999Z</time></trkpt><trkpt lat="45.86702529402369" lon="11.834193344701138"><ele>607.0</ele><time>2026-04-18T13:21:18Z</time></trkpt><trkpt lat="45.86695989389058" lon="11.834223819005988"><ele>607.0</ele><time>2026-04-18T13:21:21Z</time></trkpt><trkpt lat="45.866944354065694" lon="11.834331554461635"><ele>607.0</ele><time>2026-04-18T13:21:24Z</time></trkpt><trkpt lat="45.8670077887159" lon="11.83441378197356"><ele>609.0</ele><time>2026-04-18T13:21:26Z</time></trkpt><trkpt lat="45.86700963227124" lon="11.834514938398726"><ele>611.0</ele><time>2026-04-18T13:21:31Z</time></trkpt><trkpt lat="45.86701702579726" lon="11.834612636893741"><ele>613.0</ele><time>2026-04-18T13:21:42Z</time></trkpt><trkpt lat="45.8671083865436" lon="11.834665412375035"><ele>615.0</ele><time>2026-04-18T13:24:17Z</time></trkpt><trkpt lat="45.867032046914346" lon="11.834642624117892"><ele>617.0</ele><time>2026-04-18T13:26:19Z</time></trkpt><trkpt lat="45.86698541488305" lon="11.834555435465461"><ele>619.0</ele><time>2026-04-18T13:31:39.999Z</time></trkpt><trkpt lat="45.866949324895785" lon="11.834462755460166"><ele>619.0</ele><time>2026-04-18T13:31:45.999Z</time></trkpt><trkpt lat="45.86691040549206" lon="11.83437798490994"><ele>619.0</ele><time>2026-04-18T13:32:01Z</time></trkpt><trkpt lat="45.866843824419405" lon="11.834402945296576"><ele>619.0</ele><time>2026-04-18T13:32:03Z</time></trkpt><trkpt lat="45.866818129506846" lon="11.834492167343507"><ele>619.0</ele><time>2026-04-18T13:32:08Z</time></trkpt><trkpt lat="45.86676423937693" lon="11.834549475580996"><ele>619.0</ele><time>2026-04-18T13:32:23Z</time></trkpt><trkpt lat="45.86684398304719" lon="11.834524200139361"><ele>619.0</ele><time>2026-04-18T13:32:43Z</time></trkpt><trkpt lat="45.866751168855664" lon="11.834568450194789"><ele>619.0</ele><time>2026-04-18T13:33:36.999Z</time></trkpt><trkpt lat="45.86683959319126" lon="11.834533507835628"><ele>619.0</ele><time>2026-04-18T13:34:35Z</time></trkpt><trkpt lat="45.86693253294473" lon="11.834563857948208"><ele>619.0</ele><time>2026-04-18T13:34:40Z</time></trkpt><trkpt lat="45.86698539094411" lon="11.834620617622884"><ele>619.0</ele><time>2026-04-18T13:34:48Z</time></trkpt><trkpt lat="45.86704500215668" lon="11.834650993235423"><ele>619.0</ele><time>2026-04-18T13:34:57.999Z</time></trkpt><trkpt lat="45.86702586168736" lon="11.834545666214133"><ele>619.0</ele><time>2026-04-18T13:40:56Z</time></trkpt><trkpt lat="45.86697707876125" lon="11.834458320497065"><ele>619.0</ele><time>2026-04-18T13:41:01Z</time></trkpt><trkpt lat="45.86690807029178" lon="11.834448184436715"><ele>619.0</ele><time>2026-04-18T13:41:04Z</time></trkpt><trkpt lat="45.86688422982331" lon="11.834532506472728"><ele>619.0</ele><time>2026-04-18T13:41:06Z</time></trkpt><trkpt lat="45.86688118820848" lon="11.834623048868927"><ele>619.0</ele><time>2026-04-18T13:41:08Z</time></trkpt><trkpt lat="45.86686304418619" lon="11.834734173146447"><ele>619.0</ele><time>2026-04-18T13:41:10Z</time></trkpt><trkpt lat="45.8667792935368" lon="11.834841782604062"><ele>619.0</ele><time>2026-04-18T13:41:12Z</time></trkpt><trkpt lat="45.86667562856948" lon="11.834891498777472"><ele>614.6666666666667</ele><time>2026-04-18T13:41:14Z</time></trkpt><trkpt lat="45.86661565441437" lon="11.834928125701804"><ele>610.3333333333334</ele><time>2026-04-18T13:41:15Z</time></trkpt><trkpt lat="45.866544839005364" lon="11.834975822698166"><ele>606.0</ele><time>2026-04-18T13:41:16Z</time></trkpt><trkpt lat="45.86647320474988" lon="11.834993845948022"><ele>601.6666666666666</ele><time>2026-04-18T13:41:17Z</time></trkpt><trkpt lat="45.866405061753746" lon="11.835004487703616"><ele>597.3333333333333</ele><time>2026-04-18T13:41:18Z</time></trkpt><trkpt lat="45.866336902467935" lon="11.835008768190082"><ele>593.0</ele><time>2026-04-18T13:41:19Z</time></trkpt><trkpt lat="45.86621629568554" lon="11.83497907963059"><ele>593.0</ele><time>2026-04-18T13:41:20.999Z</time></trkpt><trkpt lat="45.86611898196703" lon="11.834960454933908"><ele>593.0</ele><time>2026-04-18T13:41:21.999Z</time></trkpt><trkpt lat="45.866017934287065" lon="11.834950845396767"><ele>593.0</ele><time>2026-04-18T13:41:22.999Z</time></trkpt><trkpt lat="45.8659125410176" lon="11.83497189398635"><ele>593.0</ele><time>2026-04-18T13:41:23.999Z</time></trkpt><trkpt lat="45.86581204895009" lon="11.835000953310278"><ele>593.0</ele><time>2026-04-18T13:41:24.999Z</time></trkpt><trkpt lat="45.865719946353856" lon="11.835043025585682"><ele>592.1999999999999</ele><time>2026-04-18T13:41:25.999Z</time></trkpt><trkpt lat="45.86562880028484" lon="11.83511706257682"><ele>591.4</ele><time>2026-04-18T13:41:26.999Z</time></trkpt><trkpt lat="45.86555464648221" lon="11.835219616181545"><ele>590.5999999999999</ele><time>2026-04-18T13:41:27.999Z</time></trkpt><trkpt lat="45.865500046017246" lon="11.835328865649162"><ele>589.8</ele><time>2026-04-18T13:41:28.999Z</time></trkpt><trkpt lat="45.86542024531087" lon="11.835425796975205"><ele>589.0</ele><time>2026-04-18T13:41:29.999Z</time></trkpt><trkpt lat="45.86531894425978" lon="11.835463102367648"><ele>589.0</ele><time>2026-04-18T13:41:30.999Z</time></trkpt><trkpt lat="45.86520453780088" lon="11.835530461333308"><ele>589.0</ele><time>2026-04-18T13:41:31.999Z</time></trkpt><trkpt lat="45.86509617262792" lon="11.835573601087944"><ele>589.0</ele><time>2026-04-18T13:41:32.999Z</time></trkpt><trkpt lat="45.86499108278697" lon="11.835622824626471"><ele>589.0</ele><time>2026-04-18T13:41:33.999Z</time></trkpt><trkpt lat="45.86488770888551" lon="11.835671029979949"><ele>587.0</ele><time>2026-04-18T13:41:34.999Z</time></trkpt><trkpt lat="45.86478189293686" lon="11.835723356918596"><ele>585.0</ele><time>2026-04-18T13:41:35.999Z</time></trkpt><trkpt lat="45.8646749728038" lon="11.835770643732806"><ele>583.0</ele><time>2026-04-18T13:41:36.999Z</time></trkpt><trkpt lat="45.86458376506096" lon="11.835807668843621"><ele>581.0</ele><time>2026-04-18T13:41:37.999Z</time></trkpt><trkpt lat="45.86447897579434" lon="11.835803942097332"><ele>579.0</ele><time>2026-04-18T13:41:38.999Z</time></trkpt><trkpt lat="45.86438405892903" lon="11.835809960224596"><ele>579.0</ele><time>2026-04-18T13:41:39.999Z</time></trkpt><trkpt lat="45.86428503566359" lon="11.835823490282024"><ele>579.0</ele><time>2026-04-18T13:41:40.999Z</time></trkpt><trkpt lat="45.86415918078548" lon="11.835855030747364"><ele>579.0</ele><time>2026-04-18T13:41:41.999Z</time></trkpt><trkpt lat="45.86407573364786" lon="11.835933567776133"><ele>579.0</ele><time>2026-04-18T13:41:42.999Z</time></trkpt><trkpt lat="45.863990283968214" lon="11.83602394398022"><ele>579.0</ele><time>2026-04-18T13:41:43.999Z</time></trkpt><trkpt lat="45.863911337629155" lon="11.836110559565041"><ele>581.6</ele><time>2026-04-18T13:41:44.999Z</time></trkpt><trkpt lat="45.86382122108757" lon="11.836172439803953"><ele>584.2</ele><time>2026-04-18T13:41:45.999Z</time></trkpt><trkpt lat="45.86373476862692" lon="11.836248389829144"><ele>586.8000000000001</ele><time>2026-04-18T13:41:46.999Z</time></trkpt><trkpt lat="45.863638211917994" lon="11.836303342146449"><ele>589.4</ele><time>2026-04-18T13:41:47.999Z</time></trkpt><trkpt lat="45.86355782932786" lon="11.836398778495868"><ele>592.0</ele><time>2026-04-18T13:41:48.999Z</time></trkpt><trkpt lat="45.86347232778947" lon="11.836490905819716"><ele>587.2</ele><time>2026-04-18T13:41:49.999Z</time></trkpt><trkpt lat="45.86338686042915" lon="11.836566662291053"><ele>582.4000000000001</ele><time>2026-04-18T13:41:50.999Z</time></trkpt><trkpt lat="45.863306562500924" lon="11.836662722951743"><ele>577.5999999999999</ele><time>2026-04-18T13:41:51.999Z</time></trkpt><trkpt lat="45.86320827316981" lon="11.83671640719646"><ele>572.8</ele><time>2026-04-18T13:41:52.999Z</time></trkpt><trkpt lat="45.863116838078646" lon="11.83671591907479"><ele>568.0</ele><time>2026-04-18T13:41:53.999Z</time></trkpt><trkpt lat="45.86302224075341" lon="11.836679792037984"><ele>568.0</ele><time>2026-04-18T13:41:54.999Z</time></trkpt><trkpt lat="45.862966085249894" lon="11.836605723006445"><ele>568.0</ele><time>2026-04-18T13:41:55.999Z</time></trkpt><trkpt lat="45.86290269459865" lon="11.836557375704357"><ele>568.0</ele><time>2026-04-18T13:41:56.999Z</time></trkpt><trkpt lat="45.86283309953223" lon="11.836500279829705"><ele>568.0</ele><time>2026-04-18T13:41:57.999Z</time></trkpt><trkpt lat="45.862761103379675" lon="11.836441714282463"><ele>568.0</ele><time>2026-04-18T13:41:58.999Z</time></trkpt><trkpt lat="45.862697552527045" lon="11.836422215752155"><ele>568.0</ele><time>2026-04-18T13:41:59.999Z</time></trkpt><trkpt lat="45.86262115029123" lon="11.836486048614747"><ele>568.6</ele><time>2026-04-18T13:42:00.999Z</time></trkpt><trkpt lat="45.862598138438415" lon="11.836609743610797"><ele>569.1999999999999</ele><time>2026-04-18T13:42:01.999Z</time></trkpt><trkpt lat="45.86256310783843" lon="11.836753355511439"><ele>569.8</ele><time>2026-04-18T13:42:02.999Z</time></trkpt><trkpt lat="45.86253454010487" lon="11.836879430863569"><ele>570.4</ele><time>2026-04-18T13:42:03.999Z</time></trkpt><trkpt lat="45.86249006502092" lon="11.837012506089778"><ele>571.0</ele><time>2026-04-18T13:42:04.999Z</time></trkpt><trkpt lat="45.862406246941966" lon="11.837093044445387"><ele>571.0</ele><time>2026-04-18T13:42:05.999Z</time></trkpt><trkpt lat="45.86232868600668" lon="11.837196990075842"><ele>571.0</ele><time>2026-04-18T13:42:06.999Z</time></trkpt><trkpt lat="45.86223901889739" lon="11.837277632104083"><ele>571.0</ele><time>2026-04-18T13:42:07.999Z</time></trkpt><trkpt lat="45.862141544096644" lon="11.837337958077503"><ele>571.0</ele><time>2026-04-18T13:42:08.999Z</time></trkpt><trkpt lat="45.86205328003716" lon="11.837426845019952"><ele>571.0</ele><time>2026-04-18T13:42:09.999Z</time></trkpt><trkpt lat="45.86196629459572" lon="11.837520305850523"><ele>571.0</ele><time>2026-04-18T13:42:10.999Z</time></trkpt><trkpt lat="45.86189655875491" lon="11.837632988113386"><ele>571.0</ele><time>2026-04-18T13:42:11.999Z</time></trkpt><trkpt lat="45.86182398674132" lon="11.837748635245799"><ele>571.0</ele><time>2026-04-18T13:42:12.999Z</time></trkpt><trkpt lat="45.8617733802984" lon="11.837902978302468"><ele>571.0</ele><time>2026-04-18T13:42:13.999Z</time></trkpt><trkpt lat="45.861741749539796" lon="11.838076354085114"><ele>565.75</ele><time>2026-04-18T13:42:14.999Z</time></trkpt><trkpt lat="45.861766169584776" lon="11.838265005365063"><ele>560.5</ele><time>2026-04-18T13:42:15.999Z</time></trkpt><trkpt lat="45.86177753938448" lon="11.83845945347066"><ele>555.25</ele><time>2026-04-18T13:42:16.999Z</time></trkpt><trkpt lat="45.861775964286196" lon="11.83863000232241"><ele>550.0</ele><time>2026-04-18T13:42:18Z</time></trkpt><trkpt lat="45.861738256487946" lon="11.838826155516731"><ele>549.0</ele><time>2026-04-18T13:42:19Z</time></trkpt><trkpt lat="45.86170834434566" lon="11.838990129821678"><ele>548.0</ele><time>2026-04-18T13:42:20Z</time></trkpt><trkpt lat="45.861648256284596" lon="11.839200890196096"><ele>547.0</ele><time>2026-04-18T13:42:21Z</time></trkpt><trkpt lat="45.86157991477996" lon="11.839406207989548"><ele>546.0</ele><time>2026-04-18T13:42:22Z</time></trkpt><trkpt lat="45.861509763543296" lon="11.839620767184593"><ele>546.0</ele><time>2026-04-18T13:42:23Z</time></trkpt><trkpt lat="45.86144763670599" lon="11.839838295814072"><ele>546.0</ele><time>2026-04-18T13:42:24Z</time></trkpt><trkpt lat="45.861395416577835" lon="11.840067064297703"><ele>546.0</ele><time>2026-04-18T13:42:25Z</time></trkpt><trkpt lat="45.861354083252465" lon="11.84025610799355"><ele>551.25</ele><time>2026-04-18T13:42:26Z</time></trkpt><trkpt lat="45.8613205744614" lon="11.840423933630381"><ele>556.5</ele><time>2026-04-18T13:42:27Z</time></trkpt><trkpt lat="45.86126913869409" lon="11.84056197801076"><ele>561.75</ele><time>2026-04-18T13:42:28Z</time></trkpt><trkpt lat="45.86118433863013" lon="11.84067412047928"><ele>567.0</ele><time>2026-04-18T13:42:29Z</time></trkpt><trkpt lat="45.86108460215686" lon="11.840754496351428"><ele>567.0</ele><time>2026-04-18T13:42:30Z</time></trkpt><trkpt lat="45.86097936294037" lon="11.840813332031596"><ele>567.0</ele><time>2026-04-18T13:42:31Z</time></trkpt><trkpt lat="45.860897305151866" lon="11.840904844387854"><ele>567.0</ele><time>2026-04-18T13:42:32Z</time></trkpt><trkpt lat="45.8608068848468" lon="11.840985461991872"><ele>567.0</ele><time>2026-04-18T13:42:33Z</time></trkpt><trkpt lat="45.86070919176636" lon="11.841061156325452"><ele>567.0</ele><time>2026-04-18T13:42:34Z</time></trkpt><trkpt lat="45.86059808585621" lon="11.84109539254552"><ele>565.25</ele><time>2026-04-18T13:42:35Z</time></trkpt><trkpt lat="45.860490857859695" lon="11.841129604943012"><ele>563.5</ele><time>2026-04-18T13:42:36Z</time></trkpt><trkpt lat="45.86038839587303" lon="11.841168367591626"><ele>561.75</ele><time>2026-04-18T13:42:37Z</time></trkpt><trkpt lat="45.860286710313524" lon="11.841204750245627"><ele>560.0</ele><time>2026-04-18T13:42:38Z</time></trkpt><trkpt lat="45.86014727982768" lon="11.841239466646757"><ele>559.5</ele><time>2026-04-18T13:42:39Z</time></trkpt><trkpt lat="45.86002603527429" lon="11.841261808301656"><ele>559.0</ele><time>2026-04-18T13:42:40Z</time></trkpt><trkpt lat="45.859911900028294" lon="11.841303659359992"><ele>558.5</ele><time>2026-04-18T13:42:41Z</time></trkpt><trkpt lat="45.859818626578786" lon="11.841378977763666"><ele>558.0</ele><time>2026-04-18T13:42:42Z</time></trkpt><trkpt lat="45.85970692908604" lon="11.841429973940159"><ele>558.0</ele><time>2026-04-18T13:42:43Z</time></trkpt><trkpt lat="45.859591090203374" lon="11.841467435934982"><ele>558.0</ele><time>2026-04-18T13:42:44Z</time></trkpt><trkpt lat="45.85944871488662" lon="11.841507816087452"><ele>558.0</ele><time>2026-04-18T13:42:45Z</time></trkpt><trkpt lat="45.859329101046775" lon="11.841544208328276"><ele>558.0</ele><time>2026-04-18T13:42:46Z</time></trkpt><trkpt lat="45.85921500538282" lon="11.841561319680874"><ele>555.75</ele><time>2026-04-18T13:42:47Z</time></trkpt><trkpt lat="45.85909286554673" lon="11.841551667088254"><ele>553.5</ele><time>2026-04-18T13:42:48Z</time></trkpt><trkpt lat="45.85898028211646" lon="11.841579861897575"><ele>551.25</ele><time>2026-04-18T13:42:49Z</time></trkpt><trkpt lat="45.85887065109969" lon="11.841655209402324"><ele>549.0</ele><time>2026-04-18T13:42:50Z</time></trkpt><trkpt lat="45.85875620902847" lon="11.841657990818677"><ele>549.0</ele><time>2026-04-18T13:42:51Z</time></trkpt><trkpt lat="45.85865107816261" lon="11.84164699357703"><ele>549.0</ele><time>2026-04-18T13:42:52Z</time></trkpt><trkpt lat="45.858565135708126" lon="11.84160936221503"><ele>549.0</ele><time>2026-04-18T13:42:53Z</time></trkpt><trkpt lat="45.858468254116076" lon="11.841651749393614"><ele>549.0</ele><time>2026-04-18T13:42:54Z</time></trkpt><trkpt lat="45.85839948012003" lon="11.84178890624491"><ele>549.0</ele><time>2026-04-18T13:42:55Z</time></trkpt><trkpt lat="45.858326622992266" lon="11.841919517506732"><ele>551.0</ele><time>2026-04-18T13:42:56Z</time></trkpt><trkpt lat="45.85825286039214" lon="11.84204852389723"><ele>553.0</ele><time>2026-04-18T13:42:57Z</time></trkpt><trkpt lat="45.85818048587747" lon="11.842204770482233"><ele>555.0</ele><time>2026-04-18T13:42:58Z</time></trkpt><trkpt lat="45.85808079519605" lon="11.8423504307949"><ele>557.0</ele><time>2026-04-18T13:42:59Z</time></trkpt><trkpt lat="45.8579850067466" lon="11.842513044579185"><ele>554.75</ele><time>2026-04-18T13:43:00Z</time></trkpt><trkpt lat="45.85787650317724" lon="11.842642072680508"><ele>552.5</ele><time>2026-04-18T13:43:01Z</time></trkpt><trkpt lat="45.85778867689066" lon="11.842780302379408"><ele>550.25</ele><time>2026-04-18T13:43:02Z</time></trkpt><trkpt lat="45.85767195630436" lon="11.842870249292123"><ele>548.0</ele><time>2026-04-18T13:43:03Z</time></trkpt><trkpt lat="45.85755397980996" lon="11.84298729368425"><ele>548.0</ele><time>2026-04-18T13:43:04Z</time></trkpt><trkpt lat="45.85746491797908" lon="11.84313819366568"><ele>548.0</ele><time>2026-04-18T13:43:05Z</time></trkpt><trkpt lat="45.85736880729406" lon="11.843267683367062"><ele>548.0</ele><time>2026-04-18T13:43:06Z</time></trkpt><trkpt lat="45.85726532644553" lon="11.843387877479838"><ele>548.0</ele><time>2026-04-18T13:43:07Z</time></trkpt><trkpt lat="45.85713540914761" lon="11.843452507504363"><ele>545.0</ele><time>2026-04-18T13:43:08Z</time></trkpt><trkpt lat="45.85703477978498" lon="11.843543245997498"><ele>542.0</ele><time>2026-04-18T13:43:09Z</time></trkpt><trkpt lat="45.856914134738076" lon="11.843593520955618"><ele>539.0</ele><time>2026-04-18T13:43:10Z</time></trkpt><trkpt lat="45.85677530357254" lon="11.843572324638535"><ele>536.0</ele><time>2026-04-18T13:43:11Z</time></trkpt><trkpt lat="45.856662468162064" lon="11.843590960697288"><ele>536.0</ele><time>2026-04-18T13:43:12Z</time></trkpt><trkpt lat="45.85652483620347" lon="11.843602352036434"><ele>536.0</ele><time>2026-04-18T13:43:13Z</time></trkpt><trkpt lat="45.85639509691047" lon="11.843659608534619"><ele>536.0</ele><time>2026-04-18T13:43:14Z</time></trkpt><trkpt lat="45.85627252323801" lon="11.843696559343199"><ele>536.0</ele><time>2026-04-18T13:43:15Z</time></trkpt><trkpt lat="45.85616022113439" lon="11.843733522655231"><ele>536.0</ele><time>2026-04-18T13:43:16Z</time></trkpt><trkpt lat="45.85605129347935" lon="11.843761181205487"><ele>536.0</ele><time>2026-04-18T13:43:17Z</time></trkpt><trkpt lat="45.85594832698942" lon="11.843793727440024"><ele>536.0</ele><time>2026-04-18T13:43:18Z</time></trkpt><trkpt lat="45.85583450652683" lon="11.843821164229341"><ele>536.0</ele><time>2026-04-18T13:43:19Z</time></trkpt><trkpt lat="45.85571970204595" lon="11.843831223601567"><ele>536.0</ele><time>2026-04-18T13:43:20Z</time></trkpt><trkpt lat="45.85560919139913" lon="11.843836899248199"><ele>534.8</ele><time>2026-04-18T13:43:21Z</time></trkpt><trkpt lat="45.855499720681216" lon="11.843837378041075"><ele>533.6</ele><time>2026-04-18T13:43:22Z</time></trkpt><trkpt lat="45.85538207500021" lon="11.843828023623715"><ele>532.4</ele><time>2026-04-18T13:43:23Z</time></trkpt><trkpt lat="45.85526788622283" lon="11.843817491990135"><ele>531.2</ele><time>2026-04-18T13:43:24Z</time></trkpt><trkpt lat="45.85516273756822" lon="11.843827414837577"><ele>530.0</ele><time>2026-04-18T13:43:25Z</time></trkpt><trkpt lat="45.855063057921676" lon="11.843808286903581"><ele>529.0</ele><time>2026-04-18T13:43:25.999Z</time></trkpt><trkpt lat="45.854962299703494" lon="11.843794905557848"><ele>528.0</ele><time>2026-04-18T13:43:26.999Z</time></trkpt><trkpt lat="45.85486947846376" lon="11.843812190074788"><ele>527.0</ele><time>2026-04-18T13:43:27.999Z</time></trkpt><trkpt lat="45.85479562333478" lon="11.843819680132796"><ele>526.0</ele><time>2026-04-18T13:43:28.999Z</time></trkpt><trkpt lat="45.854703800650626" lon="11.843808488100306"><ele>525.0</ele><time>2026-04-18T13:43:29.999Z</time></trkpt><trkpt lat="45.85461164892857" lon="11.843790002907266"><ele>525.0</ele><time>2026-04-18T13:43:30.999Z</time></trkpt><trkpt lat="45.85451704406199" lon="11.843760413058627"><ele>525.0</ele><time>2026-04-18T13:43:31.999Z</time></trkpt><trkpt lat="45.85440793405322" lon="11.84374981379616"><ele>525.0</ele><time>2026-04-18T13:43:32.999Z</time></trkpt><trkpt lat="45.85431914369627" lon="11.843742224732967"><ele>525.0</ele><time>2026-04-18T13:43:33.999Z</time></trkpt><trkpt lat="45.85421148075138" lon="11.843736881861773"><ele>525.0</ele><time>2026-04-18T13:43:34.999Z</time></trkpt><trkpt lat="45.854102987116434" lon="11.843758326017383"><ele>522.0</ele><time>2026-04-18T13:43:35.999Z</time></trkpt><trkpt lat="45.85398128524688" lon="11.84378258479121"><ele>519.0</ele><time>2026-04-18T13:43:36.999Z</time></trkpt><trkpt lat="45.853868656717104" lon="11.843822679205015"><ele>516.0</ele><time>2026-04-18T13:43:37.999Z</time></trkpt><trkpt lat="45.8537579241072" lon="11.843872092069105"><ele>513.0</ele><time>2026-04-18T13:43:38.999Z</time></trkpt><trkpt lat="45.853640296082396" lon="11.843938482651645"><ele>513.0</ele><time>2026-04-18T13:43:39.999Z</time></trkpt><trkpt lat="45.853502590671276" lon="11.843976541008303"><ele>513.0</ele><time>2026-04-18T13:43:40.999Z</time></trkpt><trkpt lat="45.853392773571755" lon="11.844023943319817"><ele>513.0</ele><time>2026-04-18T13:43:41.999Z</time></trkpt><trkpt lat="45.85328530622146" lon="11.844067617413945"><ele>513.0</ele><time>2026-04-18T13:43:42.999Z</time></trkpt><trkpt lat="45.85318499278566" lon="11.844106850771777"><ele>513.6</ele><time>2026-04-18T13:43:43.999Z</time></trkpt><trkpt lat="45.85308153238884" lon="11.844147032394485"><ele>514.1999999999999</ele><time>2026-04-18T13:43:44.999Z</time></trkpt><trkpt lat="45.852974138342155" lon="11.844182777446834"><ele>514.8</ele><time>2026-04-18T13:43:45.999Z</time></trkpt><trkpt lat="45.85286238786349" lon="11.844199832023254"><ele>515.4</ele><time>2026-04-18T13:43:46.999Z</time></trkpt><trkpt lat="45.85277011379933" lon="11.84415277282592"><ele>516.0</ele><time>2026-04-18T13:43:47.999Z</time></trkpt><trkpt lat="45.852674692266085" lon="11.844116555155148"><ele>515.5</ele><time>2026-04-18T13:43:48.999Z</time></trkpt><trkpt lat="45.85259960872505" lon="11.84403992781764"><ele>515.0</ele><time>2026-04-18T13:43:49.999Z</time></trkpt><trkpt lat="45.85252254637636" lon="11.843958605423555"><ele>514.5</ele><time>2026-04-18T13:43:50.999Z</time></trkpt><trkpt lat="45.8524482960402" lon="11.843874113692253"><ele>514.0</ele><time>2026-04-18T13:43:51.999Z</time></trkpt><trkpt lat="45.85239295627036" lon="11.843812301639577"><ele>513.5</ele><time>2026-04-18T13:43:52.999Z</time></trkpt><trkpt lat="45.85233497136834" lon="11.843707917821389"><ele>513.0</ele><time>2026-04-18T13:43:53.999Z</time></trkpt><trkpt lat="45.85228596946925" lon="11.843597940607786"><ele>512.8</ele><time>2026-04-18T13:43:54.999Z</time></trkpt><trkpt lat="45.852273869599045" lon="11.843448518531046"><ele>512.5999999999999</ele><time>2026-04-18T13:43:55.999Z</time></trkpt><trkpt lat="45.852285443751406" lon="11.843307055001848"><ele>512.4000000000001</ele><time>2026-04-18T13:43:56.999Z</time></trkpt><trkpt lat="45.852281383040626" lon="11.84317703703918"><ele>512.2</ele><time>2026-04-18T13:43:57.999Z</time></trkpt><trkpt lat="45.852230866691954" lon="11.843027838511663"><ele>512.0</ele><time>2026-04-18T13:43:58.999Z</time></trkpt><trkpt lat="45.8521861675818" lon="11.842934898974372"><ele>512.0</ele><time>2026-04-18T13:43:59.999Z</time></trkpt><trkpt lat="45.85211084536685" lon="11.84280860297121"><ele>512.0</ele><time>2026-04-18T13:44:00.999Z</time></trkpt><trkpt lat="45.85202605291095" lon="11.842705473058091"><ele>512.0</ele><time>2026-04-18T13:44:01.999Z</time></trkpt><trkpt lat="45.85193524685541" lon="11.842620922452184"><ele>512.0</ele><time>2026-04-18T13:44:02.999Z</time></trkpt><trkpt lat="45.851845416670386" lon="11.842579743778648"><ele>512.0</ele><time>2026-04-18T13:44:03.999Z</time></trkpt><trkpt lat="45.85173901686726" lon="11.842532299329049"><ele>508.0</ele><time>2026-04-18T13:44:04.999Z</time></trkpt><trkpt lat="45.851637486104856" lon="11.842480601343523"><ele>504.0</ele><time>2026-04-18T13:44:05.999Z</time></trkpt><trkpt lat="45.8515101950541" lon="11.842472057406518"><ele>500.0</ele><time>2026-04-18T13:44:06.999Z</time></trkpt><trkpt lat="45.8513752729853" lon="11.842411371529769"><ele>496.0</ele><time>2026-04-18T13:44:07.999Z</time></trkpt><trkpt lat="45.851246476907825" lon="11.84238346663865"><ele>496.0</ele><time>2026-04-18T13:44:08.999Z</time></trkpt><trkpt lat="45.85111253682985" lon="11.842358232517697"><ele>496.0</ele><time>2026-04-18T13:44:09.999Z</time></trkpt><trkpt lat="45.85097152351989" lon="11.842332005640264"><ele>496.0</ele><time>2026-04-18T13:44:10.999Z</time></trkpt><trkpt lat="45.85083647993556" lon="11.842326528430167"><ele>496.0</ele><time>2026-04-18T13:44:11.999Z</time></trkpt><trkpt lat="45.85069140145575" lon="11.842303760471937"><ele>496.5</ele><time>2026-04-18T13:44:12.999Z</time></trkpt><trkpt lat="45.85054512210628" lon="11.842270522806627"><ele>497.0</ele><time>2026-04-18T13:44:13.999Z</time></trkpt><trkpt lat="45.850403478249625" lon="11.84224048827814"><ele>497.5</ele><time>2026-04-18T13:44:14.999Z</time></trkpt><trkpt lat="45.850263033125664" lon="11.842190175790176"><ele>498.0</ele><time>2026-04-18T13:44:15.999Z</time></trkpt><trkpt lat="45.85012771223709" lon="11.842199067616482"><ele>494.33333333333337</ele><time>2026-04-18T13:44:16.999Z</time></trkpt><trkpt lat="45.8499723026465" lon="11.842196930616238"><ele>490.6666666666667</ele><time>2026-04-18T13:44:17.999Z</time></trkpt><trkpt lat="45.84983233622002" lon="11.842242312201929"><ele>487.0</ele><time>2026-04-18T13:44:18.999Z</time></trkpt><trkpt lat="45.849670757540906" lon="11.84228675845311"><ele>487.0</ele><time>2026-04-18T13:44:19.999Z</time></trkpt><trkpt lat="45.84953515530431" lon="11.84231736209641"><ele>487.0</ele><time>2026-04-18T13:44:20.999Z</time></trkpt><trkpt lat="45.84939310302777" lon="11.842388558525666"><ele>487.0</ele><time>2026-04-18T13:44:21.999Z</time></trkpt><trkpt lat="45.849255940805484" lon="11.842493725865783"><ele>487.0</ele><time>2026-04-18T13:44:22.999Z</time></trkpt><trkpt lat="45.84910558129128" lon="11.842575457129731"><ele>482.75</ele><time>2026-04-18T13:44:24Z</time></trkpt><trkpt lat="45.848966854494854" lon="11.842658121811962"><ele>478.5</ele><time>2026-04-18T13:44:25Z</time></trkpt><trkpt lat="45.8488348687027" lon="11.842755511671013"><ele>474.25</ele><time>2026-04-18T13:44:26Z</time></trkpt><trkpt lat="45.84870683073342" lon="11.84286685457598"><ele>470.0</ele><time>2026-04-18T13:44:27Z</time></trkpt><trkpt lat="45.84858515335625" lon="11.842995908366502"><ele>470.0</ele><time>2026-04-18T13:44:28Z</time></trkpt><trkpt lat="45.84846021773666" lon="11.84313174369869"><ele>470.0</ele><time>2026-04-18T13:44:29Z</time></trkpt><trkpt lat="45.84832577377847" lon="11.843279150950812"><ele>470.0</ele><time>2026-04-18T13:44:30Z</time></trkpt><trkpt lat="45.84820651281645" lon="11.843413118467751"><ele>466.5</ele><time>2026-04-18T13:44:31Z</time></trkpt><trkpt lat="45.84809013030819" lon="11.8435311693616"><ele>463.0</ele><time>2026-04-18T13:44:32Z</time></trkpt><trkpt lat="45.84796389989097" lon="11.843639128765147"><ele>459.5</ele><time>2026-04-18T13:44:33Z</time></trkpt><trkpt lat="45.847836946846904" lon="11.84377004917319"><ele>456.0</ele><time>2026-04-18T13:44:34Z</time></trkpt><trkpt lat="45.84771572004887" lon="11.843880301147127"><ele>453.75</ele><time>2026-04-18T13:44:35Z</time></trkpt><trkpt lat="45.84762061304392" lon="11.843985397406396"><ele>451.5</ele><time>2026-04-18T13:44:36Z</time></trkpt><trkpt lat="45.84752970993756" lon="11.844086244530523"><ele>449.25</ele><time>2026-04-18T13:44:37Z</time></trkpt><trkpt lat="45.8474417735934" lon="11.844196143834408"><ele>447.0</ele><time>2026-04-18T13:44:38Z</time></trkpt><trkpt lat="45.84736359988941" lon="11.844297100928118"><ele>446.75</ele><time>2026-04-18T13:44:39Z</time></trkpt><trkpt lat="45.84727536486408" lon="11.844414323475744"><ele>446.5</ele><time>2026-04-18T13:44:40Z</time></trkpt><trkpt lat="45.847189771033676" lon="11.844508417375284"><ele>446.25</ele><time>2026-04-18T13:44:41Z</time></trkpt><trkpt lat="45.84708276795018" lon="11.844577336445324"><ele>446.0</ele><time>2026-04-18T13:44:42Z</time></trkpt><trkpt lat="45.84696983066769" lon="11.844621177619652"><ele>446.0</ele><time>2026-04-18T13:44:43Z</time></trkpt><trkpt lat="45.846830334724785" lon="11.844621007626909"><ele>446.0</ele><time>2026-04-18T13:44:44Z</time></trkpt><trkpt lat="45.84670836342212" lon="11.844632013126366"><ele>446.0</ele><time>2026-04-18T13:44:45Z</time></trkpt><trkpt lat="45.84658448070625" lon="11.844636852823706"><ele>446.0</ele><time>2026-04-18T13:44:46Z</time></trkpt><trkpt lat="45.84647708200439" lon="11.844640534137024"><ele>444.16666666666663</ele><time>2026-04-18T13:44:47Z</time></trkpt><trkpt lat="45.846379698680394" lon="11.844645211487954"><ele>442.3333333333333</ele><time>2026-04-18T13:44:48Z</time></trkpt><trkpt lat="45.846303597769555" lon="11.844638965656154"><ele>440.5</ele><time>2026-04-18T13:44:49Z</time></trkpt><trkpt lat="45.84622028695375" lon="11.844628362374843"><ele>438.66666666666663</ele><time>2026-04-18T13:44:50Z</time></trkpt><trkpt lat="45.8461397882977" lon="11.844630582742056"><ele>436.8333333333333</ele><time>2026-04-18T13:44:51Z</time></trkpt><trkpt lat="45.846059960688294" lon="11.84468424867391"><ele>435.0</ele><time>2026-04-18T13:44:52Z</time></trkpt><trkpt lat="45.84597526318828" lon="11.84474785930268"><ele>433.2</ele><time>2026-04-18T13:44:53Z</time></trkpt><trkpt lat="45.84588638344153" lon="11.844795136631719"><ele>431.4</ele><time>2026-04-18T13:44:54Z</time></trkpt><trkpt lat="45.845791539394305" lon="11.84484659632576"><ele>429.6</ele><time>2026-04-18T13:44:55Z</time></trkpt><trkpt lat="45.84570472460032" lon="11.844901307509748"><ele>427.8</ele><time>2026-04-18T13:44:56Z</time></trkpt><trkpt lat="45.84562872996984" lon="11.844961340618022"><ele>426.0</ele><time>2026-04-18T13:44:57Z</time></trkpt><trkpt lat="45.845553734861724" lon="11.845019902214775"><ele>426.0</ele><time>2026-04-18T13:44:58Z</time></trkpt><trkpt lat="45.84547777029601" lon="11.845085031796687"><ele>426.0</ele><time>2026-04-18T13:44:59Z</time></trkpt><trkpt lat="45.845403879219425" lon="11.8451748455736"><ele>426.0</ele><time>2026-04-18T13:45:00Z</time></trkpt><trkpt lat="45.84531474884929" lon="11.845272061091356"><ele>426.0</ele><time>2026-04-18T13:45:01Z</time></trkpt><trkpt lat="45.84521362630838" lon="11.845364036455951"><ele>426.0</ele><time>2026-04-18T13:45:02Z</time></trkpt><trkpt lat="45.845127393179396" lon="11.845464187253544"><ele>423.25</ele><time>2026-04-18T13:45:03Z</time></trkpt><trkpt lat="45.845011880516964" lon="11.845558461544798"><ele>420.5</ele><time>2026-04-18T13:45:04Z</time></trkpt><trkpt lat="45.84488791500689" lon="11.845632341811783"><ele>417.75</ele><time>2026-04-18T13:45:05Z</time></trkpt><trkpt lat="45.84476957191653" lon="11.845721303244067"><ele>415.0</ele><time>2026-04-18T13:45:06Z</time></trkpt><trkpt lat="45.844661565361655" lon="11.845831138466664"><ele>415.0</ele><time>2026-04-18T13:45:07Z</time></trkpt><trkpt lat="45.844574728923654" lon="11.84593952863374"><ele>415.0</ele><time>2026-04-18T13:45:08Z</time></trkpt><trkpt lat="45.844472242191344" lon="11.846053842918176"><ele>415.0</ele><time>2026-04-18T13:45:09Z</time></trkpt><trkpt lat="45.84437729465356" lon="11.846170220653953"><ele>415.0</ele><time>2026-04-18T13:45:10Z</time></trkpt><trkpt lat="45.84428772189892" lon="11.846281703825397"><ele>413.0</ele><time>2026-04-18T13:45:11Z</time></trkpt><trkpt lat="45.84421039448983" lon="11.846394537180737"><ele>411.0</ele><time>2026-04-18T13:45:12Z</time></trkpt><trkpt lat="45.84411358996392" lon="11.84648180357886"><ele>409.0</ele><time>2026-04-18T13:45:13Z</time></trkpt><trkpt lat="45.844028605153014" lon="11.846573620201562"><ele>407.0</ele><time>2026-04-18T13:45:14Z</time></trkpt><trkpt lat="45.843943774392635" lon="11.846662422933433"><ele>405.0</ele><time>2026-04-18T13:45:15Z</time></trkpt><trkpt lat="45.84386868033451" lon="11.84674432282794"><ele>404.6</ele><time>2026-04-18T13:45:16Z</time></trkpt><trkpt lat="45.843806612465755" lon="11.84682208771827"><ele>404.2</ele><time>2026-04-18T13:45:17Z</time></trkpt><trkpt lat="45.843741555501694" lon="11.846885784443984"><ele>403.79999999999995</ele><time>2026-04-18T13:45:18Z</time></trkpt><trkpt lat="45.84370263639995" lon="11.847077326385056"><ele>403.4</ele><time>2026-04-18T13:45:20Z</time></trkpt><trkpt lat="45.84372481781949" lon="11.847180121282088"><ele>403.0</ele><time>2026-04-18T13:45:21Z</time></trkpt><trkpt lat="45.84375160215356" lon="11.847289685976932"><ele>403.0</ele><time>2026-04-18T13:45:22Z</time></trkpt><trkpt lat="45.84377613067479" lon="11.84740751810656"><ele>403.0</ele><time>2026-04-18T13:45:23Z</time></trkpt><trkpt lat="45.843806223471965" lon="11.84752494369874"><ele>403.0</ele><time>2026-04-18T13:45:24Z</time></trkpt><trkpt lat="45.843789553860404" lon="11.847644842242754"><ele>403.0</ele><time>2026-04-18T13:45:25Z</time></trkpt><trkpt lat="45.843736658212364" lon="11.847765803869828"><ele>403.0</ele><time>2026-04-18T13:45:26Z</time></trkpt><trkpt lat="45.843674405019755" lon="11.847889779530032"><ele>402.2</ele><time>2026-04-18T13:45:27Z</time></trkpt><trkpt lat="45.843599125296215" lon="11.848005706521736"><ele>401.4</ele><time>2026-04-18T13:45:28Z</time></trkpt><trkpt lat="45.843501703404854" lon="11.848129083024263"><ele>400.59999999999997</ele><time>2026-04-18T13:45:28.999Z</time></trkpt><trkpt lat="45.84343927670473" lon="11.848240568931661"><ele>399.79999999999995</ele><time>2026-04-18T13:45:29.999Z</time></trkpt><trkpt lat="45.84336807700531" lon="11.848358861685378"><ele>399.0</ele><time>2026-04-18T13:45:30.999Z</time></trkpt><trkpt lat="45.843306727169484" lon="11.848480438926295"><ele>396.79999999999995</ele><time>2026-04-18T13:45:31.999Z</time></trkpt><trkpt lat="45.843242222251675" lon="11.848601064814888"><ele>394.59999999999997</ele><time>2026-04-18T13:45:32.999Z</time></trkpt><trkpt lat="45.84317409522799" lon="11.848722682486015"><ele>392.4</ele><time>2026-04-18T13:45:33.999Z</time></trkpt><trkpt lat="45.843116079292535" lon="11.84882408931739"><ele>390.2</ele><time>2026-04-18T13:45:34.999Z</time></trkpt><trkpt lat="45.843044743799254" lon="11.848953579780229"><ele>388.0</ele><time>2026-04-18T13:45:35.999Z</time></trkpt><trkpt lat="45.842974863073906" lon="11.849075187353213"><ele>388.0</ele><time>2026-04-18T13:45:36.999Z</time></trkpt><trkpt lat="45.84290908806392" lon="11.849190846331227"><ele>388.0</ele><time>2026-04-18T13:45:37.999Z</time></trkpt><trkpt lat="45.84286356432241" lon="11.849319144076713"><ele>388.0</ele><time>2026-04-18T13:45:38.999Z</time></trkpt><trkpt lat="45.84282838613083" lon="11.849456039002"><ele>388.0</ele><time>2026-04-18T13:45:39.999Z</time></trkpt><trkpt lat="45.842798262456824" lon="11.84959513296992"><ele>388.0</ele><time>2026-04-18T13:45:40.999Z</time></trkpt><trkpt lat="45.84277122745518" lon="11.849736215473829"><ele>387.4</ele><time>2026-04-18T13:45:41.999Z</time></trkpt><trkpt lat="45.842732151643055" lon="11.849892410210455"><ele>386.79999999999995</ele><time>2026-04-18T13:45:42.999Z</time></trkpt><trkpt lat="45.84269582830628" lon="11.850029810387682"><ele>386.2</ele><time>2026-04-18T13:45:43.999Z</time></trkpt><trkpt lat="45.84266030294309" lon="11.850183530293425"><ele>385.6</ele><time>2026-04-18T13:45:44.999Z</time></trkpt><trkpt lat="45.84261844082631" lon="11.850318625875296"><ele>385.0</ele><time>2026-04-18T13:45:45.999Z</time></trkpt><trkpt lat="45.84257180913052" lon="11.850452935984894"><ele>383.75</ele><time>2026-04-18T13:45:46.999Z</time></trkpt><trkpt lat="45.84251021627764" lon="11.850579343486926"><ele>382.5</ele><time>2026-04-18T13:45:47.999Z</time></trkpt><trkpt lat="45.84243702238145" lon="11.850685174057302"><ele>381.25</ele><time>2026-04-18T13:45:48.999Z</time></trkpt><trkpt lat="45.84234241941101" lon="11.85078258459399"><ele>380.0</ele><time>2026-04-18T13:45:49.999Z</time></trkpt><trkpt lat="45.84222993900472" lon="11.850860056499323"><ele>380.0</ele><time>2026-04-18T13:45:50.999Z</time></trkpt><trkpt lat="45.84211675058894" lon="11.850923799734217"><ele>380.0</ele><time>2026-04-18T13:45:51.999Z</time></trkpt><trkpt lat="45.84200149025506" lon="11.850988189570547"><ele>380.0</ele><time>2026-04-18T13:45:52.999Z</time></trkpt><trkpt lat="45.84188610609883" lon="11.85104758097968"><ele>380.0</ele><time>2026-04-18T13:45:53.999Z</time></trkpt><trkpt lat="45.84177797503843" lon="11.851103013665437"><ele>377.5</ele><time>2026-04-18T13:45:54.999Z</time></trkpt><trkpt lat="45.841660201719954" lon="11.851174234158181"><ele>375.0</ele><time>2026-04-18T13:45:55.999Z</time></trkpt><trkpt lat="45.841546813215515" lon="11.851233282860411"><ele>372.5</ele><time>2026-04-18T13:45:56.999Z</time></trkpt><trkpt lat="45.84143336014843" lon="11.851299096471527"><ele>370.0</ele><time>2026-04-18T13:45:57.999Z</time></trkpt><trkpt lat="45.84131451807853" lon="11.851366653460516"><ele>370.0</ele><time>2026-04-18T13:45:58.999Z</time></trkpt><trkpt lat="45.84119642255513" lon="11.851424266615878"><ele>370.0</ele><time>2026-04-18T13:45:59.999Z</time></trkpt><trkpt lat="45.84107781812302" lon="11.851487942859496"><ele>370.0</ele><time>2026-04-18T13:46:00.999Z</time></trkpt><trkpt lat="45.840965176368094" lon="11.851558293279446"><ele>370.0</ele><time>2026-04-18T13:46:01.999Z</time></trkpt><trkpt lat="45.84083783574579" lon="11.85161562720011"><ele>368.75</ele><time>2026-04-18T13:46:02.999Z</time></trkpt><trkpt lat="45.84071751992157" lon="11.851668638623545"><ele>367.5</ele><time>2026-04-18T13:46:03.999Z</time></trkpt><trkpt lat="45.84060012186731" lon="11.851720431251604"><ele>366.25</ele><time>2026-04-18T13:46:04.999Z</time></trkpt><trkpt lat="45.840480195483146" lon="11.851784668604207"><ele>365.0</ele><time>2026-04-18T13:46:05.999Z</time></trkpt><trkpt lat="45.840364954683224" lon="11.851853433567225"><ele>363.75</ele><time>2026-04-18T13:46:06.999Z</time></trkpt><trkpt lat="45.84025378155344" lon="11.85192394030438"><ele>362.5</ele><time>2026-04-18T13:46:07.999Z</time></trkpt><trkpt lat="45.84014349643223" lon="11.85200202091463"><ele>361.25</ele><time>2026-04-18T13:46:08.999Z</time></trkpt><trkpt lat="45.84003206012651" lon="11.852085600501109"><ele>360.0</ele><time>2026-04-18T13:46:09.999Z</time></trkpt><trkpt lat="45.83990602080069" lon="11.85217157058053"><ele>359.25</ele><time>2026-04-18T13:46:10.999Z</time></trkpt><trkpt lat="45.83981101723337" lon="11.852299910194889"><ele>358.5</ele><time>2026-04-18T13:46:11.999Z</time></trkpt><trkpt lat="45.83971056139427" lon="11.852432693551771"><ele>357.75</ele><time>2026-04-18T13:46:12.999Z</time></trkpt><trkpt lat="45.83959416788543" lon="11.852551869319216"><ele>357.0</ele><time>2026-04-18T13:46:13.999Z</time></trkpt><trkpt lat="45.83947648024366" lon="11.85268292454398"><ele>356.0</ele><time>2026-04-18T13:46:14.999Z</time></trkpt><trkpt lat="45.839360808686465" lon="11.85281874037762"><ele>355.0</ele><time>2026-04-18T13:46:15.999Z</time></trkpt><trkpt lat="45.8392515775395" lon="11.852949518149998"><ele>354.0</ele><time>2026-04-18T13:46:16.999Z</time></trkpt><trkpt lat="45.839141587496115" lon="11.853081352288916"><ele>353.0</ele><time>2026-04-18T13:46:17.999Z</time></trkpt><trkpt lat="45.83903859165755" lon="11.853206935275079"><ele>352.25</ele><time>2026-04-18T13:46:18.999Z</time></trkpt><trkpt lat="45.83893975697323" lon="11.853330189947265"><ele>351.5</ele><time>2026-04-18T13:46:19.999Z</time></trkpt><trkpt lat="45.83883681389563" lon="11.853451646677463"><ele>350.75</ele><time>2026-04-18T13:46:20.999Z</time></trkpt><trkpt lat="45.83873706403979" lon="11.853562594837577"><ele>350.0</ele><time>2026-04-18T13:46:21.999Z</time></trkpt><trkpt lat="45.83862936143439" lon="11.853662662875733"><ele>349.5</ele><time>2026-04-18T13:46:22.999Z</time></trkpt><trkpt lat="45.83851416570959" lon="11.853741524185358"><ele>349.0</ele><time>2026-04-18T13:46:23.999Z</time></trkpt><trkpt lat="45.8383900640323" lon="11.85380486073731"><ele>348.5</ele><time>2026-04-18T13:46:24.999Z</time></trkpt><trkpt lat="45.838277540728896" lon="11.853842906786843"><ele>348.0</ele><time>2026-04-18T13:46:25.999Z</time></trkpt><trkpt lat="45.838172792249594" lon="11.853898349304176"><ele>347.5</ele><time>2026-04-18T13:46:26.999Z</time></trkpt><trkpt lat="45.83805944920205" lon="11.853951138374715"><ele>347.0</ele><time>2026-04-18T13:46:27.999Z</time></trkpt><trkpt lat="45.83794584211306" lon="11.853994926499384"><ele>346.5</ele><time>2026-04-18T13:46:28.999Z</time></trkpt><trkpt lat="45.83782377744926" lon="11.854037789025687"><ele>346.0</ele><time>2026-04-18T13:46:30Z</time></trkpt><trkpt lat="45.83771325063611" lon="11.854085181886068"><ele>345.0</ele><time>2026-04-18T13:46:31Z</time></trkpt><trkpt lat="45.837596947965245" lon="11.854106648999805"><ele>344.0</ele><time>2026-04-18T13:46:32Z</time></trkpt><trkpt lat="45.83748890192033" lon="11.854146807832803"><ele>343.0</ele><time>2026-04-18T13:46:33Z</time></trkpt><trkpt lat="45.83738887187529" lon="11.854185175757793"><ele>342.0</ele><time>2026-04-18T13:46:34Z</time></trkpt><trkpt lat="45.8372886362409" lon="11.854224355998578"><ele>341.0</ele><time>2026-04-18T13:46:35Z</time></trkpt><trkpt lat="45.8371991255134" lon="11.85428342233887"><ele>340.8</ele><time>2026-04-18T13:46:36Z</time></trkpt><trkpt lat="45.8371060097895" lon="11.854293869044394"><ele>340.6</ele><time>2026-04-18T13:46:37Z</time></trkpt><trkpt lat="45.837021957864444" lon="11.854322518854648"><ele>340.4</ele><time>2026-04-18T13:46:38Z</time></trkpt><trkpt lat="45.836833185898556" lon="11.854375505897737"><ele>340.2</ele><time>2026-04-18T13:46:43Z</time></trkpt><trkpt lat="45.83676777551465" lon="11.854411974779032"><ele>340.0</ele><time>2026-04-18T13:46:51Z</time></trkpt><trkpt lat="45.83669735758818" lon="11.854463449758017"><ele>340.0</ele><time>2026-04-18T13:46:54Z</time></trkpt><trkpt lat="45.83663745630209" lon="11.854502755208491"><ele>340.0</ele><time>2026-04-18T13:46:57Z</time></trkpt><trkpt lat="45.83658936830405" lon="11.854330346264481"><ele>340.0</ele><time>2026-04-18T13:46:58Z</time></trkpt><trkpt lat="45.836552691251974" lon="11.854154325790882"><ele>340.0</ele><time>2026-04-18T13:47:00Z</time></trkpt><trkpt lat="45.836511381754754" lon="11.854020989555956"><ele>340.0</ele><time>2026-04-18T13:47:01Z</time></trkpt><trkpt lat="45.836463872365684" lon="11.853886581153745"><ele>340.0</ele><time>2026-04-18T13:47:02Z</time></trkpt><trkpt lat="45.83641675143682" lon="11.853752374628415"><ele>340.0</ele><time>2026-04-18T13:47:03Z</time></trkpt><trkpt lat="45.836383272968135" lon="11.853624589237244"><ele>340.0</ele><time>2026-04-18T13:47:04Z</time></trkpt><trkpt lat="45.836345904216365" lon="11.853501794384245"><ele>340.0</ele><time>2026-04-18T13:47:05Z</time></trkpt><trkpt lat="45.83630962828393" lon="11.853399387999756"><ele>340.0</ele><time>2026-04-18T13:47:06Z</time></trkpt><trkpt lat="45.83627885500023" lon="11.853268607014734"><ele>340.2</ele><time>2026-04-18T13:47:07Z</time></trkpt><trkpt lat="45.836246472771705" lon="11.85318395803989"><ele>340.4</ele><time>2026-04-18T13:47:08Z</time></trkpt><trkpt lat="45.83621973060205" lon="11.853088824801251"><ele>340.6</ele><time>2026-04-18T13:47:09Z</time></trkpt><trkpt lat="45.836186775187414" lon="11.853010696999453"><ele>340.8</ele><time>2026-04-18T13:47:10Z</time></trkpt><trkpt lat="45.836152563620544" lon="11.852927361972927"><ele>341.0</ele><time>2026-04-18T13:47:11Z</time></trkpt><trkpt lat="45.83594004873084" lon="11.853029268824399"><ele>339.8</ele><time>2026-04-18T13:47:13Z</time></trkpt><trkpt lat="45.835872018020076" lon="11.853143570828147"><ele>338.6</ele><time>2026-04-18T13:47:14Z</time></trkpt><trkpt lat="45.83577273418434" lon="11.853201247715912"><ele>337.4</ele><time>2026-04-18T13:47:15Z</time></trkpt><trkpt lat="45.835667640177164" lon="11.8532763999297"><ele>336.2</ele><time>2026-04-18T13:47:16Z</time></trkpt><trkpt lat="45.83555692502488" lon="11.85334259986634"><ele>335.0</ele><time>2026-04-18T13:47:17Z</time></trkpt><trkpt lat="45.83543862866606" lon="11.853408039070446"><ele>334.25</ele><time>2026-04-18T13:47:18Z</time></trkpt><trkpt lat="45.83531665090839" lon="11.853480763257537"><ele>333.5</ele><time>2026-04-18T13:47:19Z</time></trkpt><trkpt lat="45.83519655432662" lon="11.853556213738713"><ele>332.75</ele><time>2026-04-18T13:47:20Z</time></trkpt><trkpt lat="45.835066030882786" lon="11.853643641911608"><ele>332.0</ele><time>2026-04-18T13:47:21Z</time></trkpt><trkpt lat="45.83493925125271" lon="11.853730302890732"><ele>330.75</ele><time>2026-04-18T13:47:22Z</time></trkpt><trkpt lat="45.83481027131642" lon="11.8538151965407"><ele>329.5</ele><time>2026-04-18T13:47:23Z</time></trkpt><trkpt lat="45.83467390731667" lon="11.853904667344494"><ele>328.25</ele><time>2026-04-18T13:47:24Z</time></trkpt><trkpt lat="45.8345298828864" lon="11.853994869697162"><ele>327.0</ele><time>2026-04-18T13:47:25Z</time></trkpt><trkpt lat="45.83439647949486" lon="11.854084213178208"><ele>326.0</ele><time>2026-04-18T13:47:26Z</time></trkpt><trkpt lat="45.8342537770317" lon="11.85418611543022"><ele>325.0</ele><time>2026-04-18T13:47:27Z</time></trkpt><trkpt lat="45.834123413556924" lon="11.854272788926822"><ele>324.0</ele><time>2026-04-18T13:47:28Z</time></trkpt><trkpt lat="45.833983505489584" lon="11.85435623673013"><ele>324.0</ele><time>2026-04-18T13:47:29Z</time></trkpt><trkpt lat="45.83385739249395" lon="11.85442148940267"><ele>324.0</ele><time>2026-04-18T13:47:30Z</time></trkpt><trkpt lat="45.83372401581432" lon="11.854496251083706"><ele>324.0</ele><time>2026-04-18T13:47:31Z</time></trkpt><trkpt lat="45.8335884510759" lon="11.854556727451921"><ele>324.0</ele><time>2026-04-18T13:47:32Z</time></trkpt><trkpt lat="45.8334352195721" lon="11.854593772945185"><ele>326.0</ele><time>2026-04-18T13:47:33Z</time></trkpt><trkpt lat="45.83328904429978" lon="11.854612852500933"><ele>328.0</ele><time>2026-04-18T13:47:34Z</time></trkpt><trkpt lat="45.83314187585625" lon="11.854606594373154"><ele>330.0</ele><time>2026-04-18T13:47:35Z</time></trkpt><trkpt lat="45.83299028226503" lon="11.854584048026014"><ele>332.0</ele><time>2026-04-18T13:47:36Z</time></trkpt><trkpt lat="45.83283856570182" lon="11.854531626021691"><ele>332.0</ele><time>2026-04-18T13:47:36.999Z</time></trkpt><trkpt lat="45.832704235113646" lon="11.854440669643605"><ele>332.0</ele><time>2026-04-18T13:47:37.999Z</time></trkpt><trkpt lat="45.83257334901326" lon="11.854348301804457"><ele>332.0</ele><time>2026-04-18T13:47:38.999Z</time></trkpt><trkpt lat="45.832443634204935" lon="11.854274414388781"><ele>332.0</ele><time>2026-04-18T13:47:39.999Z</time></trkpt><trkpt lat="45.83231943880959" lon="11.854222946136488"><ele>328.75</ele><time>2026-04-18T13:47:40.999Z</time></trkpt><trkpt lat="45.83217668569273" lon="11.854169857979434"><ele>325.5</ele><time>2026-04-18T13:47:41.999Z</time></trkpt><trkpt lat="45.832029837992316" lon="11.854156858241561"><ele>322.25</ele><time>2026-04-18T13:47:42.999Z</time></trkpt><trkpt lat="45.83188691918836" lon="11.854185078213463"><ele>319.0</ele><time>2026-04-18T13:47:43.999Z</time></trkpt><trkpt lat="45.83175551561086" lon="11.8542730161855"><ele>321.66666666666663</ele><time>2026-04-18T13:47:44.999Z</time></trkpt><trkpt lat="45.831618002735354" lon="11.85435560732521"><ele>324.3333333333333</ele><time>2026-04-18T13:47:45.999Z</time></trkpt><trkpt lat="45.83147749902311" lon="11.854458896038134"><ele>327.0</ele><time>2026-04-18T13:47:46.999Z</time></trkpt><trkpt lat="45.83134094322096" lon="11.85455654237892"><ele>327.0</ele><time>2026-04-18T13:47:47.999Z</time></trkpt><trkpt lat="45.831195714034926" lon="11.85465160802552"><ele>327.0</ele><time>2026-04-18T13:47:48.999Z</time></trkpt><trkpt lat="45.831055951909335" lon="11.85475957080044"><ele>327.0</ele><time>2026-04-18T13:47:49.999Z</time></trkpt><trkpt lat="45.83092764918271" lon="11.854882275530082"><ele>321.0</ele><time>2026-04-18T13:47:50.999Z</time></trkpt><trkpt lat="45.83080499018072" lon="11.855015528188837"><ele>315.0</ele><time>2026-04-18T13:47:51.999Z</time></trkpt><trkpt lat="45.83069036902856" lon="11.855161000902013"><ele>309.0</ele><time>2026-04-18T13:47:52.999Z</time></trkpt><trkpt lat="45.830576086267904" lon="11.855302191198682"><ele>308.3333333333333</ele><time>2026-04-18T13:47:53.999Z</time></trkpt><trkpt lat="45.830457492271805" lon="11.85544567972034"><ele>307.66666666666663</ele><time>2026-04-18T13:47:54.999Z</time></trkpt><trkpt lat="45.830336780088764" lon="11.855596434210247"><ele>307.0</ele><time>2026-04-18T13:47:55.999Z</time></trkpt><trkpt lat="45.83021730236147" lon="11.855740572501368"><ele>304.66666666666663</ele><time>2026-04-18T13:47:56.999Z</time></trkpt><trkpt lat="45.8300971468273" lon="11.855884139855862"><ele>302.3333333333333</ele><time>2026-04-18T13:47:57.999Z</time></trkpt><trkpt lat="45.82998022360178" lon="11.85603443769698"><ele>300.0</ele><time>2026-04-18T13:47:58.999Z</time></trkpt><trkpt lat="45.82986248046965" lon="11.856182934115665"><ele>299.6666666666667</ele><time>2026-04-18T13:47:59.999Z</time></trkpt><trkpt lat="45.82974879784498" lon="11.856327837597"><ele>299.33333333333337</ele><time>2026-04-18T13:48:00.999Z</time></trkpt><trkpt lat="45.829632263134656" lon="11.856467837464093"><ele>299.0</ele><time>2026-04-18T13:48:01.999Z</time></trkpt><trkpt lat="45.829506649477736" lon="11.85660391025827"><ele>299.0</ele><time>2026-04-18T13:48:02.999Z</time></trkpt><trkpt lat="45.82935990228547" lon="11.856713843324844"><ele>299.0</ele><time>2026-04-18T13:48:03.999Z</time></trkpt><trkpt lat="45.82921667271196" lon="11.85681730123873"><ele>299.0</ele><time>2026-04-18T13:48:04.999Z</time></trkpt><trkpt lat="45.82907349798429" lon="11.856911634537624"><ele>296.33333333333337</ele><time>2026-04-18T13:48:05.999Z</time></trkpt><trkpt lat="45.828930065470864" lon="11.85700023936534"><ele>293.6666666666667</ele><time>2026-04-18T13:48:06.999Z</time></trkpt><trkpt lat="45.828783430044865" lon="11.85707429636928"><ele>291.0</ele><time>2026-04-18T13:48:07.999Z</time></trkpt><trkpt lat="45.828646101940855" lon="11.857151179823653"><ele>291.0</ele><time>2026-04-18T13:48:08.999Z</time></trkpt><trkpt lat="45.82851308169985" lon="11.85722796543694"><ele>291.0</ele><time>2026-04-18T13:48:09.999Z</time></trkpt><trkpt lat="45.82839348647055" lon="11.857308832910538"><ele>291.0</ele><time>2026-04-18T13:48:10.999Z</time></trkpt><trkpt lat="45.828304542688265" lon="11.857413973921805"><ele>291.0</ele><time>2026-04-18T13:48:11.999Z</time></trkpt><trkpt lat="45.82823103571264" lon="11.85754136752575"><ele>290.40000000000003</ele><time>2026-04-18T13:48:12.999Z</time></trkpt><trkpt lat="45.82816090254707" lon="11.857669917262356"><ele>289.8</ele><time>2026-04-18T13:48:13.999Z</time></trkpt><trkpt lat="45.828116236842874" lon="11.857814874757876"><ele>289.20000000000005</ele><time>2026-04-18T13:48:14.999Z</time></trkpt><trkpt lat="45.82808768889814" lon="11.857941294849914"><ele>288.6</ele><time>2026-04-18T13:48:15.999Z</time></trkpt><trkpt lat="45.82805200499354" lon="11.858058695675668"><ele>288.0</ele><time>2026-04-18T13:48:16.999Z</time></trkpt><trkpt lat="45.82799894642075" lon="11.85817476598201"><ele>288.0</ele><time>2026-04-18T13:48:17.999Z</time></trkpt><trkpt lat="45.82793507253582" lon="11.85825607943108"><ele>288.0</ele><time>2026-04-18T13:48:18.999Z</time></trkpt><trkpt lat="45.82787653592613" lon="11.858341484627548"><ele>288.0</ele><time>2026-04-18T13:48:19.999Z</time></trkpt><trkpt lat="45.82784822824438" lon="11.8584352328894"><ele>288.0</ele><time>2026-04-18T13:48:20.999Z</time></trkpt><trkpt lat="45.82791518399917" lon="11.85859008906445"><ele>288.0</ele><time>2026-04-18T13:48:23.999Z</time></trkpt><trkpt lat="45.82798317496743" lon="11.858556362763366"><ele>288.0</ele><time>2026-04-18T13:48:27.999Z</time></trkpt><trkpt lat="45.82803319268531" lon="11.858698773005191"><ele>287.25</ele><time>2026-04-18T13:48:28.999Z</time></trkpt><trkpt lat="45.82811628179874" lon="11.858869973144056"><ele>286.5</ele><time>2026-04-18T13:48:30.999Z</time></trkpt><trkpt lat="45.828168724672" lon="11.858995491535962"><ele>285.75</ele><time>2026-04-18T13:48:31.999Z</time></trkpt><trkpt lat="45.82821549363822" lon="11.859115855093599"><ele>285.0</ele><time>2026-04-18T13:48:32.999Z</time></trkpt><trkpt lat="45.82827347674593" lon="11.859244483966027"><ele>284.5</ele><time>2026-04-18T13:48:33.999Z</time></trkpt><trkpt lat="45.828342552568444" lon="11.859388688221046"><ele>284.0</ele><time>2026-04-18T13:48:34.999Z</time></trkpt><trkpt lat="45.82841832094505" lon="11.859522376078216"><ele>283.5</ele><time>2026-04-18T13:48:36Z</time></trkpt><trkpt lat="45.82851293473958" lon="11.859640172515768"><ele>283.0</ele><time>2026-04-18T13:48:37Z</time></trkpt><trkpt lat="45.82860127359516" lon="11.859756100218421"><ele>282.75</ele><time>2026-04-18T13:48:38Z</time></trkpt><trkpt lat="45.82868922519183" lon="11.859879898921092"><ele>282.5</ele><time>2026-04-18T13:48:39Z</time></trkpt><trkpt lat="45.82879429044523" lon="11.859986576098937"><ele>282.25</ele><time>2026-04-18T13:48:40Z</time></trkpt><trkpt lat="45.82889330952305" lon="11.860109777958169"><ele>282.0</ele><time>2026-04-18T13:48:41Z</time></trkpt><trkpt lat="45.828997185684116" lon="11.860240564962373"><ele>281.5</ele><time>2026-04-18T13:48:42Z</time></trkpt><trkpt lat="45.829104259552054" lon="11.860376471807216"><ele>281.0</ele><time>2026-04-18T13:48:43Z</time></trkpt><trkpt lat="45.82923279818637" lon="11.860478359716316"><ele>280.5</ele><time>2026-04-18T13:48:44Z</time></trkpt><trkpt lat="45.82935872095246" lon="11.860580808704032"><ele>280.0</ele><time>2026-04-18T13:48:45Z</time></trkpt><trkpt lat="45.82947755522832" lon="11.860672487408607"><ele>279.75</ele><time>2026-04-18T13:48:46Z</time></trkpt><trkpt lat="45.82960437459772" lon="11.860783484080878"><ele>279.5</ele><time>2026-04-18T13:48:47Z</time></trkpt><trkpt lat="45.82973695714224" lon="11.86087591697993"><ele>279.25</ele><time>2026-04-18T13:48:48Z</time></trkpt><trkpt lat="45.82985289003009" lon="11.860967503862062"><ele>279.0</ele><time>2026-04-18T13:48:49Z</time></trkpt><trkpt lat="45.830007291206705" lon="11.861045272591745"><ele>278.5</ele><time>2026-04-18T13:48:50Z</time></trkpt><trkpt lat="45.83012517938652" lon="11.86115679597219"><ele>278.0</ele><time>2026-04-18T13:48:51Z</time></trkpt><trkpt lat="45.830218633452304" lon="11.861329462928706"><ele>277.5</ele><time>2026-04-18T13:48:52Z</time></trkpt><trkpt lat="45.83028587300771" lon="11.861522755192686"><ele>277.0</ele><time>2026-04-18T13:48:53Z</time></trkpt><trkpt lat="45.830302113502476" lon="11.861744614069027"><ele>276.0</ele><time>2026-04-18T13:48:54Z</time></trkpt><trkpt lat="45.83031014580044" lon="11.861955235912564"><ele>275.0</ele><time>2026-04-18T13:48:55Z</time></trkpt><trkpt lat="45.830305821120945" lon="11.86218121755027"><ele>274.0</ele><time>2026-04-18T13:48:56Z</time></trkpt><trkpt lat="45.83031406544614" lon="11.862406183261415"><ele>272.0</ele><time>2026-04-18T13:48:57Z</time></trkpt><trkpt lat="45.83029772354805" lon="11.862643027669945"><ele>270.0</ele><time>2026-04-18T13:48:58Z</time></trkpt><trkpt lat="45.83029370474428" lon="11.862883937289052"><ele>268.0</ele><time>2026-04-18T13:48:59Z</time></trkpt><trkpt lat="45.83028722706744" lon="11.863127731185264"><ele>268.0</ele><time>2026-04-18T13:49:00Z</time></trkpt><trkpt lat="45.830278755156435" lon="11.863366508493197"><ele>268.0</ele><time>2026-04-18T13:49:01Z</time></trkpt><trkpt lat="45.830272612612525" lon="11.863605441004017"><ele>268.0</ele><time>2026-04-18T13:49:02Z</time></trkpt><trkpt lat="45.83027286634217" lon="11.863846696956523"><ele>266.0</ele><time>2026-04-18T13:49:03Z</time></trkpt><trkpt lat="45.83026951253736" lon="11.864091330991938"><ele>264.0</ele><time>2026-04-18T13:49:04Z</time></trkpt><trkpt lat="45.8302638443034" lon="11.864346534603165"><ele>262.0</ele><time>2026-04-18T13:49:05Z</time></trkpt><trkpt lat="45.83025309034117" lon="11.864586624944291"><ele>260.66666666666663</ele><time>2026-04-18T13:49:06Z</time></trkpt><trkpt lat="45.83025176809624" lon="11.864841922150234"><ele>259.3333333333333</ele><time>2026-04-18T13:49:07Z</time></trkpt><trkpt lat="45.83025051629734" lon="11.86509269015953"><ele>258.0</ele><time>2026-04-18T13:49:08Z</time></trkpt><trkpt lat="45.83026197557565" lon="11.86534380479722"><ele>255.66666666666669</ele><time>2026-04-18T13:49:09Z</time></trkpt><trkpt lat="45.83026624155853" lon="11.865604279683302"><ele>253.33333333333334</ele><time>2026-04-18T13:49:10Z</time></trkpt><trkpt lat="45.830269215434825" lon="11.865852619056652"><ele>251.0</ele><time>2026-04-18T13:49:11Z</time></trkpt><trkpt lat="45.83027337278052" lon="11.866115836698603"><ele>250.33333333333334</ele><time>2026-04-18T13:49:12Z</time></trkpt><trkpt lat="45.83027829122072" lon="11.866368869180906"><ele>249.66666666666669</ele><time>2026-04-18T13:49:13Z</time></trkpt><trkpt lat="45.83029059572388" lon="11.86662999828705"><ele>249.0</ele><time>2026-04-18T13:49:14Z</time></trkpt><trkpt lat="45.830308711852865" lon="11.86689687874312"><ele>247.33333333333331</ele><time>2026-04-18T13:49:15Z</time></trkpt><trkpt lat="45.83033434209281" lon="11.867152279546799"><ele>245.66666666666666</ele><time>2026-04-18T13:49:16Z</time></trkpt><trkpt lat="45.83036633794385" lon="11.867412287023834"><ele>244.0</ele><time>2026-04-18T13:49:17Z</time></trkpt><trkpt lat="45.830397240625075" lon="11.86766291228074"><ele>243.0</ele><time>2026-04-18T13:49:18Z</time></trkpt><trkpt lat="45.83043453045203" lon="11.867921330842549"><ele>242.0</ele><time>2026-04-18T13:49:19Z</time></trkpt><trkpt lat="45.83046109766072" lon="11.868180217921232"><ele>241.0</ele><time>2026-04-18T13:49:20Z</time></trkpt><trkpt lat="45.83048949557911" lon="11.868433215555829"><ele>240.66666666666666</ele><time>2026-04-18T13:49:21Z</time></trkpt><trkpt lat="45.83052405178127" lon="11.868679938017687"><ele>240.33333333333331</ele><time>2026-04-18T13:49:22Z</time></trkpt><trkpt lat="45.83056311919885" lon="11.868939097354177"><ele>240.0</ele><time>2026-04-18T13:49:23Z</time></trkpt><trkpt lat="45.830613367075586" lon="11.869188854117523"><ele>239.33333333333331</ele><time>2026-04-18T13:49:24Z</time></trkpt><trkpt lat="45.83067628409045" lon="11.869428641150137"><ele>238.66666666666666</ele><time>2026-04-18T13:49:25Z</time></trkpt><trkpt lat="45.83077203771683" lon="11.86965217558967"><ele>238.0</ele><time>2026-04-18T13:49:26Z</time></trkpt><trkpt lat="45.830875363310916" lon="11.869858267961964"><ele>237.0</ele><time>2026-04-18T13:49:27Z</time></trkpt><trkpt lat="45.830986298892874" lon="11.870079666688147"><ele>236.0</ele><time>2026-04-18T13:49:28Z</time></trkpt><trkpt lat="45.831104046669495" lon="11.870303732579766"><ele>235.0</ele><time>2026-04-18T13:49:29Z</time></trkpt><trkpt lat="45.831218238978074" lon="11.870527502723604"><ele>234.33333333333331</ele><time>2026-04-18T13:49:30Z</time></trkpt><trkpt lat="45.8313313929316" lon="11.870751160974827"><ele>233.66666666666669</ele><time>2026-04-18T13:49:31Z</time></trkpt><trkpt lat="45.831452335395355" lon="11.870980985528528"><ele>233.0</ele><time>2026-04-18T13:49:32Z</time></trkpt><trkpt lat="45.83157080549985" lon="11.8712147002358"><ele>231.33333333333334</ele><time>2026-04-18T13:49:33Z</time></trkpt><trkpt lat="45.831690785776686" lon="11.871444206667299"><ele>229.66666666666669</ele><time>2026-04-18T13:49:34Z</time></trkpt><trkpt lat="45.83180697447322" lon="11.871670167351063"><ele>228.0</ele><time>2026-04-18T13:49:35Z</time></trkpt><trkpt lat="45.83192167989429" lon="11.871905184370075"><ele>226.0</ele><time>2026-04-18T13:49:36Z</time></trkpt><trkpt lat="45.832039202555706" lon="11.87212186804266"><ele>224.0</ele><time>2026-04-18T13:49:37Z</time></trkpt><trkpt lat="45.832145983162015" lon="11.872351963658208"><ele>222.0</ele><time>2026-04-18T13:49:37.999Z</time></trkpt><trkpt lat="45.832246259871006" lon="11.872590236158779"><ele>220.66666666666669</ele><time>2026-04-18T13:49:38.999Z</time></trkpt><trkpt lat="45.832332785568255" lon="11.872829551632137"><ele>219.33333333333334</ele><time>2026-04-18T13:49:39.999Z</time></trkpt><trkpt lat="45.83240155293441" lon="11.873087306043852"><ele>218.0</ele><time>2026-04-18T13:49:40.999Z</time></trkpt><trkpt lat="45.83244849029732" lon="11.873363736702405"><ele>217.33333333333334</ele><time>2026-04-18T13:49:41.999Z</time></trkpt><trkpt lat="45.83247960580412" lon="11.873640718795581"><ele>216.66666666666669</ele><time>2026-04-18T13:49:42.999Z</time></trkpt><trkpt lat="45.83250267763767" lon="11.873918532694951"><ele>216.0</ele><time>2026-04-18T13:49:43.999Z</time></trkpt><trkpt lat="45.832534493866746" lon="11.874210357852176"><ele>215.66666666666669</ele><time>2026-04-18T13:49:44.999Z</time></trkpt><trkpt lat="45.83255886193788" lon="11.874507706337296"><ele>215.33333333333334</ele><time>2026-04-18T13:49:45.999Z</time></trkpt><trkpt lat="45.83258972401178" lon="11.874776139756131"><ele>215.0</ele><time>2026-04-18T13:49:46.999Z</time></trkpt><trkpt lat="45.8326163593229" lon="11.875057716226227"><ele>213.0</ele><time>2026-04-18T13:49:47.999Z</time></trkpt><trkpt lat="45.83264415799804" lon="11.875349250945112"><ele>211.0</ele><time>2026-04-18T13:49:48.999Z</time></trkpt><trkpt lat="45.832672736432976" lon="11.875636423072557"><ele>209.0</ele><time>2026-04-18T13:49:49.999Z</time></trkpt><trkpt lat="45.83269614733561" lon="11.875894041342477"><ele>209.0</ele><time>2026-04-18T13:49:50.999Z</time></trkpt><trkpt lat="45.83272640864019" lon="11.876160537396714"><ele>209.0</ele><time>2026-04-18T13:49:51.999Z</time></trkpt><trkpt lat="45.83275285618095" lon="11.876398188495537"><ele>209.0</ele><time>2026-04-18T13:49:52.999Z</time></trkpt><trkpt lat="45.83278672059529" lon="11.876638456203342"><ele>208.33333333333334</ele><time>2026-04-18T13:49:53.999Z</time></trkpt><trkpt lat="45.83280154991101" lon="11.876912527140504"><ele>207.66666666666669</ele><time>2026-04-18T13:49:54.999Z</time></trkpt><trkpt lat="45.832827146535976" lon="11.877184014576969"><ele>207.0</ele><time>2026-04-18T13:49:55.999Z</time></trkpt><trkpt lat="45.832862132936356" lon="11.877428917728993"><ele>205.66666666666669</ele><time>2026-04-18T13:49:56.999Z</time></trkpt><trkpt lat="45.83288488500374" lon="11.877674527442997"><ele>204.33333333333334</ele><time>2026-04-18T13:49:57.999Z</time></trkpt><trkpt lat="45.83290770999338" lon="11.87791497006044"><ele>203.0</ele><time>2026-04-18T13:49:58.999Z</time></trkpt><trkpt lat="45.83294718005116" lon="11.878137132099994"><ele>203.0</ele><time>2026-04-18T13:49:59.999Z</time></trkpt><trkpt lat="45.83298592168986" lon="11.878364793851567"><ele>203.0</ele><time>2026-04-18T13:50:00.999Z</time></trkpt><trkpt lat="45.83302121491022" lon="11.878625711008649"><ele>203.0</ele><time>2026-04-18T13:50:01.999Z</time></trkpt><trkpt lat="45.83305855743585" lon="11.878860555986627"><ele>202.0</ele><time>2026-04-18T13:50:02.999Z</time></trkpt><trkpt lat="45.8330949106187" lon="11.879096990788776"><ele>201.0</ele><time>2026-04-18T13:50:03.999Z</time></trkpt><trkpt lat="45.833131446414605" lon="11.879332680525504"><ele>200.0</ele><time>2026-04-18T13:50:04.999Z</time></trkpt><trkpt lat="45.83317022028409" lon="11.879584069764832"><ele>200.0</ele><time>2026-04-18T13:50:05.999Z</time></trkpt><trkpt lat="45.83320723784918" lon="11.879827224495733"><ele>200.0</ele><time>2026-04-18T13:50:06.999Z</time></trkpt><trkpt lat="45.833246156335655" lon="11.880051950206857"><ele>200.0</ele><time>2026-04-18T13:50:07.999Z</time></trkpt><trkpt lat="45.833279281289805" lon="11.880294980591264"><ele>198.33333333333334</ele><time>2026-04-18T13:50:08.999Z</time></trkpt><trkpt lat="45.833318635143726" lon="11.880533414470172"><ele>196.66666666666669</ele><time>2026-04-18T13:50:09.999Z</time></trkpt><trkpt lat="45.833360609400195" lon="11.88075978855768"><ele>195.0</ele><time>2026-04-18T13:50:10.999Z</time></trkpt><trkpt lat="45.833396675478234" lon="11.880999125373766"><ele>194.66666666666669</ele><time>2026-04-18T13:50:11.999Z</time></trkpt><trkpt lat="45.833433074674325" lon="11.881240184750975"><ele>194.33333333333334</ele><time>2026-04-18T13:50:12.999Z</time></trkpt><trkpt lat="45.83346708986795" lon="11.881481769856903"><ele>194.0</ele><time>2026-04-18T13:50:13.999Z</time></trkpt><trkpt lat="45.83350488979567" lon="11.88173499428746"><ele>192.0</ele><time>2026-04-18T13:50:14.999Z</time></trkpt><trkpt lat="45.833547099987605" lon="11.881978579339185"><ele>190.0</ele><time>2026-04-18T13:50:15.999Z</time></trkpt><trkpt lat="45.83360635847647" lon="11.882166440408925"><ele>188.0</ele><time>2026-04-18T13:50:16.999Z</time></trkpt><trkpt lat="45.83364301030232" lon="11.882384378362376"><ele>188.0</ele><time>2026-04-18T13:50:17.999Z</time></trkpt><trkpt lat="45.83367683017482" lon="11.882576054006815"><ele>188.0</ele><time>2026-04-18T13:50:18.999Z</time></trkpt><trkpt lat="45.83370117296486" lon="11.882785077085732"><ele>188.0</ele><time>2026-04-18T13:50:19.999Z</time></trkpt><trkpt lat="45.83368631115608" lon="11.882995598761019"><ele>188.0</ele><time>2026-04-18T13:50:20.999Z</time></trkpt><trkpt lat="45.833623709183115" lon="11.88317438338403"><ele>188.0</ele><time>2026-04-18T13:50:21.999Z</time></trkpt><trkpt lat="45.83355344526546" lon="11.883365173329393"><ele>188.0</ele><time>2026-04-18T13:50:22.999Z</time></trkpt><trkpt lat="45.833480614369925" lon="11.883556877608486"><ele>188.0</ele><time>2026-04-18T13:50:23.999Z</time></trkpt><trkpt lat="45.83342900553137" lon="11.883739964346798"><ele>188.0</ele><time>2026-04-18T13:50:24.999Z</time></trkpt><trkpt lat="45.83335377634936" lon="11.883922955300678"><ele>188.0</ele><time>2026-04-18T13:50:25.999Z</time></trkpt><trkpt lat="45.833297911851076" lon="11.884137385455876"><ele>188.0</ele><time>2026-04-18T13:50:26.999Z</time></trkpt><trkpt lat="45.8332638685102" lon="11.8843119024664"><ele>188.0</ele><time>2026-04-18T13:50:27.999Z</time></trkpt><trkpt lat="45.83323515888222" lon="11.884470215052724"><ele>188.0</ele><time>2026-04-18T13:50:28.999Z</time></trkpt><trkpt lat="45.83321078509935" lon="11.88460825525304"><ele>187.60000000000002</ele><time>2026-04-18T13:50:29.999Z</time></trkpt><trkpt lat="45.83318783161975" lon="11.884727261505"><ele>187.20000000000002</ele><time>2026-04-18T13:50:30.999Z</time></trkpt><trkpt lat="45.83316300794497" lon="11.884822602772138"><ele>186.8</ele><time>2026-04-18T13:50:31.999Z</time></trkpt><trkpt lat="45.83313043044888" lon="11.884973876882864"><ele>186.4</ele><time>2026-04-18T13:50:33.999Z</time></trkpt><trkpt lat="45.833113316811215" lon="11.885136909547576"><ele>186.0</ele><time>2026-04-18T13:50:35.999Z</time></trkpt><trkpt lat="45.83327133090074" lon="11.885184138124906"><ele>185.8</ele><time>2026-04-18T13:50:37.999Z</time></trkpt><trkpt lat="45.83336029673226" lon="11.885178722939399"><ele>185.60000000000002</ele><time>2026-04-18T13:50:38.999Z</time></trkpt><trkpt lat="45.83345527465723" lon="11.885218452985656"><ele>185.4</ele><time>2026-04-18T13:50:39.999Z</time></trkpt><trkpt lat="45.83356332906682" lon="11.885272279330577"><ele>185.2</ele><time>2026-04-18T13:50:40.999Z</time></trkpt><trkpt lat="45.833659430860735" lon="11.885306209547835"><ele>185.0</ele><time>2026-04-18T13:50:42Z</time></trkpt><trkpt lat="45.83375935818417" lon="11.88535094670491"><ele>185.0</ele><time>2026-04-18T13:50:43Z</time></trkpt><trkpt lat="45.83387340793663" lon="11.885404002646435"><ele>185.0</ele><time>2026-04-18T13:50:44Z</time></trkpt><trkpt lat="45.833989736638515" lon="11.885450822359608"><ele>185.0</ele><time>2026-04-18T13:50:45Z</time></trkpt><trkpt lat="45.834105459901934" lon="11.885499683724223"><ele>185.0</ele><time>2026-04-18T13:50:46Z</time></trkpt><trkpt lat="45.83420329071728" lon="11.885538686905951"><ele>185.0</ele><time>2026-04-18T13:50:47Z</time></trkpt><trkpt lat="45.83429433409972" lon="11.88557430558776"><ele>185.0</ele><time>2026-04-18T13:50:48Z</time></trkpt><trkpt lat="45.83435876126987" lon="11.885605973514913"><ele>185.0</ele><time>2026-04-18T13:50:49Z</time></trkpt><trkpt lat="45.83442056296371" lon="11.88563919563538"><ele>185.0</ele><time>2026-04-18T13:50:51Z</time></trkpt><trkpt lat="45.83432708375656" lon="11.885860698279954"><ele>185.0</ele><time>2026-04-18T13:50:52Z</time></trkpt><trkpt lat="45.83426099439428" lon="11.885959731172415"><ele>183.6</ele><time>2026-04-18T13:50:53Z</time></trkpt><trkpt lat="45.83419448871659" lon="11.886056009972235"><ele>182.2</ele><time>2026-04-18T13:50:54Z</time></trkpt><trkpt lat="45.834132163843634" lon="11.886144646957673"><ele>180.8</ele><time>2026-04-18T13:50:55Z</time></trkpt><trkpt lat="45.8340708456228" lon="11.88624191786974"><ele>179.4</ele><time>2026-04-18T13:50:56Z</time></trkpt><trkpt lat="45.83398910730894" lon="11.88634679715623"><ele>178.0</ele><time>2026-04-18T13:50:57Z</time></trkpt><trkpt lat="45.833942922148196" lon="11.886423555492689"><ele>178.0</ele><time>2026-04-18T13:50:58Z</time></trkpt><trkpt lat="45.833866239941884" lon="11.886497369628028"><ele>178.0</ele><time>2026-04-18T13:50:59Z</time></trkpt><trkpt lat="45.8338012863144" lon="11.886579305415033"><ele>178.0</ele><time>2026-04-18T13:51:00Z</time></trkpt><trkpt lat="45.833744104662436" lon="11.886651437295015"><ele>178.0</ele><time>2026-04-18T13:51:01Z</time></trkpt><trkpt lat="45.83368366577748" lon="11.88672811215399"><ele>178.0</ele><time>2026-04-18T13:51:02Z</time></trkpt><trkpt lat="45.83361478285577" lon="11.886809599744147"><ele>178.0</ele><time>2026-04-18T13:51:03Z</time></trkpt><trkpt lat="45.833554538203224" lon="11.886928658128545"><ele>176.2</ele><time>2026-04-18T13:51:04Z</time></trkpt><trkpt lat="45.83352724968654" lon="11.887046618842684"><ele>174.4</ele><time>2026-04-18T13:51:05Z</time></trkpt><trkpt lat="45.83352630395856" lon="11.887188772516154"><ele>172.6</ele><time>2026-04-18T13:51:06Z</time></trkpt><trkpt lat="45.83355300196069" lon="11.887291299147629"><ele>170.79999999999998</ele><time>2026-04-18T13:51:07Z</time></trkpt><trkpt lat="45.83354747773982" lon="11.887451452544136"><ele>169.0</ele><time>2026-04-18T13:51:09Z</time></trkpt><trkpt lat="45.83355476244203" lon="11.887570520979631"><ele>168.83333333333334</ele><time>2026-04-18T13:51:10Z</time></trkpt><trkpt lat="45.83357783949773" lon="11.887672481658702"><ele>168.66666666666669</ele><time>2026-04-18T13:51:11Z</time></trkpt><trkpt lat="45.833594176882116" lon="11.887787777975802"><ele>168.5</ele><time>2026-04-18T13:51:12Z</time></trkpt><trkpt lat="45.83361134088586" lon="11.887917827454274"><ele>168.33333333333334</ele><time>2026-04-18T13:51:13Z</time></trkpt><trkpt lat="45.83362736093612" lon="11.888054648197686"><ele>168.16666666666666</ele><time>2026-04-18T13:51:14Z</time></trkpt><trkpt lat="45.833642044685675" lon="11.888196427156927"><ele>168.0</ele><time>2026-04-18T13:51:15Z</time></trkpt><trkpt lat="45.8336600247399" lon="11.888345803380444"><ele>168.25</ele><time>2026-04-18T13:51:16Z</time></trkpt><trkpt lat="45.83368171123802" lon="11.888504458235555"><ele>168.5</ele><time>2026-04-18T13:51:17Z</time></trkpt><trkpt lat="45.83368223826993" lon="11.888682841764581"><ele>168.75</ele><time>2026-04-18T13:51:18Z</time></trkpt><trkpt lat="45.83369706340193" lon="11.888849095262845"><ele>169.0</ele><time>2026-04-18T13:51:19Z</time></trkpt><trkpt lat="45.833724836278606" lon="11.889022294378965"><ele>169.0</ele><time>2026-04-18T13:51:20Z</time></trkpt><trkpt lat="45.83374988404901" lon="11.889168202753932"><ele>169.0</ele><time>2026-04-18T13:51:21Z</time></trkpt><trkpt lat="45.83378234857091" lon="11.88934628997309"><ele>169.0</ele><time>2026-04-18T13:51:22Z</time></trkpt><trkpt lat="45.83382084215353" lon="11.889529481627445"><ele>169.0</ele><time>2026-04-18T13:51:23Z</time></trkpt><trkpt lat="45.833860751505036" lon="11.889703542805803"><ele>168.75</ele><time>2026-04-18T13:51:24Z</time></trkpt><trkpt lat="45.833909174552105" lon="11.889887756566244"><ele>168.5</ele><time>2026-04-18T13:51:25Z</time></trkpt><trkpt lat="45.83393641951108" lon="11.890058098354837"><ele>168.25</ele><time>2026-04-18T13:51:26Z</time></trkpt><trkpt lat="45.833962920287256" lon="11.8902314294913"><ele>168.0</ele><time>2026-04-18T13:51:27Z</time></trkpt><trkpt lat="45.83396246576439" lon="11.890420504452187"><ele>167.0</ele><time>2026-04-18T13:51:28Z</time></trkpt><trkpt lat="45.833938909325994" lon="11.89061298468146"><ele>166.0</ele><time>2026-04-18T13:51:29Z</time></trkpt><trkpt lat="45.83388955407302" lon="11.890803330253426"><ele>165.0</ele><time>2026-04-18T13:51:30Z</time></trkpt><trkpt lat="45.83384067892376" lon="11.891001369002492"><ele>164.0</ele><time>2026-04-18T13:51:31Z</time></trkpt><trkpt lat="45.833758441168264" lon="11.89117661028997"><ele>162.25</ele><time>2026-04-18T13:51:32Z</time></trkpt><trkpt lat="45.833666982573" lon="11.891336013501459"><ele>160.5</ele><time>2026-04-18T13:51:33Z</time></trkpt><trkpt lat="45.833573279151814" lon="11.891475408376325"><ele>158.75</ele><time>2026-04-18T13:51:34Z</time></trkpt><trkpt lat="45.833492981934825" lon="11.891625337121317"><ele>157.0</ele><time>2026-04-18T13:51:35Z</time></trkpt><trkpt lat="45.833398200274914" lon="11.891793803838846"><ele>156.5</ele><time>2026-04-18T13:51:36Z</time></trkpt><trkpt lat="45.83330873311988" lon="11.89194138005609"><ele>156.0</ele><time>2026-04-18T13:51:37Z</time></trkpt><trkpt lat="45.83321412393765" lon="11.892093750206506"><ele>155.5</ele><time>2026-04-18T13:51:38Z</time></trkpt><trkpt lat="45.83312375228483" lon="11.8922427807329"><ele>155.0</ele><time>2026-04-18T13:51:39Z</time></trkpt><trkpt lat="45.83304515763707" lon="11.892396000888727"><ele>155.0</ele><time>2026-04-18T13:51:40Z</time></trkpt><trkpt lat="45.83298618670755" lon="11.892578734003521"><ele>155.0</ele><time>2026-04-18T13:51:41Z</time></trkpt><trkpt lat="45.83293979662282" lon="11.892787790346397"><ele>155.0</ele><time>2026-04-18T13:51:42Z</time></trkpt><trkpt lat="45.832913942222866" lon="11.892999890189786"><ele>155.0</ele><time>2026-04-18T13:51:43Z</time></trkpt><trkpt lat="45.83291896955461" lon="11.89320744997096"><ele>151.33333333333331</ele><time>2026-04-18T13:51:44Z</time></trkpt><trkpt lat="45.83291839625185" lon="11.893444950106872"><ele>147.66666666666666</ele><time>2026-04-18T13:51:45Z</time></trkpt><trkpt lat="45.83298577095029" lon="11.893673247985012"><ele>144.0</ele><time>2026-04-18T13:51:46Z</time></trkpt><trkpt lat="45.83308585645743" lon="11.893896444865634"><ele>144.0</ele><time>2026-04-18T13:51:47Z</time></trkpt><trkpt lat="45.833222261239015" lon="11.89407872460277"><ele>144.0</ele><time>2026-04-18T13:51:48Z</time></trkpt><trkpt lat="45.83338441685887" lon="11.89423841259222"><ele>144.0</ele><time>2026-04-18T13:51:49Z</time></trkpt><trkpt lat="45.833573912756634" lon="11.894323532849256"><ele>148.0</ele><time>2026-04-18T13:51:49.999Z</time></trkpt><trkpt lat="45.83376474243327" lon="11.894474528577415"><ele>152.0</ele><time>2026-04-18T13:51:50.999Z</time></trkpt><trkpt lat="45.83398848477914" lon="11.894626492402454"><ele>152.0</ele><time>2026-04-18T13:51:51.999Z</time></trkpt><trkpt lat="45.83422247761179" lon="11.894784438215234"><ele>152.0</ele><time>2026-04-18T13:51:52.999Z</time></trkpt><trkpt lat="45.83446980417247" lon="11.894931199089449"><ele>156.0</ele><time>2026-04-18T13:51:53.999Z</time></trkpt><trkpt lat="45.83472015590307" lon="11.89510027718476"><ele>160.0</ele><time>2026-04-18T13:51:54.999Z</time></trkpt><trkpt lat="45.83495905735454" lon="11.895236676542307"><ele>162.5</ele><time>2026-04-18T13:51:55.999Z</time></trkpt><trkpt lat="45.835176261940894" lon="11.895389884298357"><ele>165.0</ele><time>2026-04-18T13:51:56.999Z</time></trkpt><trkpt lat="45.83538782218551" lon="11.895560517770468"><ele>165.0</ele><time>2026-04-18T13:51:57.999Z</time></trkpt><trkpt lat="45.83557859772887" lon="11.895706949525305"><ele>165.0</ele><time>2026-04-18T13:51:58.999Z</time></trkpt><trkpt lat="45.8357488479546" lon="11.895880942870043"><ele>165.0</ele><time>2026-04-18T13:51:59.999Z</time></trkpt><trkpt lat="45.83589835357447" lon="11.89606997291234"><ele>165.33333333333334</ele><time>2026-04-18T13:52:00.999Z</time></trkpt><trkpt lat="45.83603426457033" lon="11.896260910585616"><ele>165.66666666666669</ele><time>2026-04-18T13:52:01.999Z</time></trkpt><trkpt lat="45.83615114629272" lon="11.896475863090131"><ele>166.0</ele><time>2026-04-18T13:52:02.999Z</time></trkpt><trkpt lat="45.83625302703842" lon="11.896688122060974"><ele>165.33333333333334</ele><time>2026-04-18T13:52:03.999Z</time></trkpt><trkpt lat="45.836378983287034" lon="11.896859553388007"><ele>164.66666666666666</ele><time>2026-04-18T13:52:04.999Z</time></trkpt><trkpt lat="45.83647357264089" lon="11.897023115945693"><ele>164.0</ele><time>2026-04-18T13:52:05.999Z</time></trkpt><trkpt lat="45.83658238153491" lon="11.897207824995975"><ele>164.0</ele><time>2026-04-18T13:52:06.999Z</time></trkpt><trkpt lat="45.836670974825616" lon="11.897386447820885"><ele>164.0</ele><time>2026-04-18T13:52:07.999Z</time></trkpt><trkpt lat="45.8367271905863" lon="11.89759915465565"><ele>164.0</ele><time>2026-04-18T13:52:08.999Z</time></trkpt><trkpt lat="45.83676910172095" lon="11.897829966808102"><ele>169.75</ele><time>2026-04-18T13:52:09.999Z</time></trkpt><trkpt lat="45.836817370149696" lon="11.898048733726103"><ele>175.5</ele><time>2026-04-18T13:52:10.999Z</time></trkpt><trkpt lat="45.836867478834584" lon="11.898238860561865"><ele>181.25</ele><time>2026-04-18T13:52:11.999Z</time></trkpt><trkpt lat="45.8369061453296" lon="11.898408897039657"><ele>187.0</ele><time>2026-04-18T13:52:12.999Z</time></trkpt><trkpt lat="45.83693881925284" lon="11.898574301303915"><ele>187.0</ele><time>2026-04-18T13:52:13.999Z</time></trkpt><trkpt lat="45.83697437057222" lon="11.898736056402235"><ele>187.0</ele><time>2026-04-18T13:52:14.999Z</time></trkpt><trkpt lat="45.837013846647295" lon="11.898900947594306"><ele>187.0</ele><time>2026-04-18T13:52:15.999Z</time></trkpt><trkpt lat="45.837035096383026" lon="11.89910018065272"><ele>187.0</ele><time>2026-04-18T13:52:16.999Z</time></trkpt><trkpt lat="45.837040764743925" lon="11.899292179812917"><ele>185.2</ele><time>2026-04-18T13:52:17.999Z</time></trkpt><trkpt lat="45.837034730377034" lon="11.899480123009372"><ele>183.39999999999998</ele><time>2026-04-18T13:52:18.999Z</time></trkpt><trkpt lat="45.837025291107615" lon="11.899638763036986"><ele>181.60000000000002</ele><time>2026-04-18T13:52:19.999Z</time></trkpt><trkpt lat="45.83703592941679" lon="11.899787164164582"><ele>179.8</ele><time>2026-04-18T13:52:20.999Z</time></trkpt><trkpt lat="45.8370494286332" lon="11.899908799071984"><ele>178.0</ele><time>2026-04-18T13:52:21.999Z</time></trkpt><trkpt lat="45.83707105787858" lon="11.900013841618717"><ele>177.16666666666669</ele><time>2026-04-18T13:52:22.999Z</time></trkpt><trkpt lat="45.83709386562481" lon="11.900112586974197"><ele>176.33333333333334</ele><time>2026-04-18T13:52:23.999Z</time></trkpt><trkpt lat="45.83711716420777" lon="11.900212471313978"><ele>175.5</ele><time>2026-04-18T13:52:25.999Z</time></trkpt><trkpt lat="45.837091229424985" lon="11.900309049573735"><ele>174.66666666666666</ele><time>2026-04-18T13:52:32.999Z</time></trkpt><trkpt lat="45.837126176188136" lon="11.900386724860342"><ele>173.83333333333331</ele><time>2026-04-18T13:52:34.999Z</time></trkpt><trkpt lat="45.83715536107095" lon="11.900590673225844"><ele>173.0</ele><time>2026-04-18T13:52:36.999Z</time></trkpt><trkpt lat="45.83717591222834" lon="11.900727972571719"><ele>173.0</ele><time>2026-04-18T13:52:37.999Z</time></trkpt><trkpt lat="45.83718778504813" lon="11.900875259201767"><ele>173.0</ele><time>2026-04-18T13:52:38.999Z</time></trkpt><trkpt lat="45.83722775471823" lon="11.901019400213196"><ele>173.0</ele><time>2026-04-18T13:52:39.999Z</time></trkpt><trkpt lat="45.83727451230153" lon="11.901183647999593"><ele>173.0</ele><time>2026-04-18T13:52:40.999Z</time></trkpt><trkpt lat="45.837340797919474" lon="11.901344130545183"><ele>171.0</ele><time>2026-04-18T13:52:41.999Z</time></trkpt><trkpt lat="45.837402816435954" lon="11.901519647549463"><ele>169.0</ele><time>2026-04-18T13:52:42.999Z</time></trkpt><trkpt lat="45.83746625209334" lon="11.901702488730994"><ele>167.0</ele><time>2026-04-18T13:52:43.999Z</time></trkpt><trkpt lat="45.837526782707364" lon="11.901892221306994"><ele>165.0</ele><time>2026-04-18T13:52:44.999Z</time></trkpt><trkpt lat="45.83758000152234" lon="11.90211645484151"><ele>163.5</ele><time>2026-04-18T13:52:45.999Z</time></trkpt><trkpt lat="45.83760321088685" lon="11.902322776620405"><ele>162.0</ele><time>2026-04-18T13:52:46.999Z</time></trkpt><trkpt lat="45.83760382134095" lon="11.902529863718671"><ele>160.5</ele><time>2026-04-18T13:52:48Z</time></trkpt><trkpt lat="45.83758242892409" lon="11.90272315712967"><ele>159.0</ele><time>2026-04-18T13:52:49Z</time></trkpt><trkpt lat="45.83754418975919" lon="11.902899071612902"><ele>157.75</ele><time>2026-04-18T13:52:50Z</time></trkpt><trkpt lat="45.83747943857227" lon="11.903083890548269"><ele>156.5</ele><time>2026-04-18T13:52:51Z</time></trkpt><trkpt lat="45.837386304600635" lon="11.903224067634998"><ele>155.25</ele><time>2026-04-18T13:52:52Z</time></trkpt><trkpt lat="45.83728611665724" lon="11.903338824325056"><ele>154.0</ele><time>2026-04-18T13:52:53Z</time></trkpt><trkpt lat="45.83715874200112" lon="11.903482885371941"><ele>153.0</ele><time>2026-04-18T13:52:54Z</time></trkpt><trkpt lat="45.8370414749773" lon="11.90362342185393"><ele>152.0</ele><time>2026-04-18T13:52:55Z</time></trkpt><trkpt lat="45.836915925992365" lon="11.903762790026756"><ele>151.0</ele><time>2026-04-18T13:52:56Z</time></trkpt><trkpt lat="45.83678658369447" lon="11.903913091355836"><ele>150.33333333333334</ele><time>2026-04-18T13:52:57Z</time></trkpt><trkpt lat="45.83664911688795" lon="11.904100491920124"><ele>149.66666666666666</ele><time>2026-04-18T13:52:58Z</time></trkpt><trkpt lat="45.83654362117811" lon="11.904289838359128"><ele>149.0</ele><time>2026-04-18T13:52:59Z</time></trkpt><trkpt lat="45.836460810188186" lon="11.904492192379568"><ele>148.33333333333331</ele><time>2026-04-18T13:53:00Z</time></trkpt><trkpt lat="45.83637467253556" lon="11.904716169627237"><ele>147.66666666666666</ele><time>2026-04-18T13:53:01Z</time></trkpt><trkpt lat="45.83629258789529" lon="11.904941431903683"><ele>147.0</ele><time>2026-04-18T13:53:02Z</time></trkpt><trkpt lat="45.83621680724736" lon="11.905163380496921"><ele>147.0</ele><time>2026-04-18T13:53:03Z</time></trkpt><trkpt lat="45.8361386336303" lon="11.905377285997034"><ele>147.0</ele><time>2026-04-18T13:53:04Z</time></trkpt><trkpt lat="45.836053464694544" lon="11.905573943902066"><ele>147.0</ele><time>2026-04-18T13:53:05Z</time></trkpt><trkpt lat="45.83598587433596" lon="11.905764747300822"><ele>148.0</ele><time>2026-04-18T13:53:06Z</time></trkpt><trkpt lat="45.83591171158405" lon="11.905942292877253"><ele>149.0</ele><time>2026-04-18T13:53:07Z</time></trkpt><trkpt lat="45.835842941768526" lon="11.906115850849355"><ele>150.0</ele><time>2026-04-18T13:53:08Z</time></trkpt><trkpt lat="45.835757217505595" lon="11.906297353795132"><ele>151.0</ele><time>2026-04-18T13:53:09Z</time></trkpt><trkpt lat="45.835672685038865" lon="11.906467622326309"><ele>151.0</ele><time>2026-04-18T13:53:10Z</time></trkpt><trkpt lat="45.83559047458348" lon="11.906639318182556"><ele>151.0</ele><time>2026-04-18T13:53:11Z</time></trkpt><trkpt lat="45.83549501061072" lon="11.906842892725665"><ele>151.0</ele><time>2026-04-18T13:53:12Z</time></trkpt><trkpt lat="45.83543786285022" lon="11.907006628554791"><ele>151.0</ele><time>2026-04-18T13:53:13Z</time></trkpt><trkpt lat="45.83538100314206" lon="11.907168509278442"><ele>151.75</ele><time>2026-04-18T13:53:14Z</time></trkpt><trkpt lat="45.835376495717036" lon="11.907370184248615"><ele>152.5</ele><time>2026-04-18T13:53:15Z</time></trkpt><trkpt lat="45.835398678172844" lon="11.90758196090845"><ele>153.25</ele><time>2026-04-18T13:53:16Z</time></trkpt><trkpt lat="45.835452796450554" lon="11.907778378935687"><ele>154.0</ele><time>2026-04-18T13:53:17Z</time></trkpt><trkpt lat="45.83554007341765" lon="11.907966562165534"><ele>155.33333333333334</ele><time>2026-04-18T13:53:18Z</time></trkpt><trkpt lat="45.835657653556375" lon="11.908114372647"><ele>156.66666666666666</ele><time>2026-04-18T13:53:19Z</time></trkpt><trkpt lat="45.83577330918629" lon="11.9082635752133"><ele>158.0</ele><time>2026-04-18T13:53:20Z</time></trkpt><trkpt lat="45.835893612063764" lon="11.908396005269072"><ele>158.75</ele><time>2026-04-18T13:53:21Z</time></trkpt><trkpt lat="45.836027540317055" lon="11.908507418117289"><ele>159.5</ele><time>2026-04-18T13:53:22Z</time></trkpt><trkpt lat="45.836153454213665" lon="11.90860848135553"><ele>160.25</ele><time>2026-04-18T13:53:23Z</time></trkpt><trkpt lat="45.83627204233699" lon="11.908683500638793"><ele>161.0</ele><time>2026-04-18T13:53:24Z</time></trkpt><trkpt lat="45.83638807029389" lon="11.908739523450285"><ele>161.0</ele><time>2026-04-18T13:53:25Z</time></trkpt><trkpt lat="45.83649074563618" lon="11.908757046986521"><ele>161.0</ele><time>2026-04-18T13:53:26Z</time></trkpt><trkpt lat="45.83658413273077" lon="11.908771428601653"><ele>161.0</ele><time>2026-04-18T13:53:27Z</time></trkpt><trkpt lat="45.83666724474654" lon="11.908793026451526"><ele>161.0</ele><time>2026-04-18T13:53:28Z</time></trkpt><trkpt lat="45.83674077001829" lon="11.908814405359754"><ele>161.0</ele><time>2026-04-18T13:53:29Z</time></trkpt><trkpt lat="45.83683147143527" lon="11.908842152781572"><ele>162.0</ele><time>2026-04-18T13:53:31Z</time></trkpt><trkpt lat="45.836920770432144" lon="11.908800962271945"><ele>163.0</ele><time>2026-04-18T13:53:35Z</time></trkpt><trkpt lat="45.83703598014102" lon="11.908798410823668"><ele>164.0</ele><time>2026-04-18T13:53:37Z</time></trkpt><trkpt lat="45.83712765419848" lon="11.908780793047754"><ele>165.0</ele><time>2026-04-18T13:53:38Z</time></trkpt><trkpt lat="45.83721784646159" lon="11.908803330090945"><ele>166.0</ele><time>2026-04-18T13:53:39Z</time></trkpt><trkpt lat="45.83731648591797" lon="11.908867910066629"><ele>166.0</ele><time>2026-04-18T13:53:40Z</time></trkpt><trkpt lat="45.83740310001538" lon="11.908944032680354"><ele>166.0</ele><time>2026-04-18T13:53:41Z</time></trkpt><trkpt lat="45.83748090693926" lon="11.909071791673867"><ele>166.0</ele><time>2026-04-18T13:53:42Z</time></trkpt><trkpt lat="45.83753829979377" lon="11.909237469604129"><ele>166.0</ele><time>2026-04-18T13:53:43Z</time></trkpt><trkpt lat="45.837585785146686" lon="11.909429022869283"><ele>166.0</ele><time>2026-04-18T13:53:44Z</time></trkpt><trkpt lat="45.83764908704367" lon="11.909682316975282"><ele>166.0</ele><time>2026-04-18T13:53:45Z</time></trkpt><trkpt lat="45.83770005777163" lon="11.909965107653354"><ele>166.0</ele><time>2026-04-18T13:53:46Z</time></trkpt><trkpt lat="45.83768395597561" lon="11.910212048280213"><ele>166.0</ele><time>2026-04-18T13:53:47Z</time></trkpt><trkpt lat="45.83764962928571" lon="11.910411708802028"><ele>166.0</ele><time>2026-04-18T13:53:48Z</time></trkpt><trkpt lat="45.83759043419254" lon="11.910615832673825"><ele>166.0</ele><time>2026-04-18T13:53:49Z</time></trkpt><trkpt lat="45.83750958751604" lon="11.910858234788687"><ele>163.0</ele><time>2026-04-18T13:53:50Z</time></trkpt><trkpt lat="45.83746002077524" lon="11.911045796995092"><ele>160.0</ele><time>2026-04-18T13:53:51Z</time></trkpt><trkpt lat="45.83745173052469" lon="11.91120812816584"><ele>157.0</ele><time>2026-04-18T13:53:52Z</time></trkpt><trkpt lat="45.837486676939385" lon="11.911393135900301"><ele>154.0</ele><time>2026-04-18T13:53:53Z</time></trkpt><trkpt lat="45.83756867629309" lon="11.91146727184139"><ele>155.0</ele><time>2026-04-18T13:53:54Z</time></trkpt><trkpt lat="45.83769288505458" lon="11.911504379695241"><ele>156.0</ele><time>2026-04-18T13:53:55Z</time></trkpt><trkpt lat="45.83783141575486" lon="11.911545893497504"><ele>157.0</ele><time>2026-04-18T13:53:55.999Z</time></trkpt><trkpt lat="45.83797478819185" lon="11.911579416706745"><ele>158.0</ele><time>2026-04-18T13:53:56.999Z</time></trkpt><trkpt lat="45.8381247003913" lon="11.91164513870387"><ele>158.0</ele><time>2026-04-18T13:53:57.999Z</time></trkpt><trkpt lat="45.83824854614925" lon="11.911738737559663"><ele>158.0</ele><time>2026-04-18T13:53:58.999Z</time></trkpt><trkpt lat="45.83834879315939" lon="11.911866340082826"><ele>158.0</ele><time>2026-04-18T13:53:59.999Z</time></trkpt><trkpt lat="45.838376623584566" lon="11.912015482954958"><ele>158.0</ele><time>2026-04-18T13:54:00.999Z</time></trkpt><trkpt lat="45.83844198877594" lon="11.9121506011979"><ele>158.33333333333331</ele><time>2026-04-18T13:54:01.999Z</time></trkpt><trkpt lat="45.83845986832823" lon="11.912271062186303"><ele>158.66666666666666</ele><time>2026-04-18T13:54:02.999Z</time></trkpt><trkpt lat="45.83836145595425" lon="11.91230801623305"><ele>159.0</ele><time>2026-04-18T13:54:03.999Z</time></trkpt><trkpt lat="45.838302235313684" lon="11.912796764431475"><ele>159.0</ele><time>2026-04-18T13:54:04.999Z</time></trkpt><trkpt lat="45.83824040197361" lon="11.913074547397448"><ele>159.0</ele><time>2026-04-18T13:54:05.999Z</time></trkpt><trkpt lat="45.83819168110111" lon="11.913355833040939"><ele>159.0</ele><time>2026-04-18T13:54:06.999Z</time></trkpt><trkpt lat="45.838146952321566" lon="11.913590644719498"><ele>160.0</ele><time>2026-04-18T13:54:07.999Z</time></trkpt><trkpt lat="45.838103366523534" lon="11.913827524240347"><ele>161.0</ele><time>2026-04-18T13:54:08.999Z</time></trkpt><trkpt lat="45.83807068226762" lon="11.914025917298453"><ele>162.0</ele><time>2026-04-18T13:54:09.999Z</time></trkpt><trkpt lat="45.838098405945566" lon="11.914236541112233"><ele>162.75</ele><time>2026-04-18T13:54:10.999Z</time></trkpt><trkpt lat="45.83814262927162" lon="11.914432245930524"><ele>163.5</ele><time>2026-04-18T13:54:11.999Z</time></trkpt><trkpt lat="45.838201055455855" lon="11.914620815123344"><ele>164.25</ele><time>2026-04-18T13:54:12.999Z</time></trkpt><trkpt lat="45.838252018486436" lon="11.91482435457593"><ele>165.0</ele><time>2026-04-18T13:54:13.999Z</time></trkpt><trkpt lat="45.83832071418105" lon="11.915033026400225"><ele>164.33333333333334</ele><time>2026-04-18T13:54:14.999Z</time></trkpt><trkpt lat="45.83838737003189" lon="11.915229075954876"><ele>163.66666666666669</ele><time>2026-04-18T13:54:15.999Z</time></trkpt><trkpt lat="45.83845335741347" lon="11.915428347729076"><ele>163.0</ele><time>2026-04-18T13:54:16.999Z</time></trkpt><trkpt lat="45.83850900882772" lon="11.915624925497914"><ele>163.5</ele><time>2026-04-18T13:54:17.999Z</time></trkpt><trkpt lat="45.8385550250749" lon="11.915817515142464"><ele>164.0</ele><time>2026-04-18T13:54:18.999Z</time></trkpt><trkpt lat="45.838543240826056" lon="11.915976189716954"><ele>164.5</ele><time>2026-04-18T13:54:19.999Z</time></trkpt><trkpt lat="45.838515782719384" lon="11.91614163959583"><ele>165.0</ele><time>2026-04-18T13:54:20.999Z</time></trkpt><trkpt lat="45.838422309469806" lon="11.916277049178676"><ele>165.0</ele><time>2026-04-18T13:54:21.999Z</time></trkpt><trkpt lat="45.83832460887202" lon="11.91635523766328"><ele>165.0</ele><time>2026-04-18T13:54:22.999Z</time></trkpt><trkpt lat="45.838180770710046" lon="11.916412455059975"><ele>165.0</ele><time>2026-04-18T13:54:23.999Z</time></trkpt><trkpt lat="45.83801772406943" lon="11.91648336329272"><ele>165.0</ele><time>2026-04-18T13:54:24.999Z</time></trkpt><trkpt lat="45.83786864465308" lon="11.916592305734412"><ele>165.0</ele><time>2026-04-18T13:54:25.999Z</time></trkpt><trkpt lat="45.83773064782491" lon="11.916658434650037"><ele>165.0</ele><time>2026-04-18T13:54:26.999Z</time></trkpt><trkpt lat="45.837582954953454" lon="11.91679212351095"><ele>165.0</ele><time>2026-04-18T13:54:27.999Z</time></trkpt><trkpt lat="45.83746859272218" lon="11.916880062693572"><ele>166.2</ele><time>2026-04-18T13:54:28.999Z</time></trkpt><trkpt lat="45.837393237883994" lon="11.916971124538629"><ele>167.4</ele><time>2026-04-18T13:54:29.999Z</time></trkpt><trkpt lat="45.837354398111586" lon="11.917115322107326"><ele>168.60000000000002</ele><time>2026-04-18T13:54:30.999Z</time></trkpt><trkpt lat="45.83734937332916" lon="11.917255442087233"><ele>169.8</ele><time>2026-04-18T13:54:31.999Z</time></trkpt><trkpt lat="45.83737663860502" lon="11.917376249091324"><ele>171.0</ele><time>2026-04-18T13:54:32.999Z</time></trkpt><trkpt lat="45.83740791183881" lon="11.917501588041802"><ele>172.0</ele><time>2026-04-18T13:54:33.999Z</time></trkpt><trkpt lat="45.83742816435215" lon="11.917627986283936"><ele>173.0</ele><time>2026-04-18T13:54:34.999Z</time></trkpt><trkpt lat="45.83744283553802" lon="11.917724553270633"><ele>174.0</ele><time>2026-04-18T13:54:35.999Z</time></trkpt><trkpt lat="45.83743798195805" lon="11.917850405277813"><ele>175.0</ele><time>2026-04-18T13:54:36.999Z</time></trkpt><trkpt lat="45.83742405207743" lon="11.917976458648466"><ele>176.0</ele><time>2026-04-18T13:54:37.999Z</time></trkpt><trkpt lat="45.837400138093905" lon="11.918107296476437"><ele>177.0</ele><time>2026-04-18T13:54:38.999Z</time></trkpt><trkpt lat="45.837345949936164" lon="11.918226722408637"><ele>177.0</ele><time>2026-04-18T13:54:39.999Z</time></trkpt><trkpt lat="45.837265414391446" lon="11.918307646724683"><ele>177.0</ele><time>2026-04-18T13:54:40.999Z</time></trkpt><trkpt lat="45.83720236248201" lon="11.918394386423751"><ele>177.0</ele><time>2026-04-18T13:54:41.999Z</time></trkpt><trkpt lat="45.837123512911454" lon="11.918519194352688"><ele>177.0</ele><time>2026-04-18T13:54:42.999Z</time></trkpt><trkpt lat="45.83705085484055" lon="11.918617280304296"><ele>177.0</ele><time>2026-04-18T13:54:43.999Z</time></trkpt><trkpt lat="45.836997586028765" lon="11.918699492203498"><ele>177.0</ele><time>2026-04-18T13:54:44.999Z</time></trkpt><trkpt lat="45.836942899686285" lon="11.918770218668"><ele>177.0</ele><time>2026-04-18T13:54:45.999Z</time></trkpt><trkpt lat="45.83684029751099" lon="11.918840143859065"><ele>177.0</ele><time>2026-04-18T13:54:47.999Z</time></trkpt><trkpt lat="45.836685916584514" lon="11.919020034694867"><ele>177.0</ele><time>2026-04-18T13:55:18Z</time></trkpt><trkpt lat="45.83661683743623" lon="11.919070143169858"><ele>177.0</ele><time>2026-04-18T13:55:19Z</time></trkpt><trkpt lat="45.83654737708524" lon="11.919132295970455"><ele>177.0</ele><time>2026-04-18T13:55:20Z</time></trkpt><trkpt lat="45.836462436549276" lon="11.919218763096902"><ele>177.0</ele><time>2026-04-18T13:55:21Z</time></trkpt><trkpt lat="45.836365636113825" lon="11.919318256107964"><ele>177.0</ele><time>2026-04-18T13:55:22Z</time></trkpt><trkpt lat="45.83625717242001" lon="11.919420383761524"><ele>177.0</ele><time>2026-04-18T13:55:23Z</time></trkpt><trkpt lat="45.836150943415156" lon="11.919514217829473"><ele>176.0</ele><time>2026-04-18T13:55:24Z</time></trkpt><trkpt lat="45.83604597007812" lon="11.919619250216018"><ele>175.0</ele><time>2026-04-18T13:55:25Z</time></trkpt><trkpt lat="45.83593913398942" lon="11.919717562096727"><ele>174.0</ele><time>2026-04-18T13:55:26Z</time></trkpt><trkpt lat="45.83581201902543" lon="11.919778245968633"><ele>173.0</ele><time>2026-04-18T13:55:27Z</time></trkpt><trkpt lat="45.83569257143799" lon="11.919839955214924"><ele>173.0</ele><time>2026-04-18T13:55:28Z</time></trkpt><trkpt lat="45.835556347377626" lon="11.919890360094723"><ele>173.0</ele><time>2026-04-18T13:55:29Z</time></trkpt><trkpt lat="45.83541582134279" lon="11.919929100577267"><ele>173.0</ele><time>2026-04-18T13:55:30Z</time></trkpt><trkpt lat="45.835269610037635" lon="11.919953830661333"><ele>173.0</ele><time>2026-04-18T13:55:31Z</time></trkpt><trkpt lat="45.83509144971122" lon="11.919973426830678"><ele>173.0</ele><time>2026-04-18T13:55:32Z</time></trkpt><trkpt lat="45.83493127260338" lon="11.920003101417251"><ele>173.0</ele><time>2026-04-18T13:55:33Z</time></trkpt><trkpt lat="45.834784970090595" lon="11.920012727667762"><ele>173.0</ele><time>2026-04-18T13:55:34Z</time></trkpt><trkpt lat="45.834643955675084" lon="11.920030097700808"><ele>173.0</ele><time>2026-04-18T13:55:35Z</time></trkpt><trkpt lat="45.83449951058731" lon="11.920053109023916"><ele>171.0</ele><time>2026-04-18T13:55:36Z</time></trkpt><trkpt lat="45.83433298065632" lon="11.92006772056219"><ele>169.0</ele><time>2026-04-18T13:55:37Z</time></trkpt><trkpt lat="45.834168935470075" lon="11.92007589662785"><ele>167.0</ele><time>2026-04-18T13:55:38Z</time></trkpt><trkpt lat="45.83399860067874" lon="11.920097266171425"><ele>167.0</ele><time>2026-04-18T13:55:39Z</time></trkpt><trkpt lat="45.83383836538858" lon="11.920116780517775"><ele>167.0</ele><time>2026-04-18T13:55:40Z</time></trkpt><trkpt lat="45.83366949335356" lon="11.92012811369281"><ele>167.0</ele><time>2026-04-18T13:55:41Z</time></trkpt><trkpt lat="45.83351783547976" lon="11.920116689193984"><ele>167.66666666666666</ele><time>2026-04-18T13:55:42Z</time></trkpt><trkpt lat="45.83335766300817" lon="11.920116283538512"><ele>168.33333333333334</ele><time>2026-04-18T13:55:43Z</time></trkpt><trkpt lat="45.83319502271068" lon="11.92012699089695"><ele>169.0</ele><time>2026-04-18T13:55:44Z</time></trkpt><trkpt lat="45.833036166011475" lon="11.92012543106345"><ele>169.0</ele><time>2026-04-18T13:55:45Z</time></trkpt><trkpt lat="45.83289470101756" lon="11.92011358192569"><ele>169.0</ele><time>2026-04-18T13:55:46Z</time></trkpt><trkpt lat="45.83277466434629" lon="11.920062808744298"><ele>169.0</ele><time>2026-04-18T13:55:47Z</time></trkpt><trkpt lat="45.832669166172884" lon="11.919976462756125"><ele>169.0</ele><time>2026-04-18T13:55:48Z</time></trkpt><trkpt lat="45.83257671507923" lon="11.91987295608848"><ele>174.5</ele><time>2026-04-18T13:55:49Z</time></trkpt><trkpt lat="45.83249818190967" lon="11.919749779993039"><ele>180.0</ele><time>2026-04-18T13:55:50Z</time></trkpt><trkpt lat="45.83239601707679" lon="11.919631957119043"><ele>185.5</ele><time>2026-04-18T13:55:51Z</time></trkpt><trkpt lat="45.832271176156084" lon="11.919531151941351"><ele>191.0</ele><time>2026-04-18T13:55:52Z</time></trkpt><trkpt lat="45.83215049596381" lon="11.91945828061559"><ele>191.0</ele><time>2026-04-18T13:55:53Z</time></trkpt><trkpt lat="45.832023876294656" lon="11.919427914052925"><ele>191.0</ele><time>2026-04-18T13:55:54Z</time></trkpt><trkpt lat="45.83189285797591" lon="11.919393668995701"><ele>191.0</ele><time>2026-04-18T13:55:55Z</time></trkpt><trkpt lat="45.831773069962914" lon="11.919362217130525"><ele>191.0</ele><time>2026-04-18T13:55:56Z</time></trkpt><trkpt lat="45.83165814512259" lon="11.919327584678934"><ele>191.8</ele><time>2026-04-18T13:55:57Z</time></trkpt><trkpt lat="45.83154642477493" lon="11.919283464542175"><ele>192.60000000000002</ele><time>2026-04-18T13:55:57.999Z</time></trkpt><trkpt lat="45.83143301114353" lon="11.919255732992264"><ele>193.4</ele><time>2026-04-18T13:55:58.999Z</time></trkpt><trkpt lat="45.83132433381137" lon="11.919217127371114"><ele>194.2</ele><time>2026-04-18T13:55:59.999Z</time></trkpt><trkpt lat="45.831243241422605" lon="11.919260712157628"><ele>195.0</ele><time>2026-04-18T13:56:00.999Z</time></trkpt><trkpt lat="45.831157811726136" lon="11.919308444938116"><ele>195.0</ele><time>2026-04-18T13:56:01.999Z</time></trkpt><trkpt lat="45.83109321038985" lon="11.919375605856393"><ele>195.0</ele><time>2026-04-18T13:56:02.999Z</time></trkpt><trkpt lat="45.83105912646979" lon="11.919481633051122"><ele>195.0</ele><time>2026-04-18T13:56:03.999Z</time></trkpt><trkpt lat="45.83099991699347" lon="11.919618031367099"><ele>195.0</ele><time>2026-04-18T13:56:04.999Z</time></trkpt><trkpt lat="45.83092823338178" lon="11.919742625055186"><ele>195.0</ele><time>2026-04-18T13:56:05.999Z</time></trkpt><trkpt lat="45.83086385021381" lon="11.919868056568701"><ele>195.0</ele><time>2026-04-18T13:56:06.999Z</time></trkpt><trkpt lat="45.83078953835074" lon="11.91999431916698"><ele>195.0</ele><time>2026-04-18T13:56:07.999Z</time></trkpt><trkpt lat="45.83070341916133" lon="11.92010327383637"><ele>195.0</ele><time>2026-04-18T13:56:08.999Z</time></trkpt><trkpt lat="45.83060826775472" lon="11.920202050172204"><ele>195.0</ele><time>2026-04-18T13:56:09.999Z</time></trkpt><trkpt lat="45.83051093085298" lon="11.920310569417259"><ele>195.2</ele><time>2026-04-18T13:56:10.999Z</time></trkpt><trkpt lat="45.83043312522846" lon="11.920421917790904"><ele>195.4</ele><time>2026-04-18T13:56:11.999Z</time></trkpt><trkpt lat="45.83037191076338" lon="11.920542722623424"><ele>195.60000000000002</ele><time>2026-04-18T13:56:12.999Z</time></trkpt><trkpt lat="45.83032555679083" lon="11.920681225914329"><ele>195.8</ele><time>2026-04-18T13:56:13.999Z</time></trkpt><trkpt lat="45.83030615257614" lon="11.920801701483372"><ele>196.0</ele><time>2026-04-18T13:56:14.999Z</time></trkpt><trkpt lat="45.83030218627466" lon="11.920900854879138"><ele>196.0</ele><time>2026-04-18T13:56:15.999Z</time></trkpt><trkpt lat="45.83027769621489" lon="11.921051806237726"><ele>196.0</ele><time>2026-04-18T13:56:17.999Z</time></trkpt><trkpt lat="45.830226804920954" lon="11.92113710772897"><ele>196.0</ele><time>2026-04-18T13:56:18.999Z</time></trkpt><trkpt lat="45.830142949145156" lon="11.921172244653249"><ele>196.0</ele><time>2026-04-18T13:56:19.999Z</time></trkpt><trkpt lat="45.830031180422694" lon="11.921178738520126"><ele>196.0</ele><time>2026-04-18T13:56:20.999Z</time></trkpt><trkpt lat="45.82992543167268" lon="11.921250216632327"><ele>195.0</ele><time>2026-04-18T13:56:21.999Z</time></trkpt><trkpt lat="45.82980677791912" lon="11.921329867229149"><ele>194.0</ele><time>2026-04-18T13:56:22.999Z</time></trkpt><trkpt lat="45.82968523923203" lon="11.921397063504335"><ele>193.0</ele><time>2026-04-18T13:56:23.999Z</time></trkpt><trkpt lat="45.82957129355961" lon="11.921477136391406"><ele>192.0</ele><time>2026-04-18T13:56:24.999Z</time></trkpt><trkpt lat="45.829456508686974" lon="11.921567688238154"><ele>192.0</ele><time>2026-04-18T13:56:25.999Z</time></trkpt><trkpt lat="45.82933113388441" lon="11.921669683423207"><ele>192.0</ele><time>2026-04-18T13:56:26.999Z</time></trkpt><trkpt lat="45.82921070049127" lon="11.921777240289085"><ele>192.0</ele><time>2026-04-18T13:56:27.999Z</time></trkpt><trkpt lat="45.829111337129355" lon="11.921855110640431"><ele>192.0</ele><time>2026-04-18T13:56:28.999Z</time></trkpt><trkpt lat="45.82902320133571" lon="11.921903924828523"><ele>190.14285714285714</ele><time>2026-04-18T13:56:29.999Z</time></trkpt><trkpt lat="45.828934809974925" lon="11.921930963310858"><ele>188.28571428571428</ele><time>2026-04-18T13:56:31.999Z</time></trkpt><trkpt lat="45.8289268203668" lon="11.921829371037132"><ele>186.42857142857144</ele><time>2026-04-18T14:02:22.999Z</time></trkpt><trkpt lat="45.82891012442657" lon="11.921927396404675"><ele>184.57142857142856</ele><time>2026-04-18T14:04:28.999Z</time></trkpt><trkpt lat="45.8289012061759" lon="11.921811195281826"><ele>182.71428571428572</ele><time>2026-04-18T14:12:48Z</time></trkpt><trkpt lat="45.82888115772079" lon="11.921900089505055"><ele>180.85714285714286</ele><time>2026-04-18T14:20:12Z</time></trkpt><trkpt lat="45.8289452319197" lon="11.921898024704491"><ele>179.0</ele><time>2026-04-18T14:35:56.999Z</time></trkpt><trkpt lat="45.82900416380625" lon="11.92193043842874"><ele>179.0</ele><time>2026-04-18T14:39:44Z</time></trkpt><trkpt lat="45.828876050373346" lon="11.922025674065546"><ele>179.0</ele><time>2026-04-18T14:39:52.999Z</time></trkpt><trkpt lat="45.828800207629584" lon="11.922063251503898"><ele>179.0</ele><time>2026-04-18T14:39:53.999Z</time></trkpt><trkpt lat="45.82872713322255" lon="11.922093000040327"><ele>179.0</ele><time>2026-04-18T14:39:54.999Z</time></trkpt><trkpt lat="45.82864841117461" lon="11.922129376040534"><ele>179.0</ele><time>2026-04-18T14:39:55.999Z</time></trkpt><trkpt lat="45.8285692376347" lon="11.922163411184581"><ele>179.0</ele><time>2026-04-18T14:39:56.999Z</time></trkpt><trkpt lat="45.82848530744709" lon="11.9222256880695"><ele>179.0</ele><time>2026-04-18T14:39:57.999Z</time></trkpt><trkpt lat="45.82838873461797" lon="11.922267308685752"><ele>179.0</ele><time>2026-04-18T14:39:58.999Z</time></trkpt><trkpt lat="45.82829946796715" lon="11.92231343784149"><ele>179.0</ele><time>2026-04-18T14:39:59.999Z</time></trkpt><trkpt lat="45.82820548103696" lon="11.922356942033522"><ele>179.0</ele><time>2026-04-18T14:40:00.999Z</time></trkpt><trkpt lat="45.82810612653547" lon="11.922405396110902"><ele>179.2</ele><time>2026-04-18T14:40:01.999Z</time></trkpt><trkpt lat="45.82801654688975" lon="11.922455557486964"><ele>179.39999999999998</ele><time>2026-04-18T14:40:02.999Z</time></trkpt><trkpt lat="45.82792027707609" lon="11.922506410218066"><ele>179.6</ele><time>2026-04-18T14:40:03.999Z</time></trkpt><trkpt lat="45.827842775426376" lon="11.922557806156188"><ele>179.8</ele><time>2026-04-18T14:40:04.999Z</time></trkpt><trkpt lat="45.82776364906805" lon="11.92262244312873"><ele>180.0</ele><time>2026-04-18T14:40:05.999Z</time></trkpt><trkpt lat="45.827689739212786" lon="11.922680612717492"><ele>179.8</ele><time>2026-04-18T14:40:06.999Z</time></trkpt><trkpt lat="45.82763932715741" lon="11.922795954291942"><ele>179.6</ele><time>2026-04-18T14:40:07.999Z</time></trkpt><trkpt lat="45.82758349537146" lon="11.922905904229436"><ele>179.39999999999998</ele><time>2026-04-18T14:40:08.999Z</time></trkpt><trkpt lat="45.827523567216076" lon="11.923027731125414"><ele>179.2</ele><time>2026-04-18T14:40:09.999Z</time></trkpt><trkpt lat="45.82746607529834" lon="11.923148613754782"><ele>179.0</ele><time>2026-04-18T14:40:10.999Z</time></trkpt><trkpt lat="45.827411064953765" lon="11.923262512122257"><ele>179.0</ele><time>2026-04-18T14:40:11.999Z</time></trkpt><trkpt lat="45.82733776933872" lon="11.923346411661726"><ele>179.0</ele><time>2026-04-18T14:40:12.999Z</time></trkpt><trkpt lat="45.827275084643986" lon="11.923431662020334"><ele>179.0</ele><time>2026-04-18T14:40:13.999Z</time></trkpt><trkpt lat="45.827216125478905" lon="11.923506269569765"><ele>179.0</ele><time>2026-04-18T14:40:14.999Z</time></trkpt><trkpt lat="45.82715541766149" lon="11.923594998208308"><ele>179.0</ele><time>2026-04-18T14:40:15.999Z</time></trkpt><trkpt lat="45.82708450950481" lon="11.923658612562486"><ele>179.0</ele><time>2026-04-18T14:40:16.999Z</time></trkpt><trkpt lat="45.82700437240428" lon="11.923743596580861"><ele>178.25</ele><time>2026-04-18T14:40:17.999Z</time></trkpt><trkpt lat="45.82690619146315" lon="11.923837006942277"><ele>177.5</ele><time>2026-04-18T14:40:18.999Z</time></trkpt><trkpt lat="45.82680173514607" lon="11.92388685551978"><ele>176.75</ele><time>2026-04-18T14:40:19.999Z</time></trkpt><trkpt lat="45.82669326638587" lon="11.923977463516504"><ele>176.0</ele><time>2026-04-18T14:40:20.999Z</time></trkpt><trkpt lat="45.8265854481388" lon="11.924037756952517"><ele>175.0</ele><time>2026-04-18T14:40:21.999Z</time></trkpt><trkpt lat="45.82647364585398" lon="11.924110393436914"><ele>174.0</ele><time>2026-04-18T14:40:22.999Z</time></trkpt><trkpt lat="45.82635461258789" lon="11.92418163442189"><ele>173.0</ele><time>2026-04-18T14:40:23.999Z</time></trkpt><trkpt lat="45.82623783172777" lon="11.924241126558707"><ele>172.0</ele><time>2026-04-18T14:40:24.999Z</time></trkpt><trkpt lat="45.826133136220236" lon="11.924313950389573"><ele>170.0</ele><time>2026-04-18T14:40:25.999Z</time></trkpt><trkpt lat="45.82603051642335" lon="11.924408023737186"><ele>168.0</ele><time>2026-04-18T14:40:26.999Z</time></trkpt><trkpt lat="45.8259095435872" lon="11.924491185125028"><ele>166.0</ele><time>2026-04-18T14:40:27.999Z</time></trkpt><trkpt lat="45.82579501946402" lon="11.92455771814172"><ele>164.0</ele><time>2026-04-18T14:40:28.999Z</time></trkpt><trkpt lat="45.82568909218958" lon="11.924633014245343"><ele>163.75</ele><time>2026-04-18T14:40:29.999Z</time></trkpt><trkpt lat="45.825581649963496" lon="11.924703585882309"><ele>163.5</ele><time>2026-04-18T14:40:30.999Z</time></trkpt><trkpt lat="45.82547623348822" lon="11.92477220255819"><ele>163.25</ele><time>2026-04-18T14:40:31.999Z</time></trkpt><trkpt lat="45.82537682046062" lon="11.924847524178643"><ele>163.0</ele><time>2026-04-18T14:40:32.999Z</time></trkpt><trkpt lat="45.82527614192526" lon="11.92489421330657"><ele>163.0</ele><time>2026-04-18T14:40:33.999Z</time></trkpt><trkpt lat="45.8251674821842" lon="11.924910838807245"><ele>163.0</ele><time>2026-04-18T14:40:34.999Z</time></trkpt><trkpt lat="45.82501447148002" lon="11.924929368983841"><ele>163.0</ele><time>2026-04-18T14:40:35.999Z</time></trkpt><trkpt lat="45.82491649262041" lon="11.924909723798345"><ele>163.0</ele><time>2026-04-18T14:40:36.999Z</time></trkpt><trkpt lat="45.82479720941891" lon="11.924868001572046"><ele>163.5</ele><time>2026-04-18T14:40:37.999Z</time></trkpt><trkpt lat="45.824676535132895" lon="11.924854341389691"><ele>164.0</ele><time>2026-04-18T14:40:38.999Z</time></trkpt><trkpt lat="45.82452689613978" lon="11.924837985280194"><ele>164.5</ele><time>2026-04-18T14:40:39.999Z</time></trkpt><trkpt lat="45.8244008553655" lon="11.924825994032451"><ele>165.0</ele><time>2026-04-18T14:40:40.999Z</time></trkpt><trkpt lat="45.82428087756044" lon="11.924814972081379"><ele>164.0</ele><time>2026-04-18T14:40:41.999Z</time></trkpt><trkpt lat="45.82416910858876" lon="11.924802006643509"><ele>163.0</ele><time>2026-04-18T14:40:42.999Z</time></trkpt><trkpt lat="45.8240671014641" lon="11.92477479000643"><ele>162.0</ele><time>2026-04-18T14:40:43.999Z</time></trkpt><trkpt lat="45.82397537767943" lon="11.92476317393109"><ele>161.0</ele><time>2026-04-18T14:40:44.999Z</time></trkpt><trkpt lat="45.8238863432194" lon="11.924748784170253"><ele>160.0</ele><time>2026-04-18T14:40:45.999Z</time></trkpt><trkpt lat="45.823801583444975" lon="11.924741321955986"><ele>160.0</ele><time>2026-04-18T14:40:46.999Z</time></trkpt><trkpt lat="45.823718009305715" lon="11.924727514176203"><ele>160.0</ele><time>2026-04-18T14:40:47.999Z</time></trkpt><trkpt lat="45.82363145733704" lon="11.924701600140667"><ele>160.0</ele><time>2026-04-18T14:40:48.999Z</time></trkpt><trkpt lat="45.82354814555388" lon="11.924670185329838"><ele>160.0</ele><time>2026-04-18T14:40:49.999Z</time></trkpt><trkpt lat="45.82347272471241" lon="11.924665223944066"><ele>160.0</ele><time>2026-04-18T14:40:50.999Z</time></trkpt><trkpt lat="45.82337290271738" lon="11.924659024515133"><ele>160.0</ele><time>2026-04-18T14:40:51.999Z</time></trkpt><trkpt lat="45.823285537393886" lon="11.924647559838466"><ele>159.2</ele><time>2026-04-18T14:40:52.999Z</time></trkpt><trkpt lat="45.8232044410411" lon="11.92462371736743"><ele>158.4</ele><time>2026-04-18T14:40:53.999Z</time></trkpt><trkpt lat="45.82309850999303" lon="11.924633497588498"><ele>157.6</ele><time>2026-04-18T14:40:54.999Z</time></trkpt><trkpt lat="45.82300135227259" lon="11.924701198218672"><ele>156.8</ele><time>2026-04-18T14:40:55.999Z</time></trkpt><trkpt lat="45.822914848666194" lon="11.924806777906598"><ele>156.0</ele><time>2026-04-18T14:40:56.999Z</time></trkpt><trkpt lat="45.822825573243655" lon="11.924970980287837"><ele>153.75</ele><time>2026-04-18T14:40:57.999Z</time></trkpt><trkpt lat="45.82277582638107" lon="11.92519353722834"><ele>151.5</ele><time>2026-04-18T14:40:58.999Z</time></trkpt><trkpt lat="45.822763430131275" lon="11.925412915420905"><ele>149.25</ele><time>2026-04-18T14:40:59.999Z</time></trkpt><trkpt lat="45.822781117914865" lon="11.925591886401945"><ele>147.0</ele><time>2026-04-18T14:41:00.999Z</time></trkpt><trkpt lat="45.82277185589528" lon="11.925761485672954"><ele>145.2</ele><time>2026-04-18T14:41:01.999Z</time></trkpt><trkpt lat="45.82273759862163" lon="11.925897237625808"><ele>143.39999999999998</ele><time>2026-04-18T14:41:02.999Z</time></trkpt><trkpt lat="45.82267273050832" lon="11.926008024948883"><ele>141.60000000000002</ele><time>2026-04-18T14:41:03.999Z</time></trkpt><trkpt lat="45.82256540215484" lon="11.926070788075322"><ele>139.8</ele><time>2026-04-18T14:41:04.999Z</time></trkpt><trkpt lat="45.82245823866688" lon="11.926077750693006"><ele>138.0</ele><time>2026-04-18T14:41:06Z</time></trkpt><trkpt lat="45.82238846561492" lon="11.925991767387773"><ele>139.66666666666666</ele><time>2026-04-18T14:41:07Z</time></trkpt><trkpt lat="45.822338495267275" lon="11.925858887738531"><ele>141.33333333333331</ele><time>2026-04-18T14:41:08Z</time></trkpt><trkpt lat="45.82224392266042" lon="11.925671039919107"><ele>143.0</ele><time>2026-04-18T14:41:09Z</time></trkpt><trkpt lat="45.82211917586959" lon="11.925463447724814"><ele>143.0</ele><time>2026-04-18T14:41:10Z</time></trkpt><trkpt lat="45.8220057385457" lon="11.925240885979079"><ele>143.0</ele><time>2026-04-18T14:41:11Z</time></trkpt><trkpt lat="45.82189535311496" lon="11.924957232392014"><ele>143.0</ele><time>2026-04-18T14:41:12Z</time></trkpt><trkpt lat="45.82177521372401" lon="11.924626967312888"><ele>137.0</ele><time>2026-04-18T14:41:13Z</time></trkpt><trkpt lat="45.821675541470796" lon="11.924295624357848"><ele>131.0</ele><time>2026-04-18T14:41:14Z</time></trkpt><trkpt lat="45.82157531522208" lon="11.923986689853526"><ele>130.66666666666666</ele><time>2026-04-18T14:41:15Z</time></trkpt><trkpt lat="45.82146166639093" lon="11.923769847412144"><ele>130.33333333333334</ele><time>2026-04-18T14:41:16Z</time></trkpt><trkpt lat="45.82132674316224" lon="11.92362104641174"><ele>130.0</ele><time>2026-04-18T14:41:17Z</time></trkpt><trkpt lat="45.82116969128879" lon="11.923495751778626"><ele>129.33333333333334</ele><time>2026-04-18T14:41:18Z</time></trkpt><trkpt lat="45.820974189030075" lon="11.923513305446853"><ele>128.66666666666666</ele><time>2026-04-18T14:41:19Z</time></trkpt><trkpt lat="45.820770810461305" lon="11.923504818824814"><ele>128.0</ele><time>2026-04-18T14:41:20Z</time></trkpt><trkpt lat="45.82054438805427" lon="11.923515449846958"><ele>128.0</ele><time>2026-04-18T14:41:21Z</time></trkpt><trkpt lat="45.82030905228278" lon="11.923503283440008"><ele>128.0</ele><time>2026-04-18T14:41:22Z</time></trkpt><trkpt lat="45.820104144800766" lon="11.923500703661"><ele>128.0</ele><time>2026-04-18T14:41:23Z</time></trkpt><trkpt lat="45.81991761358328" lon="11.923518615834405"><ele>130.5</ele><time>2026-04-18T14:41:24Z</time></trkpt><trkpt lat="45.81973581901746" lon="11.923511097093707"><ele>133.0</ele><time>2026-04-18T14:41:25Z</time></trkpt><trkpt lat="45.81958328351715" lon="11.923483114023679"><ele>135.5</ele><time>2026-04-18T14:41:26Z</time></trkpt><trkpt lat="45.81948774375492" lon="11.923458588039178"><ele>138.0</ele><time>2026-04-18T14:41:27Z</time></trkpt><trkpt lat="45.81938414823081" lon="11.923428174319456"><ele>136.20000000000002</ele><time>2026-04-18T14:41:28Z</time></trkpt><trkpt lat="45.819310432070274" lon="11.923387013845801"><ele>134.4</ele><time>2026-04-18T14:41:29Z</time></trkpt><trkpt lat="45.819214814167914" lon="11.923323495969731"><ele>132.60000000000002</ele><time>2026-04-18T14:41:30Z</time></trkpt><trkpt lat="45.819110988548125" lon="11.923239242858628"><ele>130.8</ele><time>2026-04-18T14:41:31Z</time></trkpt><trkpt lat="45.8190048412605" lon="11.923146811307973"><ele>129.0</ele><time>2026-04-18T14:41:32Z</time></trkpt><trkpt lat="45.818863255181704" lon="11.923022107250212"><ele>129.0</ele><time>2026-04-18T14:41:33Z</time></trkpt><trkpt lat="45.8187328332656" lon="11.92292744033096"><ele>129.0</ele><time>2026-04-18T14:41:34Z</time></trkpt><trkpt lat="45.81861405786932" lon="11.922845679663066"><ele>129.0</ele><time>2026-04-18T14:41:35Z</time></trkpt><trkpt lat="45.81849638279779" lon="11.922785832298212"><ele>129.0</ele><time>2026-04-18T14:41:36Z</time></trkpt><trkpt lat="45.81838587326959" lon="11.922753789715298"><ele>128.0</ele><time>2026-04-18T14:41:37Z</time></trkpt><trkpt lat="45.81828832160568" lon="11.92272219595747"><ele>127.0</ele><time>2026-04-18T14:41:38Z</time></trkpt><trkpt lat="45.81819010034726" lon="11.922685121184372"><ele>126.0</ele><time>2026-04-18T14:41:39Z</time></trkpt><trkpt lat="45.818096630095496" lon="11.922654310345138"><ele>125.0</ele><time>2026-04-18T14:41:40Z</time></trkpt><trkpt lat="45.8180063217508" lon="11.922628912023315"><ele>124.0</ele><time>2026-04-18T14:41:41Z</time></trkpt><trkpt lat="45.817924838031935" lon="11.922607537414821"><ele>124.00000000000001</ele><time>2026-04-18T14:41:42Z</time></trkpt><trkpt lat="45.81785205950763" lon="11.922603027132476"><ele>124.0</ele><time>2026-04-18T14:41:43Z</time></trkpt><trkpt lat="45.81779494585361" lon="11.922644724916282"><ele>124.0</ele><time>2026-04-18T14:41:44Z</time></trkpt><trkpt lat="45.81775233054263" lon="11.922736526064782"><ele>124.0</ele><time>2026-04-18T14:41:45Z</time></trkpt><trkpt lat="45.81778263977246" lon="11.92286290112178"><ele>124.00000000000001</ele><time>2026-04-18T14:41:46Z</time></trkpt><trkpt lat="45.81776660182753" lon="11.922972874439166"><ele>124.0</ele><time>2026-04-18T14:41:47Z</time></trkpt><trkpt lat="45.8177537333512" lon="11.923073921411017"><ele>124.0</ele><time>2026-04-18T14:41:48Z</time></trkpt><trkpt lat="45.81772786950101" lon="11.923205991633312"><ele>124.0</ele><time>2026-04-18T14:41:50Z</time></trkpt><trkpt lat="45.81769924321471" lon="11.923456527229897"><ele>124.0</ele><time>2026-04-18T14:42:02.999Z</time></trkpt><trkpt lat="45.817681389119414" lon="11.923562369617775"><ele>124.0</ele><time>2026-04-18T14:42:03.999Z</time></trkpt><trkpt lat="45.81768056505054" lon="11.923684808885783"><ele>124.0</ele><time>2026-04-18T14:42:04.999Z</time></trkpt><trkpt lat="45.81769162182703" lon="11.923836158038025"><ele>124.0</ele><time>2026-04-18T14:42:05.999Z</time></trkpt><trkpt lat="45.81773105272296" lon="11.924005348956605"><ele>124.0</ele><time>2026-04-18T14:42:06.999Z</time></trkpt><trkpt lat="45.81777805451545" lon="11.92418377058309"><ele>124.0</ele><time>2026-04-18T14:42:07.999Z</time></trkpt><trkpt lat="45.817842015781096" lon="11.924373555624193"><ele>124.0</ele><time>2026-04-18T14:42:08.999Z</time></trkpt><trkpt lat="45.81790974537604" lon="11.92457035573836"><ele>124.0</ele><time>2026-04-18T14:42:09.999Z</time></trkpt><trkpt lat="45.817973021077655" lon="11.924755744118384"><ele>124.0</ele><time>2026-04-18T14:42:10.999Z</time></trkpt><trkpt lat="45.81803616610541" lon="11.924940749836379"><ele>124.0</ele><time>2026-04-18T14:42:11.999Z</time></trkpt><trkpt lat="45.81810268271659" lon="11.925135633595698"><ele>124.0</ele><time>2026-04-18T14:42:12.999Z</time></trkpt><trkpt lat="45.81817329183911" lon="11.925338713876142"><ele>126.66666666666667</ele><time>2026-04-18T14:42:13.999Z</time></trkpt><trkpt lat="45.818243852895506" lon="11.925538192219925"><ele>129.33333333333334</ele><time>2026-04-18T14:42:14.999Z</time></trkpt><trkpt lat="45.81831060475378" lon="11.925726903866476"><ele>132.0</ele><time>2026-04-18T14:42:15.999Z</time></trkpt><trkpt lat="45.81838589865856" lon="11.925939868045159"><ele>129.66666666666666</ele><time>2026-04-18T14:42:16.999Z</time></trkpt><trkpt lat="45.81845720328654" lon="11.926156506482078"><ele>127.33333333333333</ele><time>2026-04-18T14:42:17.999Z</time></trkpt><trkpt lat="45.818520044152514" lon="11.926380605407642"><ele>125.0</ele><time>2026-04-18T14:42:18.999Z</time></trkpt><trkpt lat="45.818621677284135" lon="11.926569403317115"><ele>126.0</ele><time>2026-04-18T14:42:19.999Z</time></trkpt><trkpt lat="45.81870889382065" lon="11.92674721960134"><ele>127.0</ele><time>2026-04-18T14:42:20.999Z</time></trkpt><trkpt lat="45.81879501560631" lon="11.926906274684596"><ele>128.0</ele><time>2026-04-18T14:42:21.999Z</time></trkpt><trkpt lat="45.818886674420035" lon="11.927064543975352"><ele>129.0</ele><time>2026-04-18T14:42:22.999Z</time></trkpt><trkpt lat="45.81898227870375" lon="11.927228996903807"><ele>129.0</ele><time>2026-04-18T14:42:23.999Z</time></trkpt><trkpt lat="45.81906513125773" lon="11.927374689494558"><ele>129.0</ele><time>2026-04-18T14:42:24.999Z</time></trkpt><trkpt lat="45.819118960145296" lon="11.927469345368841"><ele>129.0</ele><time>2026-04-18T14:42:25.999Z</time></trkpt><trkpt lat="45.819194350211646" lon="11.92758591980101"><ele>129.0</ele><time>2026-04-18T14:42:27.999Z</time></trkpt><trkpt lat="45.81916744820181" lon="11.927451386050567"><ele>129.0</ele><time>2026-04-18T14:43:21Z</time></trkpt><trkpt lat="45.819114685543546" lon="11.927366212483705"><ele>129.0</ele><time>2026-04-18T14:43:22Z</time></trkpt><trkpt lat="45.819049831531395" lon="11.927238690316827"><ele>129.0</ele><time>2026-04-18T14:43:23Z</time></trkpt><trkpt lat="45.81898654670738" lon="11.927127040759263"><ele>129.0</ele><time>2026-04-18T14:43:24Z</time></trkpt><trkpt lat="45.818921750940625" lon="11.927009393752714"><ele>129.0</ele><time>2026-04-18T14:43:25Z</time></trkpt><trkpt lat="45.818848595576156" lon="11.926886663692894"><ele>129.0</ele><time>2026-04-18T14:43:26Z</time></trkpt><trkpt lat="45.81876429562309" lon="11.926738723258042"><ele>128.0</ele><time>2026-04-18T14:43:27Z</time></trkpt><trkpt lat="45.81867394873928" lon="11.926563024919188"><ele>127.0</ele><time>2026-04-18T14:43:28Z</time></trkpt><trkpt lat="45.81859743094797" lon="11.926383385084339"><ele>126.0</ele><time>2026-04-18T14:43:29Z</time></trkpt><trkpt lat="45.818524232481806" lon="11.926207471418367"><ele>125.0</ele><time>2026-04-18T14:43:30Z</time></trkpt><trkpt lat="45.81845372024436" lon="11.926013507126168"><ele>127.33333333333333</ele><time>2026-04-18T14:43:31Z</time></trkpt><trkpt lat="45.818384120801745" lon="11.925809751839772"><ele>129.66666666666666</ele><time>2026-04-18T14:43:32Z</time></trkpt><trkpt lat="45.81832976990276" lon="11.925607120285719"><ele>132.0</ele><time>2026-04-18T14:43:33Z</time></trkpt><trkpt lat="45.81826576283747" lon="11.925408362431332"><ele>132.0</ele><time>2026-04-18T14:43:34Z</time></trkpt><trkpt lat="45.81819324390892" lon="11.925195938759176"><ele>132.0</ele><time>2026-04-18T14:43:35Z</time></trkpt><trkpt lat="45.81810845784398" lon="11.924977688988898"><ele>132.0</ele><time>2026-04-18T14:43:36Z</time></trkpt><trkpt lat="45.81803916638333" lon="11.924777240703184"><ele>129.33333333333334</ele><time>2026-04-18T14:43:37Z</time></trkpt><trkpt lat="45.81795534601565" lon="11.924569332859585"><ele>126.66666666666667</ele><time>2026-04-18T14:43:38Z</time></trkpt><trkpt lat="45.81788691167153" lon="11.92435980827511"><ele>124.0</ele><time>2026-04-18T14:43:39Z</time></trkpt><trkpt lat="45.81781786427989" lon="11.924149176430493"><ele>124.0</ele><time>2026-04-18T14:43:40Z</time></trkpt><trkpt lat="45.81775941358001" lon="11.923952671120073"><ele>124.0</ele><time>2026-04-18T14:43:41Z</time></trkpt><trkpt lat="45.817736820079794" lon="11.923727958189861"><ele>124.0</ele><time>2026-04-18T14:43:42Z</time></trkpt><trkpt lat="45.817733152342385" lon="11.923534100265583"><ele>124.0</ele><time>2026-04-18T14:43:43Z</time></trkpt><trkpt lat="45.81775419349382" lon="11.923329499399374"><ele>124.0</ele><time>2026-04-18T14:43:44Z</time></trkpt><trkpt lat="45.81778449582422" lon="11.92314090590934"><ele>124.0</ele><time>2026-04-18T14:43:45Z</time></trkpt><trkpt lat="45.81782242883835" lon="11.922985708306541"><ele>124.0</ele><time>2026-04-18T14:43:46Z</time></trkpt><trkpt lat="45.817849538429094" lon="11.92285910003287"><ele>124.0</ele><time>2026-04-18T14:43:47Z</time></trkpt><trkpt lat="45.81786814399489" lon="11.922762011159111"><ele>124.0</ele><time>2026-04-18T14:43:48Z</time></trkpt><trkpt lat="45.81788859252136" lon="11.92264028499371"><ele>123.80000000000001</ele><time>2026-04-18T14:43:50Z</time></trkpt><trkpt lat="45.81779270800407" lon="11.922527936427679"><ele>123.60000000000001</ele><time>2026-04-18T14:43:54Z</time></trkpt><trkpt lat="45.817708635502036" lon="11.922510175699047"><ele>123.4</ele><time>2026-04-18T14:43:55Z</time></trkpt><trkpt lat="45.81762555845467" lon="11.922489759193242"><ele>123.2</ele><time>2026-04-18T14:43:56Z</time></trkpt><trkpt lat="45.81751501325798" lon="11.922429599846284"><ele>123.0</ele><time>2026-04-18T14:43:57Z</time></trkpt><trkpt lat="45.817406686989365" lon="11.922403403589131"><ele>122.66666666666666</ele><time>2026-04-18T14:43:58Z</time></trkpt><trkpt lat="45.81728003978846" lon="11.922348703390085"><ele>122.33333333333333</ele><time>2026-04-18T14:43:59Z</time></trkpt><trkpt lat="45.817157313624854" lon="11.922238147592422"><ele>122.0</ele><time>2026-04-18T14:44:00Z</time></trkpt><trkpt lat="45.816991384961945" lon="11.92209887594727"><ele>122.33333333333333</ele><time>2026-04-18T14:44:01Z</time></trkpt><trkpt lat="45.81681313363137" lon="11.921934052863465"><ele>122.66666666666666</ele><time>2026-04-18T14:44:02Z</time></trkpt><trkpt lat="45.81661595260612" lon="11.921748203993534"><ele>123.0</ele><time>2026-04-18T14:44:03Z</time></trkpt><trkpt lat="45.81639285933365" lon="11.921543889226742"><ele>123.0</ele><time>2026-04-18T14:44:04Z</time></trkpt><trkpt lat="45.81615703661069" lon="11.92131680242539"><ele>123.0</ele><time>2026-04-18T14:44:04.999Z</time></trkpt><trkpt lat="45.81592182001802" lon="11.921101112430168"><ele>124.5</ele><time>2026-04-18T14:44:05.999Z</time></trkpt><trkpt lat="45.81567137976126" lon="11.920868153914544"><ele>126.0</ele><time>2026-04-18T14:44:06.999Z</time></trkpt><trkpt lat="45.815421731941996" lon="11.920640530081508"><ele>126.0</ele><time>2026-04-18T14:44:07.999Z</time></trkpt><trkpt lat="45.815186033957836" lon="11.920418338077997"><ele>126.0</ele><time>2026-04-18T14:44:08.999Z</time></trkpt><trkpt lat="45.81499090559279" lon="11.920199607310206"><ele>126.66666666666666</ele><time>2026-04-18T14:44:09.999Z</time></trkpt><trkpt lat="45.814808403059544" lon="11.919989389401529"><ele>127.33333333333333</ele><time>2026-04-18T14:44:10.999Z</time></trkpt><trkpt lat="45.814663486698954" lon="11.919796513968619"><ele>128.0</ele><time>2026-04-18T14:44:11.999Z</time></trkpt><trkpt lat="45.81454471432332" lon="11.919574210715277"><ele>128.0</ele><time>2026-04-18T14:44:12.999Z</time></trkpt><trkpt lat="45.8144143126664" lon="11.919323067186363"><ele>128.0</ele><time>2026-04-18T14:44:13.999Z</time></trkpt><trkpt lat="45.814327564251975" lon="11.919092179668775"><ele>128.0</ele><time>2026-04-18T14:44:14.999Z</time></trkpt><trkpt lat="45.814235804357125" lon="11.918838565947022"><ele>128.0</ele><time>2026-04-18T14:44:15.999Z</time></trkpt><trkpt lat="45.81414516864025" lon="11.918585486029995"><ele>128.0</ele><time>2026-04-18T14:44:16.999Z</time></trkpt><trkpt lat="45.81404408571058" lon="11.9183456825979"><ele>128.0</ele><time>2026-04-18T14:44:17.999Z</time></trkpt><trkpt lat="45.81397116846159" lon="11.918100505101599"><ele>128.0</ele><time>2026-04-18T14:44:18.999Z</time></trkpt><trkpt lat="45.813866592426315" lon="11.917857120116048"><ele>128.0</ele><time>2026-04-18T14:44:19.999Z</time></trkpt><trkpt lat="45.81378025774694" lon="11.917616987139592"><ele>128.0</ele><time>2026-04-18T14:44:20.999Z</time></trkpt><trkpt lat="45.813699977157945" lon="11.917362058655037"><ele>126.0</ele><time>2026-04-18T14:44:21.999Z</time></trkpt><trkpt lat="45.81360989418227" lon="11.917118313466375"><ele>124.0</ele><time>2026-04-18T14:44:22.999Z</time></trkpt><trkpt lat="45.813522293753785" lon="11.916878826034278"><ele>122.0</ele><time>2026-04-18T14:44:23.999Z</time></trkpt><trkpt lat="45.81343386268113" lon="11.916644039566364"><ele>126.33333333333333</ele><time>2026-04-18T14:44:24.999Z</time></trkpt><trkpt lat="45.8133482613916" lon="11.91640269042078"><ele>130.66666666666666</ele><time>2026-04-18T14:44:25.999Z</time></trkpt><trkpt lat="45.81327101735846" lon="11.916164813519167"><ele>135.0</ele><time>2026-04-18T14:44:26.999Z</time></trkpt><trkpt lat="45.813188069189344" lon="11.915924245826817"><ele>130.66666666666666</ele><time>2026-04-18T14:44:27.999Z</time></trkpt><trkpt lat="45.8130925057671" lon="11.915678914271682"><ele>126.33333333333333</ele><time>2026-04-18T14:44:28.999Z</time></trkpt><trkpt lat="45.8130086219513" lon="11.915434483905285"><ele>122.0</ele><time>2026-04-18T14:44:29.999Z</time></trkpt><trkpt lat="45.81292504623684" lon="11.915196046480476"><ele>120.0</ele><time>2026-04-18T14:44:30.999Z</time></trkpt><trkpt lat="45.81284484248149" lon="11.91495985596587"><ele>118.0</ele><time>2026-04-18T14:44:31.999Z</time></trkpt><trkpt lat="45.81276088799724" lon="11.914728809096157"><ele>116.0</ele><time>2026-04-18T14:44:32.999Z</time></trkpt><trkpt lat="45.812674688674356" lon="11.914491710893078"><ele>117.0</ele><time>2026-04-18T14:44:33.999Z</time></trkpt><trkpt lat="45.81258674610642" lon="11.91426184014257"><ele>118.0</ele><time>2026-04-18T14:44:34.999Z</time></trkpt><trkpt lat="45.81249568075092" lon="11.91402193151666"><ele>119.0</ele><time>2026-04-18T14:44:35.999Z</time></trkpt><trkpt lat="45.812407167631946" lon="11.91377733382635"><ele>119.0</ele><time>2026-04-18T14:44:36.999Z</time></trkpt><trkpt lat="45.81232330575867" lon="11.91353507458887"><ele>119.0</ele><time>2026-04-18T14:44:37.999Z</time></trkpt><trkpt lat="45.81223355986638" lon="11.91328439800434"><ele>119.0</ele><time>2026-04-18T14:44:38.999Z</time></trkpt><trkpt lat="45.81214774145201" lon="11.91302969826769"><ele>118.0</ele><time>2026-04-18T14:44:39.999Z</time></trkpt><trkpt lat="45.81206156958656" lon="11.912776070790674"><ele>117.0</ele><time>2026-04-18T14:44:40.999Z</time></trkpt><trkpt lat="45.81200258601261" lon="11.912514406308908"><ele>116.0</ele><time>2026-04-18T14:44:41.999Z</time></trkpt><trkpt lat="45.81193139397255" lon="11.912267507145964"><ele>115.0</ele><time>2026-04-18T14:44:42.999Z</time></trkpt><trkpt lat="45.811864015902316" lon="11.912022876178929"><ele>114.0</ele><time>2026-04-18T14:44:43.999Z</time></trkpt><trkpt lat="45.811805031731225" lon="11.911788609663047"><ele>113.0</ele><time>2026-04-18T14:44:44.999Z</time></trkpt><trkpt lat="45.811738549723614" lon="11.911559489354751"><ele>117.0</ele><time>2026-04-18T14:44:45.999Z</time></trkpt><trkpt lat="45.81167892241677" lon="11.91133647966287"><ele>121.0</ele><time>2026-04-18T14:44:46.999Z</time></trkpt><trkpt lat="45.81162276790144" lon="11.911119854383848"><ele>125.0</ele><time>2026-04-18T14:44:47.999Z</time></trkpt><trkpt lat="45.81156855163544" lon="11.910910169243389"><ele>123.25</ele><time>2026-04-18T14:44:48.999Z</time></trkpt><trkpt lat="45.81151176873717" lon="11.910711862782367"><ele>121.5</ele><time>2026-04-18T14:44:49.999Z</time></trkpt><trkpt lat="45.81146204228237" lon="11.910518691893161"><ele>119.75</ele><time>2026-04-18T14:44:50.999Z</time></trkpt><trkpt lat="45.81140708361699" lon="11.910338063774548"><ele>118.0</ele><time>2026-04-18T14:44:51.999Z</time></trkpt><trkpt lat="45.81135231567499" lon="11.910159290038845"><ele>117.4</ele><time>2026-04-18T14:44:52.999Z</time></trkpt><trkpt lat="45.81129830641205" lon="11.909987196185291"><ele>116.80000000000001</ele><time>2026-04-18T14:44:53.999Z</time></trkpt><trkpt lat="45.81124636058458" lon="11.909837277820925"><ele>116.2</ele><time>2026-04-18T14:44:54.999Z</time></trkpt><trkpt lat="45.81122581122511" lon="11.909721759350605"><ele>115.6</ele><time>2026-04-18T14:44:55.999Z</time></trkpt><trkpt lat="45.81116829098972" lon="11.90965688268918"><ele>115.0</ele><time>2026-04-18T14:44:56.999Z</time></trkpt><trkpt lat="45.81110010953333" lon="11.909577161961913"><ele>115.0</ele><time>2026-04-18T14:44:58.999Z</time></trkpt><trkpt lat="45.811049274684436" lon="11.909636352599405"><ele>115.0</ele><time>2026-04-18T14:49:46Z</time></trkpt><trkpt lat="45.811130470261276" lon="11.909699371833847"><ele>115.0</ele><time>2026-04-18T14:50:19Z</time></trkpt><trkpt lat="45.811222364561054" lon="11.909790461623707"><ele>115.0</ele><time>2026-04-18T14:50:26Z</time></trkpt><trkpt lat="45.81126463898454" lon="11.909973523828683"><ele>115.0</ele><time>2026-04-18T14:50:27.999Z</time></trkpt><trkpt lat="45.81129583806098" lon="11.910083188657156"><ele>115.6</ele><time>2026-04-18T14:50:28.999Z</time></trkpt><trkpt lat="45.811328964868764" lon="11.9102312556442"><ele>116.2</ele><time>2026-04-18T14:50:29.999Z</time></trkpt><trkpt lat="45.81136246647849" lon="11.910365221977987"><ele>116.80000000000001</ele><time>2026-04-18T14:50:30.999Z</time></trkpt><trkpt lat="45.811400558614025" lon="11.910503114299935"><ele>117.4</ele><time>2026-04-18T14:50:31.999Z</time></trkpt><trkpt lat="45.8114421959876" lon="11.910655935013985"><ele>118.0</ele><time>2026-04-18T14:50:32.999Z</time></trkpt><trkpt lat="45.811487516763364" lon="11.910843730393019"><ele>119.75</ele><time>2026-04-18T14:50:33.999Z</time></trkpt><trkpt lat="45.811538134906336" lon="11.911041189260375"><ele>121.5</ele><time>2026-04-18T14:50:34.999Z</time></trkpt><trkpt lat="45.81159033774799" lon="11.911227308547735"><ele>123.25</ele><time>2026-04-18T14:50:35.999Z</time></trkpt><trkpt lat="45.81163867737294" lon="11.911409684326019"><ele>125.0</ele><time>2026-04-18T14:50:36.999Z</time></trkpt><trkpt lat="45.81168939061053" lon="11.911599278400333"><ele>126.25</ele><time>2026-04-18T14:50:37.999Z</time></trkpt><trkpt lat="45.8117475714917" lon="11.911793036088003"><ele>127.5</ele><time>2026-04-18T14:50:38.999Z</time></trkpt><trkpt lat="45.81180099934106" lon="11.911999493124371"><ele>128.75</ele><time>2026-04-18T14:50:39.999Z</time></trkpt><trkpt lat="45.81185085730146" lon="11.912193664266523"><ele>130.0</ele><time>2026-04-18T14:50:40.999Z</time></trkpt><trkpt lat="45.81190099193677" lon="11.912409751326093"><ele>125.33333333333334</ele><time>2026-04-18T14:50:41.999Z</time></trkpt><trkpt lat="45.811971939247165" lon="11.9126094649107"><ele>120.66666666666666</ele><time>2026-04-18T14:50:42.999Z</time></trkpt><trkpt lat="45.81202285487095" lon="11.912801868029296"><ele>116.0</ele><time>2026-04-18T14:50:43.999Z</time></trkpt><trkpt lat="45.812091699580954" lon="11.913009651178212"><ele>116.0</ele><time>2026-04-18T14:50:44.999Z</time></trkpt><trkpt lat="45.81215936515622" lon="11.913208401720508"><ele>116.0</ele><time>2026-04-18T14:50:45.999Z</time></trkpt><trkpt lat="45.81223915034934" lon="11.913415905352057"><ele>116.0</ele><time>2026-04-18T14:50:46.999Z</time></trkpt><trkpt lat="45.81231442052277" lon="11.913635831362114"><ele>117.0</ele><time>2026-04-18T14:50:47.999Z</time></trkpt><trkpt lat="45.81239039218062" lon="11.913838232787274"><ele>118.0</ele><time>2026-04-18T14:50:48.999Z</time></trkpt><trkpt lat="45.81246481404471" lon="11.914040731629974"><ele>119.0</ele><time>2026-04-18T14:50:49.999Z</time></trkpt><trkpt lat="45.81253978938459" lon="11.914244677218951"><ele>118.0</ele><time>2026-04-18T14:50:50.999Z</time></trkpt><trkpt lat="45.812611479330684" lon="11.914446546200395"><ele>117.0</ele><time>2026-04-18T14:50:51.999Z</time></trkpt><trkpt lat="45.81268276624837" lon="11.914650489587242"><ele>116.0</ele><time>2026-04-18T14:50:52.999Z</time></trkpt><trkpt lat="45.81275548561207" lon="11.914861433746772"><ele>118.0</ele><time>2026-04-18T14:50:53.999Z</time></trkpt><trkpt lat="45.812830081695076" lon="11.91507776080659"><ele>120.0</ele><time>2026-04-18T14:50:54.999Z</time></trkpt><trkpt lat="45.81290769413181" lon="11.915306718588578"><ele>122.0</ele><time>2026-04-18T14:50:55.999Z</time></trkpt><trkpt lat="45.81298861189422" lon="11.915537951052467"><ele>122.0</ele><time>2026-04-18T14:50:56.999Z</time></trkpt><trkpt lat="45.813068924472404" lon="11.915765709637858"><ele>122.0</ele><time>2026-04-18T14:50:57.999Z</time></trkpt><trkpt lat="45.81314330246413" lon="11.915980836820399"><ele>122.0</ele><time>2026-04-18T14:50:58.999Z</time></trkpt><trkpt lat="45.813213977010626" lon="11.916184469493542"><ele>126.33333333333333</ele><time>2026-04-18T14:50:59.999Z</time></trkpt><trkpt lat="45.8132904757056" lon="11.91639594117243"><ele>130.66666666666666</ele><time>2026-04-18T14:51:00.999Z</time></trkpt><trkpt lat="45.81336208540878" lon="11.91660168044804"><ele>135.0</ele><time>2026-04-18T14:51:01.999Z</time></trkpt><trkpt lat="45.81343960506942" lon="11.91681353855853"><ele>130.66666666666666</ele><time>2026-04-18T14:51:02.999Z</time></trkpt><trkpt lat="45.81351918664624" lon="11.917030201615074"><ele>126.33333333333333</ele><time>2026-04-18T14:51:03.999Z</time></trkpt><trkpt lat="45.813600337033876" lon="11.917257876473416"><ele>122.0</ele><time>2026-04-18T14:51:04.999Z</time></trkpt><trkpt lat="45.813680257528105" lon="11.917491646052488"><ele>124.0</ele><time>2026-04-18T14:51:05.999Z</time></trkpt><trkpt lat="45.81376373647761" lon="11.917697833660943"><ele>126.0</ele><time>2026-04-18T14:51:06.999Z</time></trkpt><trkpt lat="45.81384252525365" lon="11.917910734924662"><ele>128.0</ele><time>2026-04-18T14:51:07.999Z</time></trkpt><trkpt lat="45.81391517287868" lon="11.918129314233727"><ele>128.0</ele><time>2026-04-18T14:51:08.999Z</time></trkpt><trkpt lat="45.81399601592269" lon="11.918349200328683"><ele>128.0</ele><time>2026-04-18T14:51:09.999Z</time></trkpt><trkpt lat="45.814071304152705" lon="11.918569307046223"><ele>128.0</ele><time>2026-04-18T14:51:10.999Z</time></trkpt><trkpt lat="45.81414778083416" lon="11.9187848962022"><ele>128.0</ele><time>2026-04-18T14:51:11.999Z</time></trkpt><trkpt lat="45.8142232562137" lon="11.91899010056735"><ele>128.0</ele><time>2026-04-18T14:51:12.999Z</time></trkpt><trkpt lat="45.814271318021454" lon="11.919209374835292"><ele>128.0</ele><time>2026-04-18T14:51:13.999Z</time></trkpt><trkpt lat="45.81436411077446" lon="11.919397913812828"><ele>128.0</ele><time>2026-04-18T14:51:14.999Z</time></trkpt><trkpt lat="45.81444192630872" lon="11.919557513961728"><ele>128.0</ele><time>2026-04-18T14:51:15.999Z</time></trkpt><trkpt lat="45.8145321625687" lon="11.919716781237327"><ele>128.0</ele><time>2026-04-18T14:51:16.999Z</time></trkpt><trkpt lat="45.814635828359926" lon="11.919876332607286"><ele>128.0</ele><time>2026-04-18T14:51:17.999Z</time></trkpt><trkpt lat="45.81475128040336" lon="11.920031705372358"><ele>131.33333333333331</ele><time>2026-04-18T14:51:18.999Z</time></trkpt><trkpt lat="45.81486535096959" lon="11.920172007249311"><ele>134.66666666666666</ele><time>2026-04-18T14:51:19.999Z</time></trkpt><trkpt lat="45.814995439288744" lon="11.920322068054622"><ele>138.0</ele><time>2026-04-18T14:51:20.999Z</time></trkpt><trkpt lat="45.81512855437566" lon="11.920464362530913"><ele>134.0</ele><time>2026-04-18T14:51:21.999Z</time></trkpt><trkpt lat="45.81526569977883" lon="11.920614877475385"><ele>130.0</ele><time>2026-04-18T14:51:22.999Z</time></trkpt><trkpt lat="45.815408064624044" lon="11.92075065240561"><ele>126.0</ele><time>2026-04-18T14:51:23.999Z</time></trkpt><trkpt lat="45.815555190531015" lon="11.920898683872222"><ele>128.0</ele><time>2026-04-18T14:51:24.999Z</time></trkpt><trkpt lat="45.8157005181387" lon="11.92103359834182"><ele>130.0</ele><time>2026-04-18T14:51:25.999Z</time></trkpt><trkpt lat="45.815846362345745" lon="11.921171204267013"><ele>132.0</ele><time>2026-04-18T14:51:26.999Z</time></trkpt><trkpt lat="45.8159839783366" lon="11.921302945426726"><ele>129.0</ele><time>2026-04-18T14:51:27.999Z</time></trkpt><trkpt lat="45.81612860666503" lon="11.921438754123825"><ele>126.0</ele><time>2026-04-18T14:51:28.999Z</time></trkpt><trkpt lat="45.81627472995006" lon="11.921575724978188"><ele>123.0</ele><time>2026-04-18T14:51:29.999Z</time></trkpt><trkpt lat="45.81641961740063" lon="11.92171388721862"><ele>125.33333333333334</ele><time>2026-04-18T14:51:30.999Z</time></trkpt><trkpt lat="45.81656072976145" lon="11.921841124402548"><ele>127.66666666666667</ele><time>2026-04-18T14:51:31.999Z</time></trkpt><trkpt lat="45.816688746109755" lon="11.921962590637584"><ele>130.0</ele><time>2026-04-18T14:51:32.999Z</time></trkpt><trkpt lat="45.816805762016806" lon="11.92206671464874"><ele>128.4</ele><time>2026-04-18T14:51:33.999Z</time></trkpt><trkpt lat="45.8169202001132" lon="11.922160171664231"><ele>126.8</ele><time>2026-04-18T14:51:34.999Z</time></trkpt><trkpt lat="45.81701564729863" lon="11.922233308780203"><ele>125.19999999999999</ele><time>2026-04-18T14:51:36Z</time></trkpt><trkpt lat="45.817105160218" lon="11.922307606312309"><ele>123.6</ele><time>2026-04-18T14:51:37Z</time></trkpt><trkpt lat="45.81719231445656" lon="11.922375390423136"><ele>122.0</ele><time>2026-04-18T14:51:38Z</time></trkpt><trkpt lat="45.817264431558584" lon="11.922423882054291"><ele>121.99999999999999</ele><time>2026-04-18T14:51:39Z</time></trkpt><trkpt lat="45.81734215993099" lon="11.92247558537073"><ele>122.0</ele><time>2026-04-18T14:51:40Z</time></trkpt><trkpt lat="45.81743282837212" lon="11.92252079401517"><ele>122.0</ele><time>2026-04-18T14:51:41Z</time></trkpt><trkpt lat="45.817518650364875" lon="11.92255937178379"><ele>122.0</ele><time>2026-04-18T14:51:42Z</time></trkpt><trkpt lat="45.81759070140684" lon="11.92257211165798"><ele>121.99999999999999</ele><time>2026-04-18T14:51:43Z</time></trkpt><trkpt lat="45.81765344002839" lon="11.922591420948402"><ele>122.0</ele><time>2026-04-18T14:51:44Z</time></trkpt><trkpt lat="45.81775484490496" lon="11.92263715489866"><ele>122.5</ele><time>2026-04-18T14:51:46Z</time></trkpt><trkpt lat="45.81778350225077" lon="11.922971670843488"><ele>123.0</ele><time>2026-04-18T14:51:48Z</time></trkpt><trkpt lat="45.817773605980605" lon="11.923111815365848"><ele>123.5</ele><time>2026-04-18T14:51:49Z</time></trkpt><trkpt lat="45.81774260201435" lon="11.92326989982041"><ele>124.0</ele><time>2026-04-18T14:51:50Z</time></trkpt><trkpt lat="45.817718123298015" lon="11.923424711916374"><ele>124.0</ele><time>2026-04-18T14:51:51Z</time></trkpt><trkpt lat="45.81769822804793" lon="11.923590701734614"><ele>124.0</ele><time>2026-04-18T14:51:52Z</time></trkpt><trkpt lat="45.81769279571385" lon="11.923774966883087"><ele>124.0</ele><time>2026-04-18T14:51:53Z</time></trkpt><trkpt lat="45.817710725592896" lon="11.923961461406867"><ele>124.0</ele><time>2026-04-18T14:51:54Z</time></trkpt><trkpt lat="45.817755732342086" lon="11.924137812799987"><ele>124.0</ele><time>2026-04-18T14:51:55Z</time></trkpt><trkpt lat="45.81782208251744" lon="11.924313340650038"><ele>124.0</ele><time>2026-04-18T14:51:56Z</time></trkpt><trkpt lat="45.81787381528588" lon="11.92449512571294"><ele>124.0</ele><time>2026-04-18T14:51:57Z</time></trkpt><trkpt lat="45.81793365906535" lon="11.924689791071067"><ele>124.0</ele><time>2026-04-18T14:51:58Z</time></trkpt><trkpt lat="45.81799941039006" lon="11.92488240857555"><ele>126.66666666666667</ele><time>2026-04-18T14:51:59Z</time></trkpt><trkpt lat="45.8180734274747" lon="11.925096448612743"><ele>129.33333333333334</ele><time>2026-04-18T14:52:00Z</time></trkpt><trkpt lat="45.81815114908124" lon="11.925310531532807"><ele>132.0</ele><time>2026-04-18T14:52:01Z</time></trkpt><trkpt lat="45.818223650423626" lon="11.92549429671474"><ele>132.0</ele><time>2026-04-18T14:52:02Z</time></trkpt><trkpt lat="45.8182768153249" lon="11.925656466923767"><ele>132.0</ele><time>2026-04-18T14:52:03Z</time></trkpt><trkpt lat="45.818335932490754" lon="11.925810840448108"><ele>132.0</ele><time>2026-04-18T14:52:04Z</time></trkpt><trkpt lat="45.81839713683045" lon="11.925973974152859"><ele>132.0</ele><time>2026-04-18T14:52:05Z</time></trkpt><trkpt lat="45.81845913385034" lon="11.926128546067254"><ele>129.66666666666666</ele><time>2026-04-18T14:52:06Z</time></trkpt><trkpt lat="45.81853968873686" lon="11.926312654906068"><ele>127.33333333333333</ele><time>2026-04-18T14:52:07Z</time></trkpt><trkpt lat="45.818609961096385" lon="11.926522555143311"><ele>125.0</ele><time>2026-04-18T14:52:08Z</time></trkpt><trkpt lat="45.818683896074496" lon="11.92672231819761"><ele>126.33333333333333</ele><time>2026-04-18T14:52:09Z</time></trkpt><trkpt lat="45.81879199884699" lon="11.926900841296899"><ele>127.66666666666666</ele><time>2026-04-18T14:52:10Z</time></trkpt><trkpt lat="45.81889981408671" lon="11.927099862354217"><ele>129.0</ele><time>2026-04-18T14:52:11Z</time></trkpt><trkpt lat="45.81900763709672" lon="11.927272922681905"><ele>129.0</ele><time>2026-04-18T14:52:12Z</time></trkpt><trkpt lat="45.81910302915803" lon="11.927451405213956"><ele>129.0</ele><time>2026-04-18T14:52:13Z</time></trkpt><trkpt lat="45.819190980873586" lon="11.927605546768984"><ele>129.0</ele><time>2026-04-18T14:52:14Z</time></trkpt><trkpt lat="45.81927981637345" lon="11.92768524730747"><ele>129.0</ele><time>2026-04-18T14:52:15Z</time></trkpt><trkpt lat="45.81938962604769" lon="11.927757355092794"><ele>128.0</ele><time>2026-04-18T14:52:16Z</time></trkpt><trkpt lat="45.81952546450681" lon="11.927763835100547"><ele>127.0</ele><time>2026-04-18T14:52:17Z</time></trkpt><trkpt lat="45.819671002428606" lon="11.927747312808371"><ele>126.0</ele><time>2026-04-18T14:52:18Z</time></trkpt><trkpt lat="45.81983978689536" lon="11.92775944385188"><ele>126.0</ele><time>2026-04-18T14:52:19Z</time></trkpt><trkpt lat="45.81998737130848" lon="11.92785135047792"><ele>126.0</ele><time>2026-04-18T14:52:20Z</time></trkpt><trkpt lat="45.8200932252207" lon="11.928044701247908"><ele>126.0</ele><time>2026-04-18T14:52:21Z</time></trkpt><trkpt lat="45.820177386226206" lon="11.928260754172218"><ele>130.0</ele><time>2026-04-18T14:52:22Z</time></trkpt><trkpt lat="45.820266216539245" lon="11.928507374773224"><ele>134.0</ele><time>2026-04-18T14:52:23Z</time></trkpt><trkpt lat="45.82035368075289" lon="11.928765634393372"><ele>138.0</ele><time>2026-04-18T14:52:24Z</time></trkpt><trkpt lat="45.82046916804004" lon="11.929004963580768"><ele>133.0</ele><time>2026-04-18T14:52:25Z</time></trkpt><trkpt lat="45.82060128702275" lon="11.929285343049974"><ele>128.0</ele><time>2026-04-18T14:52:26Z</time></trkpt><trkpt lat="45.820736269856276" lon="11.929575463112997"><ele>128.0</ele><time>2026-04-18T14:52:27Z</time></trkpt><trkpt lat="45.82089302374029" lon="11.929830927969949"><ele>128.0</ele><time>2026-04-18T14:52:28Z</time></trkpt><trkpt lat="45.82103451858155" lon="11.930062643904582"><ele>129.0</ele><time>2026-04-18T14:52:29Z</time></trkpt><trkpt lat="45.82118359471374" lon="11.930216399718498"><ele>130.0</ele><time>2026-04-18T14:52:30Z</time></trkpt><trkpt lat="45.82133337156727" lon="11.930357616864638"><ele>131.0</ele><time>2026-04-18T14:52:31Z</time></trkpt><trkpt lat="45.821534744748654" lon="11.9304392990349"><ele>131.0</ele><time>2026-04-18T14:52:32Z</time></trkpt><trkpt lat="45.82173337397754" lon="11.930524658341223"><ele>131.0</ele><time>2026-04-18T14:52:33Z</time></trkpt><trkpt lat="45.82193233552102" lon="11.930555781121583"><ele>131.0</ele><time>2026-04-18T14:52:33.999Z</time></trkpt><trkpt lat="45.82209512853341" lon="11.930666159365984"><ele>131.5</ele><time>2026-04-18T14:52:34.999Z</time></trkpt><trkpt lat="45.822196739202404" lon="11.930781700554368"><ele>132.0</ele><time>2026-04-18T14:52:35.999Z</time></trkpt><trkpt lat="45.82226782258648" lon="11.930941169818448"><ele>132.5</ele><time>2026-04-18T14:52:36.999Z</time></trkpt><trkpt lat="45.82230817488627" lon="11.931081768233902"><ele>133.0</ele><time>2026-04-18T14:52:37.999Z</time></trkpt><trkpt lat="45.822332716262835" lon="11.931226573517561"><ele>133.0</ele><time>2026-04-18T14:52:38.999Z</time></trkpt><trkpt lat="45.82236419671164" lon="11.93140146952227"><ele>133.0</ele><time>2026-04-18T14:52:39.999Z</time></trkpt><trkpt lat="45.82239233271032" lon="11.931543733991992"><ele>133.0</ele><time>2026-04-18T14:52:40.999Z</time></trkpt><trkpt lat="45.8224261713892" lon="11.931675389044111"><ele>133.0</ele><time>2026-04-18T14:52:41.999Z</time></trkpt><trkpt lat="45.822466991827106" lon="11.931808384690449"><ele>133.0</ele><time>2026-04-18T14:52:42.999Z</time></trkpt><trkpt lat="45.82249946895202" lon="11.93193164258741"><ele>133.16666666666669</ele><time>2026-04-18T14:52:43.999Z</time></trkpt><trkpt lat="45.82252608462631" lon="11.932028399612207"><ele>133.33333333333334</ele><time>2026-04-18T14:52:44.999Z</time></trkpt><trkpt lat="45.82254536908651" lon="11.932122255809654"><ele>133.5</ele><time>2026-04-18T14:52:45.999Z</time></trkpt><trkpt lat="45.822559059842774" lon="11.932288471617488"><ele>133.66666666666666</ele><time>2026-04-18T14:52:47.999Z</time></trkpt><trkpt lat="45.822557809952826" lon="11.932414781689594"><ele>133.83333333333331</ele><time>2026-04-18T14:52:49.999Z</time></trkpt><trkpt lat="45.822572983962935" lon="11.932516068614644"><ele>134.0</ele><time>2026-04-18T14:58:09Z</time></trkpt><trkpt lat="45.822630023221905" lon="11.932593712596884"><ele>134.0</ele><time>2026-04-18T14:58:13Z</time></trkpt><trkpt lat="45.82265171819659" lon="11.932681859904926"><ele>134.0</ele><time>2026-04-18T14:58:15Z</time></trkpt><trkpt lat="45.822572524973104" lon="11.93271610260289"><ele>134.0</ele><time>2026-04-18T14:58:17Z</time></trkpt><trkpt lat="45.8224807088979" lon="11.932698883365301"><ele>134.0</ele><time>2026-04-18T14:58:20Z</time></trkpt><trkpt lat="45.82244990019833" lon="11.93254629943227"><ele>134.0</ele><time>2026-04-18T14:58:22Z</time></trkpt><trkpt lat="45.82244973873627" lon="11.932444700733699"><ele>134.0</ele><time>2026-04-18T14:58:23Z</time></trkpt><trkpt lat="45.82246327506439" lon="11.932356342645159"><ele>134.0</ele><time>2026-04-18T14:58:24Z</time></trkpt><trkpt lat="45.82245736076567" lon="11.932212547547001"><ele>134.0</ele><time>2026-04-18T14:58:26Z</time></trkpt><trkpt lat="45.822466300830314" lon="11.932027675803488"><ele>134.0</ele><time>2026-04-18T14:58:28Z</time></trkpt><trkpt lat="45.822427455295596" lon="11.931915214048677"><ele>134.0</ele><time>2026-04-18T14:58:29Z</time></trkpt><trkpt lat="45.82239688546839" lon="11.931791080652012"><ele>134.0</ele><time>2026-04-18T14:58:30Z</time></trkpt><trkpt lat="45.822365431811825" lon="11.931670158886753"><ele>134.0</ele><time>2026-04-18T14:58:31Z</time></trkpt><trkpt lat="45.82233900919922" lon="11.931561969035336"><ele>134.0</ele><time>2026-04-18T14:58:32Z</time></trkpt><trkpt lat="45.82229658462865" lon="11.931447903269481"><ele>134.0</ele><time>2026-04-18T14:58:34Z</time></trkpt><trkpt lat="45.8222294681978" lon="11.931530437904259"><ele>134.0</ele><time>2026-04-18T14:58:36Z</time></trkpt><trkpt lat="45.82222594846369" lon="11.931649215457519"><ele>134.0</ele><time>2026-04-18T14:58:37Z</time></trkpt><trkpt lat="45.82219320490271" lon="11.931513115329182"><ele>134.0</ele><time>2026-04-18T14:58:38Z</time></trkpt><trkpt lat="45.8222866590702" lon="11.931853833378435"><ele>134.0</ele><time>2026-04-18T14:58:39Z</time></trkpt><trkpt lat="45.82232004396997" lon="11.931998750522192"><ele>134.0</ele><time>2026-04-18T14:58:40Z</time></trkpt><trkpt lat="45.822345181755985" lon="11.932154295836444"><ele>134.0</ele><time>2026-04-18T14:58:41Z</time></trkpt><trkpt lat="45.82238565557987" lon="11.932282425840501"><ele>134.0</ele><time>2026-04-18T14:58:42Z</time></trkpt><trkpt lat="45.82241121369924" lon="11.932375912075388"><ele>134.0</ele><time>2026-04-18T14:58:43Z</time></trkpt><trkpt lat="45.82247731172461" lon="11.932471950589928"><ele>134.0</ele><time>2026-04-18T14:58:45Z</time></trkpt><trkpt lat="45.82256538806453" lon="11.932452133345638"><ele>134.0</ele><time>2026-04-18T14:58:47Z</time></trkpt><trkpt lat="45.8226154219941" lon="11.932364907255794"><ele>134.0</ele><time>2026-04-18T14:58:50Z</time></trkpt><trkpt lat="45.822722625974414" lon="11.932624974353947"><ele>134.0</ele><time>2026-04-18T14:58:53.999Z</time></trkpt><trkpt lat="45.82278757301576" lon="11.932769137557534"><ele>134.75</ele><time>2026-04-18T14:58:54.999Z</time></trkpt><trkpt lat="45.8228497942528" lon="11.932896165161923"><ele>135.5</ele><time>2026-04-18T14:58:55.999Z</time></trkpt><trkpt lat="45.82295149768787" lon="11.932991060350416"><ele>136.25</ele><time>2026-04-18T14:58:56.999Z</time></trkpt><trkpt lat="45.82307032843984" lon="11.93309880817531"><ele>137.0</ele><time>2026-04-18T14:58:57.999Z</time></trkpt><trkpt lat="45.82320376574754" lon="11.933176120232996"><ele>137.0</ele><time>2026-04-18T14:58:58.999Z</time></trkpt><trkpt lat="45.823337801351535" lon="11.933250099779242"><ele>137.0</ele><time>2026-04-18T14:58:59.999Z</time></trkpt><trkpt lat="45.82347357296869" lon="11.93335750800177"><ele>137.0</ele><time>2026-04-18T14:59:00.999Z</time></trkpt><trkpt lat="45.82358941050811" lon="11.933491710611953"><ele>137.0</ele><time>2026-04-18T14:59:01.999Z</time></trkpt><trkpt lat="45.82368979881806" lon="11.93363786661209"><ele>137.66666666666666</ele><time>2026-04-18T14:59:02.999Z</time></trkpt><trkpt lat="45.823764052228405" lon="11.933848501647942"><ele>138.33333333333334</ele><time>2026-04-18T14:59:03.999Z</time></trkpt><trkpt lat="45.82382810002157" lon="11.934047001359163"><ele>139.0</ele><time>2026-04-18T14:59:04.999Z</time></trkpt><trkpt lat="45.82388195493056" lon="11.934226701536913"><ele>139.0</ele><time>2026-04-18T14:59:05.999Z</time></trkpt><trkpt lat="45.82393356962399" lon="11.934381249356276"><ele>139.0</ele><time>2026-04-18T14:59:06.999Z</time></trkpt><trkpt lat="45.823991408982955" lon="11.934531987830262"><ele>139.0</ele><time>2026-04-18T14:59:07.999Z</time></trkpt><trkpt lat="45.82409360896643" lon="11.934691711385163"><ele>139.0</ele><time>2026-04-18T14:59:08.999Z</time></trkpt><trkpt lat="45.82419338595242" lon="11.934814877960788"><ele>139.0</ele><time>2026-04-18T14:59:09.999Z</time></trkpt><trkpt lat="45.824316453897914" lon="11.934946212648429"><ele>139.0</ele><time>2026-04-18T14:59:10.999Z</time></trkpt><trkpt lat="45.82446127169139" lon="11.935067270530528"><ele>139.0</ele><time>2026-04-18T14:59:11.999Z</time></trkpt><trkpt lat="45.8246120648918" lon="11.935206019698862"><ele>139.0</ele><time>2026-04-18T14:59:12.999Z</time></trkpt><trkpt lat="45.82475836774365" lon="11.935330922315663"><ele>139.0</ele><time>2026-04-18T14:59:13.999Z</time></trkpt><trkpt lat="45.824888149260595" lon="11.935449760065394"><ele>139.0</ele><time>2026-04-18T14:59:14.999Z</time></trkpt><trkpt lat="45.82498696407208" lon="11.935539120550764"><ele>139.0</ele><time>2026-04-18T14:59:15.999Z</time></trkpt><trkpt lat="45.82507392369282" lon="11.935610857416846"><ele>139.0</ele><time>2026-04-18T14:59:16.999Z</time></trkpt><trkpt lat="45.825132791755685" lon="11.935670828877525"><ele>139.0</ele><time>2026-04-18T14:59:17.999Z</time></trkpt><trkpt lat="45.82519426061122" lon="11.935747602301076"><ele>139.0</ele><time>2026-04-18T14:59:18.999Z</time></trkpt><trkpt lat="45.825236680375205" lon="11.935827098812714"><ele>139.0</ele><time>2026-04-18T14:59:20.999Z</time></trkpt><trkpt lat="45.82519931746452" lon="11.935703380013411"><ele>139.0</ele><time>2026-04-18T14:59:24.999Z</time></trkpt><trkpt lat="45.82507844250263" lon="11.935600472616091"><ele>139.0</ele><time>2026-04-18T14:59:26.999Z</time></trkpt><trkpt lat="45.82498426944514" lon="11.935534582691547"><ele>139.0</ele><time>2026-04-18T14:59:27.999Z</time></trkpt><trkpt lat="45.824874529099276" lon="11.935420706485088"><ele>139.0</ele><time>2026-04-18T14:59:28.999Z</time></trkpt><trkpt lat="45.824766708837245" lon="11.9353277131068"><ele>139.0</ele><time>2026-04-18T14:59:29.999Z</time></trkpt><trkpt lat="45.82464409355557" lon="11.935197576374037"><ele>139.0</ele><time>2026-04-18T14:59:30.999Z</time></trkpt><trkpt lat="45.82450982435461" lon="11.935049240682586"><ele>139.0</ele><time>2026-04-18T14:59:31.999Z</time></trkpt><trkpt lat="45.824361321796395" lon="11.934906812442554"><ele>139.0</ele><time>2026-04-18T14:59:32.999Z</time></trkpt><trkpt lat="45.82422322308499" lon="11.934760717252127"><ele>139.0</ele><time>2026-04-18T14:59:33.999Z</time></trkpt><trkpt lat="45.824114953739816" lon="11.934628041902466"><ele>139.0</ele><time>2026-04-18T14:59:34.999Z</time></trkpt><trkpt lat="45.824013916645015" lon="11.934450996776011"><ele>139.0</ele><time>2026-04-18T14:59:35.999Z</time></trkpt><trkpt lat="45.823928035705336" lon="11.934225106025552"><ele>139.0</ele><time>2026-04-18T14:59:36.999Z</time></trkpt><trkpt lat="45.823836257011635" lon="11.93402895701115"><ele>139.0</ele><time>2026-04-18T14:59:37.999Z</time></trkpt><trkpt lat="45.82379364825974" lon="11.933827504033273"><ele>139.0</ele><time>2026-04-18T14:59:38.999Z</time></trkpt><trkpt lat="45.82371488573854" lon="11.933644031580226"><ele>139.0</ele><time>2026-04-18T14:59:39.999Z</time></trkpt><trkpt lat="45.82361928297282" lon="11.933482724937301"><ele>139.0</ele><time>2026-04-18T14:59:40.999Z</time></trkpt><trkpt lat="45.823519980929376" lon="11.933348882833968"><ele>139.0</ele><time>2026-04-18T14:59:41.999Z</time></trkpt><trkpt lat="45.8233951639702" lon="11.933211978520596"><ele>139.0</ele><time>2026-04-18T14:59:42.999Z</time></trkpt><trkpt lat="45.82325244189618" lon="11.933145223460198"><ele>138.6</ele><time>2026-04-18T14:59:43.999Z</time></trkpt><trkpt lat="45.82312917525878" lon="11.933101431304111"><ele>138.2</ele><time>2026-04-18T14:59:44.999Z</time></trkpt><trkpt lat="45.82304240882485" lon="11.933015976779066"><ele>137.79999999999998</ele><time>2026-04-18T14:59:45.999Z</time></trkpt><trkpt lat="45.82295441229775" lon="11.932942150700248"><ele>137.4</ele><time>2026-04-18T14:59:46.999Z</time></trkpt><trkpt lat="45.822877169129825" lon="11.932855327495309"><ele>137.0</ele><time>2026-04-18T14:59:47.999Z</time></trkpt><trkpt lat="45.82280808119057" lon="11.932751673790749"><ele>137.0</ele><time>2026-04-18T14:59:48.999Z</time></trkpt><trkpt lat="45.82275028694386" lon="11.932636806171292"><ele>137.0</ele><time>2026-04-18T14:59:49.999Z</time></trkpt><trkpt lat="45.822702990869985" lon="11.932529300401754"><ele>137.0</ele><time>2026-04-18T14:59:50.999Z</time></trkpt><trkpt lat="45.82267378239129" lon="11.932429625223065"><ele>137.0</ele><time>2026-04-18T14:59:51.999Z</time></trkpt><trkpt lat="45.82263519702937" lon="11.93229890375485"><ele>137.0</ele><time>2026-04-18T14:59:53.999Z</time></trkpt><trkpt lat="45.82256690328864" lon="11.932365905741277"><ele>137.0</ele><time>2026-04-18T14:59:55.999Z</time></trkpt><trkpt lat="45.82255492839542" lon="11.932458846207272"><ele>136.5</ele><time>2026-04-18T14:59:57.999Z</time></trkpt><trkpt lat="45.82252388302636" lon="11.932537830905785"><ele>136.0</ele><time>2026-04-18T15:00:26Z</time></trkpt><trkpt lat="45.82255492252746" lon="11.932457556054946"><ele>135.5</ele><time>2026-04-18T15:01:22.999Z</time></trkpt><trkpt lat="45.822579073557996" lon="11.932552833189877"><ele>135.0</ele><time>2026-04-18T15:09:01Z</time></trkpt><trkpt lat="45.82262254823612" lon="11.93267964282391"><ele>134.5</ele><time>2026-04-18T15:09:04Z</time></trkpt><trkpt lat="45.82248554109495" lon="11.932593653702815"><ele>134.0</ele><time>2026-04-18T15:09:08Z</time></trkpt><trkpt lat="45.82246982072987" lon="11.93247865095041"><ele>134.0</ele><time>2026-04-18T15:09:09Z</time></trkpt><trkpt lat="45.8224618816459" lon="11.932356965708513"><ele>134.0</ele><time>2026-04-18T15:09:10Z</time></trkpt><trkpt lat="45.82244263491681" lon="11.932228602634732"><ele>134.0</ele><time>2026-04-18T15:09:11Z</time></trkpt><trkpt lat="45.82241578027392" lon="11.932114718889665"><ele>134.0</ele><time>2026-04-18T15:09:12Z</time></trkpt><trkpt lat="45.822401977030204" lon="11.931997384597016"><ele>134.0</ele><time>2026-04-18T15:09:13Z</time></trkpt><trkpt lat="45.82241427801036" lon="11.931881860929359"><ele>134.0</ele><time>2026-04-18T15:09:14Z</time></trkpt><trkpt lat="45.82241263821978" lon="11.931764067643124"><ele>133.83333333333331</ele><time>2026-04-18T15:09:15Z</time></trkpt><trkpt lat="45.82238856778951" lon="11.931648744165697"><ele>133.66666666666666</ele><time>2026-04-18T15:09:16Z</time></trkpt><trkpt lat="45.82236037708214" lon="11.931543976241421"><ele>133.5</ele><time>2026-04-18T15:09:17Z</time></trkpt><trkpt lat="45.82232116925158" lon="11.931412597508059"><ele>133.33333333333334</ele><time>2026-04-18T15:09:19Z</time></trkpt><trkpt lat="45.82226577115266" lon="11.931490869592047"><ele>133.16666666666669</ele><time>2026-04-18T15:09:24Z</time></trkpt><trkpt lat="45.822335063593115" lon="11.93157257932624"><ele>133.0</ele><time>2026-04-18T15:09:26Z</time></trkpt><trkpt lat="45.82237578275664" lon="11.93164881550133"><ele>133.20000000000002</ele><time>2026-04-18T15:09:28Z</time></trkpt><trkpt lat="45.82242220086204" lon="11.931795112611523"><ele>133.4</ele><time>2026-04-18T15:09:30Z</time></trkpt><trkpt lat="45.82243574779863" lon="11.931917623619867"><ele>133.60000000000002</ele><time>2026-04-18T15:09:32Z</time></trkpt><trkpt lat="45.822461770806946" lon="11.932045495518066"><ele>133.8</ele><time>2026-04-18T15:09:33.999Z</time></trkpt><trkpt lat="45.82249130282267" lon="11.932201145513103"><ele>134.0</ele><time>2026-04-18T15:09:35.999Z</time></trkpt><trkpt lat="45.822533558670685" lon="11.932331166192391"><ele>134.0</ele><time>2026-04-18T15:09:37.999Z</time></trkpt><trkpt lat="45.82256226393292" lon="11.932430866933347"><ele>134.0</ele><time>2026-04-18T15:09:39.999Z</time></trkpt><trkpt lat="45.8225396463272" lon="11.932519912378156"><ele>134.0</ele><time>2026-04-18T15:14:12.999Z</time></trkpt><trkpt lat="45.82256686800919" lon="11.93262098787979"><ele>134.0</ele><time>2026-04-18T15:14:21.999Z</time></trkpt><trkpt lat="45.82254230645523" lon="11.932736115707177"><ele>134.0</ele><time>2026-04-18T15:14:24.999Z</time></trkpt><trkpt lat="45.82247772550507" lon="11.932539191549854"><ele>134.0</ele><time>2026-04-18T15:14:27.999Z</time></trkpt><trkpt lat="45.822471850251105" lon="11.932408325428558"><ele>134.0</ele><time>2026-04-18T15:14:28.999Z</time></trkpt><trkpt lat="45.82246078528607" lon="11.932262665202872"><ele>134.0</ele><time>2026-04-18T15:14:29.999Z</time></trkpt><trkpt lat="45.822438066748106" lon="11.932135588074622"><ele>134.0</ele><time>2026-04-18T15:14:30.999Z</time></trkpt><trkpt lat="45.822421521689364" lon="11.93201928207421"><ele>134.0</ele><time>2026-04-18T15:14:31.999Z</time></trkpt><trkpt lat="45.82243885362721" lon="11.931906903703878"><ele>134.0</ele><time>2026-04-18T15:14:34.999Z</time></trkpt><trkpt lat="45.82241304308605" lon="11.931818000975916"><ele>134.0</ele><time>2026-04-18T15:14:36.999Z</time></trkpt><trkpt lat="45.822407536975206" lon="11.93172626850336"><ele>134.0</ele><time>2026-04-18T15:14:38.999Z</time></trkpt><trkpt lat="45.82237267786448" lon="11.931634878164719"><ele>134.0</ele><time>2026-04-18T15:14:43Z</time></trkpt><trkpt lat="45.822307822804525" lon="11.931581127751455"><ele>134.0</ele><time>2026-04-18T15:14:44Z</time></trkpt><trkpt lat="45.82227998914535" lon="11.931452219013284"><ele>134.0</ele><time>2026-04-18T15:14:46Z</time></trkpt><trkpt lat="45.822363144182034" lon="11.931578691870728"><ele>134.0</ele><time>2026-04-18T15:14:52Z</time></trkpt><trkpt lat="45.82239641012709" lon="11.931688244425757"><ele>134.0</ele><time>2026-04-18T15:14:55Z</time></trkpt><trkpt lat="45.822412733918036" lon="11.931828981651675"><ele>134.0</ele><time>2026-04-18T15:14:57Z</time></trkpt><trkpt lat="45.82243943108832" lon="11.93192279307702"><ele>134.0</ele><time>2026-04-18T15:14:58Z</time></trkpt><trkpt lat="45.82247108307957" lon="11.93204356267584"><ele>134.0</ele><time>2026-04-18T15:14:59Z</time></trkpt><trkpt lat="45.82250330194068" lon="11.932163437119165"><ele>134.0</ele><time>2026-04-18T15:15:00Z</time></trkpt><trkpt lat="45.822518907977525" lon="11.932298831365873"><ele>134.0</ele><time>2026-04-18T15:15:06Z</time></trkpt><trkpt lat="45.82255144832121" lon="11.93239781308092"><ele>134.6</ele><time>2026-04-18T15:15:08Z</time></trkpt><trkpt lat="45.822708542895036" lon="11.932557237596304"><ele>135.2</ele><time>2026-04-18T15:22:57.999Z</time></trkpt><trkpt lat="45.82273765109716" lon="11.932658851204739"><ele>135.79999999999998</ele><time>2026-04-18T15:22:58.999Z</time></trkpt><trkpt lat="45.822785830306856" lon="11.932766594058323"><ele>136.4</ele><time>2026-04-18T15:22:59.999Z</time></trkpt><trkpt lat="45.822829869755985" lon="11.932863740716757"><ele>137.0</ele><time>2026-04-18T15:23:00.999Z</time></trkpt><trkpt lat="45.82290890107046" lon="11.932958329190182"><ele>137.0</ele><time>2026-04-18T15:23:01.999Z</time></trkpt><trkpt lat="45.822998021278266" lon="11.933045482345944"><ele>137.0</ele><time>2026-04-18T15:23:02.999Z</time></trkpt><trkpt lat="45.82309842206669" lon="11.933110084853737"><ele>137.0</ele><time>2026-04-18T15:23:03.999Z</time></trkpt><trkpt lat="45.823204649523234" lon="11.933177800477836"><ele>137.0</ele><time>2026-04-18T15:23:04.999Z</time></trkpt><trkpt lat="45.8233292139083" lon="11.933263183907117"><ele>137.66666666666666</ele><time>2026-04-18T15:23:06Z</time></trkpt><trkpt lat="45.82352194443626" lon="11.933406372367394"><ele>138.33333333333334</ele><time>2026-04-18T15:23:07Z</time></trkpt><trkpt lat="45.82363782321576" lon="11.933570841527159"><ele>139.0</ele><time>2026-04-18T15:23:08Z</time></trkpt><trkpt lat="45.82375287856882" lon="11.933790880471218"><ele>139.0</ele><time>2026-04-18T15:23:09Z</time></trkpt><trkpt lat="45.8238544539896" lon="11.934138167968621"><ele>139.0</ele><time>2026-04-18T15:23:10Z</time></trkpt><trkpt lat="45.82395150612345" lon="11.934428963357396"><ele>139.0</ele><time>2026-04-18T15:23:11Z</time></trkpt><trkpt lat="45.82404690229244" lon="11.934592850173859"><ele>139.0</ele><time>2026-04-18T15:23:12Z</time></trkpt><trkpt lat="45.824159636739616" lon="11.934746888333045"><ele>139.0</ele><time>2026-04-18T15:23:13Z</time></trkpt><trkpt lat="45.824266793715964" lon="11.934885642300811"><ele>139.0</ele><time>2026-04-18T15:23:14Z</time></trkpt><trkpt lat="45.824403022216416" lon="11.935001869469504"><ele>139.0</ele><time>2026-04-18T15:23:15Z</time></trkpt><trkpt lat="45.82453692732869" lon="11.935132443807628"><ele>139.0</ele><time>2026-04-18T15:23:16Z</time></trkpt><trkpt lat="45.824658225149726" lon="11.935238555851443"><ele>139.0</ele><time>2026-04-18T15:23:17Z</time></trkpt><trkpt lat="45.824777863160726" lon="11.935363983969754"><ele>139.0</ele><time>2026-04-18T15:23:18Z</time></trkpt><trkpt lat="45.82490504861624" lon="11.935466496463874"><ele>139.0</ele><time>2026-04-18T15:23:19Z</time></trkpt><trkpt lat="45.82503496975436" lon="11.935596847607503"><ele>139.0</ele><time>2026-04-18T15:23:20Z</time></trkpt><trkpt lat="45.82514813861027" lon="11.935677636298513"><ele>139.0</ele><time>2026-04-18T15:23:21Z</time></trkpt><trkpt lat="45.82523180259175" lon="11.93582771424673"><ele>140.25</ele><time>2026-04-18T15:23:22Z</time></trkpt><trkpt lat="45.82529968541706" lon="11.935972977388667"><ele>141.5</ele><time>2026-04-18T15:23:23Z</time></trkpt><trkpt lat="45.82536832756603" lon="11.936185023356902"><ele>142.75</ele><time>2026-04-18T15:23:24Z</time></trkpt><trkpt lat="45.82541135817731" lon="11.936412414010269"><ele>144.0</ele><time>2026-04-18T15:23:25Z</time></trkpt><trkpt lat="45.82543557885344" lon="11.936640013258012"><ele>144.66666666666666</ele><time>2026-04-18T15:23:26Z</time></trkpt><trkpt lat="45.82543152831033" lon="11.936869043821908"><ele>145.33333333333331</ele><time>2026-04-18T15:23:27Z</time></trkpt><trkpt lat="45.825411772786765" lon="11.937097347374303"><ele>146.0</ele><time>2026-04-18T15:23:28Z</time></trkpt><trkpt lat="45.82541344341318" lon="11.937316633399824"><ele>146.0</ele><time>2026-04-18T15:23:29Z</time></trkpt><trkpt lat="45.8254421659032" lon="11.937538762204097"><ele>146.0</ele><time>2026-04-18T15:23:30Z</time></trkpt><trkpt lat="45.825520241518795" lon="11.937746777999196"><ele>146.0</ele><time>2026-04-18T15:23:31Z</time></trkpt><trkpt lat="45.82556787448222" lon="11.937951093616414"><ele>145.75</ele><time>2026-04-18T15:23:32Z</time></trkpt><trkpt lat="45.8256188059336" lon="11.938156482564686"><ele>145.5</ele><time>2026-04-18T15:23:33Z</time></trkpt><trkpt lat="45.82566967673802" lon="11.938344551548935"><ele>145.25</ele><time>2026-04-18T15:23:34Z</time></trkpt><trkpt lat="45.82571507805852" lon="11.938517161771784"><ele>145.0</ele><time>2026-04-18T15:23:35Z</time></trkpt><trkpt lat="45.82577091834051" lon="11.938668726040541"><ele>144.75</ele><time>2026-04-18T15:23:36Z</time></trkpt><trkpt lat="45.825859227005445" lon="11.93877464866175"><ele>144.5</ele><time>2026-04-18T15:23:37Z</time></trkpt><trkpt lat="45.82597167602049" lon="11.93881326053943"><ele>144.25</ele><time>2026-04-18T15:23:38Z</time></trkpt><trkpt lat="45.82610251615092" lon="11.938781073990949"><ele>144.0</ele><time>2026-04-18T15:23:39Z</time></trkpt><trkpt lat="45.82623181055292" lon="11.938690922412238"><ele>144.0</ele><time>2026-04-18T15:23:40Z</time></trkpt><trkpt lat="45.82635877037087" lon="11.93860040764324"><ele>144.0</ele><time>2026-04-18T15:23:41Z</time></trkpt><trkpt lat="45.826506058267135" lon="11.938522491562502"><ele>144.0</ele><time>2026-04-18T15:23:42Z</time></trkpt><trkpt lat="45.82666014949126" lon="11.938458512089833"><ele>144.0</ele><time>2026-04-18T15:23:43Z</time></trkpt><trkpt lat="45.82680569842352" lon="11.938438379539923"><ele>144.0</ele><time>2026-04-18T15:23:44Z</time></trkpt><trkpt lat="45.82696229992967" lon="11.938384415763563"><ele>144.0</ele><time>2026-04-18T15:23:45Z</time></trkpt><trkpt lat="45.827117806144" lon="11.938461077000893"><ele>144.33333333333334</ele><time>2026-04-18T15:23:46Z</time></trkpt><trkpt lat="45.82725486942333" lon="11.938548601027136"><ele>144.66666666666669</ele><time>2026-04-18T15:23:47Z</time></trkpt><trkpt lat="45.8273808621516" lon="11.938691550915921"><ele>145.0</ele><time>2026-04-18T15:23:48Z</time></trkpt><trkpt lat="45.827491977655946" lon="11.938917097802605"><ele>145.0</ele><time>2026-04-18T15:23:49Z</time></trkpt><trkpt lat="45.82763548778943" lon="11.9390935607064"><ele>145.0</ele><time>2026-04-18T15:23:50Z</time></trkpt><trkpt lat="45.82775636596571" lon="11.939264511588982"><ele>145.0</ele><time>2026-04-18T15:23:51Z</time></trkpt><trkpt lat="45.82786229177386" lon="11.939418204398427"><ele>145.0</ele><time>2026-04-18T15:23:52Z</time></trkpt><trkpt lat="45.82797158177421" lon="11.939575823494948"><ele>145.0</ele><time>2026-04-18T15:23:53Z</time></trkpt><trkpt lat="45.82808730157716" lon="11.939739505154417"><ele>145.0</ele><time>2026-04-18T15:23:54Z</time></trkpt><trkpt lat="45.82820579223681" lon="11.939895122845275"><ele>145.0</ele><time>2026-04-18T15:23:55Z</time></trkpt><trkpt lat="45.82831999022106" lon="11.940038581213667"><ele>145.0</ele><time>2026-04-18T15:23:56Z</time></trkpt><trkpt lat="45.82844026843007" lon="11.94020192253743"><ele>145.0</ele><time>2026-04-18T15:23:57Z</time></trkpt><trkpt lat="45.828552353851215" lon="11.940364194517768"><ele>145.5</ele><time>2026-04-18T15:23:58Z</time></trkpt><trkpt lat="45.82866068556039" lon="11.940499267783538"><ele>146.0</ele><time>2026-04-18T15:23:59Z</time></trkpt><trkpt lat="45.828748198214846" lon="11.940669989400439"><ele>146.5</ele><time>2026-04-18T15:23:59.999Z</time></trkpt><trkpt lat="45.828858152254455" lon="11.940792718974043"><ele>147.0</ele><time>2026-04-18T15:24:00.999Z</time></trkpt><trkpt lat="45.82896298756106" lon="11.9409166668742"><ele>147.0</ele><time>2026-04-18T15:24:01.999Z</time></trkpt><trkpt lat="45.82906426009204" lon="11.941014843255264"><ele>147.0</ele><time>2026-04-18T15:24:02.999Z</time></trkpt><trkpt lat="45.82916144740015" lon="11.94111025073479"><ele>147.0</ele><time>2026-04-18T15:24:03.999Z</time></trkpt><trkpt lat="45.82927339285855" lon="11.941176933031194"><ele>147.0</ele><time>2026-04-18T15:24:04.999Z</time></trkpt><trkpt lat="45.82939394809919" lon="11.941191886909767"><ele>147.25</ele><time>2026-04-18T15:24:05.999Z</time></trkpt><trkpt lat="45.829505554802644" lon="11.94118940550242"><ele>147.5</ele><time>2026-04-18T15:24:06.999Z</time></trkpt><trkpt lat="45.82962621702603" lon="11.941162161081602"><ele>147.75</ele><time>2026-04-18T15:24:07.999Z</time></trkpt><trkpt lat="45.82973986400182" lon="11.941147778133848"><ele>148.0</ele><time>2026-04-18T15:24:08.999Z</time></trkpt><trkpt lat="45.82987343083183" lon="11.941153456692879"><ele>148.0</ele><time>2026-04-18T15:24:09.999Z</time></trkpt><trkpt lat="45.829996201687145" lon="11.941159282352817"><ele>148.0</ele><time>2026-04-18T15:24:10.999Z</time></trkpt><trkpt lat="45.830108285021495" lon="11.941160046327068"><ele>148.0</ele><time>2026-04-18T15:24:11.999Z</time></trkpt><trkpt lat="45.83023069219986" lon="11.94117171962456"><ele>148.0</ele><time>2026-04-18T15:24:12.999Z</time></trkpt><trkpt lat="45.830342340431024" lon="11.94119335585322"><ele>148.20000000000002</ele><time>2026-04-18T15:24:13.999Z</time></trkpt><trkpt lat="45.83045372377741" lon="11.941205521889625"><ele>148.4</ele><time>2026-04-18T15:24:14.999Z</time></trkpt><trkpt lat="45.83057176255097" lon="11.941232237209169"><ele>148.60000000000002</ele><time>2026-04-18T15:24:15.999Z</time></trkpt><trkpt lat="45.83067496193087" lon="11.941248902713333"><ele>148.8</ele><time>2026-04-18T15:24:16.999Z</time></trkpt><trkpt lat="45.83078205823016" lon="11.941261133099376"><ele>149.0</ele><time>2026-04-18T15:24:17.999Z</time></trkpt><trkpt lat="45.830900218705764" lon="11.94129399374983"><ele>149.4</ele><time>2026-04-18T15:24:18.999Z</time></trkpt><trkpt lat="45.83099453991283" lon="11.94131467225281"><ele>149.8</ele><time>2026-04-18T15:24:19.999Z</time></trkpt><trkpt lat="45.83108025982908" lon="11.941329464929092"><ele>150.2</ele><time>2026-04-18T15:24:20.999Z</time></trkpt><trkpt lat="45.83116036476726" lon="11.941341585108143"><ele>150.6</ele><time>2026-04-18T15:24:21.999Z</time></trkpt><trkpt lat="45.8312965106589" lon="11.941374859869029"><ele>151.0</ele><time>2026-04-18T15:24:23.999Z</time></trkpt><trkpt lat="45.83137617778269" lon="11.941389331767962"><ele>151.0</ele><time>2026-04-18T15:24:24.999Z</time></trkpt><trkpt lat="45.83145361306924" lon="11.941405179118167"><ele>151.0</ele><time>2026-04-18T15:24:25.999Z</time></trkpt><trkpt lat="45.8315393912782" lon="11.941412645502302"><ele>151.0</ele><time>2026-04-18T15:24:26.999Z</time></trkpt><trkpt lat="45.831623431401944" lon="11.941411061409378"><ele>151.0</ele><time>2026-04-18T15:24:27.999Z</time></trkpt><trkpt lat="45.83171553307524" lon="11.94138525122402"><ele>151.0</ele><time>2026-04-18T15:24:28.999Z</time></trkpt><trkpt lat="45.83179955899725" lon="11.94135596691687"><ele>151.0</ele><time>2026-04-18T15:24:29.999Z</time></trkpt><trkpt lat="45.83188470807178" lon="11.94130575537967"><ele>151.33333333333334</ele><time>2026-04-18T15:24:30.999Z</time></trkpt><trkpt lat="45.83197344905778" lon="11.941261444934458"><ele>151.66666666666669</ele><time>2026-04-18T15:24:31.999Z</time></trkpt><trkpt lat="45.83204400709683" lon="11.941223372383893"><ele>152.0</ele><time>2026-04-18T15:24:32.999Z</time></trkpt><trkpt lat="45.83213264854449" lon="11.941204501800202"><ele>152.33333333333334</ele><time>2026-04-18T15:24:33.999Z</time></trkpt><trkpt lat="45.83220885325258" lon="11.941191525998756"><ele>152.66666666666666</ele><time>2026-04-18T15:24:34.999Z</time></trkpt><trkpt lat="45.832303389174164" lon="11.941181606875555"><ele>153.0</ele><time>2026-04-18T15:24:35.999Z</time></trkpt><trkpt lat="45.83238892337928" lon="11.941187559188425"><ele>153.0</ele><time>2026-04-18T15:24:36.999Z</time></trkpt><trkpt lat="45.83248128224135" lon="11.94120620973962"><ele>153.0</ele><time>2026-04-18T15:24:37.999Z</time></trkpt><trkpt lat="45.83257256748825" lon="11.941233406515996"><ele>153.0</ele><time>2026-04-18T15:24:38.999Z</time></trkpt><trkpt lat="45.83266293694366" lon="11.941275331609269"><ele>153.0</ele><time>2026-04-18T15:24:39.999Z</time></trkpt><trkpt lat="45.832763822421974" lon="11.941334274369517"><ele>153.0</ele><time>2026-04-18T15:24:40.999Z</time></trkpt><trkpt lat="45.83286431158774" lon="11.941406203723583"><ele>153.0</ele><time>2026-04-18T15:24:41.999Z</time></trkpt><trkpt lat="45.83295152128694" lon="11.941505787426452"><ele>153.0</ele><time>2026-04-18T15:24:42.999Z</time></trkpt><trkpt lat="45.8330350300695" lon="11.941594194200087"><ele>153.0</ele><time>2026-04-18T15:24:43.999Z</time></trkpt><trkpt lat="45.833118660458645" lon="11.941690488098434"><ele>153.0</ele><time>2026-04-18T15:24:44.999Z</time></trkpt><trkpt lat="45.833184668064675" lon="11.941789225306417"><ele>153.0</ele><time>2026-04-18T15:24:45.999Z</time></trkpt><trkpt lat="45.83325214189901" lon="11.941880598976404"><ele>153.20000000000002</ele><time>2026-04-18T15:24:46.999Z</time></trkpt><trkpt lat="45.83332895785425" lon="11.941973576429545"><ele>153.4</ele><time>2026-04-18T15:24:47.999Z</time></trkpt><trkpt lat="45.83341458425749" lon="11.942067314497045"><ele>153.60000000000002</ele><time>2026-04-18T15:24:48.999Z</time></trkpt><trkpt lat="45.83350565283261" lon="11.942153193375608"><ele>153.8</ele><time>2026-04-18T15:24:49.999Z</time></trkpt><trkpt lat="45.833596377518305" lon="11.94223649029627"><ele>154.0</ele><time>2026-04-18T15:24:50.999Z</time></trkpt><trkpt lat="45.83368806907039" lon="11.942328113135645"><ele>154.0</ele><time>2026-04-18T15:24:51.999Z</time></trkpt><trkpt lat="45.83377867300342" lon="11.942410580927902"><ele>154.0</ele><time>2026-04-18T15:24:52.999Z</time></trkpt><trkpt lat="45.833886666355944" lon="11.942492106989398"><ele>154.0</ele><time>2026-04-18T15:24:53.999Z</time></trkpt><trkpt lat="45.83400825192404" lon="11.942585825068022"><ele>154.0</ele><time>2026-04-18T15:24:54.999Z</time></trkpt><trkpt lat="45.83413078239473" lon="11.942693831095163"><ele>154.33333333333334</ele><time>2026-04-18T15:24:55.999Z</time></trkpt><trkpt lat="45.834262643731066" lon="11.942826873922675"><ele>154.66666666666666</ele><time>2026-04-18T15:24:56.999Z</time></trkpt><trkpt lat="45.83439346817421" lon="11.942963845009423"><ele>155.0</ele><time>2026-04-18T15:24:57.999Z</time></trkpt><trkpt lat="45.834531316418975" lon="11.943102009582974"><ele>155.0</ele><time>2026-04-18T15:24:58.999Z</time></trkpt><trkpt lat="45.83466399325368" lon="11.943217191135089"><ele>155.0</ele><time>2026-04-18T15:24:59.999Z</time></trkpt><trkpt lat="45.834801676936465" lon="11.943322881882755"><ele>155.0</ele><time>2026-04-18T15:25:00.999Z</time></trkpt><trkpt lat="45.83495752335821" lon="11.943467230707746"><ele>155.33333333333331</ele><time>2026-04-18T15:25:01.999Z</time></trkpt><trkpt lat="45.835097672695895" lon="11.943602229021865"><ele>155.66666666666666</ele><time>2026-04-18T15:25:02.999Z</time></trkpt><trkpt lat="45.83524406657141" lon="11.943752236808324"><ele>156.0</ele><time>2026-04-18T15:25:03.999Z</time></trkpt><trkpt lat="45.83539466274503" lon="11.943907594842386"><ele>156.66666666666666</ele><time>2026-04-18T15:25:04.999Z</time></trkpt><trkpt lat="45.83553395042545" lon="11.944076249655334"><ele>157.33333333333331</ele><time>2026-04-18T15:25:05.999Z</time></trkpt><trkpt lat="45.83565798210209" lon="11.944251469847593"><ele>158.0</ele><time>2026-04-18T15:25:06.999Z</time></trkpt><trkpt lat="45.83578092142026" lon="11.944429671881684"><ele>158.33333333333331</ele><time>2026-04-18T15:25:07.999Z</time></trkpt><trkpt lat="45.835909881850206" lon="11.944612884941607"><ele>158.66666666666666</ele><time>2026-04-18T15:25:08.999Z</time></trkpt><trkpt lat="45.83605120031155" lon="11.944799109053085"><ele>159.0</ele><time>2026-04-18T15:25:09.999Z</time></trkpt><trkpt lat="45.8361780258394" lon="11.944971350930752"><ele>160.33333333333334</ele><time>2026-04-18T15:25:10.999Z</time></trkpt><trkpt lat="45.83630088241463" lon="11.94515021268395"><ele>161.66666666666669</ele><time>2026-04-18T15:25:12Z</time></trkpt><trkpt lat="45.83642955489226" lon="11.945330505013132"><ele>163.0</ele><time>2026-04-18T15:25:13Z</time></trkpt><trkpt lat="45.83655689441334" lon="11.945510570970125"><ele>163.0</ele><time>2026-04-18T15:25:14Z</time></trkpt><trkpt lat="45.83668482515775" lon="11.945698811534948"><ele>163.0</ele><time>2026-04-18T15:25:15Z</time></trkpt><trkpt lat="45.8368158862243" lon="11.945886001867011"><ele>163.0</ele><time>2026-04-18T15:25:16Z</time></trkpt><trkpt lat="45.83694161938619" lon="11.946058728987628"><ele>168.0</ele><time>2026-04-18T15:25:17Z</time></trkpt><trkpt lat="45.837056802804305" lon="11.946234006892947"><ele>173.0</ele><time>2026-04-18T15:25:18Z</time></trkpt><trkpt lat="45.83713887752665" lon="11.946448769601554"><ele>178.0</ele><time>2026-04-18T15:25:19Z</time></trkpt><trkpt lat="45.83720066933299" lon="11.946679713516367"><ele>177.75</ele><time>2026-04-18T15:25:20Z</time></trkpt><trkpt lat="45.837238162869475" lon="11.946897067114717"><ele>177.5</ele><time>2026-04-18T15:25:21Z</time></trkpt><trkpt lat="45.83726148591083" lon="11.947096143775948"><ele>177.25</ele><time>2026-04-18T15:25:22Z</time></trkpt><trkpt lat="45.837289011821944" lon="11.947274385870362"><ele>177.0</ele><time>2026-04-18T15:25:23Z</time></trkpt><trkpt lat="45.837320232170306" lon="11.94743403968579"><ele>178.39999999999998</ele><time>2026-04-18T15:25:24Z</time></trkpt><trkpt lat="45.83735086421637" lon="11.947588968516365"><ele>179.79999999999998</ele><time>2026-04-18T15:25:25Z</time></trkpt><trkpt lat="45.83738534654542" lon="11.947730794596039"><ele>181.2</ele><time>2026-04-18T15:25:26Z</time></trkpt><trkpt lat="45.837438994362" lon="11.947823942296528"><ele>182.6</ele><time>2026-04-18T15:25:27Z</time></trkpt><trkpt lat="45.83752334060994" lon="11.947848687099777"><ele>184.0</ele><time>2026-04-18T15:25:28Z</time></trkpt><trkpt lat="45.83760542357475" lon="11.94782105476187"><ele>182.6</ele><time>2026-04-18T15:25:29Z</time></trkpt><trkpt lat="45.83766271160581" lon="11.947700139679101"><ele>181.2</ele><time>2026-04-18T15:25:30Z</time></trkpt><trkpt lat="45.83767388196242" lon="11.947564666290175"><ele>179.79999999999998</ele><time>2026-04-18T15:25:31Z</time></trkpt><trkpt lat="45.837638450677595" lon="11.94743452988445"><ele>178.39999999999998</ele><time>2026-04-18T15:25:32Z</time></trkpt><trkpt lat="45.83757366593421" lon="11.947327140359722"><ele>177.0</ele><time>2026-04-18T15:25:33Z</time></trkpt><trkpt lat="45.83746718337202" lon="11.947246293369991"><ele>177.0</ele><time>2026-04-18T15:25:34Z</time></trkpt><trkpt lat="45.83742086807315" lon="11.947094144352079"><ele>177.0</ele><time>2026-04-18T15:25:35Z</time></trkpt><trkpt lat="45.83741183903544" lon="11.946915313997662"><ele>177.0</ele><time>2026-04-18T15:25:36Z</time></trkpt><trkpt lat="45.837461543718064" lon="11.946715892068664"><ele>177.0</ele><time>2026-04-18T15:25:37Z</time></trkpt><trkpt lat="45.83747731428005" lon="11.946511424021756"><ele>177.2</ele><time>2026-04-18T15:25:38Z</time></trkpt><trkpt lat="45.83748534359015" lon="11.94634402974851"><ele>177.39999999999998</ele><time>2026-04-18T15:25:39Z</time></trkpt><trkpt lat="45.83750980529583" lon="11.946223090978732"><ele>177.60000000000002</ele><time>2026-04-18T15:25:40Z</time></trkpt><trkpt lat="45.837638192060055" lon="11.94621087012349"><ele>177.8</ele><time>2026-04-18T15:25:42Z</time></trkpt><trkpt lat="45.837658305655026" lon="11.946334160974898"><ele>178.0</ele><time>2026-04-18T15:25:43Z</time></trkpt><trkpt lat="45.83766966571898" lon="11.946491480744776"><ele>183.0</ele><time>2026-04-18T15:25:44Z</time></trkpt><trkpt lat="45.83765197764662" lon="11.946654811292897"><ele>188.0</ele><time>2026-04-18T15:25:45Z</time></trkpt><trkpt lat="45.83765354038339" lon="11.946838558551194"><ele>193.0</ele><time>2026-04-18T15:25:46Z</time></trkpt><trkpt lat="45.83769975796753" lon="11.946981278220312"><ele>198.0</ele><time>2026-04-18T15:25:47Z</time></trkpt><trkpt lat="45.837759377207774" lon="11.947132186702278"><ele>199.75</ele><time>2026-04-18T15:25:48Z</time></trkpt><trkpt lat="45.83787749628549" lon="11.947193349989961"><ele>201.5</ele><time>2026-04-18T15:25:49Z</time></trkpt><trkpt lat="45.838008986797306" lon="11.947204958528783"><ele>203.25</ele><time>2026-04-18T15:25:50Z</time></trkpt><trkpt lat="45.83812937287059" lon="11.947323156809533"><ele>205.0</ele><time>2026-04-18T15:25:51Z</time></trkpt><trkpt lat="45.838211080977175" lon="11.947463400676654"><ele>204.0</ele><time>2026-04-18T15:25:52Z</time></trkpt><trkpt lat="45.8382370040247" lon="11.947605167138796"><ele>203.0</ele><time>2026-04-18T15:25:53Z</time></trkpt><trkpt lat="45.83822255941403" lon="11.947752966726881"><ele>202.0</ele><time>2026-04-18T15:25:54Z</time></trkpt><trkpt lat="45.83815177308653" lon="11.947914493765271"><ele>201.0</ele><time>2026-04-18T15:25:55Z</time></trkpt><trkpt lat="45.83810386617359" lon="11.948038538278041"><ele>200.0</ele><time>2026-04-18T15:25:56Z</time></trkpt><trkpt lat="45.83806150277284" lon="11.948166878166882"><ele>200.0</ele><time>2026-04-18T15:25:57Z</time></trkpt><trkpt lat="45.83805640661824" lon="11.948281162845571"><ele>200.0</ele><time>2026-04-18T15:25:58Z</time></trkpt><trkpt lat="45.838107559759585" lon="11.948380251138298"><ele>200.0</ele><time>2026-04-18T15:25:59Z</time></trkpt><trkpt lat="45.83819822986062" lon="11.948382748646656"><ele>200.0</ele><time>2026-04-18T15:26:00Z</time></trkpt><trkpt lat="45.83829078296065" lon="11.948361961995879"><ele>200.0</ele><time>2026-04-18T15:26:01Z</time></trkpt><trkpt lat="45.83837743544824" lon="11.94826066873967"><ele>200.0</ele><time>2026-04-18T15:26:02Z</time></trkpt><trkpt lat="45.838452268140784" lon="11.94815406588335"><ele>200.0</ele><time>2026-04-18T15:26:03Z</time></trkpt><trkpt lat="45.838531586897595" lon="11.94804151414547"><ele>200.0</ele><time>2026-04-18T15:26:04Z</time></trkpt><trkpt lat="45.83861270549406" lon="11.947910222658955"><ele>200.0</ele><time>2026-04-18T15:26:05Z</time></trkpt><trkpt lat="45.83870730633267" lon="11.94780264053891"><ele>201.0</ele><time>2026-04-18T15:26:06Z</time></trkpt><trkpt lat="45.83881855161682" lon="11.947734461015573"><ele>202.0</ele><time>2026-04-18T15:26:07Z</time></trkpt><trkpt lat="45.838948676940426" lon="11.947705333070795"><ele>203.0</ele><time>2026-04-18T15:26:08Z</time></trkpt><trkpt lat="45.83909083748629" lon="11.947729799558743"><ele>204.0</ele><time>2026-04-18T15:26:09Z</time></trkpt><trkpt lat="45.839212087442576" lon="11.947752051174325"><ele>205.0</ele><time>2026-04-18T15:26:10Z</time></trkpt><trkpt lat="45.83933477360021" lon="11.947813128440762"><ele>206.0</ele><time>2026-04-18T15:26:11Z</time></trkpt><trkpt lat="45.839441020391504" lon="11.947935751095248"><ele>207.0</ele><time>2026-04-18T15:26:12Z</time></trkpt><trkpt lat="45.83952270219889" lon="11.948110606572468"><ele>208.0</ele><time>2026-04-18T15:26:13Z</time></trkpt><trkpt lat="45.83958853517235" lon="11.94827914537824"><ele>210.0</ele><time>2026-04-18T15:26:14Z</time></trkpt><trkpt lat="45.839656592075066" lon="11.94844251973993"><ele>212.0</ele><time>2026-04-18T15:26:15Z</time></trkpt><trkpt lat="45.839730509674894" lon="11.948588812959155"><ele>214.0</ele><time>2026-04-18T15:26:16Z</time></trkpt><trkpt lat="45.839806321000125" lon="11.94873616168851"><ele>216.0</ele><time>2026-04-18T15:26:17Z</time></trkpt><trkpt lat="45.83988511774855" lon="11.948882868591083"><ele>216.0</ele><time>2026-04-18T15:26:18Z</time></trkpt><trkpt lat="45.839983852579365" lon="11.949016300446015"><ele>216.0</ele><time>2026-04-18T15:26:19Z</time></trkpt><trkpt lat="45.840089728493574" lon="11.94913615008159"><ele>216.0</ele><time>2026-04-18T15:26:19.999Z</time></trkpt><trkpt lat="45.84019424985133" lon="11.949245385647165"><ele>216.0</ele><time>2026-04-18T15:26:20.999Z</time></trkpt><trkpt lat="45.84029358377634" lon="11.949360994594423"><ele>218.5</ele><time>2026-04-18T15:26:21.999Z</time></trkpt><trkpt lat="45.84038150779281" lon="11.949475264501894"><ele>221.0</ele><time>2026-04-18T15:26:22.999Z</time></trkpt><trkpt lat="45.84046307395777" lon="11.949596028344441"><ele>223.5</ele><time>2026-04-18T15:26:23.999Z</time></trkpt><trkpt lat="45.84054264553598" lon="11.949712472556179"><ele>226.0</ele><time>2026-04-18T15:26:24.999Z</time></trkpt><trkpt lat="45.84062240032767" lon="11.949836180406525"><ele>226.0</ele><time>2026-04-18T15:26:25.999Z</time></trkpt><trkpt lat="45.84070007878892" lon="11.94996173902526"><ele>226.00000000000003</ele><time>2026-04-18T15:26:26.999Z</time></trkpt><trkpt lat="45.84079024770205" lon="11.950050217933898"><ele>226.00000000000003</ele><time>2026-04-18T15:26:27.999Z</time></trkpt><trkpt lat="45.84089748016744" lon="11.950074718055996"><ele>226.0</ele><time>2026-04-18T15:26:28.999Z</time></trkpt><trkpt lat="45.840998030207906" lon="11.950040565488774"><ele>226.0</ele><time>2026-04-18T15:26:29.999Z</time></trkpt><trkpt lat="45.84110291702199" lon="11.949969347135642"><ele>225.25</ele><time>2026-04-18T15:26:30.999Z</time></trkpt><trkpt lat="45.841225854518264" lon="11.94993509676399"><ele>224.5</ele><time>2026-04-18T15:26:31.999Z</time></trkpt><trkpt lat="45.84134966850562" lon="11.949987554842798"><ele>223.75</ele><time>2026-04-18T15:26:32.999Z</time></trkpt><trkpt lat="45.841460756354145" lon="11.950071263451964"><ele>223.0</ele><time>2026-04-18T15:26:33.999Z</time></trkpt><trkpt lat="45.84156877959916" lon="11.950186206785238"><ele>223.0</ele><time>2026-04-18T15:26:34.999Z</time></trkpt><trkpt lat="45.841643135311095" lon="11.950325064191714"><ele>223.0</ele><time>2026-04-18T15:26:35.999Z</time></trkpt><trkpt lat="45.8417019240337" lon="11.95049801250859"><ele>223.0</ele><time>2026-04-18T15:26:36.999Z</time></trkpt><trkpt lat="45.841733716417636" lon="11.950674061336494"><ele>223.0</ele><time>2026-04-18T15:26:37.999Z</time></trkpt><trkpt lat="45.84176785215701" lon="11.950812789079526"><ele>222.0</ele><time>2026-04-18T15:26:38.999Z</time></trkpt><trkpt lat="45.84185113969745" lon="11.950888828214916"><ele>221.0</ele><time>2026-04-18T15:26:39.999Z</time></trkpt><trkpt lat="45.841960200192794" lon="11.950952492119056"><ele>220.0</ele><time>2026-04-18T15:26:40.999Z</time></trkpt><trkpt lat="45.84208612731198" lon="11.950957064650922"><ele>219.0</ele><time>2026-04-18T15:26:41.999Z</time></trkpt><trkpt lat="45.84221550807026" lon="11.950910885883575"><ele>219.0</ele><time>2026-04-18T15:26:42.999Z</time></trkpt><trkpt lat="45.84234847533964" lon="11.950901471516394"><ele>219.0</ele><time>2026-04-18T15:26:43.999Z</time></trkpt><trkpt lat="45.8424825673733" lon="11.950940350387016"><ele>219.0</ele><time>2026-04-18T15:26:44.999Z</time></trkpt><trkpt lat="45.84260119677968" lon="11.951012163793093"><ele>219.0</ele><time>2026-04-18T15:26:45.999Z</time></trkpt><trkpt lat="45.842708957182786" lon="11.951075293067591"><ele>220.0</ele><time>2026-04-18T15:26:46.999Z</time></trkpt><trkpt lat="45.842818682481706" lon="11.951125852314762"><ele>220.99999999999997</ele><time>2026-04-18T15:26:47.999Z</time></trkpt><trkpt lat="45.84291202758223" lon="11.95116283146252"><ele>221.99999999999997</ele><time>2026-04-18T15:26:48.999Z</time></trkpt><trkpt lat="45.84300278900498" lon="11.951216899779295"><ele>223.0</ele><time>2026-04-18T15:26:49.999Z</time></trkpt><trkpt lat="45.84308377838476" lon="11.951283706180595"><ele>224.0</ele><time>2026-04-18T15:26:50.999Z</time></trkpt><trkpt lat="45.84315645658969" lon="11.951388538766174"><ele>224.00000000000003</ele><time>2026-04-18T15:26:51.999Z</time></trkpt><trkpt lat="45.843220355528075" lon="11.951502724161065"><ele>224.0</ele><time>2026-04-18T15:26:52.999Z</time></trkpt><trkpt lat="45.843255263960785" lon="11.951632350887392"><ele>224.0</ele><time>2026-04-18T15:26:53.999Z</time></trkpt><trkpt lat="45.84328976034372" lon="11.95172950343115"><ele>224.0</ele><time>2026-04-18T15:26:54.999Z</time></trkpt><trkpt lat="45.843323252863684" lon="11.951843844320162"><ele>224.00000000000003</ele><time>2026-04-18T15:26:55.999Z</time></trkpt><trkpt lat="45.843361587885894" lon="11.951948311664603"><ele>224.0</ele><time>2026-04-18T15:26:56.999Z</time></trkpt><trkpt lat="45.843402229034886" lon="11.952061143510702"><ele>224.0</ele><time>2026-04-18T15:26:57.999Z</time></trkpt><trkpt lat="45.84343365002293" lon="11.952152716557965"><ele>223.99999999999997</ele><time>2026-04-18T15:26:58.999Z</time></trkpt><trkpt lat="45.84351282527097" lon="11.952301726510798"><ele>223.99999999999997</ele><time>2026-04-18T15:27:00.999Z</time></trkpt><trkpt lat="45.843578931598934" lon="11.952425250405003"><ele>224.0</ele><time>2026-04-18T15:27:02.999Z</time></trkpt><trkpt lat="45.84364282609429" lon="11.952507851587907"><ele>224.0</ele><time>2026-04-18T15:27:04.999Z</time></trkpt><trkpt lat="45.843694214231" lon="11.952574553698199"><ele>226.33333333333334</ele><time>2026-04-18T15:27:06.999Z</time></trkpt><trkpt lat="45.84375367721168" lon="11.952619343297071"><ele>228.66666666666669</ele><time>2026-04-18T15:27:12.999Z</time></trkpt><trkpt lat="45.84384167112717" lon="11.952582729730219"><ele>231.0</ele><time>2026-04-18T15:27:14.999Z</time></trkpt><trkpt lat="45.843972150499816" lon="11.952545992294588"><ele>233.33333333333331</ele><time>2026-04-18T15:27:16.999Z</time></trkpt><trkpt lat="45.84404047475577" lon="11.952575187192428"><ele>235.66666666666666</ele><time>2026-04-18T15:27:18Z</time></trkpt><trkpt lat="45.84410323447481" lon="11.952637831528842"><ele>238.0</ele><time>2026-04-18T15:27:19Z</time></trkpt><trkpt lat="45.84412748212795" lon="11.952753613567902"><ele>237.99999999999997</ele><time>2026-04-18T15:27:20Z</time></trkpt><trkpt lat="45.844155210128214" lon="11.952859384560407"><ele>238.0</ele><time>2026-04-18T15:27:21Z</time></trkpt><trkpt lat="45.84414940938407" lon="11.953016601793422"><ele>238.0</ele><time>2026-04-18T15:27:22Z</time></trkpt><trkpt lat="45.84416183407233" lon="11.953132757056448"><ele>238.0</ele><time>2026-04-18T15:27:23Z</time></trkpt><trkpt lat="45.8442216584375" lon="11.953219110381031"><ele>237.99999999999997</ele><time>2026-04-18T15:27:24Z</time></trkpt><trkpt lat="45.844308190502744" lon="11.953271001480731"><ele>238.0</ele><time>2026-04-18T15:27:25Z</time></trkpt><trkpt lat="45.84440826371821" lon="11.953291434272899"><ele>234.60000000000002</ele><time>2026-04-18T15:27:26Z</time></trkpt><trkpt lat="45.84450908670575" lon="11.953265172541776"><ele>231.20000000000002</ele><time>2026-04-18T15:27:27Z</time></trkpt><trkpt lat="45.84461832216672" lon="11.953232452976453"><ele>227.8</ele><time>2026-04-18T15:27:28Z</time></trkpt><trkpt lat="45.844708682792266" lon="11.953178995373204"><ele>224.4</ele><time>2026-04-18T15:27:29Z</time></trkpt><trkpt lat="45.844800060249476" lon="11.953147337931574"><ele>221.0</ele><time>2026-04-18T15:27:30Z</time></trkpt><trkpt lat="45.84488163946673" lon="11.953112789014437"><ele>221.00000000000003</ele><time>2026-04-18T15:27:31Z</time></trkpt><trkpt lat="45.84496038867312" lon="11.953075398883785"><ele>221.0</ele><time>2026-04-18T15:27:32Z</time></trkpt><trkpt lat="45.845025074803885" lon="11.953035707506915"><ele>221.0</ele><time>2026-04-18T15:27:33Z</time></trkpt><trkpt lat="45.84508786120762" lon="11.952984665773734"><ele>221.0</ele><time>2026-04-18T15:27:34Z</time></trkpt><trkpt lat="45.845146418734444" lon="11.952925051224257"><ele>221.0</ele><time>2026-04-18T15:27:35Z</time></trkpt><trkpt lat="45.845206666807734" lon="11.952877658595455"><ele>221.00000000000003</ele><time>2026-04-18T15:27:36Z</time></trkpt><trkpt lat="45.845266806641824" lon="11.952835548267203"><ele>221.0</ele><time>2026-04-18T15:27:37Z</time></trkpt><trkpt lat="45.84533190841273" lon="11.95280993079607"><ele>219.75</ele><time>2026-04-18T15:27:38Z</time></trkpt><trkpt lat="45.84553143883553" lon="11.952950316125944"><ele>218.5</ele><time>2026-04-18T15:27:41Z</time></trkpt><trkpt lat="45.845603557816624" lon="11.95302889788516"><ele>217.25</ele><time>2026-04-18T15:27:42Z</time></trkpt><trkpt lat="45.845667417977026" lon="11.953127280751769"><ele>216.0</ele><time>2026-04-18T15:27:43Z</time></trkpt><trkpt lat="45.84574623289279" lon="11.953212843062289"><ele>216.0</ele><time>2026-04-18T15:27:44Z</time></trkpt><trkpt lat="45.845834555902385" lon="11.953247216917285"><ele>216.00000000000003</ele><time>2026-04-18T15:27:45Z</time></trkpt><trkpt lat="45.845929048758386" lon="11.953258689694078"><ele>216.00000000000003</ele><time>2026-04-18T15:27:46Z</time></trkpt><trkpt lat="45.846028972670986" lon="11.953242550028259"><ele>216.0</ele><time>2026-04-18T15:27:47Z</time></trkpt><trkpt lat="45.8461289760939" lon="11.9532182079482"><ele>216.0</ele><time>2026-04-18T15:27:48Z</time></trkpt><trkpt lat="45.84623571686664" lon="11.953175622239035"><ele>216.25</ele><time>2026-04-18T15:27:49Z</time></trkpt><trkpt lat="45.846338242436524" lon="11.953137466569752"><ele>216.5</ele><time>2026-04-18T15:27:50Z</time></trkpt><trkpt lat="45.846451956586584" lon="11.953118119984817"><ele>216.75</ele><time>2026-04-18T15:27:51Z</time></trkpt><trkpt lat="45.84656890545926" lon="11.953106773071294"><ele>217.0</ele><time>2026-04-18T15:27:52Z</time></trkpt><trkpt lat="45.84669161777744" lon="11.953137497346356"><ele>217.0</ele><time>2026-04-18T15:27:53Z</time></trkpt><trkpt lat="45.846792086050044" lon="11.953153588012322"><ele>217.0</ele><time>2026-04-18T15:27:54Z</time></trkpt><trkpt lat="45.84689635114595" lon="11.95318707809358"><ele>217.0</ele><time>2026-04-18T15:27:55Z</time></trkpt><trkpt lat="45.846984582855484" lon="11.953195309950887"><ele>217.0</ele><time>2026-04-18T15:27:56Z</time></trkpt><trkpt lat="45.84706652679296" lon="11.953190954281332"><ele>217.0</ele><time>2026-04-18T15:27:57Z</time></trkpt><trkpt lat="45.84715884795335" lon="11.953182438059445"><ele>217.39999999999998</ele><time>2026-04-18T15:27:58Z</time></trkpt><trkpt lat="45.84726640885248" lon="11.953155346674444"><ele>217.79999999999998</ele><time>2026-04-18T15:27:59Z</time></trkpt><trkpt lat="45.847380211176336" lon="11.953153281725829"><ele>218.2</ele><time>2026-04-18T15:28:00Z</time></trkpt><trkpt lat="45.847475783914064" lon="11.953140833401527"><ele>218.6</ele><time>2026-04-18T15:28:01Z</time></trkpt><trkpt lat="45.84757960495032" lon="11.953125768433699"><ele>219.0</ele><time>2026-04-18T15:28:02Z</time></trkpt><trkpt lat="45.84769347797353" lon="11.953117326893086"><ele>217.25</ele><time>2026-04-18T15:28:03Z</time></trkpt><trkpt lat="45.84781146055975" lon="11.953123826524136"><ele>215.5</ele><time>2026-04-18T15:28:04Z</time></trkpt><trkpt lat="45.847954354042876" lon="11.953126113276841"><ele>213.75</ele><time>2026-04-18T15:28:05Z</time></trkpt><trkpt lat="45.84809196256014" lon="11.953130874001609"><ele>212.0</ele><time>2026-04-18T15:28:06Z</time></trkpt><trkpt lat="45.848223896362896" lon="11.95313626871773"><ele>212.0</ele><time>2026-04-18T15:28:07Z</time></trkpt><trkpt lat="45.84833965834822" lon="11.953125054584598"><ele>212.0</ele><time>2026-04-18T15:28:08Z</time></trkpt><trkpt lat="45.848463692036695" lon="11.953121842162016"><ele>212.0</ele><time>2026-04-18T15:28:09Z</time></trkpt><trkpt lat="45.84856816689" lon="11.953066825049344"><ele>212.0</ele><time>2026-04-18T15:28:10Z</time></trkpt><trkpt lat="45.848656734578235" lon="11.952951550273509"><ele>212.25</ele><time>2026-04-18T15:28:11Z</time></trkpt><trkpt lat="45.84874100054948" lon="11.952787570378328"><ele>212.5</ele><time>2026-04-18T15:28:12Z</time></trkpt><trkpt lat="45.848813593045705" lon="11.952603168807277"><ele>212.75</ele><time>2026-04-18T15:28:13Z</time></trkpt><trkpt lat="45.8488868439047" lon="11.952399604899714"><ele>213.0</ele><time>2026-04-18T15:28:14Z</time></trkpt><trkpt lat="45.84898126337765" lon="11.952212456192733"><ele>214.0</ele><time>2026-04-18T15:28:15Z</time></trkpt><trkpt lat="45.84907484812623" lon="11.952020936710722"><ele>215.0</ele><time>2026-04-18T15:28:16Z</time></trkpt><trkpt lat="45.84917779808647" lon="11.951853418546511"><ele>216.0</ele><time>2026-04-18T15:28:17Z</time></trkpt><trkpt lat="45.84928203624413" lon="11.951718494508931"><ele>220.60000000000002</ele><time>2026-04-18T15:28:18Z</time></trkpt><trkpt lat="45.84936180644656" lon="11.951580257559412"><ele>225.20000000000002</ele><time>2026-04-18T15:28:19Z</time></trkpt><trkpt lat="45.84943258289342" lon="11.95147822461188"><ele>229.79999999999998</ele><time>2026-04-18T15:28:20Z</time></trkpt><trkpt lat="45.84947259759074" lon="11.951353977566589"><ele>234.39999999999998</ele><time>2026-04-18T15:28:21Z</time></trkpt><trkpt lat="45.84948085504901" lon="11.951191327568951"><ele>239.0</ele><time>2026-04-18T15:28:22Z</time></trkpt><trkpt lat="45.84947021673327" lon="11.951030668497593"><ele>239.0</ele><time>2026-04-18T15:28:23Z</time></trkpt><trkpt lat="45.84945009560962" lon="11.950883911808052"><ele>238.99999999999997</ele><time>2026-04-18T15:28:24Z</time></trkpt><trkpt lat="45.849439835077824" lon="11.950725986802675"><ele>238.99999999999997</ele><time>2026-04-18T15:28:25Z</time></trkpt><trkpt lat="45.84942340573471" lon="11.950574047810969"><ele>239.0</ele><time>2026-04-18T15:28:26Z</time></trkpt><trkpt lat="45.849408104265976" lon="11.950411926125648"><ele>239.0</ele><time>2026-04-18T15:28:27Z</time></trkpt><trkpt lat="45.84940078098567" lon="11.950245812028687"><ele>242.25</ele><time>2026-04-18T15:28:28Z</time></trkpt><trkpt lat="45.84939728958666" lon="11.95006458557203"><ele>245.5</ele><time>2026-04-18T15:28:29Z</time></trkpt><trkpt lat="45.849396755769895" lon="11.949869620975889"><ele>248.75</ele><time>2026-04-18T15:28:30Z</time></trkpt><trkpt lat="45.84942337760825" lon="11.949677700065696"><ele>252.0</ele><time>2026-04-18T15:28:30.999Z</time></trkpt><trkpt lat="45.849476010159066" lon="11.949541783324339"><ele>253.0</ele><time>2026-04-18T15:28:31.999Z</time></trkpt><trkpt lat="45.84955510547405" lon="11.949411723468787"><ele>254.0</ele><time>2026-04-18T15:28:32.999Z</time></trkpt><trkpt lat="45.849666895679874" lon="11.94932817643265"><ele>255.0</ele><time>2026-04-18T15:28:33.999Z</time></trkpt><trkpt lat="45.84978577081744" lon="11.949200232182077"><ele>256.0</ele><time>2026-04-18T15:28:34.999Z</time></trkpt><trkpt lat="45.849938670881095" lon="11.949094711978747"><ele>253.75</ele><time>2026-04-18T15:28:35.999Z</time></trkpt><trkpt lat="45.85009428155847" lon="11.949002091374098"><ele>251.5</ele><time>2026-04-18T15:28:36.999Z</time></trkpt><trkpt lat="45.85021773215769" lon="11.948866069277177"><ele>249.25</ele><time>2026-04-18T15:28:37.999Z</time></trkpt><trkpt lat="45.85030389289638" lon="11.9487441145167"><ele>247.0</ele><time>2026-04-18T15:28:38.999Z</time></trkpt><trkpt lat="45.8503392384968" lon="11.948616034112767"><ele>246.75</ele><time>2026-04-18T15:28:39.999Z</time></trkpt><trkpt lat="45.850323599196116" lon="11.948465983424631"><ele>246.5</ele><time>2026-04-18T15:28:40.999Z</time></trkpt><trkpt lat="45.85025573269864" lon="11.948320845447808"><ele>246.25</ele><time>2026-04-18T15:28:41.999Z</time></trkpt><trkpt lat="45.85017257330815" lon="11.948183782282232"><ele>246.0</ele><time>2026-04-18T15:28:42.999Z</time></trkpt><trkpt lat="45.85005339040648" lon="11.94803759323083"><ele>246.0</ele><time>2026-04-18T15:28:43.999Z</time></trkpt><trkpt lat="45.849943686873" lon="11.947884397426504"><ele>246.0</ele><time>2026-04-18T15:28:44.999Z</time></trkpt><trkpt lat="45.84986078806952" lon="11.947740639225943"><ele>246.0</ele><time>2026-04-18T15:28:45.999Z</time></trkpt><trkpt lat="45.84984647783156" lon="11.947578184478555"><ele>246.0</ele><time>2026-04-18T15:28:46.999Z</time></trkpt><trkpt lat="45.84983910196394" lon="11.947429451007666"><ele>248.0</ele><time>2026-04-18T15:28:47.999Z</time></trkpt><trkpt lat="45.84984650630077" lon="11.947284190061662"><ele>250.00000000000003</ele><time>2026-04-18T15:28:48.999Z</time></trkpt><trkpt lat="45.849936472861394" lon="11.94717354710477"><ele>252.00000000000003</ele><time>2026-04-18T15:28:49.999Z</time></trkpt><trkpt lat="45.84997313951207" lon="11.947043758145943"><ele>254.0</ele><time>2026-04-18T15:28:50.999Z</time></trkpt><trkpt lat="45.850002869677326" lon="11.946903620802031"><ele>256.0</ele><time>2026-04-18T15:28:51.999Z</time></trkpt><trkpt lat="45.850016375974946" lon="11.946776015200554"><ele>256.8333333333333</ele><time>2026-04-18T15:28:52.999Z</time></trkpt><trkpt lat="45.85004339655187" lon="11.946644373786526"><ele>257.66666666666663</ele><time>2026-04-18T15:28:53.999Z</time></trkpt><trkpt lat="45.85004429974279" lon="11.94652256651641"><ele>258.5</ele><time>2026-04-18T15:28:54.999Z</time></trkpt><trkpt lat="45.85003230381792" lon="11.946397946117992"><ele>259.3333333333333</ele><time>2026-04-18T15:28:55.999Z</time></trkpt><trkpt lat="45.85002132879506" lon="11.946268680997216"><ele>260.1666666666667</ele><time>2026-04-18T15:28:56.999Z</time></trkpt><trkpt lat="45.849996488584694" lon="11.946149715154435"><ele>261.0</ele><time>2026-04-18T15:28:57.999Z</time></trkpt><trkpt lat="45.84996555958419" lon="11.94604342948216"><ele>261.0</ele><time>2026-04-18T15:28:58.999Z</time></trkpt><trkpt lat="45.84991752492567" lon="11.94593948570611"><ele>261.0</ele><time>2026-04-18T15:28:59.999Z</time></trkpt><trkpt lat="45.84987498392784" lon="11.945836361758726"><ele>261.0</ele><time>2026-04-18T15:29:00.999Z</time></trkpt><trkpt lat="45.849835272146706" lon="11.945735351285629"><ele>261.0</ele><time>2026-04-18T15:29:01.999Z</time></trkpt><trkpt lat="45.84978930650924" lon="11.945638025097477"><ele>261.0</ele><time>2026-04-18T15:29:02.999Z</time></trkpt><trkpt lat="45.84974586364947" lon="11.945535163562225"><ele>261.0</ele><time>2026-04-18T15:29:03.999Z</time></trkpt><trkpt lat="45.849698892427746" lon="11.94544008571142"><ele>260.40000000000003</ele><time>2026-04-18T15:29:04.999Z</time></trkpt><trkpt lat="45.849643074607705" lon="11.945364156073417"><ele>259.8</ele><time>2026-04-18T15:29:05.999Z</time></trkpt><trkpt lat="45.84961836250317" lon="11.945245653589975"><ele>259.20000000000005</ele><time>2026-04-18T15:29:06.999Z</time></trkpt><trkpt lat="45.849589285365326" lon="11.945131938687485"><ele>258.6</ele><time>2026-04-18T15:29:07.999Z</time></trkpt><trkpt lat="45.84957406291524" lon="11.944999458772037"><ele>258.0</ele><time>2026-04-18T15:29:08.999Z</time></trkpt><trkpt lat="45.84958488361416" lon="11.944838082333701"><ele>255.0</ele><time>2026-04-18T15:29:09.999Z</time></trkpt><trkpt lat="45.84959515595811" lon="11.944653805443858"><ele>252.0</ele><time>2026-04-18T15:29:10.999Z</time></trkpt><trkpt lat="45.849587375432996" lon="11.944482805011198"><ele>249.0</ele><time>2026-04-18T15:29:11.999Z</time></trkpt><trkpt lat="45.84960550554662" lon="11.944297895547628"><ele>246.0</ele><time>2026-04-18T15:29:12.999Z</time></trkpt><trkpt lat="45.84961031981814" lon="11.94411224742864"><ele>245.8</ele><time>2026-04-18T15:29:13.999Z</time></trkpt><trkpt lat="45.84960700606097" lon="11.943954249089147"><ele>245.60000000000002</ele><time>2026-04-18T15:29:14.999Z</time></trkpt><trkpt lat="45.84959801476218" lon="11.943815838751279"><ele>245.4</ele><time>2026-04-18T15:29:15.999Z</time></trkpt><trkpt lat="45.84952606401691" lon="11.943709082423753"><ele>245.2</ele><time>2026-04-18T15:29:16.999Z</time></trkpt><trkpt lat="45.84949556614742" lon="11.943618887850104"><ele>245.0</ele><time>2026-04-18T15:29:17.999Z</time></trkpt><trkpt lat="45.84944651013287" lon="11.943532623965751"><ele>245.00000000000003</ele><time>2026-04-18T15:29:18.999Z</time></trkpt><trkpt lat="45.84941869343067" lon="11.943429064394074"><ele>245.0</ele><time>2026-04-18T15:29:19.999Z</time></trkpt><trkpt lat="45.849391333485876" lon="11.943323747542793"><ele>245.0</ele><time>2026-04-18T15:29:20.999Z</time></trkpt><trkpt lat="45.8493411595167" lon="11.943216963691869"><ele>245.0</ele><time>2026-04-18T15:29:21.999Z</time></trkpt><trkpt lat="45.849310285123465" lon="11.943079911278453"><ele>245.00000000000003</ele><time>2026-04-18T15:29:22.999Z</time></trkpt><trkpt lat="45.84928727737986" lon="11.94295119182241"><ele>245.0</ele><time>2026-04-18T15:29:24Z</time></trkpt><trkpt lat="45.849266168887695" lon="11.942803659598889"><ele>248.5</ele><time>2026-04-18T15:29:25Z</time></trkpt><trkpt lat="45.849236749522056" lon="11.942653799353002"><ele>252.0</ele><time>2026-04-18T15:29:26Z</time></trkpt><trkpt lat="45.849189537519756" lon="11.942508092989566"><ele>255.5</ele><time>2026-04-18T15:29:27Z</time></trkpt><trkpt lat="45.84911892235622" lon="11.942367602695874"><ele>259.0</ele><time>2026-04-18T15:29:28Z</time></trkpt><trkpt lat="45.84906828616809" lon="11.942212500110665"><ele>259.0</ele><time>2026-04-18T15:29:29Z</time></trkpt><trkpt lat="45.84899721836394" lon="11.9420591588383"><ele>259.0</ele><time>2026-04-18T15:29:30Z</time></trkpt><trkpt lat="45.848928032036056" lon="11.941895923890492"><ele>259.0</ele><time>2026-04-18T15:29:31Z</time></trkpt><trkpt lat="45.848860651702445" lon="11.941733353391855"><ele>259.0</ele><time>2026-04-18T15:29:32Z</time></trkpt><trkpt lat="45.84878610349325" lon="11.941552141078349"><ele>256.5</ele><time>2026-04-18T15:29:33Z</time></trkpt><trkpt lat="45.848712504102586" lon="11.941359773518448"><ele>254.0</ele><time>2026-04-18T15:29:34Z</time></trkpt><trkpt lat="45.8486628142826" lon="11.941173170555357"><ele>251.5</ele><time>2026-04-18T15:29:35Z</time></trkpt><trkpt lat="45.84869323984523" lon="11.940961239685635"><ele>249.0</ele><time>2026-04-18T15:29:36Z</time></trkpt><trkpt lat="45.84871089144677" lon="11.940727091830967"><ele>248.5</ele><time>2026-04-18T15:29:37Z</time></trkpt><trkpt lat="45.84872257619485" lon="11.9404940893381"><ele>248.0</ele><time>2026-04-18T15:29:38Z</time></trkpt><trkpt lat="45.848764853474805" lon="11.94029134575968"><ele>247.5</ele><time>2026-04-18T15:29:39Z</time></trkpt><trkpt lat="45.84880729198192" lon="11.940105860882285"><ele>247.0</ele><time>2026-04-18T15:29:40Z</time></trkpt><trkpt lat="45.84883064517672" lon="11.939931386317946"><ele>248.25</ele><time>2026-04-18T15:29:41Z</time></trkpt><trkpt lat="45.848838681437165" lon="11.93975497938306"><ele>249.5</ele><time>2026-04-18T15:29:42Z</time></trkpt><trkpt lat="45.84882478375873" lon="11.939587136924583"><ele>250.75</ele><time>2026-04-18T15:29:43Z</time></trkpt><trkpt lat="45.848785558160735" lon="11.939441239751316"><ele>252.0</ele><time>2026-04-18T15:29:44Z</time></trkpt><trkpt lat="45.84874608579921" lon="11.939272178380776"><ele>250.8</ele><time>2026-04-18T15:29:45Z</time></trkpt><trkpt lat="45.8487003815916" lon="11.939116490776168"><ele>249.6</ele><time>2026-04-18T15:29:46Z</time></trkpt><trkpt lat="45.84865461483727" lon="11.938971858135671"><ele>248.40000000000003</ele><time>2026-04-18T15:29:47Z</time></trkpt><trkpt lat="45.848634009415726" lon="11.93885951578941"><ele>247.20000000000002</ele><time>2026-04-18T15:29:48Z</time></trkpt><trkpt lat="45.84859359438761" lon="11.93871103458771"><ele>246.0</ele><time>2026-04-18T15:29:49Z</time></trkpt><trkpt lat="45.84855265235437" lon="11.938567605694862"><ele>246.0</ele><time>2026-04-18T15:29:50Z</time></trkpt><trkpt lat="45.848512929046045" lon="11.938416836548212"><ele>246.0</ele><time>2026-04-18T15:29:51Z</time></trkpt><trkpt lat="45.848472961262374" lon="11.93825078759489"><ele>246.0</ele><time>2026-04-18T15:29:52Z</time></trkpt><trkpt lat="45.84845111848142" lon="11.938086505011887"><ele>246.0</ele><time>2026-04-18T15:29:53Z</time></trkpt><trkpt lat="45.84843206302675" lon="11.937925387606178"><ele>249.25</ele><time>2026-04-18T15:29:54Z</time></trkpt><trkpt lat="45.84842356557975" lon="11.93775480688541"><ele>252.5</ele><time>2026-04-18T15:29:55Z</time></trkpt><trkpt lat="45.84839300986993" lon="11.937588175274865"><ele>255.75</ele><time>2026-04-18T15:29:56Z</time></trkpt><trkpt lat="45.84836139528082" lon="11.937409326253356"><ele>259.0</ele><time>2026-04-18T15:29:57Z</time></trkpt><trkpt lat="45.848353867124736" lon="11.937229759127392"><ele>260.0</ele><time>2026-04-18T15:29:58Z</time></trkpt><trkpt lat="45.84836073846881" lon="11.937050970148194"><ele>261.0</ele><time>2026-04-18T15:29:59Z</time></trkpt><trkpt lat="45.84838856865821" lon="11.936875117844632"><ele>262.0</ele><time>2026-04-18T15:30:00Z</time></trkpt><trkpt lat="45.8484236437062" lon="11.93668861850059"><ele>263.0</ele><time>2026-04-18T15:30:01Z</time></trkpt><trkpt lat="45.84844351141904" lon="11.936506792556871"><ele>263.5</ele><time>2026-04-18T15:30:02Z</time></trkpt><trkpt lat="45.848444493597114" lon="11.936327363710419"><ele>264.0</ele><time>2026-04-18T15:30:03Z</time></trkpt><trkpt lat="45.84844398864365" lon="11.936110289189138"><ele>264.5</ele><time>2026-04-18T15:30:04Z</time></trkpt><trkpt lat="45.84841884776214" lon="11.935920078192382"><ele>265.0</ele><time>2026-04-18T15:30:05Z</time></trkpt><trkpt lat="45.84839314344826" lon="11.935719262169032"><ele>265.0</ele><time>2026-04-18T15:30:06Z</time></trkpt><trkpt lat="45.848365314318386" lon="11.935520644059235"><ele>265.0</ele><time>2026-04-18T15:30:07Z</time></trkpt><trkpt lat="45.84832910485399" lon="11.935334695812667"><ele>265.0</ele><time>2026-04-18T15:30:08Z</time></trkpt><trkpt lat="45.84830522764659" lon="11.93515069626287"><ele>265.0</ele><time>2026-04-18T15:30:09Z</time></trkpt><trkpt lat="45.848286716707726" lon="11.934973384999163"><ele>264.0</ele><time>2026-04-18T15:30:10Z</time></trkpt><trkpt lat="45.84827116639772" lon="11.934784646175077"><ele>263.0</ele><time>2026-04-18T15:30:11Z</time></trkpt><trkpt lat="45.848246618083216" lon="11.934602474088065"><ele>262.0</ele><time>2026-04-18T15:30:12Z</time></trkpt><trkpt lat="45.84821557398732" lon="11.934420528152932"><ele>261.0</ele><time>2026-04-18T15:30:13Z</time></trkpt><trkpt lat="45.84818415168885" lon="11.934227318104513"><ele>259.75</ele><time>2026-04-18T15:30:14Z</time></trkpt><trkpt lat="45.848149858170046" lon="11.93403232333019"><ele>258.5</ele><time>2026-04-18T15:30:15Z</time></trkpt><trkpt lat="45.848131110864664" lon="11.933826157098672"><ele>257.25</ele><time>2026-04-18T15:30:16Z</time></trkpt><trkpt lat="45.84809423560683" lon="11.933621142652871"><ele>256.0</ele><time>2026-04-18T15:30:17Z</time></trkpt><trkpt lat="45.84806560194478" lon="11.933428202417383"><ele>254.75</ele><time>2026-04-18T15:30:18Z</time></trkpt><trkpt lat="45.848023569662956" lon="11.933237564402674"><ele>253.5</ele><time>2026-04-18T15:30:19Z</time></trkpt><trkpt lat="45.84794752141942" lon="11.933047318524576"><ele>252.25</ele><time>2026-04-18T15:30:20Z</time></trkpt><trkpt lat="45.847862946064836" lon="11.932864072869894"><ele>251.0</ele><time>2026-04-18T15:30:21Z</time></trkpt><trkpt lat="45.84777931604754" lon="11.932680887026018"><ele>248.75</ele><time>2026-04-18T15:30:22Z</time></trkpt><trkpt lat="45.847695639765085" lon="11.93249224604056"><ele>246.5</ele><time>2026-04-18T15:30:23Z</time></trkpt><trkpt lat="45.84762493496701" lon="11.93230105858863"><ele>244.25</ele><time>2026-04-18T15:30:24Z</time></trkpt><trkpt lat="45.84756740320109" lon="11.932120145527135"><ele>242.0</ele><time>2026-04-18T15:30:25Z</time></trkpt><trkpt lat="45.84750055689325" lon="11.931945671349828"><ele>245.25</ele><time>2026-04-18T15:30:26Z</time></trkpt><trkpt lat="45.84742083672916" lon="11.931774199858271"><ele>248.5</ele><time>2026-04-18T15:30:27Z</time></trkpt><trkpt lat="45.84734036935682" lon="11.931605463957428"><ele>251.75</ele><time>2026-04-18T15:30:28Z</time></trkpt><trkpt lat="45.84725144608352" lon="11.931449188520208"><ele>255.0</ele><time>2026-04-18T15:30:29Z</time></trkpt><trkpt lat="45.84715917272087" lon="11.931314918384007"><ele>255.0</ele><time>2026-04-18T15:30:30Z</time></trkpt><trkpt lat="45.8470566099118" lon="11.931162742590919"><ele>255.0</ele><time>2026-04-18T15:30:31Z</time></trkpt><trkpt lat="45.84695442258757" lon="11.93102191475869"><ele>255.0</ele><time>2026-04-18T15:30:32Z</time></trkpt><trkpt lat="45.84687430944158" lon="11.930857409753246"><ele>255.0</ele><time>2026-04-18T15:30:33Z</time></trkpt><trkpt lat="45.84679258770308" lon="11.930719339325767"><ele>254.75</ele><time>2026-04-18T15:30:34Z</time></trkpt><trkpt lat="45.84670759285475" lon="11.930586254628578"><ele>254.5</ele><time>2026-04-18T15:30:35Z</time></trkpt><trkpt lat="45.84658229206209" lon="11.93046147667647"><ele>254.25</ele><time>2026-04-18T15:30:36Z</time></trkpt><trkpt lat="45.84644431180312" lon="11.930357439312663"><ele>254.0</ele><time>2026-04-18T15:30:37Z</time></trkpt><trkpt lat="45.84632286062256" lon="11.930240166284475"><ele>254.0</ele><time>2026-04-18T15:30:38Z</time></trkpt><trkpt lat="45.8462130910296" lon="11.930106842473883"><ele>254.0</ele><time>2026-04-18T15:30:38.999Z</time></trkpt><trkpt lat="45.846115224208006" lon="11.929959811162028"><ele>254.0</ele><time>2026-04-18T15:30:39.999Z</time></trkpt><trkpt lat="45.846058434487794" lon="11.929789519784979"><ele>254.0</ele><time>2026-04-18T15:30:40.999Z</time></trkpt><trkpt lat="45.84603621064001" lon="11.92959088311245"><ele>248.33333333333334</ele><time>2026-04-18T15:30:41.999Z</time></trkpt><trkpt lat="45.84603049165196" lon="11.929336052806853"><ele>242.66666666666669</ele><time>2026-04-18T15:30:42.999Z</time></trkpt><trkpt lat="45.846050604646074" lon="11.929050773513977"><ele>237.0</ele><time>2026-04-18T15:30:43.999Z</time></trkpt><trkpt lat="45.84606980319086" lon="11.928751970130953"><ele>235.0</ele><time>2026-04-18T15:30:44.999Z</time></trkpt><trkpt lat="45.84608226270683" lon="11.928493360927273"><ele>233.0</ele><time>2026-04-18T15:30:45.999Z</time></trkpt><trkpt lat="45.84608818434225" lon="11.928264696456615"><ele>231.0</ele><time>2026-04-18T15:30:46.999Z</time></trkpt><trkpt lat="45.84608755769535" lon="11.92805600713829"><ele>231.0</ele><time>2026-04-18T15:30:47.999Z</time></trkpt><trkpt lat="45.84609108706051" lon="11.927866521204999"><ele>231.0</ele><time>2026-04-18T15:30:48.999Z</time></trkpt><trkpt lat="45.846094493675885" lon="11.927669626933735"><ele>231.0</ele><time>2026-04-18T15:30:49.999Z</time></trkpt><trkpt lat="45.84609971009191" lon="11.927469566127227"><ele>231.0</ele><time>2026-04-18T15:30:50.999Z</time></trkpt><trkpt lat="45.84611249107619" lon="11.927280457348342"><ele>231.25</ele><time>2026-04-18T15:30:51.999Z</time></trkpt><trkpt lat="45.84613915965897" lon="11.927098554167332"><ele>231.5</ele><time>2026-04-18T15:30:52.999Z</time></trkpt><trkpt lat="45.84616139503119" lon="11.926921229640461"><ele>231.75</ele><time>2026-04-18T15:30:53.999Z</time></trkpt><trkpt lat="45.84623227196379" lon="11.926758884321835"><ele>232.0</ele><time>2026-04-18T15:30:54.999Z</time></trkpt><trkpt lat="45.84629623593838" lon="11.926578209669206"><ele>233.0</ele><time>2026-04-18T15:30:55.999Z</time></trkpt><trkpt lat="45.846352018506735" lon="11.926408548493914"><ele>234.0</ele><time>2026-04-18T15:30:56.999Z</time></trkpt><trkpt lat="45.84641150055408" lon="11.926246173536043"><ele>235.0</ele><time>2026-04-18T15:30:57.999Z</time></trkpt><trkpt lat="45.84647396429033" lon="11.926098985226599"><ele>236.0</ele><time>2026-04-18T15:30:58.999Z</time></trkpt><trkpt lat="45.84649843294287" lon="11.925974072020795"><ele>236.8</ele><time>2026-04-18T15:30:59.999Z</time></trkpt><trkpt lat="45.84653218698483" lon="11.925867925060464"><ele>237.60000000000002</ele><time>2026-04-18T15:31:00.999Z</time></trkpt><trkpt lat="45.846564539137844" lon="11.925758364511822"><ele>238.4</ele><time>2026-04-18T15:31:01.999Z</time></trkpt><trkpt lat="45.84656691377479" lon="11.925631958565248"><ele>239.2</ele><time>2026-04-18T15:31:02.999Z</time></trkpt><trkpt lat="45.84656909926494" lon="11.925461051842921"><ele>240.0</ele><time>2026-04-18T15:31:03.999Z</time></trkpt><trkpt lat="45.8465689798699" lon="11.925290125103988"><ele>240.0</ele><time>2026-04-18T15:31:04.999Z</time></trkpt><trkpt lat="45.84656034335487" lon="11.925135451746222"><ele>240.0</ele><time>2026-04-18T15:31:05.999Z</time></trkpt><trkpt lat="45.84652632738464" lon="11.92498645356115"><ele>240.0</ele><time>2026-04-18T15:31:06.999Z</time></trkpt><trkpt lat="45.84646200064347" lon="11.92484443699197"><ele>240.0</ele><time>2026-04-18T15:31:07.999Z</time></trkpt><trkpt lat="45.84637452856314" lon="11.924709444669263"><ele>240.25</ele><time>2026-04-18T15:31:08.999Z</time></trkpt><trkpt lat="45.84629456512461" lon="11.924564630509087"><ele>240.5</ele><time>2026-04-18T15:31:09.999Z</time></trkpt><trkpt lat="45.846244435109504" lon="11.92438175683394"><ele>240.75</ele><time>2026-04-18T15:31:10.999Z</time></trkpt><trkpt lat="45.846235239594854" lon="11.92416300764973"><ele>241.0</ele><time>2026-04-18T15:31:11.999Z</time></trkpt><trkpt lat="45.84625051592812" lon="11.923946235458667"><ele>241.0</ele><time>2026-04-18T15:31:12.999Z</time></trkpt><trkpt lat="45.84628350504317" lon="11.9237352289594"><ele>241.0</ele><time>2026-04-18T15:31:13.999Z</time></trkpt><trkpt lat="45.846311591517974" lon="11.923556539050347"><ele>241.0</ele><time>2026-04-18T15:31:14.999Z</time></trkpt><trkpt lat="45.8463276555661" lon="11.923398026859966"><ele>241.0</ele><time>2026-04-18T15:31:15.999Z</time></trkpt><trkpt lat="45.846366309354174" lon="11.923248507274858"><ele>243.25</ele><time>2026-04-18T15:31:16.999Z</time></trkpt><trkpt lat="45.84643020095564" lon="11.923113206000433"><ele>245.5</ele><time>2026-04-18T15:31:17.999Z</time></trkpt><trkpt lat="45.84652457790755" lon="11.922994494350046"><ele>247.75</ele><time>2026-04-18T15:31:18.999Z</time></trkpt><trkpt lat="45.846621221777866" lon="11.922853129955673"><ele>250.0</ele><time>2026-04-18T15:31:19.999Z</time></trkpt><trkpt lat="45.8466951832637" lon="11.922693733907535"><ele>250.0</ele><time>2026-04-18T15:31:20.999Z</time></trkpt><trkpt lat="45.84675220085917" lon="11.922513119923643"><ele>250.0</ele><time>2026-04-18T15:31:21.999Z</time></trkpt><trkpt lat="45.84681727774653" lon="11.922334001294153"><ele>250.0</ele><time>2026-04-18T15:31:22.999Z</time></trkpt><trkpt lat="45.8469168760383" lon="11.922189123377146"><ele>250.0</ele><time>2026-04-18T15:31:23.999Z</time></trkpt><trkpt lat="45.84700887929658" lon="11.922072685461437"><ele>250.0</ele><time>2026-04-18T15:31:24.999Z</time></trkpt><trkpt lat="45.84707353560194" lon="11.921948019905692"><ele>250.0</ele><time>2026-04-18T15:31:25.999Z</time></trkpt><trkpt lat="45.84713120189915" lon="11.921807900465728"><ele>250.0</ele><time>2026-04-18T15:31:26.999Z</time></trkpt><trkpt lat="45.847172199510574" lon="11.921651368677333"><ele>250.0</ele><time>2026-04-18T15:31:27.999Z</time></trkpt><trkpt lat="45.847213574309094" lon="11.92152324874154"><ele>250.0</ele><time>2026-04-18T15:31:28.999Z</time></trkpt><trkpt lat="45.847253560292586" lon="11.921419020309928"><ele>251.83333333333331</ele><time>2026-04-18T15:31:30Z</time></trkpt><trkpt lat="45.84726973896653" lon="11.921317674561767"><ele>253.66666666666666</ele><time>2026-04-18T15:31:31Z</time></trkpt><trkpt lat="45.84729729246152" lon="11.921224404174312"><ele>255.5</ele><time>2026-04-18T15:31:32Z</time></trkpt><trkpt lat="45.84732577332994" lon="11.921135253340466"><ele>257.3333333333333</ele><time>2026-04-18T15:31:33Z</time></trkpt><trkpt lat="45.847386708634275" lon="11.92104796391426"><ele>259.1666666666667</ele><time>2026-04-18T15:31:34Z</time></trkpt><trkpt lat="45.84748726739115" lon="11.921010295894186"><ele>261.0</ele><time>2026-04-18T15:31:35Z</time></trkpt><trkpt lat="45.847592162021776" lon="11.920935313048247"><ele>259.25</ele><time>2026-04-18T15:31:36Z</time></trkpt><trkpt lat="45.847696639478556" lon="11.920849160870441"><ele>257.5</ele><time>2026-04-18T15:31:37Z</time></trkpt><trkpt lat="45.847815327453446" lon="11.92077781897749"><ele>255.75</ele><time>2026-04-18T15:31:38Z</time></trkpt><trkpt lat="45.84793775685326" lon="11.920743491871713"><ele>254.0</ele><time>2026-04-18T15:31:39Z</time></trkpt><trkpt lat="45.84804164131786" lon="11.920679955105763"><ele>254.0</ele><time>2026-04-18T15:31:40Z</time></trkpt><trkpt lat="45.84812439849077" lon="11.920633525914038"><ele>253.99999999999997</ele><time>2026-04-18T15:31:41Z</time></trkpt><trkpt lat="45.84821043525747" lon="11.920562712633577"><ele>253.99999999999997</ele><time>2026-04-18T15:31:42Z</time></trkpt><trkpt lat="45.84824713358142" lon="11.920440788619837"><ele>254.0</ele><time>2026-04-18T15:31:43Z</time></trkpt><trkpt lat="45.848248519093204" lon="11.920308398485444"><ele>254.0</ele><time>2026-04-18T15:31:44Z</time></trkpt><trkpt lat="45.84823677661557" lon="11.920185817111891"><ele>254.00000000000003</ele><time>2026-04-18T15:31:45Z</time></trkpt><trkpt lat="45.848229495097605" lon="11.920068578736203"><ele>254.0</ele><time>2026-04-18T15:31:46Z</time></trkpt><trkpt lat="45.84823687271731" lon="11.91995272544475"><ele>254.0</ele><time>2026-04-18T15:31:47Z</time></trkpt><trkpt lat="45.84828118343866" lon="11.919857283960926"><ele>254.0</ele><time>2026-04-18T15:31:48Z</time></trkpt><trkpt lat="45.84836620789742" lon="11.919849323416305"><ele>254.00000000000003</ele><time>2026-04-18T15:31:49Z</time></trkpt><trkpt lat="45.84848031452984" lon="11.919903571263168"><ele>254.0</ele><time>2026-04-18T15:31:50Z</time></trkpt><trkpt lat="45.84859379700966" lon="11.9199322939233"><ele>256.4</ele><time>2026-04-18T15:31:51Z</time></trkpt><trkpt lat="45.8486954280378" lon="11.91995484143525"><ele>258.79999999999995</ele><time>2026-04-18T15:31:52Z</time></trkpt><trkpt lat="45.84879784178663" lon="11.919957816330507"><ele>261.20000000000005</ele><time>2026-04-18T15:31:53Z</time></trkpt><trkpt lat="45.848880477967725" lon="11.91991953686178"><ele>263.6</ele><time>2026-04-18T15:31:54Z</time></trkpt><trkpt lat="45.84894939531623" lon="11.91980018383249"><ele>266.0</ele><time>2026-04-18T15:31:55Z</time></trkpt><trkpt lat="45.84894666184765" lon="11.919578112187132"><ele>266.0</ele><time>2026-04-18T15:31:56Z</time></trkpt><trkpt lat="45.84898156044485" lon="11.91944561149915"><ele>266.0</ele><time>2026-04-18T15:31:57Z</time></trkpt><trkpt lat="45.84900805376797" lon="11.919338231014038"><ele>266.0</ele><time>2026-04-18T15:31:58Z</time></trkpt><trkpt lat="45.84904117564413" lon="11.919187098650072"><ele>266.0</ele><time>2026-04-18T15:31:59Z</time></trkpt><trkpt lat="45.849047375016916" lon="11.919036842771495"><ele>266.0</ele><time>2026-04-18T15:32:00Z</time></trkpt><trkpt lat="45.84905400944339" lon="11.918891542876967"><ele>265.6666666666667</ele><time>2026-04-18T15:32:01Z</time></trkpt><trkpt lat="45.849048626864985" lon="11.91875236036079"><ele>265.33333333333337</ele><time>2026-04-18T15:32:02Z</time></trkpt><trkpt lat="45.849002280907804" lon="11.918639925084353"><ele>265.0</ele><time>2026-04-18T15:32:03Z</time></trkpt><trkpt lat="45.848966190942015" lon="11.918530688271186"><ele>264.6666666666667</ele><time>2026-04-18T15:32:04Z</time></trkpt><trkpt lat="45.84892290257442" lon="11.91842317829431"><ele>264.3333333333333</ele><time>2026-04-18T15:32:05Z</time></trkpt><trkpt lat="45.848890965421944" lon="11.918311637537087"><ele>264.0</ele><time>2026-04-18T15:32:06Z</time></trkpt><trkpt lat="45.848854034912044" lon="11.918211327873298"><ele>263.85714285714283</ele><time>2026-04-18T15:32:07Z</time></trkpt><trkpt lat="45.84882047810272" lon="11.918117228196069"><ele>263.7142857142857</ele><time>2026-04-18T15:32:08Z</time></trkpt><trkpt lat="45.848794413267484" lon="11.918019490926296"><ele>263.57142857142856</ele><time>2026-04-18T15:32:09Z</time></trkpt><trkpt lat="45.848774461894386" lon="11.917924141200537"><ele>263.42857142857144</ele><time>2026-04-18T15:32:10Z</time></trkpt><trkpt lat="45.848750486890516" lon="11.917838022056186"><ele>263.2857142857143</ele><time>2026-04-18T15:32:11Z</time></trkpt><trkpt lat="45.8487222973012" lon="11.91773786742034"><ele>263.1428571428571</ele><time>2026-04-18T15:32:12Z</time></trkpt><trkpt lat="45.848686815011085" lon="11.917633842956294"><ele>263.0</ele><time>2026-04-18T15:32:13Z</time></trkpt><trkpt lat="45.848644582034275" lon="11.917508074462843"><ele>263.6</ele><time>2026-04-18T15:32:14Z</time></trkpt><trkpt lat="45.84860403026623" lon="11.917368400079722"><ele>264.20000000000005</ele><time>2026-04-18T15:32:15Z</time></trkpt><trkpt lat="45.84856215360734" lon="11.91722926967507"><ele>264.8</ele><time>2026-04-18T15:32:16Z</time></trkpt><trkpt lat="45.84853814517826" lon="11.91708494797994"><ele>265.40000000000003</ele><time>2026-04-18T15:32:17Z</time></trkpt><trkpt lat="45.848502702912626" lon="11.916940557299435"><ele>266.0</ele><time>2026-04-18T15:32:18Z</time></trkpt><trkpt lat="45.848477060215274" lon="11.916805674875869"><ele>266.0</ele><time>2026-04-18T15:32:19Z</time></trkpt><trkpt lat="45.848474881480605" lon="11.916711308751452"><ele>266.0</ele><time>2026-04-18T15:32:20Z</time></trkpt><trkpt lat="45.84848967160651" lon="11.916559215236948"><ele>266.0</ele><time>2026-04-18T15:32:21Z</time></trkpt><trkpt lat="45.848541315223486" lon="11.91641356877428"><ele>266.0</ele><time>2026-04-18T15:32:22Z</time></trkpt><trkpt lat="45.84860122388934" lon="11.916279568306209"><ele>266.0</ele><time>2026-04-18T15:32:23Z</time></trkpt><trkpt lat="45.848665932352276" lon="11.916137348868158"><ele>266.0</ele><time>2026-04-18T15:32:24Z</time></trkpt><trkpt lat="45.84871910812549" lon="11.915958038897678"><ele>266.0</ele><time>2026-04-18T15:32:25Z</time></trkpt><trkpt lat="45.848754078623486" lon="11.915806329737206"><ele>266.0</ele><time>2026-04-18T15:32:26Z</time></trkpt><trkpt lat="45.84875501977739" lon="11.91565607984409"><ele>266.0</ele><time>2026-04-18T15:32:27Z</time></trkpt><trkpt lat="45.84874958346332" lon="11.915524194558797"><ele>266.0</ele><time>2026-04-18T15:32:28Z</time></trkpt><trkpt lat="45.8487426186919" lon="11.915416609277376"><ele>264.2</ele><time>2026-04-18T15:32:29Z</time></trkpt><trkpt lat="45.84875112530953" lon="11.91528221012252"><ele>262.40000000000003</ele><time>2026-04-18T15:32:31Z</time></trkpt><trkpt lat="45.848864512922454" lon="11.915305428080359"><ele>260.6</ele><time>2026-04-18T15:32:33Z</time></trkpt><trkpt lat="45.8489871154815" lon="11.91526493260932"><ele>258.8</ele><time>2026-04-18T15:32:34Z</time></trkpt><trkpt lat="45.849089601941" lon="11.91523127040641"><ele>257.0</ele><time>2026-04-18T15:32:35Z</time></trkpt><trkpt lat="45.84918051383981" lon="11.91518916516689"><ele>257.0</ele><time>2026-04-18T15:32:36Z</time></trkpt><trkpt lat="45.849259687778456" lon="11.915146915132757"><ele>257.0</ele><time>2026-04-18T15:32:37Z</time></trkpt><trkpt lat="45.84934202034772" lon="11.915040079101779"><ele>257.0</ele><time>2026-04-18T15:32:38Z</time></trkpt><trkpt lat="45.84933000695661" lon="11.914787193387085"><ele>257.0</ele><time>2026-04-18T15:32:39Z</time></trkpt><trkpt lat="45.84936394686876" lon="11.914628541223694"><ele>247.0</ele><time>2026-04-18T15:32:40Z</time></trkpt><trkpt lat="45.84938315075753" lon="11.914459674401671"><ele>237.0</ele><time>2026-04-18T15:32:41Z</time></trkpt><trkpt lat="45.84939057517754" lon="11.914276841358006"><ele>227.0</ele><time>2026-04-18T15:32:42Z</time></trkpt><trkpt lat="45.849420357006935" lon="11.914078994637686"><ele>217.0</ele><time>2026-04-18T15:32:43Z</time></trkpt><trkpt lat="45.84946449510062" lon="11.913893961874422"><ele>217.0</ele><time>2026-04-18T15:32:44Z</time></trkpt><trkpt lat="45.84947788647082" lon="11.91370548814104"><ele>217.0</ele><time>2026-04-18T15:32:45Z</time></trkpt><trkpt lat="45.849513092428275" lon="11.91352388067932"><ele>217.0</ele><time>2026-04-18T15:32:46Z</time></trkpt><trkpt lat="45.84954931349082" lon="11.91334263074336"><ele>217.0</ele><time>2026-04-18T15:32:46.999Z</time></trkpt><trkpt lat="45.84958917605533" lon="11.913161454739411"><ele>217.0</ele><time>2026-04-18T15:32:47.999Z</time></trkpt><trkpt lat="45.84962552833282" lon="11.91297904391865"><ele>217.0</ele><time>2026-04-18T15:32:48.999Z</time></trkpt><trkpt lat="45.84967108132585" lon="11.912798126629653"><ele>217.0</ele><time>2026-04-18T15:32:49.999Z</time></trkpt><trkpt lat="45.84969916524228" lon="11.91261725165322"><ele>217.0</ele><time>2026-04-18T15:32:50.999Z</time></trkpt><trkpt lat="45.849733547654516" lon="11.912431373444734"><ele>217.0</ele><time>2026-04-18T15:32:51.999Z</time></trkpt><trkpt lat="45.84976962122107" lon="11.912243427668814"><ele>217.0</ele><time>2026-04-18T15:32:52.999Z</time></trkpt><trkpt lat="45.84980404018225" lon="11.912048854496426"><ele>217.0</ele><time>2026-04-18T15:32:53.999Z</time></trkpt><trkpt lat="45.849828661556955" lon="11.911863533319055"><ele>217.0</ele><time>2026-04-18T15:32:54.999Z</time></trkpt><trkpt lat="45.84985143474726" lon="11.911676187605128"><ele>217.25</ele><time>2026-04-18T15:32:55.999Z</time></trkpt><trkpt lat="45.84987657570233" lon="11.91150016946684"><ele>217.5</ele><time>2026-04-18T15:32:56.999Z</time></trkpt><trkpt lat="45.84989693188284" lon="11.911319712306165"><ele>217.75</ele><time>2026-04-18T15:32:57.999Z</time></trkpt><trkpt lat="45.849916835106455" lon="11.911146322250376"><ele>218.0</ele><time>2026-04-18T15:32:58.999Z</time></trkpt><trkpt lat="45.849933087181874" lon="11.910971374263953"><ele>218.75</ele><time>2026-04-18T15:32:59.999Z</time></trkpt><trkpt lat="45.84995637205465" lon="11.910785500596297"><ele>219.5</ele><time>2026-04-18T15:33:00.999Z</time></trkpt><trkpt lat="45.8499745882378" lon="11.910592445028039"><ele>220.25</ele><time>2026-04-18T15:33:01.999Z</time></trkpt><trkpt lat="45.849994413437344" lon="11.910391080182979"><ele>221.0</ele><time>2026-04-18T15:33:02.999Z</time></trkpt><trkpt lat="45.850029285517905" lon="11.910184087497582"><ele>221.0</ele><time>2026-04-18T15:33:03.999Z</time></trkpt><trkpt lat="45.85007712699142" lon="11.909974610577724"><ele>221.0</ele><time>2026-04-18T15:33:04.999Z</time></trkpt><trkpt lat="45.850132807701605" lon="11.90975699837259"><ele>221.0</ele><time>2026-04-18T15:33:05.999Z</time></trkpt><trkpt lat="45.85019414366492" lon="11.909533938190476"><ele>215.0</ele><time>2026-04-18T15:33:06.999Z</time></trkpt><trkpt lat="45.85025813906838" lon="11.909303513552025"><ele>209.0</ele><time>2026-04-18T15:33:07.999Z</time></trkpt><trkpt lat="45.85031360396597" lon="11.909069193227571"><ele>203.0</ele><time>2026-04-18T15:33:08.999Z</time></trkpt><trkpt lat="45.85037911911887" lon="11.908823183681836"><ele>203.0</ele><time>2026-04-18T15:33:09.999Z</time></trkpt><trkpt lat="45.850448247984055" lon="11.908574680041552"><ele>203.0</ele><time>2026-04-18T15:33:10.999Z</time></trkpt><trkpt lat="45.85051543796295" lon="11.908324683880705"><ele>203.0</ele><time>2026-04-18T15:33:11.999Z</time></trkpt><trkpt lat="45.85058211352251" lon="11.90806810523754"><ele>203.66666666666669</ele><time>2026-04-18T15:33:12.999Z</time></trkpt><trkpt lat="45.85064854445695" lon="11.90779930401088"><ele>204.33333333333331</ele><time>2026-04-18T15:33:13.999Z</time></trkpt><trkpt lat="45.850699715617594" lon="11.90752481045569"><ele>205.0</ele><time>2026-04-18T15:33:14.999Z</time></trkpt><trkpt lat="45.85073188059748" lon="11.90725495951589"><ele>205.33333333333331</ele><time>2026-04-18T15:33:15.999Z</time></trkpt><trkpt lat="45.85075270540103" lon="11.907000252178113"><ele>205.66666666666669</ele><time>2026-04-18T15:33:16.999Z</time></trkpt><trkpt lat="45.85076484435602" lon="11.906767874288695"><ele>206.0</ele><time>2026-04-18T15:33:17.999Z</time></trkpt><trkpt lat="45.85079544114178" lon="11.906551681684343"><ele>206.25</ele><time>2026-04-18T15:33:18.999Z</time></trkpt><trkpt lat="45.85083968180888" lon="11.906345268120088"><ele>206.5</ele><time>2026-04-18T15:33:19.999Z</time></trkpt><trkpt lat="45.850924853331804" lon="11.906169654058713"><ele>206.75</ele><time>2026-04-18T15:33:20.999Z</time></trkpt><trkpt lat="45.851037318250256" lon="11.906047096440718"><ele>207.0</ele><time>2026-04-18T15:33:21.999Z</time></trkpt><trkpt lat="45.85118556342018" lon="11.90599989168784"><ele>207.33333333333331</ele><time>2026-04-18T15:33:22.999Z</time></trkpt><trkpt lat="45.85132639257259" lon="11.90587630005963"><ele>207.66666666666666</ele><time>2026-04-18T15:33:23.999Z</time></trkpt><trkpt lat="45.851489647387616" lon="11.905789467730894"><ele>208.0</ele><time>2026-04-18T15:33:24.999Z</time></trkpt><trkpt lat="45.85163906641484" lon="11.90569979541395"><ele>208.0</ele><time>2026-04-18T15:33:25.999Z</time></trkpt><trkpt lat="45.85179096672957" lon="11.9056045199274"><ele>208.0</ele><time>2026-04-18T15:33:26.999Z</time></trkpt><trkpt lat="45.85194622970238" lon="11.905509643347417"><ele>208.0</ele><time>2026-04-18T15:33:27.999Z</time></trkpt><trkpt lat="45.85210542420619" lon="11.905415117806063"><ele>208.0</ele><time>2026-04-18T15:33:28.999Z</time></trkpt><trkpt lat="45.85226518877036" lon="11.905329269034391"><ele>208.0</ele><time>2026-04-18T15:33:29.999Z</time></trkpt><trkpt lat="45.85242951416701" lon="11.905226075586718"><ele>208.0</ele><time>2026-04-18T15:33:30.999Z</time></trkpt><trkpt lat="45.85258279722992" lon="11.905131002246153"><ele>208.5</ele><time>2026-04-18T15:33:31.999Z</time></trkpt><trkpt lat="45.85272808400795" lon="11.90504357572304"><ele>209.0</ele><time>2026-04-18T15:33:32.999Z</time></trkpt><trkpt lat="45.85285950597146" lon="11.904966545721134"><ele>209.5</ele><time>2026-04-18T15:33:33.999Z</time></trkpt><trkpt lat="45.85298399710289" lon="11.904890243350124"><ele>210.0</ele><time>2026-04-18T15:33:34.999Z</time></trkpt><trkpt lat="45.85309599780387" lon="11.904811156824795"><ele>210.0</ele><time>2026-04-18T15:33:36Z</time></trkpt><trkpt lat="45.853189712132924" lon="11.904755279634667"><ele>210.0</ele><time>2026-04-18T15:33:37Z</time></trkpt><trkpt lat="45.85325308779638" lon="11.904742638381064"><ele>210.0</ele><time>2026-04-18T15:33:38Z</time></trkpt><trkpt lat="45.8533184382196" lon="11.904736958161362"><ele>210.0</ele><time>2026-04-18T15:36:24Z</time></trkpt><trkpt lat="45.85340074147985" lon="11.904693279951086"><ele>210.0</ele><time>2026-04-18T15:36:26Z</time></trkpt><trkpt lat="45.85349347617002" lon="11.90467971403462"><ele>210.0</ele><time>2026-04-18T15:36:28Z</time></trkpt><trkpt lat="45.853547356199634" lon="11.904586890223657"><ele>209.8</ele><time>2026-04-18T15:36:36Z</time></trkpt><trkpt lat="45.85356757075842" lon="11.904404959956612"><ele>209.6</ele><time>2026-04-18T15:36:38Z</time></trkpt><trkpt lat="45.85356319194717" lon="11.904281220683078"><ele>209.39999999999998</ele><time>2026-04-18T15:36:39Z</time></trkpt><trkpt lat="45.85356456189424" lon="11.90414797024903"><ele>209.2</ele><time>2026-04-18T15:36:40Z</time></trkpt><trkpt lat="45.85356401846927" lon="11.90398237429134"><ele>209.0</ele><time>2026-04-18T15:36:41Z</time></trkpt><trkpt lat="45.853553950659816" lon="11.90378225061482"><ele>209.5</ele><time>2026-04-18T15:36:42Z</time></trkpt><trkpt lat="45.853544121203036" lon="11.903607042205412"><ele>210.0</ele><time>2026-04-18T15:36:43Z</time></trkpt><trkpt lat="45.85354056282319" lon="11.903425304235943"><ele>210.5</ele><time>2026-04-18T15:36:44Z</time></trkpt><trkpt lat="45.85354286590864" lon="11.903234236524703"><ele>211.0</ele><time>2026-04-18T15:36:45Z</time></trkpt><trkpt lat="45.85355168429209" lon="11.90303254430582"><ele>211.5</ele><time>2026-04-18T15:36:46Z</time></trkpt><trkpt lat="45.853567620995875" lon="11.902826680250872"><ele>212.0</ele><time>2026-04-18T15:36:47Z</time></trkpt><trkpt lat="45.85358635399964" lon="11.90261584499212"><ele>212.5</ele><time>2026-04-18T15:36:48Z</time></trkpt><trkpt lat="45.85361203814636" lon="11.902403676139397"><ele>213.0</ele><time>2026-04-18T15:36:49Z</time></trkpt><trkpt lat="45.85363118776075" lon="11.902186857804065"><ele>213.0</ele><time>2026-04-18T15:36:50Z</time></trkpt><trkpt lat="45.85365250164993" lon="11.901965459484714"><ele>213.0</ele><time>2026-04-18T15:36:51Z</time></trkpt><trkpt lat="45.85366773282461" lon="11.901738728063448"><ele>213.0</ele><time>2026-04-18T15:36:52Z</time></trkpt><trkpt lat="45.85369220588298" lon="11.901520584925457"><ele>213.33333333333331</ele><time>2026-04-18T15:36:53Z</time></trkpt><trkpt lat="45.85370896326515" lon="11.901295129500479"><ele>213.66666666666666</ele><time>2026-04-18T15:36:54Z</time></trkpt><trkpt lat="45.85371858522182" lon="11.901061063873746"><ele>214.0</ele><time>2026-04-18T15:36:55Z</time></trkpt><trkpt lat="45.85372598641176" lon="11.900840779660081"><ele>214.5</ele><time>2026-04-18T15:36:56Z</time></trkpt><trkpt lat="45.85372281836469" lon="11.900630185841662"><ele>215.0</ele><time>2026-04-18T15:36:57Z</time></trkpt><trkpt lat="45.85370965750365" lon="11.900439620301317"><ele>215.5</ele><time>2026-04-18T15:36:58Z</time></trkpt><trkpt lat="45.85370217584811" lon="11.90025615765857"><ele>216.0</ele><time>2026-04-18T15:36:58.999Z</time></trkpt><trkpt lat="45.853694683581594" lon="11.900088748606713"><ele>216.0</ele><time>2026-04-18T15:36:59.999Z</time></trkpt><trkpt lat="45.85368076455629" lon="11.899927763580987"><ele>216.0</ele><time>2026-04-18T15:37:00.999Z</time></trkpt><trkpt lat="45.85370027436947" lon="11.899787943769034"><ele>216.0</ele><time>2026-04-18T15:37:01.999Z</time></trkpt><trkpt lat="45.853670503264155" lon="11.899687353801225"><ele>216.0</ele><time>2026-04-18T15:37:02.999Z</time></trkpt><trkpt lat="45.85396793191445" lon="11.899563224995639"><ele>216.0</ele><time>2026-04-18T15:37:04.999Z</time></trkpt><trkpt lat="45.85409942590629" lon="11.899542772790205"><ele>216.0</ele><time>2026-04-18T15:37:05.999Z</time></trkpt><trkpt lat="45.85423330222317" lon="11.899496829912575"><ele>216.0</ele><time>2026-04-18T15:37:06.999Z</time></trkpt><trkpt lat="45.85437000544205" lon="11.899458921943797"><ele>216.0</ele><time>2026-04-18T15:37:07.999Z</time></trkpt><trkpt lat="45.854511761024064" lon="11.899413904472798"><ele>216.25</ele><time>2026-04-18T15:37:08.999Z</time></trkpt><trkpt lat="45.854656729345706" lon="11.899373163190868"><ele>216.5</ele><time>2026-04-18T15:37:09.999Z</time></trkpt><trkpt lat="45.85479202654053" lon="11.899325565651262"><ele>216.75</ele><time>2026-04-18T15:37:10.999Z</time></trkpt><trkpt lat="45.85491839430348" lon="11.899295129484745"><ele>217.0</ele><time>2026-04-18T15:37:11.999Z</time></trkpt><trkpt lat="45.855038447713156" lon="11.899248492931859"><ele>217.39999999999998</ele><time>2026-04-18T15:37:12.999Z</time></trkpt><trkpt lat="45.855156761735756" lon="11.899186320620792"><ele>217.79999999999998</ele><time>2026-04-18T15:37:13.999Z</time></trkpt><trkpt lat="45.855263157760575" lon="11.89912075295837"><ele>218.2</ele><time>2026-04-18T15:37:14.999Z</time></trkpt><trkpt lat="45.855352006663374" lon="11.899055501223188"><ele>218.6</ele><time>2026-04-18T15:37:15.999Z</time></trkpt><trkpt lat="45.85541153496572" lon="11.898992823531193"><ele>219.0</ele><time>2026-04-18T15:37:16.999Z</time></trkpt><trkpt lat="45.85547574521035" lon="11.898975238198235"><ele>219.0</ele><time>2026-04-18T15:37:18.999Z</time></trkpt><trkpt lat="45.855521741412915" lon="11.899150321089397"><ele>218.99999999999997</ele><time>2026-04-18T15:37:19.999Z</time></trkpt><trkpt lat="45.85554972583383" lon="11.899273179683155"><ele>218.99999999999997</ele><time>2026-04-18T15:37:20.999Z</time></trkpt><trkpt lat="45.85559691141908" lon="11.899377560958703"><ele>219.0</ele><time>2026-04-18T15:37:21.999Z</time></trkpt><trkpt lat="45.855647596819544" lon="11.899471127690251"><ele>219.0</ele><time>2026-04-18T15:37:22.999Z</time></trkpt><trkpt lat="45.855706731891" lon="11.899546336496366"><ele>219.0</ele><time>2026-04-18T15:37:23.999Z</time></trkpt><trkpt lat="45.855777046470145" lon="11.899612855946257"><ele>218.99999999999997</ele><time>2026-04-18T15:37:24.999Z</time></trkpt><trkpt lat="45.855857563841234" lon="11.89968439500215"><ele>218.99999999999997</ele><time>2026-04-18T15:37:25.999Z</time></trkpt><trkpt lat="45.85594801075888" lon="11.89974273926284"><ele>219.0</ele><time>2026-04-18T15:37:26.999Z</time></trkpt><trkpt lat="45.85604835941483" lon="11.899791344407594"><ele>219.0</ele><time>2026-04-18T15:37:27.999Z</time></trkpt><trkpt lat="45.85616943260255" lon="11.899821811543664"><ele>219.75</ele><time>2026-04-18T15:37:28.999Z</time></trkpt><trkpt lat="45.856287249996114" lon="11.899868056615883"><ele>220.5</ele><time>2026-04-18T15:37:29.999Z</time></trkpt><trkpt lat="45.856381106007404" lon="11.899960077555287"><ele>221.25</ele><time>2026-04-18T15:37:30.999Z</time></trkpt><trkpt lat="45.856457436475104" lon="11.900085995669109"><ele>222.0</ele><time>2026-04-18T15:37:31.999Z</time></trkpt><trkpt lat="45.85649908186976" lon="11.900257378017454"><ele>222.25</ele><time>2026-04-18T15:37:32.999Z</time></trkpt><trkpt lat="45.856530088164575" lon="11.90044437382484"><ele>222.5</ele><time>2026-04-18T15:37:33.999Z</time></trkpt><trkpt lat="45.85655912953475" lon="11.900633100891504"><ele>222.75</ele><time>2026-04-18T15:37:34.999Z</time></trkpt><trkpt lat="45.856601616516386" lon="11.900825940052536"><ele>223.0</ele><time>2026-04-18T15:37:35.999Z</time></trkpt><trkpt lat="45.85662136505437" lon="11.901025484141469"><ele>222.25</ele><time>2026-04-18T15:37:36.999Z</time></trkpt><trkpt lat="45.85664602247258" lon="11.901228238072159"><ele>221.5</ele><time>2026-04-18T15:37:37.999Z</time></trkpt><trkpt lat="45.85666677181589" lon="11.901426042412323"><ele>220.75</ele><time>2026-04-18T15:37:38.999Z</time></trkpt><trkpt lat="45.85668887511847" lon="11.901640468958998"><ele>220.0</ele><time>2026-04-18T15:37:39.999Z</time></trkpt><trkpt lat="45.85670181709395" lon="11.901851540461838"><ele>219.66666666666666</ele><time>2026-04-18T15:37:40.999Z</time></trkpt><trkpt lat="45.85671878440994" lon="11.902064001268288"><ele>219.33333333333331</ele><time>2026-04-18T15:37:41.999Z</time></trkpt><trkpt lat="45.85672629381581" lon="11.902275753849905"><ele>219.0</ele><time>2026-04-18T15:37:42.999Z</time></trkpt><trkpt lat="45.85673530039823" lon="11.902495197964871"><ele>218.66666666666669</ele><time>2026-04-18T15:37:43.999Z</time></trkpt><trkpt lat="45.85673469542819" lon="11.902720297567724"><ele>218.33333333333334</ele><time>2026-04-18T15:37:44.999Z</time></trkpt><trkpt lat="45.85673099777027" lon="11.902948958018372"><ele>218.0</ele><time>2026-04-18T15:37:45.999Z</time></trkpt><trkpt lat="45.856731233558726" lon="11.903188237685171"><ele>218.0</ele><time>2026-04-18T15:37:46.999Z</time></trkpt><trkpt lat="45.85673423835106" lon="11.903458322643553"><ele>218.0</ele><time>2026-04-18T15:37:48Z</time></trkpt><trkpt lat="45.856731472969095" lon="11.903727864212751"><ele>218.0</ele><time>2026-04-18T15:37:49Z</time></trkpt><trkpt lat="45.85673128856677" lon="11.90401494068358"><ele>217.66666666666669</ele><time>2026-04-18T15:37:50Z</time></trkpt><trkpt lat="45.8567299956124" lon="11.904340377895345"><ele>217.33333333333331</ele><time>2026-04-18T15:37:51Z</time></trkpt><trkpt lat="45.856739481573086" lon="11.90465704268782"><ele>217.0</ele><time>2026-04-18T15:37:52Z</time></trkpt><trkpt lat="45.85673684819528" lon="11.904937546138921"><ele>217.0</ele><time>2026-04-18T15:37:53Z</time></trkpt><trkpt lat="45.85673885616912" lon="11.905207650341804"><ele>217.0</ele><time>2026-04-18T15:37:54Z</time></trkpt><trkpt lat="45.85673816601001" lon="11.905462691609998"><ele>217.0</ele><time>2026-04-18T15:37:55Z</time></trkpt><trkpt lat="45.85669422798247" lon="11.90569712738182"><ele>216.66666666666666</ele><time>2026-04-18T15:37:56Z</time></trkpt><trkpt lat="45.85664185297158" lon="11.905918250587522"><ele>216.33333333333331</ele><time>2026-04-18T15:37:57Z</time></trkpt><trkpt lat="45.85659667978236" lon="11.906133682736225"><ele>216.0</ele><time>2026-04-18T15:37:58Z</time></trkpt><trkpt lat="45.8565918580216" lon="11.906367095620503"><ele>216.0</ele><time>2026-04-18T15:37:59Z</time></trkpt><trkpt lat="45.85661826791118" lon="11.906600341272533"><ele>216.0</ele><time>2026-04-18T15:38:00Z</time></trkpt><trkpt lat="45.856670755595765" lon="11.906837791275482"><ele>216.0</ele><time>2026-04-18T15:38:01Z</time></trkpt><trkpt lat="45.85674435368806" lon="11.90706990718259"><ele>216.0</ele><time>2026-04-18T15:38:02Z</time></trkpt><trkpt lat="45.85681385432971" lon="11.90730197353977"><ele>216.0</ele><time>2026-04-18T15:38:03Z</time></trkpt><trkpt lat="45.85687802501714" lon="11.907537093988845"><ele>216.0</ele><time>2026-04-18T15:38:04Z</time></trkpt><trkpt lat="45.856937264331435" lon="11.907768075589699"><ele>215.66666666666669</ele><time>2026-04-18T15:38:05Z</time></trkpt><trkpt lat="45.856995785733936" lon="11.9080122212121"><ele>215.33333333333334</ele><time>2026-04-18T15:38:06Z</time></trkpt><trkpt lat="45.8570391342673" lon="11.908267197797253"><ele>215.0</ele><time>2026-04-18T15:38:07Z</time></trkpt><trkpt lat="45.85707355518856" lon="11.90851697070437"><ele>215.0</ele><time>2026-04-18T15:38:08Z</time></trkpt><trkpt lat="45.85710662910792" lon="11.90874893330057"><ele>215.0</ele><time>2026-04-18T15:38:09Z</time></trkpt><trkpt lat="45.857160936156156" lon="11.90898716678855"><ele>215.0</ele><time>2026-04-18T15:38:10Z</time></trkpt><trkpt lat="45.85723669032847" lon="11.9092285113936"><ele>215.66666666666669</ele><time>2026-04-18T15:38:11Z</time></trkpt><trkpt lat="45.8573298417932" lon="11.90946938136482"><ele>216.33333333333331</ele><time>2026-04-18T15:38:12Z</time></trkpt><trkpt lat="45.85743963121353" lon="11.909711982536509"><ele>217.0</ele><time>2026-04-18T15:38:13Z</time></trkpt><trkpt lat="45.8575656462212" lon="11.909962822931469"><ele>219.0</ele><time>2026-04-18T15:38:14Z</time></trkpt><trkpt lat="45.85768442436696" lon="11.91019382594703"><ele>221.0</ele><time>2026-04-18T15:38:15Z</time></trkpt><trkpt lat="45.85778118995904" lon="11.910398077597241"><ele>223.0</ele><time>2026-04-18T15:38:16Z</time></trkpt><trkpt lat="45.857870003431195" lon="11.910595719692015"><ele>223.0</ele><time>2026-04-18T15:38:17Z</time></trkpt><trkpt lat="45.85794694453193" lon="11.910772966060861"><ele>223.0</ele><time>2026-04-18T15:38:18Z</time></trkpt><trkpt lat="45.85802192378132" lon="11.910915961065678"><ele>223.0</ele><time>2026-04-18T15:38:19Z</time></trkpt><trkpt lat="45.85810444041181" lon="11.911006604324967"><ele>223.0</ele><time>2026-04-18T15:38:20Z</time></trkpt><trkpt lat="45.85820300949753" lon="11.911028140071755"><ele>222.8</ele><time>2026-04-18T15:38:21Z</time></trkpt><trkpt lat="45.85829757433009" lon="11.911027331696136"><ele>222.60000000000002</ele><time>2026-04-18T15:38:22Z</time></trkpt><trkpt lat="45.85839793129717" lon="11.911000362516214"><ele>222.39999999999998</ele><time>2026-04-18T15:38:23Z</time></trkpt><trkpt lat="45.85851369080889" lon="11.910958577306582"><ele>222.2</ele><time>2026-04-18T15:38:24Z</time></trkpt><trkpt lat="45.858644580324224" lon="11.910932908404734"><ele>222.0</ele><time>2026-04-18T15:38:25Z</time></trkpt><trkpt lat="45.85880106951699" lon="11.910877997320194"><ele>222.66666666666669</ele><time>2026-04-18T15:38:26Z</time></trkpt><trkpt lat="45.85900219101096" lon="11.910789253462067"><ele>223.33333333333334</ele><time>2026-04-18T15:38:27Z</time></trkpt><trkpt lat="45.859190994858274" lon="11.910723902505367"><ele>224.0</ele><time>2026-04-18T15:38:28Z</time></trkpt><trkpt lat="45.85940938669382" lon="11.910697087684389"><ele>226.5</ele><time>2026-04-18T15:38:29Z</time></trkpt><trkpt lat="45.85965541567285" lon="11.910654857832034"><ele>229.0</ele><time>2026-04-18T15:38:30Z</time></trkpt><trkpt lat="45.8599176976022" lon="11.910591346126356"><ele>231.0</ele><time>2026-04-18T15:38:31Z</time></trkpt><trkpt lat="45.860191613570834" lon="11.9105347572473"><ele>233.0</ele><time>2026-04-18T15:38:32Z</time></trkpt><trkpt lat="45.86045780709343" lon="11.910473090531816"><ele>233.0</ele><time>2026-04-18T15:38:33Z</time></trkpt><trkpt lat="45.860737824017534" lon="11.910413623423143"><ele>233.0</ele><time>2026-04-18T15:38:34Z</time></trkpt><trkpt lat="45.861026782420105" lon="11.910370175096352"><ele>235.0</ele><time>2026-04-18T15:38:35Z</time></trkpt><trkpt lat="45.86132831941381" lon="11.91034315123639"><ele>237.0</ele><time>2026-04-18T15:38:36Z</time></trkpt><trkpt lat="45.86163043605053" lon="11.910313146375074"><ele>239.0</ele><time>2026-04-18T15:38:37Z</time></trkpt><trkpt lat="45.86195173729098" lon="11.91029030699614"><ele>241.0</ele><time>2026-04-18T15:38:38Z</time></trkpt><trkpt lat="45.86227147465205" lon="11.910279356576728"><ele>241.0</ele><time>2026-04-18T15:38:39Z</time></trkpt><trkpt lat="45.86254280204625" lon="11.91031108736557"><ele>241.0</ele><time>2026-04-18T15:38:40Z</time></trkpt><trkpt lat="45.86278059166889" lon="11.910363816197394"><ele>242.0</ele><time>2026-04-18T15:38:41Z</time></trkpt><trkpt lat="45.86300314504379" lon="11.910396911254129"><ele>243.0</ele><time>2026-04-18T15:38:42Z</time></trkpt><trkpt lat="45.863207985795455" lon="11.910393088268933"><ele>244.0</ele><time>2026-04-18T15:38:43Z</time></trkpt><trkpt lat="45.8633998311412" lon="11.910392296161096"><ele>247.33333333333331</ele><time>2026-04-18T15:38:44Z</time></trkpt><trkpt lat="45.86357359141171" lon="11.910397621556857"><ele>250.66666666666669</ele><time>2026-04-18T15:38:45Z</time></trkpt><trkpt lat="45.86373919266988" lon="11.91038967788312"><ele>254.0</ele><time>2026-04-18T15:38:46Z</time></trkpt><trkpt lat="45.86390455048728" lon="11.910380991710975"><ele>254.0</ele><time>2026-04-18T15:38:47Z</time></trkpt><trkpt lat="45.86405880374503" lon="11.910376637003475"><ele>254.0</ele><time>2026-04-18T15:38:48Z</time></trkpt><trkpt lat="45.864189947485976" lon="11.910417417738007"><ele>254.0</ele><time>2026-04-18T15:38:49Z</time></trkpt><trkpt lat="45.86432642869196" lon="11.910449424189549"><ele>254.0</ele><time>2026-04-18T15:38:50Z</time></trkpt><trkpt lat="45.864440116574805" lon="11.910583732606563"><ele>255.0</ele><time>2026-04-18T15:38:51Z</time></trkpt><trkpt lat="45.864554775593305" lon="11.91072002060572"><ele>256.0</ele><time>2026-04-18T15:38:52Z</time></trkpt><trkpt lat="45.86468944106264" lon="11.910861385024264"><ele>257.0</ele><time>2026-04-18T15:38:53Z</time></trkpt><trkpt lat="45.86481422924773" lon="11.911009663220574"><ele>257.5</ele><time>2026-04-18T15:38:54Z</time></trkpt><trkpt lat="45.864927382704344" lon="11.911136990865533"><ele>258.0</ele><time>2026-04-18T15:38:55Z</time></trkpt><trkpt lat="45.86503404556662" lon="11.911270716964802"><ele>258.5</ele><time>2026-04-18T15:38:56Z</time></trkpt><trkpt lat="45.86513433105144" lon="11.911389540409557"><ele>259.0</ele><time>2026-04-18T15:38:57Z</time></trkpt><trkpt lat="45.865207353245324" lon="11.911450138160264"><ele>259.59999999999997</ele><time>2026-04-18T15:38:59Z</time></trkpt><trkpt lat="45.86526555882751" lon="11.911224791126196"><ele>260.2</ele><time>2026-04-18T15:39:47.999Z</time></trkpt><trkpt lat="45.86526128585756" lon="11.911121211138548"><ele>260.79999999999995</ele><time>2026-04-18T15:39:48.999Z</time></trkpt><trkpt lat="45.865272852464365" lon="11.911003115876039"><ele>261.4</ele><time>2026-04-18T15:39:49.999Z</time></trkpt><trkpt lat="45.86528754095069" lon="11.910869596576994"><ele>262.0</ele><time>2026-04-18T15:39:50.999Z</time></trkpt><trkpt lat="45.86531710446319" lon="11.91074708586804"><ele>262.4</ele><time>2026-04-18T15:39:51.999Z</time></trkpt><trkpt lat="45.86534475756835" lon="11.91063033813937"><ele>262.79999999999995</ele><time>2026-04-18T15:39:52.999Z</time></trkpt><trkpt lat="45.86537865875085" lon="11.910530377201876"><ele>263.2</ele><time>2026-04-18T15:39:54Z</time></trkpt><trkpt lat="45.86543059279361" lon="11.910462795174118"><ele>263.59999999999997</ele><time>2026-04-18T15:39:55Z</time></trkpt><trkpt lat="45.865468218811095" lon="11.910373074442175"><ele>264.0</ele><time>2026-04-18T15:39:57Z</time></trkpt><trkpt lat="45.86569400718931" lon="11.910562740452354"><ele>264.0</ele><time>2026-04-18T15:39:58Z</time></trkpt><trkpt lat="45.865778563091716" lon="11.910602590412505"><ele>264.0</ele><time>2026-04-18T15:39:59Z</time></trkpt><trkpt lat="45.865853653991685" lon="11.910624325732961"><ele>264.0</ele><time>2026-04-18T15:40:00Z</time></trkpt><trkpt lat="45.86593330580873" lon="11.910641655253684"><ele>264.0</ele><time>2026-04-18T15:40:01Z</time></trkpt><trkpt lat="45.86600686738835" lon="11.910669157559798"><ele>264.0</ele><time>2026-04-18T15:40:02Z</time></trkpt><trkpt lat="45.86609466763466" lon="11.910696725165714"><ele>264.0</ele><time>2026-04-18T15:40:03Z</time></trkpt><trkpt lat="45.866183518887055" lon="11.910724514285382"><ele>264.8</ele><time>2026-04-18T15:40:04Z</time></trkpt><trkpt lat="45.86628078036426" lon="11.91075117386771"><ele>265.59999999999997</ele><time>2026-04-18T15:40:05Z</time></trkpt><trkpt lat="45.86638035770673" lon="11.91078141660042"><ele>266.4</ele><time>2026-04-18T15:40:06Z</time></trkpt><trkpt lat="45.86649199737701" lon="11.910837761999028"><ele>267.2</ele><time>2026-04-18T15:40:07Z</time></trkpt><trkpt lat="45.86659165807907" lon="11.910869135851739"><ele>268.0</ele><time>2026-04-18T15:40:08Z</time></trkpt><trkpt lat="45.8666854420117" lon="11.910901886929677"><ele>269.2</ele><time>2026-04-18T15:40:09Z</time></trkpt><trkpt lat="45.86678965525532" lon="11.910927961349833"><ele>270.4</ele><time>2026-04-18T15:40:10Z</time></trkpt><trkpt lat="45.86688618441511" lon="11.91095073740224"><ele>271.59999999999997</ele><time>2026-04-18T15:40:11Z</time></trkpt><trkpt lat="45.86696925453564" lon="11.910976765485351"><ele>272.8</ele><time>2026-04-18T15:40:12Z</time></trkpt><trkpt lat="45.8670754743591" lon="11.91100094943744"><ele>274.0</ele><time>2026-04-18T15:40:14Z</time></trkpt><trkpt lat="45.86711668817527" lon="11.910732416917977"><ele>274.0</ele><time>2026-04-18T15:40:18Z</time></trkpt><trkpt lat="45.86712287237327" lon="11.910609118910651"><ele>274.0</ele><time>2026-04-18T15:40:19Z</time></trkpt><trkpt lat="45.86713866672338" lon="11.91047625037095"><ele>274.0</ele><time>2026-04-18T15:40:20Z</time></trkpt><trkpt lat="45.86715687262836" lon="11.910354947980254"><ele>274.0</ele><time>2026-04-18T15:40:21Z</time></trkpt><trkpt lat="45.867180987573605" lon="11.910252259150417"><ele>274.0</ele><time>2026-04-18T15:40:22Z</time></trkpt><trkpt lat="45.86721957738471" lon="11.910133328642804"><ele>274.0</ele><time>2026-04-18T15:40:24Z</time></trkpt><trkpt lat="45.867304295441016" lon="11.910098155817773"><ele>274.0</ele><time>2026-04-18T15:50:30Z</time></trkpt><trkpt lat="45.867315716933774" lon="11.910189250901391"><ele>274.0</ele><time>2026-04-18T15:52:39Z</time></trkpt><trkpt lat="45.86728194810196" lon="11.91010790862079"><ele>274.0</ele><time>2026-04-18T15:58:25.999Z</time></trkpt><trkpt lat="45.867232824118176" lon="11.91004398744566"><ele>274.0</ele><time>2026-04-18T15:58:50Z</time></trkpt><trkpt lat="45.86716309049742" lon="11.910052501063074"><ele>274.0</ele><time>2026-04-18T15:58:58Z</time></trkpt><trkpt lat="45.867131946125625" lon="11.910311806150277"><ele>274.0</ele><time>2026-04-18T15:59:33Z</time></trkpt><trkpt lat="45.867106741234466" lon="11.910486319997135"><ele>274.0</ele><time>2026-04-18T15:59:35Z</time></trkpt><trkpt lat="45.86709559447955" lon="11.910600797573856"><ele>274.0</ele><time>2026-04-18T15:59:36Z</time></trkpt><trkpt lat="45.867070667707615" lon="11.910716845356069"><ele>274.0</ele><time>2026-04-18T15:59:37Z</time></trkpt><trkpt lat="45.86706729985085" lon="11.910808082058066"><ele>274.0</ele><time>2026-04-18T15:59:38Z</time></trkpt><trkpt lat="45.86707338407822" lon="11.91091240098052"><ele>274.0</ele><time>2026-04-18T15:59:40Z</time></trkpt><trkpt lat="45.86690391384267" lon="11.910900910499922"><ele>274.0</ele><time>2026-04-18T15:59:45Z</time></trkpt><trkpt lat="45.86682015170661" lon="11.91087325850762"><ele>274.0</ele><time>2026-04-18T15:59:46Z</time></trkpt><trkpt lat="45.866727506996135" lon="11.9108370162072"><ele>274.0</ele><time>2026-04-18T15:59:47Z</time></trkpt><trkpt lat="45.86663863631221" lon="11.910804326624755"><ele>274.0</ele><time>2026-04-18T15:59:48Z</time></trkpt><trkpt lat="45.86655238384246" lon="11.910773909123506"><ele>274.0</ele><time>2026-04-18T15:59:49Z</time></trkpt><trkpt lat="45.8664662333005" lon="11.910736527038313"><ele>273.0</ele><time>2026-04-18T15:59:50Z</time></trkpt><trkpt lat="45.86637794997888" lon="11.910708355509215"><ele>272.0</ele><time>2026-04-18T15:59:51Z</time></trkpt><trkpt lat="45.86630468593421" lon="11.910680664174471"><ele>271.0</ele><time>2026-04-18T15:59:52Z</time></trkpt><trkpt lat="45.86622995220092" lon="11.910659472150767"><ele>270.0</ele><time>2026-04-18T15:59:53Z</time></trkpt><trkpt lat="45.86615135366452" lon="11.910628584987155"><ele>269.0</ele><time>2026-04-18T15:59:54Z</time></trkpt><trkpt lat="45.86608477905911" lon="11.910600635995197"><ele>268.0</ele><time>2026-04-18T15:59:55Z</time></trkpt><trkpt lat="45.866013056720774" lon="11.910585720544486"><ele>267.3333333333333</ele><time>2026-04-18T15:59:56Z</time></trkpt><trkpt lat="45.86593342033217" lon="11.910557311958723"><ele>266.66666666666663</ele><time>2026-04-18T15:59:57Z</time></trkpt><trkpt lat="45.86586992770085" lon="11.910540254215052"><ele>266.0</ele><time>2026-04-18T15:59:58Z</time></trkpt><trkpt lat="45.86576465406284" lon="11.910500688390032"><ele>265.3333333333333</ele><time>2026-04-18T16:00:00Z</time></trkpt><trkpt lat="45.865687006933285" lon="11.91048736240579"><ele>264.6666666666667</ele><time>2026-04-18T16:00:02Z</time></trkpt><trkpt lat="45.865638317949674" lon="11.910550959587116"><ele>264.0</ele><time>2026-04-18T16:00:03.999Z</time></trkpt><trkpt lat="45.86564880466577" lon="11.910665040042211"><ele>264.0</ele><time>2026-04-18T16:01:17Z</time></trkpt><trkpt lat="45.86562124780805" lon="11.910556708339218"><ele>264.0</ele><time>2026-04-18T16:01:29Z</time></trkpt><trkpt lat="45.865550233278476" lon="11.910499317250615"><ele>264.0</ele><time>2026-04-18T16:01:31Z</time></trkpt><trkpt lat="45.865456274082824" lon="11.910457615169852"><ele>264.0</ele><time>2026-04-18T16:01:34Z</time></trkpt><trkpt lat="45.865394519198524" lon="11.910435752622686"><ele>264.0</ele><time>2026-04-18T16:01:40Z</time></trkpt><trkpt lat="45.86534318451574" lon="11.910510971068005"><ele>264.0</ele><time>2026-04-18T16:01:41Z</time></trkpt><trkpt lat="45.865308895358915" lon="11.910618908216952"><ele>264.0</ele><time>2026-04-18T16:01:42Z</time></trkpt><trkpt lat="45.865292203709465" lon="11.910733006743206"><ele>264.0</ele><time>2026-04-18T16:01:43Z</time></trkpt><trkpt lat="45.865266073278086" lon="11.910866411554895"><ele>264.0</ele><time>2026-04-18T16:01:44Z</time></trkpt><trkpt lat="45.86524544510347" lon="11.911031744206188"><ele>264.0</ele><time>2026-04-18T16:01:45Z</time></trkpt><trkpt lat="45.865235451015224" lon="11.911206311643962"><ele>264.0</ele><time>2026-04-18T16:01:46Z</time></trkpt><trkpt lat="45.86522981429722" lon="11.911408143219596"><ele>263.5</ele><time>2026-04-18T16:01:47Z</time></trkpt><trkpt lat="45.86524264485894" lon="11.911601360417274"><ele>263.0</ele><time>2026-04-18T16:01:48Z</time></trkpt><trkpt lat="45.86525187154406" lon="11.911796766773183"><ele>262.5</ele><time>2026-04-18T16:01:49Z</time></trkpt><trkpt lat="45.86526300791494" lon="11.912002605360207"><ele>262.0</ele><time>2026-04-18T16:01:50Z</time></trkpt><trkpt lat="45.86527194247873" lon="11.912210059143815"><ele>262.0</ele><time>2026-04-18T16:01:51Z</time></trkpt><trkpt lat="45.86528495032531" lon="11.912421682529398"><ele>262.0</ele><time>2026-04-18T16:01:52Z</time></trkpt><trkpt lat="45.865295402395134" lon="11.912636004353292"><ele>262.0</ele><time>2026-04-18T16:01:53Z</time></trkpt><trkpt lat="45.86530124420146" lon="11.912881142935696"><ele>262.0</ele><time>2026-04-18T16:01:54Z</time></trkpt><trkpt lat="45.86531781336079" lon="11.913129625966805"><ele>262.0</ele><time>2026-04-18T16:01:55Z</time></trkpt><trkpt lat="45.865325122740366" lon="11.91337087300233"><ele>262.0</ele><time>2026-04-18T16:01:56Z</time></trkpt><trkpt lat="45.86532924964721" lon="11.913604705565783"><ele>261.66666666666663</ele><time>2026-04-18T16:01:57Z</time></trkpt><trkpt lat="45.86533650444162" lon="11.913828373042143"><ele>261.3333333333333</ele><time>2026-04-18T16:01:58Z</time></trkpt><trkpt lat="45.86534266863587" lon="11.914050405278697"><ele>261.0</ele><time>2026-04-18T16:01:59Z</time></trkpt><trkpt lat="45.865347737221725" lon="11.914277795565413"><ele>260.3333333333333</ele><time>2026-04-18T16:02:00Z</time></trkpt><trkpt lat="45.86535258608155" lon="11.91450578426464"><ele>259.66666666666663</ele><time>2026-04-18T16:02:01Z</time></trkpt><trkpt lat="45.86536825600197" lon="11.914728905646259"><ele>259.0</ele><time>2026-04-18T16:02:02Z</time></trkpt><trkpt lat="45.86538685279191" lon="11.914944006095249"><ele>258.0</ele><time>2026-04-18T16:02:03Z</time></trkpt><trkpt lat="45.865427858659466" lon="11.915142116167681"><ele>257.0</ele><time>2026-04-18T16:02:04Z</time></trkpt><trkpt lat="45.86547878650263" lon="11.915321741897246"><ele>256.0</ele><time>2026-04-18T16:02:04.999Z</time></trkpt><trkpt lat="45.86552106736306" lon="11.915511890710661"><ele>255.0</ele><time>2026-04-18T16:02:05.999Z</time></trkpt><trkpt lat="45.865566331363084" lon="11.91570116746305"><ele>255.0</ele><time>2026-04-18T16:02:06.999Z</time></trkpt><trkpt lat="45.86561939154572" lon="11.915890932376719"><ele>255.0</ele><time>2026-04-18T16:02:07.999Z</time></trkpt><trkpt lat="45.865666416750514" lon="11.916090161119621"><ele>255.0</ele><time>2026-04-18T16:02:08.999Z</time></trkpt><trkpt lat="45.86570466133029" lon="11.916245863026319"><ele>255.0</ele><time>2026-04-18T16:02:09.999Z</time></trkpt><trkpt lat="45.86577717040231" lon="11.91639239139241"><ele>253.25</ele><time>2026-04-18T16:02:10.999Z</time></trkpt><trkpt lat="45.8658761560871" lon="11.916521500195312"><ele>251.5</ele><time>2026-04-18T16:02:11.999Z</time></trkpt><trkpt lat="45.86599124399635" lon="11.916604065965311"><ele>249.75</ele><time>2026-04-18T16:02:12.999Z</time></trkpt><trkpt lat="45.866096532249564" lon="11.916661812132949"><ele>248.0</ele><time>2026-04-18T16:02:13.999Z</time></trkpt><trkpt lat="45.866248036965416" lon="11.91668372819345"><ele>248.0</ele><time>2026-04-18T16:02:14.999Z</time></trkpt><trkpt lat="45.866399892659025" lon="11.916674174963807"><ele>248.0</ele><time>2026-04-18T16:02:15.999Z</time></trkpt><trkpt lat="45.86655100158523" lon="11.916624415115576"><ele>248.0</ele><time>2026-04-18T16:02:16.999Z</time></trkpt><trkpt lat="45.86669681210019" lon="11.916613167315809"><ele>247.60000000000002</ele><time>2026-04-18T16:02:17.999Z</time></trkpt><trkpt lat="45.866819535868785" lon="11.916588631799222"><ele>247.20000000000002</ele><time>2026-04-18T16:02:18.999Z</time></trkpt><trkpt lat="45.866913543756105" lon="11.916587713327873"><ele>246.8</ele><time>2026-04-18T16:02:19.999Z</time></trkpt><trkpt lat="45.86700573399013" lon="11.91663719978507"><ele>246.4</ele><time>2026-04-18T16:02:20.999Z</time></trkpt><trkpt lat="45.86706640939127" lon="11.916793702882982"><ele>246.0</ele><time>2026-04-18T16:02:21.999Z</time></trkpt><trkpt lat="45.86710640976607" lon="11.916990444544014"><ele>246.0</ele><time>2026-04-18T16:02:22.999Z</time></trkpt><trkpt lat="45.86716689777507" lon="11.917169076592629"><ele>246.0</ele><time>2026-04-18T16:02:23.999Z</time></trkpt><trkpt lat="45.86726516642185" lon="11.917331656961446"><ele>246.0</ele><time>2026-04-18T16:02:24.999Z</time></trkpt><trkpt lat="45.867369596388045" lon="11.917485392587343"><ele>246.0</ele><time>2026-04-18T16:02:25.999Z</time></trkpt><trkpt lat="45.86747623855878" lon="11.917622262326457"><ele>242.75</ele><time>2026-04-18T16:02:26.999Z</time></trkpt><trkpt lat="45.86758490487221" lon="11.917738340010088"><ele>239.5</ele><time>2026-04-18T16:02:27.999Z</time></trkpt><trkpt lat="45.8677029765138" lon="11.91782261982983"><ele>236.25</ele><time>2026-04-18T16:02:28.999Z</time></trkpt><trkpt lat="45.86782819767013" lon="11.91784771732003"><ele>233.0</ele><time>2026-04-18T16:02:29.999Z</time></trkpt><trkpt lat="45.86794527589006" lon="11.917821340323785"><ele>233.0</ele><time>2026-04-18T16:02:30.999Z</time></trkpt><trkpt lat="45.86807903150092" lon="11.91772108841524"><ele>233.0</ele><time>2026-04-18T16:02:31.999Z</time></trkpt><trkpt lat="45.868185815171906" lon="11.917566442725422"><ele>233.0</ele><time>2026-04-18T16:02:32.999Z</time></trkpt><trkpt lat="45.868290957424385" lon="11.917425280381641"><ele>233.0</ele><time>2026-04-18T16:02:33.999Z</time></trkpt><trkpt lat="45.868386776049775" lon="11.91733542997324"><ele>235.60000000000002</ele><time>2026-04-18T16:02:34.999Z</time></trkpt><trkpt lat="45.8684942515078" lon="11.917292233462712"><ele>238.20000000000002</ele><time>2026-04-18T16:02:35.999Z</time></trkpt><trkpt lat="45.86858955162925" lon="11.91734477176359"><ele>240.8</ele><time>2026-04-18T16:02:36.999Z</time></trkpt><trkpt lat="45.86866065395529" lon="11.917439020934927"><ele>243.4</ele><time>2026-04-18T16:02:37.999Z</time></trkpt><trkpt lat="45.86872699632977" lon="11.917592503128587"><ele>246.0</ele><time>2026-04-18T16:02:38.999Z</time></trkpt><trkpt lat="45.86876989277997" lon="11.91777917743435"><ele>246.0</ele><time>2026-04-18T16:02:39.999Z</time></trkpt><trkpt lat="45.868728200377504" lon="11.917999327070985"><ele>246.0</ele><time>2026-04-18T16:02:40.999Z</time></trkpt><trkpt lat="45.86868599193595" lon="11.918259325158461"><ele>246.0</ele><time>2026-04-18T16:02:41.999Z</time></trkpt><trkpt lat="45.86864337941133" lon="11.918517457907901"><ele>244.0</ele><time>2026-04-18T16:02:42.999Z</time></trkpt><trkpt lat="45.86860142698754" lon="11.91877233205266"><ele>242.0</ele><time>2026-04-18T16:02:43.999Z</time></trkpt><trkpt lat="45.86855384892687" lon="11.919114517178947"><ele>240.0</ele><time>2026-04-18T16:02:44.999Z</time></trkpt><trkpt lat="45.86850946920585" lon="11.919418258363699"><ele>238.66666666666669</ele><time>2026-04-18T16:02:45.999Z</time></trkpt><trkpt lat="45.86842789749726" lon="11.91967203440542"><ele>237.33333333333334</ele><time>2026-04-18T16:02:46.999Z</time></trkpt><trkpt lat="45.86830575251584" lon="11.919903277931423"><ele>236.0</ele><time>2026-04-18T16:02:47.999Z</time></trkpt><trkpt lat="45.86815503175265" lon="11.920113371713258"><ele>236.0</ele><time>2026-04-18T16:02:48.999Z</time></trkpt><trkpt lat="45.86799372460051" lon="11.920331395883998"><ele>236.0</ele><time>2026-04-18T16:02:49.999Z</time></trkpt><trkpt lat="45.867857915570276" lon="11.92051457188472"><ele>236.0</ele><time>2026-04-18T16:02:50.999Z</time></trkpt><trkpt lat="45.86770793107722" lon="11.920713504101897"><ele>235.66666666666669</ele><time>2026-04-18T16:02:51.999Z</time></trkpt><trkpt lat="45.86758179728722" lon="11.92089455380601"><ele>235.33333333333331</ele><time>2026-04-18T16:02:52.999Z</time></trkpt><trkpt lat="45.867461461874" lon="11.921046311796871"><ele>235.0</ele><time>2026-04-18T16:02:53.999Z</time></trkpt><trkpt lat="45.86735066510952" lon="11.921207779627084"><ele>235.0</ele><time>2026-04-18T16:02:54.999Z</time></trkpt><trkpt lat="45.8672695442249" lon="11.92140983435798"><ele>235.0</ele><time>2026-04-18T16:02:55.999Z</time></trkpt><trkpt lat="45.86721812740751" lon="11.921627351584773"><ele>235.0</ele><time>2026-04-18T16:02:56.999Z</time></trkpt><trkpt lat="45.86721986661604" lon="11.921839095014876"><ele>234.33333333333331</ele><time>2026-04-18T16:02:57.999Z</time></trkpt><trkpt lat="45.86724707788611" lon="11.922071008004565"><ele>233.66666666666669</ele><time>2026-04-18T16:02:58.999Z</time></trkpt><trkpt lat="45.867304766690566" lon="11.922293804350321"><ele>233.0</ele><time>2026-04-18T16:03:00Z</time></trkpt><trkpt lat="45.86737307463756" lon="11.92253041104824"><ele>232.33333333333334</ele><time>2026-04-18T16:03:01Z</time></trkpt><trkpt lat="45.867452686193516" lon="11.922764391953827"><ele>231.66666666666669</ele><time>2026-04-18T16:03:02Z</time></trkpt><trkpt lat="45.867505087504824" lon="11.92299387443696"><ele>231.0</ele><time>2026-04-18T16:03:03Z</time></trkpt><trkpt lat="45.86756952234674" lon="11.923205122120478"><ele>233.0</ele><time>2026-04-18T16:03:04Z</time></trkpt><trkpt lat="45.86763563045481" lon="11.923421855947412"><ele>235.0</ele><time>2026-04-18T16:03:05Z</time></trkpt><trkpt lat="45.867688932454335" lon="11.923620245013566"><ele>237.0</ele><time>2026-04-18T16:03:06Z</time></trkpt><trkpt lat="45.867700751381655" lon="11.923790068859935"><ele>239.0</ele><time>2026-04-18T16:03:07Z</time></trkpt><trkpt lat="45.86769014533272" lon="11.92394731919506"><ele>239.0</ele><time>2026-04-18T16:03:08Z</time></trkpt><trkpt lat="45.86766050774861" lon="11.924087926651266"><ele>239.0</ele><time>2026-04-18T16:03:09Z</time></trkpt><trkpt lat="45.8678215457821" lon="11.924202979755535"><ele>239.0</ele><time>2026-04-18T16:03:10Z</time></trkpt><trkpt lat="45.86788060537763" lon="11.924339335816754"><ele>239.0</ele><time>2026-04-18T16:03:11Z</time></trkpt><trkpt lat="45.867944717011554" lon="11.924498310491419"><ele>238.66666666666669</ele><time>2026-04-18T16:03:12Z</time></trkpt><trkpt lat="45.86800765290687" lon="11.924734319943276"><ele>238.33333333333331</ele><time>2026-04-18T16:03:13Z</time></trkpt><trkpt lat="45.868097386554794" lon="11.925008483112476"><ele>238.0</ele><time>2026-04-18T16:03:14Z</time></trkpt><trkpt lat="45.86816041028996" lon="11.925280886855978"><ele>235.0</ele><time>2026-04-18T16:03:15Z</time></trkpt><trkpt lat="45.86823744256396" lon="11.925569699414245"><ele>232.0</ele><time>2026-04-18T16:03:16Z</time></trkpt><trkpt lat="45.86832284539072" lon="11.925887499613633"><ele>231.0</ele><time>2026-04-18T16:03:17Z</time></trkpt><trkpt lat="45.86840971123196" lon="11.926191981467015"><ele>230.0</ele><time>2026-04-18T16:03:18Z</time></trkpt><trkpt lat="45.8684987174176" lon="11.926494490152685"><ele>234.0</ele><time>2026-04-18T16:03:19Z</time></trkpt><trkpt lat="45.86859019176157" lon="11.926802480866947"><ele>238.0</ele><time>2026-04-18T16:03:20Z</time></trkpt><trkpt lat="45.86863965719118" lon="11.927102540028953"><ele>242.0</ele><time>2026-04-18T16:03:21Z</time></trkpt><trkpt lat="45.86866607284587" lon="11.927379730414096"><ele>242.0</ele><time>2026-04-18T16:03:22Z</time></trkpt><trkpt lat="45.86866111869973" lon="11.927646483877698"><ele>242.0</ele><time>2026-04-18T16:03:23Z</time></trkpt><trkpt lat="45.86866363524832" lon="11.927896465405164"><ele>242.0</ele><time>2026-04-18T16:03:24Z</time></trkpt><trkpt lat="45.86864334692948" lon="11.928127787055054"><ele>242.0</ele><time>2026-04-18T16:03:25Z</time></trkpt><trkpt lat="45.86865580167257" lon="11.928347427530888"><ele>242.0</ele><time>2026-04-18T16:03:26Z</time></trkpt><trkpt lat="45.86868559293508" lon="11.928577775050353"><ele>242.0</ele><time>2026-04-18T16:03:27Z</time></trkpt><trkpt lat="45.86877072686347" lon="11.928797001455724"><ele>241.66666666666669</ele><time>2026-04-18T16:03:28Z</time></trkpt><trkpt lat="45.868849329981074" lon="11.929029383425114"><ele>241.33333333333331</ele><time>2026-04-18T16:03:29Z</time></trkpt><trkpt lat="45.86894473017483" lon="11.929287747089395"><ele>241.0</ele><time>2026-04-18T16:03:30Z</time></trkpt><trkpt lat="45.86902648018728" lon="11.929538036457961"><ele>240.33333333333331</ele><time>2026-04-18T16:03:31Z</time></trkpt><trkpt lat="45.86910347626842" lon="11.929773770692458"><ele>239.66666666666669</ele><time>2026-04-18T16:03:32Z</time></trkpt><trkpt lat="45.869193886171104" lon="11.930008728958573"><ele>239.0</ele><time>2026-04-18T16:03:33Z</time></trkpt><trkpt lat="45.869258271148425" lon="11.930249671155318"><ele>239.0</ele><time>2026-04-18T16:03:34Z</time></trkpt><trkpt lat="45.869337311191806" lon="11.930493127101315"><ele>239.0</ele><time>2026-04-18T16:03:35Z</time></trkpt><trkpt lat="45.86940549735999" lon="11.930726188230475"><ele>239.0</ele><time>2026-04-18T16:03:36Z</time></trkpt><trkpt lat="45.86946018843684" lon="11.930981401700677"><ele>239.0</ele><time>2026-04-18T16:03:37Z</time></trkpt><trkpt lat="45.86948108178896" lon="11.931235419857135"><ele>239.0</ele><time>2026-04-18T16:03:38Z</time></trkpt><trkpt lat="45.869454937003766" lon="11.931485075074697"><ele>239.0</ele><time>2026-04-18T16:03:39Z</time></trkpt><trkpt lat="45.86940656990355" lon="11.931746710529056"><ele>237.66666666666669</ele><time>2026-04-18T16:03:40Z</time></trkpt><trkpt lat="45.869353918957884" lon="11.932019720645334"><ele>236.33333333333331</ele><time>2026-04-18T16:03:41Z</time></trkpt><trkpt lat="45.86931415161013" lon="11.93230775785383"><ele>235.0</ele><time>2026-04-18T16:03:42Z</time></trkpt><trkpt lat="45.8692568029571" lon="11.932595064908291"><ele>232.66666666666666</ele><time>2026-04-18T16:03:43Z</time></trkpt><trkpt lat="45.8691912194157" lon="11.93286439359046"><ele>230.33333333333331</ele><time>2026-04-18T16:03:44Z</time></trkpt><trkpt lat="45.86914372834473" lon="11.933178585649946"><ele>228.0</ele><time>2026-04-18T16:03:45Z</time></trkpt><trkpt lat="45.86908955851266" lon="11.933466855111133"><ele>226.33333333333331</ele><time>2026-04-18T16:03:46Z</time></trkpt><trkpt lat="45.869033475077664" lon="11.933756712154503"><ele>224.66666666666666</ele><time>2026-04-18T16:03:47Z</time></trkpt><trkpt lat="45.86897797676813" lon="11.934061221068054"><ele>223.0</ele><time>2026-04-18T16:03:48Z</time></trkpt><trkpt lat="45.86892270432942" lon="11.93436401869794"><ele>222.33333333333331</ele><time>2026-04-18T16:03:49Z</time></trkpt><trkpt lat="45.868873850816634" lon="11.934663891126988"><ele>221.66666666666669</ele><time>2026-04-18T16:03:50Z</time></trkpt><trkpt lat="45.86884004624634" lon="11.934975613367355"><ele>221.0</ele><time>2026-04-18T16:03:51Z</time></trkpt><trkpt lat="45.86882252282916" lon="11.935282008077746"><ele>220.0</ele><time>2026-04-18T16:03:52Z</time></trkpt><trkpt lat="45.868825487803825" lon="11.93559805999334"><ele>219.0</ele><time>2026-04-18T16:03:53Z</time></trkpt><trkpt lat="45.86886303885918" lon="11.935912294277196"><ele>218.0</ele><time>2026-04-18T16:03:54Z</time></trkpt><trkpt lat="45.868913540161486" lon="11.936220149672312"><ele>216.5</ele><time>2026-04-18T16:03:55Z</time></trkpt><trkpt lat="45.86897478477847" lon="11.93652785424561"><ele>215.0</ele><time>2026-04-18T16:03:56Z</time></trkpt><trkpt lat="45.8690156165711" lon="11.936851317248406"><ele>214.5</ele><time>2026-04-18T16:03:57Z</time></trkpt><trkpt lat="45.86907035115666" lon="11.937176903855338"><ele>214.0</ele><time>2026-04-18T16:03:58Z</time></trkpt><trkpt lat="45.86912342289065" lon="11.937492599316965"><ele>213.0</ele><time>2026-04-18T16:03:59Z</time></trkpt><trkpt lat="45.86917607738496" lon="11.937803045194345"><ele>212.0</ele><time>2026-04-18T16:04:00Z</time></trkpt><trkpt lat="45.86922821132462" lon="11.938110092367882"><ele>211.0</ele><time>2026-04-18T16:04:01Z</time></trkpt><trkpt lat="45.86927885341861" lon="11.938408454149407"><ele>211.0</ele><time>2026-04-18T16:04:02Z</time></trkpt><trkpt lat="45.86934719415373" lon="11.938710590653512"><ele>211.0</ele><time>2026-04-18T16:04:03Z</time></trkpt><trkpt lat="45.86939571353604" lon="11.939001696576844"><ele>211.0</ele><time>2026-04-18T16:04:04Z</time></trkpt><trkpt lat="45.86943004022192" lon="11.93930739042413"><ele>210.33333333333331</ele><time>2026-04-18T16:04:04.999Z</time></trkpt><trkpt lat="45.86947506310929" lon="11.939575933564647"><ele>209.66666666666669</ele><time>2026-04-18T16:04:05.999Z</time></trkpt><trkpt lat="45.86952356752203" lon="11.939825972838149"><ele>209.0</ele><time>2026-04-18T16:04:06.999Z</time></trkpt><trkpt lat="45.86952266079707" lon="11.940076479873202"><ele>209.0</ele><time>2026-04-18T16:04:07.999Z</time></trkpt><trkpt lat="45.869476498215285" lon="11.940328498798621"><ele>209.0</ele><time>2026-04-18T16:04:08.999Z</time></trkpt><trkpt lat="45.86939841951605" lon="11.940559513391625"><ele>209.0</ele><time>2026-04-18T16:04:09.999Z</time></trkpt><trkpt lat="45.869276910811095" lon="11.940760897374105"><ele>208.66666666666669</ele><time>2026-04-18T16:04:10.999Z</time></trkpt><trkpt lat="45.86913692207874" lon="11.940978715290582"><ele>208.33333333333331</ele><time>2026-04-18T16:04:11.999Z</time></trkpt><trkpt lat="45.86899188360471" lon="11.941217832457484"><ele>208.0</ele><time>2026-04-18T16:04:12.999Z</time></trkpt><trkpt lat="45.868848714738895" lon="11.941430007424024"><ele>208.0</ele><time>2026-04-18T16:04:13.999Z</time></trkpt><trkpt lat="45.86872863155561" lon="11.941615260708485"><ele>208.0</ele><time>2026-04-18T16:04:14.999Z</time></trkpt><trkpt lat="45.868603424628226" lon="11.941821313355083"><ele>208.0</ele><time>2026-04-18T16:04:15.999Z</time></trkpt><trkpt lat="45.86851268408839" lon="11.942016056863787"><ele>207.33333333333331</ele><time>2026-04-18T16:04:16.999Z</time></trkpt><trkpt lat="45.86845552448816" lon="11.942236124489495"><ele>206.66666666666669</ele><time>2026-04-18T16:04:17.999Z</time></trkpt><trkpt lat="45.868413687592174" lon="11.94247404190176"><ele>206.0</ele><time>2026-04-18T16:04:18.999Z</time></trkpt><trkpt lat="45.86840911845672" lon="11.942719840122232"><ele>206.0</ele><time>2026-04-18T16:04:19.999Z</time></trkpt><trkpt lat="45.86843838836818" lon="11.942961491045091"><ele>206.0</ele><time>2026-04-18T16:04:20.999Z</time></trkpt><trkpt lat="45.868506800710364" lon="11.94318779517899"><ele>206.0</ele><time>2026-04-18T16:04:21.999Z</time></trkpt><trkpt lat="45.86860727864713" lon="11.943407877029316"><ele>207.33333333333334</ele><time>2026-04-18T16:04:22.999Z</time></trkpt><trkpt lat="45.868714778741236" lon="11.943595604932769"><ele>208.66666666666669</ele><time>2026-04-18T16:04:23.999Z</time></trkpt><trkpt lat="45.868866877830165" lon="11.943781913869403"><ele>210.0</ele><time>2026-04-18T16:04:24.999Z</time></trkpt><trkpt lat="45.869013719617534" lon="11.943987373988714"><ele>210.0</ele><time>2026-04-18T16:04:25.999Z</time></trkpt><trkpt lat="45.8691671042699" lon="11.94420418104505"><ele>210.0</ele><time>2026-04-18T16:04:26.999Z</time></trkpt><trkpt lat="45.86933074871542" lon="11.944435490159595"><ele>210.0</ele><time>2026-04-18T16:04:27.999Z</time></trkpt><trkpt lat="45.869495961375186" lon="11.944670044600832"><ele>211.66666666666669</ele><time>2026-04-18T16:04:28.999Z</time></trkpt><trkpt lat="45.86966142098709" lon="11.94486946381395"><ele>213.33333333333334</ele><time>2026-04-18T16:04:29.999Z</time></trkpt><trkpt lat="45.86981197560914" lon="11.945095327346344"><ele>215.0</ele><time>2026-04-18T16:04:30.999Z</time></trkpt><trkpt lat="45.869946356377014" lon="11.945300055117949"><ele>215.33333333333334</ele><time>2026-04-18T16:04:31.999Z</time></trkpt><trkpt lat="45.870090964967176" lon="11.94546937608668"><ele>215.66666666666669</ele><time>2026-04-18T16:04:32.999Z</time></trkpt><trkpt lat="45.8702465396978" lon="11.94556008663593"><ele>216.0</ele><time>2026-04-18T16:04:33.999Z</time></trkpt><trkpt lat="45.87040874337676" lon="11.945588457025258"><ele>217.33333333333331</ele><time>2026-04-18T16:04:34.999Z</time></trkpt><trkpt lat="45.87057850977394" lon="11.945554994020117"><ele>218.66666666666666</ele><time>2026-04-18T16:04:35.999Z</time></trkpt><trkpt lat="45.87073824266319" lon="11.945521189729346"><ele>220.0</ele><time>2026-04-18T16:04:36.999Z</time></trkpt><trkpt lat="45.87092017812815" lon="11.945481662649916"><ele>221.33333333333331</ele><time>2026-04-18T16:04:37.999Z</time></trkpt><trkpt lat="45.87110138786287" lon="11.945470713366433"><ele>222.66666666666669</ele><time>2026-04-18T16:04:38.999Z</time></trkpt><trkpt lat="45.87128488670506" lon="11.945439204511512"><ele>224.0</ele><time>2026-04-18T16:04:39.999Z</time></trkpt><trkpt lat="45.87145402411434" lon="11.945474635616977"><ele>224.0</ele><time>2026-04-18T16:04:40.999Z</time></trkpt><trkpt lat="45.87160514428721" lon="11.945529635411308"><ele>224.0</ele><time>2026-04-18T16:04:41.999Z</time></trkpt><trkpt lat="45.87173820588534" lon="11.9456259920413"><ele>224.0</ele><time>2026-04-18T16:04:42.999Z</time></trkpt><trkpt lat="45.87188582527601" lon="11.9457337361717"><ele>224.0</ele><time>2026-04-18T16:04:43.999Z</time></trkpt><trkpt lat="45.87197532453256" lon="11.945897032968537"><ele>224.0</ele><time>2026-04-18T16:04:44.999Z</time></trkpt><trkpt lat="45.872096020244385" lon="11.94604294327297"><ele>224.0</ele><time>2026-04-18T16:04:45.999Z</time></trkpt><trkpt lat="45.872224133190805" lon="11.946192172738233"><ele>224.0</ele><time>2026-04-18T16:04:46.999Z</time></trkpt><trkpt lat="45.872334424951106" lon="11.946327864283356"><ele>224.0</ele><time>2026-04-18T16:04:47.999Z</time></trkpt><trkpt lat="45.872441080287906" lon="11.946450830546894"><ele>224.0</ele><time>2026-04-18T16:04:48.999Z</time></trkpt><trkpt lat="45.87253300106625" lon="11.946566728100445"><ele>224.0</ele><time>2026-04-18T16:04:49.999Z</time></trkpt><trkpt lat="45.87261921979625" lon="11.946674598317502"><ele>223.6</ele><time>2026-04-18T16:04:50.999Z</time></trkpt><trkpt lat="45.872703223062196" lon="11.946761182970452"><ele>223.2</ele><time>2026-04-18T16:04:51.999Z</time></trkpt><trkpt lat="45.87277531552043" lon="11.946844269876943"><ele>222.79999999999998</ele><time>2026-04-18T16:04:52.999Z</time></trkpt><trkpt lat="45.87282562677877" lon="11.946933989726169"><ele>222.39999999999998</ele><time>2026-04-18T16:04:53.999Z</time></trkpt><trkpt lat="45.87285365571309" lon="11.947020610435322"><ele>222.0</ele><time>2026-04-18T16:04:54.999Z</time></trkpt><trkpt lat="45.87295738594293" lon="11.947118332601853"><ele>222.0</ele><time>2026-04-18T16:04:56.999Z</time></trkpt><trkpt lat="45.873047177702055" lon="11.94712087097236"><ele>222.0</ele><time>2026-04-18T16:04:57.999Z</time></trkpt><trkpt lat="45.873151971127974" lon="11.947126163998677"><ele>222.0</ele><time>2026-04-18T16:04:58.999Z</time></trkpt><trkpt lat="45.8732390393693" lon="11.9471725021208"><ele>222.0</ele><time>2026-04-18T16:04:59.999Z</time></trkpt><trkpt lat="45.873340592428555" lon="11.947232543743228"><ele>222.0</ele><time>2026-04-18T16:05:00.999Z</time></trkpt><trkpt lat="45.873456402917014" lon="11.947283727140457"><ele>221.75</ele><time>2026-04-18T16:05:01.999Z</time></trkpt><trkpt lat="45.873570089743055" lon="11.947339610997243"><ele>221.5</ele><time>2026-04-18T16:05:02.999Z</time></trkpt><trkpt lat="45.87368843463674" lon="11.94737737949048"><ele>221.25</ele><time>2026-04-18T16:05:03.999Z</time></trkpt><trkpt lat="45.87379179001642" lon="11.94744496606296"><ele>221.0</ele><time>2026-04-18T16:05:04.999Z</time></trkpt><trkpt lat="45.8738756821365" lon="11.947545903402581"><ele>220.75</ele><time>2026-04-18T16:05:06Z</time></trkpt><trkpt lat="45.87393916813305" lon="11.947660402517618"><ele>220.5</ele><time>2026-04-18T16:05:07Z</time></trkpt><trkpt lat="45.8740059540945" lon="11.94779071743728"><ele>220.25</ele><time>2026-04-18T16:05:08Z</time></trkpt><trkpt lat="45.87408296499227" lon="11.947924131127"><ele>220.0</ele><time>2026-04-18T16:05:09Z</time></trkpt><trkpt lat="45.87417168941272" lon="11.948054173588561"><ele>220.0</ele><time>2026-04-18T16:05:10Z</time></trkpt><trkpt lat="45.87425984603101" lon="11.948189601668478"><ele>220.0</ele><time>2026-04-18T16:05:11Z</time></trkpt><trkpt lat="45.8743468695962" lon="11.94833606119772"><ele>220.0</ele><time>2026-04-18T16:05:12Z</time></trkpt><trkpt lat="45.87443410430211" lon="11.948473355122996"><ele>220.0</ele><time>2026-04-18T16:05:13Z</time></trkpt><trkpt lat="45.87453018957915" lon="11.948606512151697"><ele>220.0</ele><time>2026-04-18T16:05:14Z</time></trkpt><trkpt lat="45.87463242642874" lon="11.948724421956024"><ele>220.0</ele><time>2026-04-18T16:05:15Z</time></trkpt><trkpt lat="45.87472399696022" lon="11.948835264294743"><ele>220.0</ele><time>2026-04-18T16:05:16Z</time></trkpt><trkpt lat="45.87482171517928" lon="11.948956326332926"><ele>220.0</ele><time>2026-04-18T16:05:17Z</time></trkpt><trkpt lat="45.874918405459574" lon="11.949088158299634"><ele>220.0</ele><time>2026-04-18T16:05:18Z</time></trkpt><trkpt lat="45.875015012568525" lon="11.94918724391287"><ele>220.0</ele><time>2026-04-18T16:05:19Z</time></trkpt><trkpt lat="45.87509634511613" lon="11.94927240320149"><ele>220.0</ele><time>2026-04-18T16:05:20Z</time></trkpt><trkpt lat="45.875168374132876" lon="11.949353158048162"><ele>220.0</ele><time>2026-04-18T16:05:21Z</time></trkpt><trkpt lat="45.87524384578754" lon="11.949442628601235"><ele>220.0</ele><time>2026-04-18T16:05:22Z</time></trkpt><trkpt lat="45.87534522278638" lon="11.949547789363697"><ele>221.0</ele><time>2026-04-18T16:05:23Z</time></trkpt><trkpt lat="45.87545395083381" lon="11.949656932346246"><ele>222.0</ele><time>2026-04-18T16:05:24Z</time></trkpt><trkpt lat="45.87555679912458" lon="11.949748363608299"><ele>223.0</ele><time>2026-04-18T16:05:25Z</time></trkpt><trkpt lat="45.875664768481556" lon="11.949847850280088"><ele>224.0</ele><time>2026-04-18T16:05:26Z</time></trkpt><trkpt lat="45.87578650916765" lon="11.949959330101924"><ele>223.25</ele><time>2026-04-18T16:05:27Z</time></trkpt><trkpt lat="45.875896042601894" lon="11.950060301491417"><ele>222.5</ele><time>2026-04-18T16:05:28Z</time></trkpt><trkpt lat="45.87600149337001" lon="11.950164735229533"><ele>221.75</ele><time>2026-04-18T16:05:29Z</time></trkpt><trkpt lat="45.87611444641072" lon="11.950253434127214"><ele>221.0</ele><time>2026-04-18T16:05:30Z</time></trkpt><trkpt lat="45.87622516339821" lon="11.950374437836603"><ele>221.0</ele><time>2026-04-18T16:05:31Z</time></trkpt><trkpt lat="45.87634073725956" lon="11.95049392069292"><ele>221.0</ele><time>2026-04-18T16:05:32Z</time></trkpt><trkpt lat="45.87644601528836" lon="11.950623423516465"><ele>221.0</ele><time>2026-04-18T16:05:33Z</time></trkpt><trkpt lat="45.87655287881994" lon="11.95076156589002"><ele>221.0</ele><time>2026-04-18T16:05:34Z</time></trkpt><trkpt lat="45.876668962906365" lon="11.950912326444506"><ele>220.66666666666669</ele><time>2026-04-18T16:05:35Z</time></trkpt><trkpt lat="45.876770616561124" lon="11.9510664039103"><ele>220.33333333333331</ele><time>2026-04-18T16:05:36Z</time></trkpt><trkpt lat="45.87689492940843" lon="11.951203178555001"><ele>220.0</ele><time>2026-04-18T16:05:37Z</time></trkpt><trkpt lat="45.87701843338125" lon="11.951356554858952"><ele>220.0</ele><time>2026-04-18T16:05:38Z</time></trkpt><trkpt lat="45.87713373827389" lon="11.95151664676927"><ele>220.0</ele><time>2026-04-18T16:05:39Z</time></trkpt><trkpt lat="45.877199994080016" lon="11.951682226621058"><ele>220.0</ele><time>2026-04-18T16:05:40Z</time></trkpt><trkpt lat="45.877285558638235" lon="11.951842809131898"><ele>220.0</ele><time>2026-04-18T16:05:41Z</time></trkpt><trkpt lat="45.877378116005694" lon="11.951974367299808"><ele>219.5</ele><time>2026-04-18T16:05:42Z</time></trkpt><trkpt lat="45.87746428298398" lon="11.952118139645494"><ele>219.0</ele><time>2026-04-18T16:05:43Z</time></trkpt><trkpt lat="45.87755627062165" lon="11.952286754995121"><ele>218.5</ele><time>2026-04-18T16:05:44Z</time></trkpt><trkpt lat="45.87763309618089" lon="11.952488846732976"><ele>218.0</ele><time>2026-04-18T16:05:45Z</time></trkpt><trkpt lat="45.87769446814664" lon="11.95269379688894"><ele>218.0</ele><time>2026-04-18T16:05:46Z</time></trkpt><trkpt lat="45.8777382492217" lon="11.952909368273586"><ele>218.0</ele><time>2026-04-18T16:05:47Z</time></trkpt><trkpt lat="45.87777089001993" lon="11.95311371486143"><ele>218.0</ele><time>2026-04-18T16:05:48Z</time></trkpt><trkpt lat="45.877801165493636" lon="11.953304042577386"><ele>218.0</ele><time>2026-04-18T16:05:49Z</time></trkpt><trkpt lat="45.87782761226096" lon="11.953476763343035"><ele>218.0</ele><time>2026-04-18T16:05:50Z</time></trkpt><trkpt lat="45.8778526459231" lon="11.953654369609978"><ele>218.0</ele><time>2026-04-18T16:05:51Z</time></trkpt><trkpt lat="45.87788029049853" lon="11.95381529731843"><ele>218.0</ele><time>2026-04-18T16:05:52Z</time></trkpt><trkpt lat="45.87789052832325" lon="11.95397408469547"><ele>218.0</ele><time>2026-04-18T16:05:53Z</time></trkpt><trkpt lat="45.87791144360889" lon="11.954135471675444"><ele>218.25</ele><time>2026-04-18T16:05:54Z</time></trkpt><trkpt lat="45.87793987473435" lon="11.95431680450723"><ele>218.5</ele><time>2026-04-18T16:05:55Z</time></trkpt><trkpt lat="45.87795338753828" lon="11.954499805070226"><ele>218.75</ele><time>2026-04-18T16:05:56Z</time></trkpt><trkpt lat="45.87797662363559" lon="11.954692757610074"><ele>219.0</ele><time>2026-04-18T16:05:57Z</time></trkpt><trkpt lat="45.87801701134063" lon="11.954883710591798"><ele>218.5</ele><time>2026-04-18T16:05:58Z</time></trkpt><trkpt lat="45.8780622455634" lon="11.955079202846028"><ele>218.0</ele><time>2026-04-18T16:05:59Z</time></trkpt><trkpt lat="45.878124235791084" lon="11.955264829028536"><ele>217.5</ele><time>2026-04-18T16:06:00Z</time></trkpt><trkpt lat="45.87819670138353" lon="11.955435316154707"><ele>217.0</ele><time>2026-04-18T16:06:01Z</time></trkpt><trkpt lat="45.878270296916526" lon="11.955594485846579"><ele>217.0</ele><time>2026-04-18T16:06:02Z</time></trkpt><trkpt lat="45.878334249450596" lon="11.955748287805514"><ele>217.0</ele><time>2026-04-18T16:06:03Z</time></trkpt><trkpt lat="45.878338694233015" lon="11.955917288931062"><ele>217.0</ele><time>2026-04-18T16:06:04Z</time></trkpt><trkpt lat="45.878349834020256" lon="11.956110143863285"><ele>217.0</ele><time>2026-04-18T16:06:04.999Z</time></trkpt><trkpt lat="45.878362015386536" lon="11.95630341253461"><ele>215.75</ele><time>2026-04-18T16:06:05.999Z</time></trkpt><trkpt lat="45.878376909903054" lon="11.956517806527495"><ele>214.5</ele><time>2026-04-18T16:06:06.999Z</time></trkpt><trkpt lat="45.87838123817269" lon="11.956733798596751"><ele>213.25</ele><time>2026-04-18T16:06:07.999Z</time></trkpt><trkpt lat="45.8783869427247" lon="11.956930117901488"><ele>212.0</ele><time>2026-04-18T16:06:08.999Z</time></trkpt><trkpt lat="45.878393128770206" lon="11.957115287922177"><ele>211.5</ele><time>2026-04-18T16:06:09.999Z</time></trkpt><trkpt lat="45.878401004815466" lon="11.957290938248889"><ele>211.0</ele><time>2026-04-18T16:06:10.999Z</time></trkpt><trkpt lat="45.87837020714318" lon="11.95743748575842"><ele>210.5</ele><time>2026-04-18T16:06:11.999Z</time></trkpt><trkpt lat="45.87829766356245" lon="11.957557841846489"><ele>210.0</ele><time>2026-04-18T16:06:12.999Z</time></trkpt><trkpt lat="45.878191200743316" lon="11.957662252701242"><ele>209.75</ele><time>2026-04-18T16:06:13.999Z</time></trkpt><trkpt lat="45.87807282256719" lon="11.957758082863071"><ele>209.5</ele><time>2026-04-18T16:06:14.999Z</time></trkpt><trkpt lat="45.877943856935936" lon="11.95783690450905"><ele>209.25</ele><time>2026-04-18T16:06:15.999Z</time></trkpt><trkpt lat="45.87781249974023" lon="11.957934367408006"><ele>209.0</ele><time>2026-04-18T16:06:16.999Z</time></trkpt><trkpt lat="45.87768450802108" lon="11.958031087309429"><ele>208.75</ele><time>2026-04-18T16:06:17.999Z</time></trkpt><trkpt lat="45.877548164208015" lon="11.958119509436546"><ele>208.5</ele><time>2026-04-18T16:06:18.999Z</time></trkpt><trkpt lat="45.87741269132388" lon="11.95821442780679"><ele>208.25</ele><time>2026-04-18T16:06:19.999Z</time></trkpt><trkpt lat="45.87730059839795" lon="11.958325785941906"><ele>208.0</ele><time>2026-04-18T16:06:20.999Z</time></trkpt><trkpt lat="45.87721082484198" lon="11.958458872107899"><ele>207.75</ele><time>2026-04-18T16:06:21.999Z</time></trkpt><trkpt lat="45.87713525024601" lon="11.958628448634302"><ele>207.5</ele><time>2026-04-18T16:06:22.999Z</time></trkpt><trkpt lat="45.87709841914969" lon="11.958812735849635"><ele>207.25</ele><time>2026-04-18T16:06:23.999Z</time></trkpt><trkpt lat="45.87709543207547" lon="11.959016527805703"><ele>207.0</ele><time>2026-04-18T16:06:24.999Z</time></trkpt><trkpt lat="45.8771089797427" lon="11.959224176568167"><ele>206.75</ele><time>2026-04-18T16:06:25.999Z</time></trkpt><trkpt lat="45.87713569126436" lon="11.959431663490745"><ele>206.5</ele><time>2026-04-18T16:06:26.999Z</time></trkpt><trkpt lat="45.87715852866317" lon="11.959615335691819"><ele>206.25</ele><time>2026-04-18T16:06:27.999Z</time></trkpt><trkpt lat="45.87716617838245" lon="11.959788378612181"><ele>206.0</ele><time>2026-04-18T16:06:28.999Z</time></trkpt><trkpt lat="45.87718237310544" lon="11.959934342151717"><ele>205.5</ele><time>2026-04-18T16:06:29.999Z</time></trkpt><trkpt lat="45.87714337693484" lon="11.960069922847165"><ele>205.0</ele><time>2026-04-18T16:06:30.999Z</time></trkpt><trkpt lat="45.87705102612956" lon="11.960186070357876"><ele>204.5</ele><time>2026-04-18T16:06:31.999Z</time></trkpt><trkpt lat="45.876956634368945" lon="11.960307965716835"><ele>204.0</ele><time>2026-04-18T16:06:32.999Z</time></trkpt><trkpt lat="45.876853425722544" lon="11.960408035367832"><ele>203.33333333333331</ele><time>2026-04-18T16:06:33.999Z</time></trkpt><trkpt lat="45.87671555335844" lon="11.960546941885507"><ele>202.66666666666666</ele><time>2026-04-18T16:06:34.999Z</time></trkpt><trkpt lat="45.87655888931006" lon="11.960706612939493"><ele>202.0</ele><time>2026-04-18T16:06:35.999Z</time></trkpt><trkpt lat="45.87642995241677" lon="11.960848044928873"><ele>199.66666666666666</ele><time>2026-04-18T16:06:36.999Z</time></trkpt><trkpt lat="45.87630363829383" lon="11.960985059020281"><ele>197.33333333333331</ele><time>2026-04-18T16:06:37.999Z</time></trkpt><trkpt lat="45.8761800189798" lon="11.961115664604073"><ele>195.0</ele><time>2026-04-18T16:06:38.999Z</time></trkpt><trkpt lat="45.876061249309856" lon="11.961251911400023"><ele>195.0</ele><time>2026-04-18T16:06:39.999Z</time></trkpt><trkpt lat="45.87592997072008" lon="11.961394625926884"><ele>195.0</ele><time>2026-04-18T16:06:40.999Z</time></trkpt><trkpt lat="45.87579759690434" lon="11.961530864107212"><ele>195.0</ele><time>2026-04-18T16:06:41.999Z</time></trkpt><trkpt lat="45.8756700329529" lon="11.961662937385151"><ele>193.33333333333334</ele><time>2026-04-18T16:06:42.999Z</time></trkpt><trkpt lat="45.87559692046307" lon="11.961849737131809"><ele>191.66666666666669</ele><time>2026-04-18T16:06:43.999Z</time></trkpt><trkpt lat="45.875536404906555" lon="11.96205936223254"><ele>190.0</ele><time>2026-04-18T16:06:44.999Z</time></trkpt><trkpt lat="45.87548517972443" lon="11.96228850944173"><ele>189.0</ele><time>2026-04-18T16:06:45.999Z</time></trkpt><trkpt lat="45.875439143190086" lon="11.962538992633347"><ele>188.0</ele><time>2026-04-18T16:06:46.999Z</time></trkpt><trkpt lat="45.87539919737249" lon="11.962782012047429"><ele>187.0</ele><time>2026-04-18T16:06:47.999Z</time></trkpt><trkpt lat="45.87537870715308" lon="11.962990958560333"><ele>187.0</ele><time>2026-04-18T16:06:48.999Z</time></trkpt><trkpt lat="45.87533242093434" lon="11.963177078597752"><ele>187.0</ele><time>2026-04-18T16:06:49.999Z</time></trkpt><trkpt lat="45.875299072788096" lon="11.963357873066617"><ele>187.0</ele><time>2026-04-18T16:06:50.999Z</time></trkpt><trkpt lat="45.87528364370747" lon="11.963499393904094"><ele>187.0</ele><time>2026-04-18T16:06:51.999Z</time></trkpt><trkpt lat="45.875256075755296" lon="11.963615685465257"><ele>185.83333333333334</ele><time>2026-04-18T16:06:52.999Z</time></trkpt><trkpt lat="45.875237735726124" lon="11.963760212029467"><ele>184.66666666666669</ele><time>2026-04-18T16:06:54.999Z</time></trkpt><trkpt lat="45.87522779228413" lon="11.96385358555765"><ele>183.5</ele><time>2026-04-18T16:07:00.999Z</time></trkpt><trkpt lat="45.87529270640409" lon="11.96392939513659"><ele>182.33333333333334</ele><time>2026-04-18T16:07:51Z</time></trkpt><trkpt lat="45.87535685555646" lon="11.963950135535187"><ele>181.16666666666666</ele><time>2026-04-18T16:07:52Z</time></trkpt><trkpt lat="45.875441727652635" lon="11.96391152835272"><ele>180.0</ele><time>2026-04-18T16:07:53Z</time></trkpt><trkpt lat="45.875525816089876" lon="11.963869541623414"><ele>180.0</ele><time>2026-04-18T16:07:54Z</time></trkpt><trkpt lat="45.875625826530175" lon="11.963818041046194"><ele>180.0</ele><time>2026-04-18T16:07:55Z</time></trkpt><trkpt lat="45.87574906648331" lon="11.963712909390793"><ele>180.0</ele><time>2026-04-18T16:07:56Z</time></trkpt><trkpt lat="45.875887616203194" lon="11.963628693748854"><ele>180.0</ele><time>2026-04-18T16:07:57Z</time></trkpt><trkpt lat="45.87603012657406" lon="11.963564601502819"><ele>180.25</ele><time>2026-04-18T16:07:58Z</time></trkpt><trkpt lat="45.876157363257846" lon="11.963514411549854"><ele>180.5</ele><time>2026-04-18T16:07:59Z</time></trkpt><trkpt lat="45.87630818682437" lon="11.963458079269028"><ele>180.75</ele><time>2026-04-18T16:08:00Z</time></trkpt><trkpt lat="45.87645142106827" lon="11.96339305881886"><ele>181.0</ele><time>2026-04-18T16:08:01Z</time></trkpt><trkpt lat="45.87660458973058" lon="11.963356866402922"><ele>181.0</ele><time>2026-04-18T16:08:02Z</time></trkpt><trkpt lat="45.87675804504463" lon="11.963323037059661"><ele>181.0</ele><time>2026-04-18T16:08:03Z</time></trkpt><trkpt lat="45.876926200500186" lon="11.963304296313014"><ele>181.0</ele><time>2026-04-18T16:08:04Z</time></trkpt><trkpt lat="45.877095988326964" lon="11.963279098001697"><ele>180.33333333333334</ele><time>2026-04-18T16:08:05Z</time></trkpt><trkpt lat="45.87727893049533" lon="11.963243398995349"><ele>179.66666666666666</ele><time>2026-04-18T16:08:06Z</time></trkpt><trkpt lat="45.877453751931874" lon="11.963213527739496"><ele>179.0</ele><time>2026-04-18T16:08:07Z</time></trkpt><trkpt lat="45.87762341363387" lon="11.96318750984615"><ele>178.66666666666666</ele><time>2026-04-18T16:08:08Z</time></trkpt><trkpt lat="45.87778992582598" lon="11.963157088497754"><ele>178.33333333333334</ele><time>2026-04-18T16:08:09Z</time></trkpt><trkpt lat="45.87795441768105" lon="11.963119664982491"><ele>178.0</ele><time>2026-04-18T16:08:10Z</time></trkpt><trkpt lat="45.87810760353312" lon="11.963087265241624"><ele>178.0</ele><time>2026-04-18T16:08:11Z</time></trkpt><trkpt lat="45.878272289816664" lon="11.963054392199961"><ele>178.0</ele><time>2026-04-18T16:08:12Z</time></trkpt><trkpt lat="45.8784363066444" lon="11.96300813804223"><ele>178.0</ele><time>2026-04-18T16:08:12.999Z</time></trkpt><trkpt lat="45.87860464994993" lon="11.962980747409876"><ele>174.66666666666669</ele><time>2026-04-18T16:08:13.999Z</time></trkpt><trkpt lat="45.87878399261019" lon="11.96295716407245"><ele>171.33333333333334</ele><time>2026-04-18T16:08:14.999Z</time></trkpt><trkpt lat="45.878949354383124" lon="11.962896932684643"><ele>168.0</ele><time>2026-04-18T16:08:15.999Z</time></trkpt><trkpt lat="45.87911480686173" lon="11.962845562638995"><ele>167.33333333333334</ele><time>2026-04-18T16:08:16.999Z</time></trkpt><trkpt lat="45.87928137880002" lon="11.962774640153578"><ele>166.66666666666669</ele><time>2026-04-18T16:08:17.999Z</time></trkpt><trkpt lat="45.87942871992957" lon="11.962672810709128"><ele>166.0</ele><time>2026-04-18T16:08:18.999Z</time></trkpt><trkpt lat="45.87956358112699" lon="11.962521604070059"><ele>167.66666666666669</ele><time>2026-04-18T16:08:19.999Z</time></trkpt><trkpt lat="45.87970318100817" lon="11.962360656901838"><ele>169.33333333333334</ele><time>2026-04-18T16:08:20.999Z</time></trkpt><trkpt lat="45.87984502085616" lon="11.962189976144955"><ele>171.0</ele><time>2026-04-18T16:08:21.999Z</time></trkpt><trkpt lat="45.880007206340395" lon="11.962028999270704"><ele>171.33333333333334</ele><time>2026-04-18T16:08:22.999Z</time></trkpt><trkpt lat="45.88014762250376" lon="11.96184923748882"><ele>171.66666666666669</ele><time>2026-04-18T16:08:23.999Z</time></trkpt><trkpt lat="45.880314143286256" lon="11.9616809555375"><ele>172.0</ele><time>2026-04-18T16:08:24.999Z</time></trkpt><trkpt lat="45.88046098321869" lon="11.961491166669974"><ele>172.0</ele><time>2026-04-18T16:08:25.999Z</time></trkpt><trkpt lat="45.880596387952814" lon="11.961289684452398"><ele>172.0</ele><time>2026-04-18T16:08:26.999Z</time></trkpt><trkpt lat="45.88072488242837" lon="11.961091721061104"><ele>172.0</ele><time>2026-04-18T16:08:27.999Z</time></trkpt><trkpt lat="45.880845805294456" lon="11.960870017993514"><ele>170.0</ele><time>2026-04-18T16:08:28.999Z</time></trkpt><trkpt lat="45.880981328099004" lon="11.960610770443026"><ele>168.0</ele><time>2026-04-18T16:08:29.999Z</time></trkpt><trkpt lat="45.88112610317228" lon="11.960321643195318"><ele>168.0</ele><time>2026-04-18T16:08:30.999Z</time></trkpt><trkpt lat="45.88125602177159" lon="11.960023048511433"><ele>168.0</ele><time>2026-04-18T16:08:31.999Z</time></trkpt><trkpt lat="45.88139344090621" lon="11.95972688823911"><ele>168.0</ele><time>2026-04-18T16:08:32.999Z</time></trkpt><trkpt lat="45.88152330548608" lon="11.959436410282365"><ele>168.0</ele><time>2026-04-18T16:08:33.999Z</time></trkpt><trkpt lat="45.8816598263679" lon="11.959163387818355"><ele>166.5</ele><time>2026-04-18T16:08:34.999Z</time></trkpt><trkpt lat="45.881801153314" lon="11.958895358673749"><ele>165.0</ele><time>2026-04-18T16:08:35.999Z</time></trkpt><trkpt lat="45.881943141462735" lon="11.958636490940078"><ele>165.0</ele><time>2026-04-18T16:08:36.999Z</time></trkpt><trkpt lat="45.88209276416466" lon="11.958384465509925"><ele>165.0</ele><time>2026-04-18T16:08:37.999Z</time></trkpt><trkpt lat="45.88225316732618" lon="11.958145138515237"><ele>167.0</ele><time>2026-04-18T16:08:38.999Z</time></trkpt><trkpt lat="45.88241939075175" lon="11.957911264525398"><ele>169.0</ele><time>2026-04-18T16:08:39.999Z</time></trkpt><trkpt lat="45.88257701469434" lon="11.957670892861989"><ele>168.66666666666669</ele><time>2026-04-18T16:08:40.999Z</time></trkpt><trkpt lat="45.88273053838644" lon="11.957430638745823"><ele>168.33333333333334</ele><time>2026-04-18T16:08:41.999Z</time></trkpt><trkpt lat="45.8828805366126" lon="11.957194702695174"><ele>168.0</ele><time>2026-04-18T16:08:42.999Z</time></trkpt><trkpt lat="45.88302457454514" lon="11.956964637382045"><ele>168.0</ele><time>2026-04-18T16:08:43.999Z</time></trkpt><trkpt lat="45.88316350326037" lon="11.956737699921865"><ele>168.0</ele><time>2026-04-18T16:08:44.999Z</time></trkpt><trkpt lat="45.883294706193176" lon="11.956521476221772"><ele>168.0</ele><time>2026-04-18T16:08:45.999Z</time></trkpt><trkpt lat="45.88342101944557" lon="11.956297377238322"><ele>168.33333333333334</ele><time>2026-04-18T16:08:46.999Z</time></trkpt><trkpt lat="45.88354825356812" lon="11.956077819638494"><ele>168.66666666666669</ele><time>2026-04-18T16:08:47.999Z</time></trkpt><trkpt lat="45.883671495947624" lon="11.955872578463495"><ele>169.0</ele><time>2026-04-18T16:08:48.999Z</time></trkpt><trkpt lat="45.88380190520687" lon="11.955671273880078"><ele>169.0</ele><time>2026-04-18T16:08:49.999Z</time></trkpt><trkpt lat="45.883924164632894" lon="11.955476165029756"><ele>169.0</ele><time>2026-04-18T16:08:50.999Z</time></trkpt><trkpt lat="45.884046155533454" lon="11.95528144783136"><ele>169.0</ele><time>2026-04-18T16:08:51.999Z</time></trkpt><trkpt lat="45.88416176856901" lon="11.95508803884121"><ele>170.0</ele><time>2026-04-18T16:08:52.999Z</time></trkpt><trkpt lat="45.88427745432626" lon="11.954895850856916"><ele>171.0</ele><time>2026-04-18T16:08:53.999Z</time></trkpt><trkpt lat="45.884389364408115" lon="11.954695189080702"><ele>172.0</ele><time>2026-04-18T16:08:54.999Z</time></trkpt><trkpt lat="45.88450387979948" lon="11.954495994165947"><ele>172.0</ele><time>2026-04-18T16:08:55.999Z</time></trkpt><trkpt lat="45.88463518520512" lon="11.95429323551696"><ele>172.0</ele><time>2026-04-18T16:08:56.999Z</time></trkpt><trkpt lat="45.88471394988434" lon="11.954092323064852"><ele>172.0</ele><time>2026-04-18T16:08:57.999Z</time></trkpt><trkpt lat="45.88477903378992" lon="11.953871496490981"><ele>172.0</ele><time>2026-04-18T16:08:58.999Z</time></trkpt><trkpt lat="45.88481681859917" lon="11.953641874353062"><ele>172.0</ele><time>2026-04-18T16:08:59.999Z</time></trkpt><trkpt lat="45.88485052036168" lon="11.953407302012975"><ele>172.0</ele><time>2026-04-18T16:09:00.999Z</time></trkpt><trkpt lat="45.88492527475968" lon="11.953167761521351"><ele>173.66666666666669</ele><time>2026-04-18T16:09:01.999Z</time></trkpt><trkpt lat="45.88495786076079" lon="11.952930120103284"><ele>175.33333333333334</ele><time>2026-04-18T16:09:02.999Z</time></trkpt><trkpt lat="45.88499196338423" lon="11.952685217140914"><ele>177.0</ele><time>2026-04-18T16:09:03.999Z</time></trkpt><trkpt lat="45.8850323183357" lon="11.95244092768798"><ele>179.33333333333334</ele><time>2026-04-18T16:09:04.999Z</time></trkpt><trkpt lat="45.8850725138118" lon="11.952196095828375"><ele>181.66666666666669</ele><time>2026-04-18T16:09:05.999Z</time></trkpt><trkpt lat="45.885121829291066" lon="11.951970051542359"><ele>184.0</ele><time>2026-04-18T16:09:06.999Z</time></trkpt><trkpt lat="45.88515938135334" lon="11.951728719128242"><ele>178.0</ele><time>2026-04-18T16:09:07.999Z</time></trkpt><trkpt lat="45.88520015311807" lon="11.951491982962493"><ele>172.0</ele><time>2026-04-18T16:09:08.999Z</time></trkpt><trkpt lat="45.88525476476591" lon="11.951256716481874"><ele>166.0</ele><time>2026-04-18T16:09:09.999Z</time></trkpt><trkpt lat="45.88531275855795" lon="11.951021642493114"><ele>164.66666666666669</ele><time>2026-04-18T16:09:10.999Z</time></trkpt><trkpt lat="45.88535594460622" lon="11.9507712832058"><ele>163.33333333333334</ele><time>2026-04-18T16:09:11.999Z</time></trkpt><trkpt lat="45.885409629839046" lon="11.95052294811461"><ele>162.0</ele><time>2026-04-18T16:09:12.999Z</time></trkpt><trkpt lat="45.8854704361407" lon="11.950294482617313"><ele>162.0</ele><time>2026-04-18T16:09:13.999Z</time></trkpt><trkpt lat="45.88552528268532" lon="11.950072491556059"><ele>162.0</ele><time>2026-04-18T16:09:14.999Z</time></trkpt><trkpt lat="45.88556895576348" lon="11.949840330973803"><ele>162.0</ele><time>2026-04-18T16:09:15.999Z</time></trkpt><trkpt lat="45.88562561814836" lon="11.94963299452767"><ele>164.66666666666666</ele><time>2026-04-18T16:09:16.999Z</time></trkpt><trkpt lat="45.88571509521661" lon="11.949420836215385"><ele>167.33333333333331</ele><time>2026-04-18T16:09:18Z</time></trkpt><trkpt lat="45.88579400682559" lon="11.949214573566831"><ele>170.0</ele><time>2026-04-18T16:09:19Z</time></trkpt><trkpt lat="45.885859417296274" lon="11.948992257882892"><ele>169.75</ele><time>2026-04-18T16:09:20Z</time></trkpt><trkpt lat="45.885928549099226" lon="11.94880028897177"><ele>169.5</ele><time>2026-04-18T16:09:21Z</time></trkpt><trkpt lat="45.88601382237687" lon="11.948621518419326"><ele>169.25</ele><time>2026-04-18T16:09:22Z</time></trkpt><trkpt lat="45.88604764764611" lon="11.948442345351069"><ele>169.0</ele><time>2026-04-18T16:09:23Z</time></trkpt><trkpt lat="45.886179869428915" lon="11.94824964864138"><ele>169.0</ele><time>2026-04-18T16:09:24Z</time></trkpt><trkpt lat="45.886272774342785" lon="11.94807979351379"><ele>169.0</ele><time>2026-04-18T16:09:25Z</time></trkpt><trkpt lat="45.88638019046394" lon="11.947917714358287"><ele>169.0</ele><time>2026-04-18T16:09:26Z</time></trkpt><trkpt lat="45.886460715776174" lon="11.947746445326032"><ele>169.0</ele><time>2026-04-18T16:09:27Z</time></trkpt><trkpt lat="45.886540228853896" lon="11.947564270424575"><ele>169.0</ele><time>2026-04-18T16:09:28Z</time></trkpt><trkpt lat="45.886656974491515" lon="11.94740132597602"><ele>169.0</ele><time>2026-04-18T16:09:29Z</time></trkpt><trkpt lat="45.88678028167381" lon="11.947256230441756"><ele>169.33333333333334</ele><time>2026-04-18T16:09:30Z</time></trkpt><trkpt lat="45.88689448676226" lon="11.94712805850123"><ele>169.66666666666666</ele><time>2026-04-18T16:09:31Z</time></trkpt><trkpt lat="45.88702377481979" lon="11.946996519746449"><ele>170.0</ele><time>2026-04-18T16:09:32Z</time></trkpt><trkpt lat="45.88716206306712" lon="11.946870107473728"><ele>170.0</ele><time>2026-04-18T16:09:33Z</time></trkpt><trkpt lat="45.8873022358659" lon="11.946741030698226"><ele>170.0</ele><time>2026-04-18T16:09:34Z</time></trkpt><trkpt lat="45.8874411899599" lon="11.94659538353651"><ele>170.0</ele><time>2026-04-18T16:09:35Z</time></trkpt><trkpt lat="45.887581732226515" lon="11.946464995615079"><ele>170.0</ele><time>2026-04-18T16:09:36Z</time></trkpt><trkpt lat="45.88771774004824" lon="11.94634530437396"><ele>170.0</ele><time>2026-04-18T16:09:37Z</time></trkpt><trkpt lat="45.88785433730891" lon="11.946221245307084"><ele>170.0</ele><time>2026-04-18T16:09:38Z</time></trkpt><trkpt lat="45.88799047474596" lon="11.946104281234291"><ele>170.0</ele><time>2026-04-18T16:09:39Z</time></trkpt><trkpt lat="45.8881233450926" lon="11.945986559246325"><ele>170.0</ele><time>2026-04-18T16:09:40Z</time></trkpt><trkpt lat="45.888243648709924" lon="11.945876066799718"><ele>170.0</ele><time>2026-04-18T16:09:41Z</time></trkpt><trkpt lat="45.88837055829791" lon="11.94576424699973"><ele>170.0</ele><time>2026-04-18T16:09:42Z</time></trkpt><trkpt lat="45.88849559488953" lon="11.945652984636098"><ele>169.75</ele><time>2026-04-18T16:09:43Z</time></trkpt><trkpt lat="45.888610183286154" lon="11.945545788254996"><ele>169.5</ele><time>2026-04-18T16:09:44Z</time></trkpt><trkpt lat="45.88872563393738" lon="11.945437204716548"><ele>169.25</ele><time>2026-04-18T16:09:45Z</time></trkpt><trkpt lat="45.88884419864105" lon="11.945325253557792"><ele>169.0</ele><time>2026-04-18T16:09:46Z</time></trkpt><trkpt lat="45.888969021632775" lon="11.945217153625268"><ele>169.0</ele><time>2026-04-18T16:09:47Z</time></trkpt><trkpt lat="45.88909858556661" lon="11.945103158885766"><ele>169.0</ele><time>2026-04-18T16:09:48Z</time></trkpt><trkpt lat="45.889235925963" lon="11.94499115559207"><ele>169.0</ele><time>2026-04-18T16:09:49Z</time></trkpt><trkpt lat="45.88936864663166" lon="11.94487793423908"><ele>170.66666666666669</ele><time>2026-04-18T16:09:50Z</time></trkpt><trkpt lat="45.889501640839235" lon="11.944756961236667"><ele>172.33333333333334</ele><time>2026-04-18T16:09:51Z</time></trkpt><trkpt lat="45.88964387434644" lon="11.944622360726214"><ele>174.0</ele><time>2026-04-18T16:09:52Z</time></trkpt><trkpt lat="45.88979290674009" lon="11.944490971501185"><ele>174.0</ele><time>2026-04-18T16:09:53Z</time></trkpt><trkpt lat="45.8899352010284" lon="11.944361919127015"><ele>174.0</ele><time>2026-04-18T16:09:54Z</time></trkpt><trkpt lat="45.89006813010989" lon="11.944236921579"><ele>174.0</ele><time>2026-04-18T16:09:55Z</time></trkpt><trkpt lat="45.890206967724176" lon="11.944133837384271"><ele>174.66666666666666</ele><time>2026-04-18T16:09:56Z</time></trkpt><trkpt lat="45.8903530828213" lon="11.944056817686754"><ele>175.33333333333331</ele><time>2026-04-18T16:09:57Z</time></trkpt><trkpt lat="45.890514935650664" lon="11.943997959881573"><ele>176.0</ele><time>2026-04-18T16:09:58Z</time></trkpt><trkpt lat="45.89067124141381" lon="11.943944890056661"><ele>176.0</ele><time>2026-04-18T16:09:59Z</time></trkpt><trkpt lat="45.89082910932481" lon="11.943919002852883"><ele>176.0</ele><time>2026-04-18T16:10:00Z</time></trkpt><trkpt lat="45.89098075227504" lon="11.94388740374239"><ele>176.0</ele><time>2026-04-18T16:10:01Z</time></trkpt><trkpt lat="45.891123647145356" lon="11.943855860654475"><ele>175.66666666666666</ele><time>2026-04-18T16:10:02Z</time></trkpt><trkpt lat="45.891280194595645" lon="11.94382111090609"><ele>175.33333333333334</ele><time>2026-04-18T16:10:03Z</time></trkpt><trkpt lat="45.891431511282015" lon="11.943794012264714"><ele>175.0</ele><time>2026-04-18T16:10:04Z</time></trkpt><trkpt lat="45.89157898328995" lon="11.943765717405391"><ele>175.0</ele><time>2026-04-18T16:10:05Z</time></trkpt><trkpt lat="45.89173117115587" lon="11.943732921724903"><ele>175.0</ele><time>2026-04-18T16:10:06Z</time></trkpt><trkpt lat="45.89189008139453" lon="11.943700374331874"><ele>175.0</ele><time>2026-04-18T16:10:07Z</time></trkpt><trkpt lat="45.8920473141901" lon="11.943657640799758"><ele>175.33333333333334</ele><time>2026-04-18T16:10:08Z</time></trkpt><trkpt lat="45.8922099250698" lon="11.943609368011765"><ele>175.66666666666666</ele><time>2026-04-18T16:10:09Z</time></trkpt><trkpt lat="45.8923692009644" lon="11.943559108900558"><ele>176.0</ele><time>2026-04-18T16:10:10Z</time></trkpt><trkpt lat="45.892518038554336" lon="11.943492879771526"><ele>176.66666666666666</ele><time>2026-04-18T16:10:11Z</time></trkpt><trkpt lat="45.89267124338561" lon="11.94341586859603"><ele>177.33333333333334</ele><time>2026-04-18T16:10:12Z</time></trkpt><trkpt lat="45.89282356294349" lon="11.943328266701863"><ele>178.0</ele><time>2026-04-18T16:10:13Z</time></trkpt><trkpt lat="45.89297267637258" lon="11.943233079540523"><ele>178.0</ele><time>2026-04-18T16:10:14Z</time></trkpt><trkpt lat="45.89313068838302" lon="11.943135503222294"><ele>178.0</ele><time>2026-04-18T16:10:15Z</time></trkpt><trkpt lat="45.89328655942715" lon="11.943032908643898"><ele>178.0</ele><time>2026-04-18T16:10:16Z</time></trkpt><trkpt lat="45.893448855528206" lon="11.942902537433278"><ele>175.33333333333334</ele><time>2026-04-18T16:10:16.999Z</time></trkpt><trkpt lat="45.89361747195084" lon="11.942784289369724"><ele>172.66666666666666</ele><time>2026-04-18T16:10:17.999Z</time></trkpt><trkpt lat="45.893778923234585" lon="11.942675268781295"><ele>170.0</ele><time>2026-04-18T16:10:18.999Z</time></trkpt><trkpt lat="45.89394348406066" lon="11.94257931700992"><ele>172.66666666666666</ele><time>2026-04-18T16:10:19.999Z</time></trkpt><trkpt lat="45.89410905792425" lon="11.942503733758166"><ele>175.33333333333334</ele><time>2026-04-18T16:10:20.999Z</time></trkpt><trkpt lat="45.89427634170216" lon="11.94244031711594"><ele>178.0</ele><time>2026-04-18T16:10:21.999Z</time></trkpt><trkpt lat="45.89444435324277" lon="11.942408829209887"><ele>178.0</ele><time>2026-04-18T16:10:22.999Z</time></trkpt><trkpt lat="45.89461600672425" lon="11.942403685092112"><ele>178.0</ele><time>2026-04-18T16:10:23.999Z</time></trkpt><trkpt lat="45.89478099001085" lon="11.94241463853008"><ele>178.0</ele><time>2026-04-18T16:10:24.999Z</time></trkpt><trkpt lat="45.89494474214269" lon="11.942431319003479"><ele>179.66666666666669</ele><time>2026-04-18T16:10:25.999Z</time></trkpt><trkpt lat="45.895111260612474" lon="11.942450282706602"><ele>181.33333333333334</ele><time>2026-04-18T16:10:26.999Z</time></trkpt><trkpt lat="45.895264433109745" lon="11.942478319799676"><ele>183.0</ele><time>2026-04-18T16:10:27.999Z</time></trkpt><trkpt lat="45.895420715655185" lon="11.942498816050813"><ele>183.0</ele><time>2026-04-18T16:10:28.999Z</time></trkpt><trkpt lat="45.89557938965428" lon="11.942526194248043"><ele>183.0</ele><time>2026-04-18T16:10:29.999Z</time></trkpt><trkpt lat="45.89573298742867" lon="11.942546153006205"><ele>183.0</ele><time>2026-04-18T16:10:30.999Z</time></trkpt><trkpt lat="45.89588269240131" lon="11.942564962172606"><ele>181.25</ele><time>2026-04-18T16:10:31.999Z</time></trkpt><trkpt lat="45.896032441161296" lon="11.942587965656065"><ele>179.5</ele><time>2026-04-18T16:10:32.999Z</time></trkpt><trkpt lat="45.896173362851506" lon="11.942609343537262"><ele>177.75</ele><time>2026-04-18T16:10:33.999Z</time></trkpt><trkpt lat="45.89631954890377" lon="11.942632841861112"><ele>176.0</ele><time>2026-04-18T16:10:34.999Z</time></trkpt><trkpt lat="45.89646200194392" lon="11.942653338415553"><ele>176.0</ele><time>2026-04-18T16:10:35.999Z</time></trkpt><trkpt lat="45.896606868324156" lon="11.942670581540282"><ele>176.0</ele><time>2026-04-18T16:10:36.999Z</time></trkpt><trkpt lat="45.89675235842635" lon="11.942683907669581"><ele>176.0</ele><time>2026-04-18T16:10:37.999Z</time></trkpt><trkpt lat="45.89689515346205" lon="11.942693702944007"><ele>176.0</ele><time>2026-04-18T16:10:38.999Z</time></trkpt><trkpt lat="45.897035609042256" lon="11.94270934810482"><ele>175.5</ele><time>2026-04-18T16:10:39.999Z</time></trkpt><trkpt lat="45.89717429893166" lon="11.942711699030712"><ele>175.0</ele><time>2026-04-18T16:10:40.999Z</time></trkpt><trkpt lat="45.89732375152791" lon="11.94271654094487"><ele>174.5</ele><time>2026-04-18T16:10:41.999Z</time></trkpt><trkpt lat="45.89747248365284" lon="11.942712335008881"><ele>174.0</ele><time>2026-04-18T16:10:42.999Z</time></trkpt><trkpt lat="45.897625071909246" lon="11.942698255833683"><ele>174.0</ele><time>2026-04-18T16:10:43.999Z</time></trkpt><trkpt lat="45.89778137422105" lon="11.942680130474844"><ele>174.0</ele><time>2026-04-18T16:10:44.999Z</time></trkpt><trkpt lat="45.89792680997958" lon="11.942654292578396"><ele>174.0</ele><time>2026-04-18T16:10:45.999Z</time></trkpt><trkpt lat="45.89806704267573" lon="11.94265656073212"><ele>174.0</ele><time>2026-04-18T16:10:46.999Z</time></trkpt><trkpt lat="45.898206081527476" lon="11.94264081843241"><ele>174.0</ele><time>2026-04-18T16:10:47.999Z</time></trkpt><trkpt lat="45.89833865859491" lon="11.942607049777253"><ele>174.0</ele><time>2026-04-18T16:10:48.999Z</time></trkpt><trkpt lat="45.89845576630682" lon="11.942601013756766"><ele>174.0</ele><time>2026-04-18T16:10:49.999Z</time></trkpt><trkpt lat="45.89856585287184" lon="11.942603991572799"><ele>174.0</ele><time>2026-04-18T16:10:50.999Z</time></trkpt><trkpt lat="45.89867652755165" lon="11.942615688056607"><ele>175.0</ele><time>2026-04-18T16:10:51.999Z</time></trkpt><trkpt lat="45.898780731777634" lon="11.942635759990335"><ele>176.0</ele><time>2026-04-18T16:10:52.999Z</time></trkpt><trkpt lat="45.89885676391987" lon="11.942659580232586"><ele>177.0</ele><time>2026-04-18T16:10:53.999Z</time></trkpt><trkpt lat="45.89891821015613" lon="11.942681693552752"><ele>178.0</ele><time>2026-04-18T16:10:54.999Z</time></trkpt><trkpt lat="45.89902145047196" lon="11.942708458934867"><ele>179.0</ele><time>2026-04-18T16:10:56.999Z</time></trkpt><trkpt lat="45.89910283912999" lon="11.942724326205363"><ele>180.0</ele><time>2026-04-18T16:10:58.999Z</time></trkpt><trkpt lat="45.89916730031534" lon="11.942747481842455"><ele>180.0</ele><time>2026-04-18T16:11:00.999Z</time></trkpt><trkpt lat="45.89923547780959" lon="11.942756684302132"><ele>180.0</ele><time>2026-04-18T16:11:06.999Z</time></trkpt><trkpt lat="45.89930558306062" lon="11.942813189272547"><ele>180.0</ele><time>2026-04-18T16:11:09.999Z</time></trkpt><trkpt lat="45.89940260844201" lon="11.942853656125472"><ele>180.0</ele><time>2026-04-18T16:11:12.999Z</time></trkpt><trkpt lat="45.89948018152479" lon="11.94293087939051"><ele>180.0</ele><time>2026-04-18T16:11:14.999Z</time></trkpt><trkpt lat="45.89950988909557" lon="11.943100380559212"><ele>180.8</ele><time>2026-04-18T16:11:16.999Z</time></trkpt><trkpt lat="45.89958214349678" lon="11.943229114996129"><ele>181.6</ele><time>2026-04-18T16:11:18.999Z</time></trkpt><trkpt lat="45.89965502703326" lon="11.943264040786763"><ele>182.39999999999998</ele><time>2026-04-18T16:11:19.999Z</time></trkpt><trkpt lat="45.8997339403871" lon="11.943172633457683"><ele>183.2</ele><time>2026-04-18T16:11:20.999Z</time></trkpt><trkpt lat="45.89980471702729" lon="11.943110361475293"><ele>184.0</ele><time>2026-04-18T16:11:21.999Z</time></trkpt><trkpt lat="45.8998677594787" lon="11.943019485278649"><ele>184.0</ele><time>2026-04-18T16:11:22.999Z</time></trkpt><trkpt lat="45.89993797786328" lon="11.94295869588932"><ele>184.0</ele><time>2026-04-18T16:11:24Z</time></trkpt><trkpt lat="45.90003149891278" lon="11.942982700497538"><ele>184.0</ele><time>2026-04-18T16:11:25Z</time></trkpt><trkpt lat="45.900137652021" lon="11.94298781474751"><ele>184.0</ele><time>2026-04-18T16:11:26Z</time></trkpt><trkpt lat="45.900249456316956" lon="11.94296828668114"><ele>184.0</ele><time>2026-04-18T16:11:27Z</time></trkpt><trkpt lat="45.900367146638274" lon="11.942972558729082"><ele>184.25</ele><time>2026-04-18T16:11:28Z</time></trkpt><trkpt lat="45.90049650945533" lon="11.942951740434266"><ele>184.5</ele><time>2026-04-18T16:11:29Z</time></trkpt><trkpt lat="45.90063658996418" lon="11.94291900418603"><ele>184.75</ele><time>2026-04-18T16:11:30Z</time></trkpt><trkpt lat="45.90079189504911" lon="11.942888063114513"><ele>185.0</ele><time>2026-04-18T16:11:31Z</time></trkpt><trkpt lat="45.9009453127338" lon="11.942853537766036"><ele>185.0</ele><time>2026-04-18T16:11:32Z</time></trkpt><trkpt lat="45.9010893459426" lon="11.94282735985625"><ele>185.0</ele><time>2026-04-18T16:11:33Z</time></trkpt><trkpt lat="45.901228191944305" lon="11.942811868500815"><ele>185.0</ele><time>2026-04-18T16:11:34Z</time></trkpt><trkpt lat="45.90136597962685" lon="11.94277086943477"><ele>185.0</ele><time>2026-04-18T16:11:35Z</time></trkpt><trkpt lat="45.90150608161265" lon="11.9427445981565"><ele>185.0</ele><time>2026-04-18T16:11:36Z</time></trkpt><trkpt lat="45.90164420159617" lon="11.942717445926487"><ele>185.0</ele><time>2026-04-18T16:11:37Z</time></trkpt><trkpt lat="45.90177478373707" lon="11.942687365470936"><ele>185.0</ele><time>2026-04-18T16:11:38Z</time></trkpt><trkpt lat="45.90190843110837" lon="11.942668981172327"><ele>185.0</ele><time>2026-04-18T16:11:39Z</time></trkpt><trkpt lat="45.902034289336335" lon="11.94263326019035"><ele>185.75</ele><time>2026-04-18T16:11:40Z</time></trkpt><trkpt lat="45.902157701306386" lon="11.94259707452001"><ele>186.5</ele><time>2026-04-18T16:11:41Z</time></trkpt><trkpt lat="45.90228742157073" lon="11.942559090793095"><ele>187.25</ele><time>2026-04-18T16:11:42Z</time></trkpt><trkpt lat="45.90242081706716" lon="11.942521642543122"><ele>188.0</ele><time>2026-04-18T16:11:43Z</time></trkpt><trkpt lat="45.90256069172011" lon="11.942488040268547"><ele>188.5</ele><time>2026-04-18T16:11:44Z</time></trkpt><trkpt lat="45.902701988034984" lon="11.942443330017056"><ele>189.0</ele><time>2026-04-18T16:11:45Z</time></trkpt><trkpt lat="45.90284131760609" lon="11.942402859987272"><ele>189.5</ele><time>2026-04-18T16:11:46Z</time></trkpt><trkpt lat="45.90297919156389" lon="11.942352709132669"><ele>190.0</ele><time>2026-04-18T16:11:47Z</time></trkpt><trkpt lat="45.90311851005478" lon="11.9423051945695"><ele>190.0</ele><time>2026-04-18T16:11:48Z</time></trkpt><trkpt lat="45.90326661338223" lon="11.942250949858101"><ele>190.0</ele><time>2026-04-18T16:11:49Z</time></trkpt><trkpt lat="45.90340994350595" lon="11.94218794330713"><ele>190.0</ele><time>2026-04-18T16:11:50Z</time></trkpt><trkpt lat="45.903544394929256" lon="11.942129742484584"><ele>190.0</ele><time>2026-04-18T16:11:51Z</time></trkpt><trkpt lat="45.903675680448494" lon="11.942063042238157"><ele>189.66666666666669</ele><time>2026-04-18T16:11:52Z</time></trkpt><trkpt lat="45.903828580083015" lon="11.942006916856306"><ele>189.33333333333334</ele><time>2026-04-18T16:11:53Z</time></trkpt><trkpt lat="45.903967535046064" lon="11.941942728228318"><ele>189.0</ele><time>2026-04-18T16:11:54Z</time></trkpt><trkpt lat="45.904109322375405" lon="11.941887161131154"><ele>189.0</ele><time>2026-04-18T16:11:55Z</time></trkpt><trkpt lat="45.90423707175059" lon="11.941826583921598"><ele>189.0</ele><time>2026-04-18T16:11:56Z</time></trkpt><trkpt lat="45.9043628802871" lon="11.941773538995774"><ele>189.0</ele><time>2026-04-18T16:11:57Z</time></trkpt><trkpt lat="45.9044756464333" lon="11.94171744857965"><ele>189.0</ele><time>2026-04-18T16:11:58Z</time></trkpt><trkpt lat="45.904591112083224" lon="11.94167148899048"><ele>189.2</ele><time>2026-04-18T16:11:59Z</time></trkpt><trkpt lat="45.9047086166505" lon="11.941624768212396"><ele>189.39999999999998</ele><time>2026-04-18T16:12:00Z</time></trkpt><trkpt lat="45.904826410583645" lon="11.941576303932882"><ele>189.6</ele><time>2026-04-18T16:12:01Z</time></trkpt><trkpt lat="45.904926130380005" lon="11.94151772111213"><ele>189.8</ele><time>2026-04-18T16:12:02Z</time></trkpt><trkpt lat="45.90500774710964" lon="11.941449244480335"><ele>190.0</ele><time>2026-04-18T16:12:03Z</time></trkpt><trkpt lat="45.90508329375375" lon="11.941411153717269"><ele>188.6</ele><time>2026-04-18T16:12:04Z</time></trkpt><trkpt lat="45.905171935395074" lon="11.941384263965308"><ele>187.2</ele><time>2026-04-18T16:12:05Z</time></trkpt><trkpt lat="45.905259968666634" lon="11.94135076948985"><ele>185.8</ele><time>2026-04-18T16:12:06Z</time></trkpt><trkpt lat="45.9053406742009" lon="11.94127199344713"><ele>184.4</ele><time>2026-04-18T16:12:07Z</time></trkpt><trkpt lat="45.90541023473178" lon="11.941175148819154"><ele>183.0</ele><time>2026-04-18T16:12:08Z</time></trkpt><trkpt lat="45.90540604917725" lon="11.940993569997675"><ele>183.25</ele><time>2026-04-18T16:12:09Z</time></trkpt><trkpt lat="45.905391735756574" lon="11.940816899063812"><ele>183.5</ele><time>2026-04-18T16:12:10Z</time></trkpt><trkpt lat="45.905402233171365" lon="11.94061554186326"><ele>183.75</ele><time>2026-04-18T16:12:11Z</time></trkpt><trkpt lat="45.90546781959101" lon="11.94038483917467"><ele>184.0</ele><time>2026-04-18T16:12:12Z</time></trkpt><trkpt lat="45.905526804462426" lon="11.940141619112042"><ele>183.66666666666669</ele><time>2026-04-18T16:12:13Z</time></trkpt><trkpt lat="45.90556499540839" lon="11.939920973300895"><ele>183.33333333333334</ele><time>2026-04-18T16:12:14Z</time></trkpt><trkpt lat="45.90558106120592" lon="11.939675361949096"><ele>183.0</ele><time>2026-04-18T16:12:15Z</time></trkpt><trkpt lat="45.90558225288596" lon="11.939413150817321"><ele>184.33333333333334</ele><time>2026-04-18T16:12:16Z</time></trkpt><trkpt lat="45.905609483709696" lon="11.93916003939284"><ele>185.66666666666669</ele><time>2026-04-18T16:12:17Z</time></trkpt><trkpt lat="45.90563985952178" lon="11.938918424249485"><ele>187.0</ele><time>2026-04-18T16:12:18Z</time></trkpt><trkpt lat="45.905711440517685" lon="11.938670921796911"><ele>187.0</ele><time>2026-04-18T16:12:19Z</time></trkpt><trkpt lat="45.90580365194823" lon="11.93843329449626"><ele>187.0</ele><time>2026-04-18T16:12:20Z</time></trkpt><trkpt lat="45.90589684143909" lon="11.938187862623202"><ele>187.0</ele><time>2026-04-18T16:12:21Z</time></trkpt><trkpt lat="45.905995140592516" lon="11.937920865885834"><ele>187.0</ele><time>2026-04-18T16:12:22Z</time></trkpt><trkpt lat="45.906103227283914" lon="11.937643837355559"><ele>187.0</ele><time>2026-04-18T16:12:23Z</time></trkpt><trkpt lat="45.90619703973044" lon="11.937384155167466"><ele>187.0</ele><time>2026-04-18T16:12:23.999Z</time></trkpt><trkpt lat="45.90630827222915" lon="11.937137756425239"><ele>187.0</ele><time>2026-04-18T16:12:24.999Z</time></trkpt><trkpt lat="45.90644369367812" lon="11.936905101625804"><ele>187.0</ele><time>2026-04-18T16:12:25.999Z</time></trkpt><trkpt lat="45.90657942523327" lon="11.936696863993918"><ele>187.0</ele><time>2026-04-18T16:12:26.999Z</time></trkpt><trkpt lat="45.906731186544356" lon="11.936494341508558"><ele>186.33333333333334</ele><time>2026-04-18T16:12:27.999Z</time></trkpt><trkpt lat="45.90686642491069" lon="11.936276655336181"><ele>185.66666666666666</ele><time>2026-04-18T16:12:28.999Z</time></trkpt><trkpt lat="45.90697441211082" lon="11.936034457436028"><ele>185.0</ele><time>2026-04-18T16:12:29.999Z</time></trkpt><trkpt lat="45.907094515474846" lon="11.935812569593567"><ele>186.66666666666666</ele><time>2026-04-18T16:12:30.999Z</time></trkpt><trkpt lat="45.90720184136491" lon="11.935588674271267"><ele>188.33333333333334</ele><time>2026-04-18T16:12:31.999Z</time></trkpt><trkpt lat="45.90730871640261" lon="11.935377588317255"><ele>190.0</ele><time>2026-04-18T16:12:32.999Z</time></trkpt><trkpt lat="45.90741570489675" lon="11.935169746110041"><ele>189.66666666666669</ele><time>2026-04-18T16:12:33.999Z</time></trkpt><trkpt lat="45.90751365963194" lon="11.934957198516033"><ele>189.33333333333334</ele><time>2026-04-18T16:12:34.999Z</time></trkpt><trkpt lat="45.90760161574042" lon="11.9347795472394"><ele>189.0</ele><time>2026-04-18T16:12:35.999Z</time></trkpt><trkpt lat="45.90767752974163" lon="11.934620407009112"><ele>189.0</ele><time>2026-04-18T16:12:36.999Z</time></trkpt><trkpt lat="45.90771376824826" lon="11.934494551364512"><ele>189.0</ele><time>2026-04-18T16:12:37.999Z</time></trkpt><trkpt lat="45.9077892128642" lon="11.9343470551005"><ele>189.0</ele><time>2026-04-18T16:12:38.999Z</time></trkpt><trkpt lat="45.90785241581615" lon="11.934277699969071"><ele>189.0</ele><time>2026-04-18T16:12:39.999Z</time></trkpt><trkpt lat="45.907907958857145" lon="11.93421349150426"><ele>189.0</ele><time>2026-04-18T16:12:40.999Z</time></trkpt><trkpt lat="45.90797035165961" lon="11.934178122353119"><ele>189.0</ele><time>2026-04-18T16:12:41.999Z</time></trkpt><trkpt lat="45.908088269137615" lon="11.93414373556371"><ele>189.83333333333334</ele><time>2026-04-18T16:12:43.999Z</time></trkpt><trkpt lat="45.90815268928195" lon="11.934123318989217"><ele>190.66666666666669</ele><time>2026-04-18T16:12:44.999Z</time></trkpt><trkpt lat="45.908154733780606" lon="11.93397827777521"><ele>191.5</ele><time>2026-04-18T16:12:45.999Z</time></trkpt><trkpt lat="45.90820753819576" lon="11.933890181809842"><ele>192.33333333333334</ele><time>2026-04-18T16:12:46.999Z</time></trkpt><trkpt lat="45.908263406152905" lon="11.93378534674681"><ele>193.16666666666669</ele><time>2026-04-18T16:12:47.999Z</time></trkpt><trkpt lat="45.90832783009359" lon="11.933674893249977"><ele>194.0</ele><time>2026-04-18T16:12:48.999Z</time></trkpt><trkpt lat="45.9084052619437" lon="11.93355446905613"><ele>193.75</ele><time>2026-04-18T16:12:49.999Z</time></trkpt><trkpt lat="45.90848182054077" lon="11.933432206920461"><ele>193.5</ele><time>2026-04-18T16:12:50.999Z</time></trkpt><trkpt lat="45.90856088215456" lon="11.933287291631984"><ele>193.25</ele><time>2026-04-18T16:12:51.999Z</time></trkpt><trkpt lat="45.90863704418929" lon="11.933150862479913"><ele>193.0</ele><time>2026-04-18T16:12:52.999Z</time></trkpt><trkpt lat="45.90869784809195" lon="11.933028189405684"><ele>193.0</ele><time>2026-04-18T16:12:53.999Z</time></trkpt><trkpt lat="45.90876269526992" lon="11.932901825321258"><ele>193.0</ele><time>2026-04-18T16:12:54.999Z</time></trkpt><trkpt lat="45.90881411061863" lon="11.932769339014229"><ele>193.0</ele><time>2026-04-18T16:12:55.999Z</time></trkpt><trkpt lat="45.90887427340623" lon="11.932650399399988"><ele>193.0</ele><time>2026-04-18T16:12:56.999Z</time></trkpt><trkpt lat="45.9089355189423" lon="11.93251615945592"><ele>193.0</ele><time>2026-04-18T16:12:57.999Z</time></trkpt><trkpt lat="45.90899382498548" lon="11.932403424198005"><ele>192.60000000000002</ele><time>2026-04-18T16:12:58.999Z</time></trkpt><trkpt lat="45.909053037273104" lon="11.932311541441113"><ele>192.20000000000002</ele><time>2026-04-18T16:12:59.999Z</time></trkpt><trkpt lat="45.909105799438" lon="11.93220752054617"><ele>191.8</ele><time>2026-04-18T16:13:00.999Z</time></trkpt><trkpt lat="45.90914164180536" lon="11.932080879653123"><ele>191.4</ele><time>2026-04-18T16:13:01.999Z</time></trkpt><trkpt lat="45.909147619764546" lon="11.931906957504282"><ele>191.0</ele><time>2026-04-18T16:13:02.999Z</time></trkpt><trkpt lat="45.90911582144578" lon="11.93175094461162"><ele>191.75</ele><time>2026-04-18T16:13:03.999Z</time></trkpt><trkpt lat="45.90906508039038" lon="11.931597511257012"><ele>192.5</ele><time>2026-04-18T16:13:04.999Z</time></trkpt><trkpt lat="45.90902409269967" lon="11.931439880478028"><ele>193.25</ele><time>2026-04-18T16:13:05.999Z</time></trkpt><trkpt lat="45.90898887869604" lon="11.931292202039627"><ele>194.0</ele><time>2026-04-18T16:13:06.999Z</time></trkpt><trkpt lat="45.90895731300428" lon="11.931138955722007"><ele>194.0</ele><time>2026-04-18T16:13:07.999Z</time></trkpt><trkpt lat="45.90890601415796" lon="11.930966226401324"><ele>194.0</ele><time>2026-04-18T16:13:08.999Z</time></trkpt><trkpt lat="45.90885313704426" lon="11.930807910059873"><ele>194.0</ele><time>2026-04-18T16:13:09.999Z</time></trkpt><trkpt lat="45.90881851743607" lon="11.930630177586481"><ele>194.0</ele><time>2026-04-18T16:13:10.999Z</time></trkpt><trkpt lat="45.908772510633355" lon="11.93045603405504"><ele>194.75</ele><time>2026-04-18T16:13:11.999Z</time></trkpt><trkpt lat="45.908730920057955" lon="11.930279834399617"><ele>195.5</ele><time>2026-04-18T16:13:12.999Z</time></trkpt><trkpt lat="45.908678277603926" lon="11.930089986026971"><ele>196.25</ele><time>2026-04-18T16:13:13.999Z</time></trkpt><trkpt lat="45.90863719405377" lon="11.929919407118382"><ele>197.0</ele><time>2026-04-18T16:13:14.999Z</time></trkpt><trkpt lat="45.90858252922408" lon="11.92972774041991"><ele>198.5</ele><time>2026-04-18T16:13:15.999Z</time></trkpt><trkpt lat="45.90853858331105" lon="11.92954283348772"><ele>200.0</ele><time>2026-04-18T16:13:16.999Z</time></trkpt><trkpt lat="45.908502164523995" lon="11.929344459959522"><ele>201.5</ele><time>2026-04-18T16:13:17.999Z</time></trkpt><trkpt lat="45.90847040428087" lon="11.929131986484206"><ele>203.0</ele><time>2026-04-18T16:13:18.999Z</time></trkpt><trkpt lat="45.908458311526736" lon="11.92892874708355"><ele>203.5</ele><time>2026-04-18T16:13:19.999Z</time></trkpt><trkpt lat="45.908431624449854" lon="11.92873690944063"><ele>204.0</ele><time>2026-04-18T16:13:20.999Z</time></trkpt><trkpt lat="45.90843203529959" lon="11.928538648544437"><ele>204.5</ele><time>2026-04-18T16:13:21.999Z</time></trkpt><trkpt lat="45.90843698187037" lon="11.928322987211033"><ele>205.0</ele><time>2026-04-18T16:13:22.999Z</time></trkpt><trkpt lat="45.90846459559883" lon="11.928130575903658"><ele>205.75</ele><time>2026-04-18T16:13:23.999Z</time></trkpt><trkpt lat="45.9084814591326" lon="11.927916314778413"><ele>206.5</ele><time>2026-04-18T16:13:24.999Z</time></trkpt><trkpt lat="45.90849146523554" lon="11.927709580218464"><ele>207.25</ele><time>2026-04-18T16:13:25.999Z</time></trkpt><trkpt lat="45.908508454447684" lon="11.927499858446167"><ele>208.0</ele><time>2026-04-18T16:13:26.999Z</time></trkpt><trkpt lat="45.90851716609937" lon="11.927287104797209"><ele>211.0</ele><time>2026-04-18T16:13:27.999Z</time></trkpt><trkpt lat="45.90852539949019" lon="11.927073631513485"><ele>214.0</ele><time>2026-04-18T16:13:28.999Z</time></trkpt><trkpt lat="45.90853294516249" lon="11.926860275319854"><ele>217.0</ele><time>2026-04-18T16:13:30Z</time></trkpt><trkpt lat="45.90853427697439" lon="11.926642420538967"><ele>220.0</ele><time>2026-04-18T16:13:31Z</time></trkpt><trkpt lat="45.908534049223825" lon="11.926445631406468"><ele>221.75</ele><time>2026-04-18T16:13:32Z</time></trkpt><trkpt lat="45.90853089602931" lon="11.926246832767818"><ele>223.5</ele><time>2026-04-18T16:13:33Z</time></trkpt><trkpt lat="45.908534494047515" lon="11.926056903286977"><ele>225.25</ele><time>2026-04-18T16:13:34Z</time></trkpt><trkpt lat="45.908527358311794" lon="11.9258557322868"><ele>227.0</ele><time>2026-04-18T16:13:35Z</time></trkpt><trkpt lat="45.90851054454905" lon="11.925661738983777"><ele>227.25</ele><time>2026-04-18T16:13:36Z</time></trkpt><trkpt lat="45.90850799288509" lon="11.92545113082879"><ele>227.5</ele><time>2026-04-18T16:13:37Z</time></trkpt><trkpt lat="45.90850397374517" lon="11.92524136800682"><ele>227.75</ele><time>2026-04-18T16:13:38Z</time></trkpt><trkpt lat="45.90850321255964" lon="11.925032896311336"><ele>228.0</ele><time>2026-04-18T16:13:39Z</time></trkpt><trkpt lat="45.908490931678465" lon="11.924827910596694"><ele>228.0</ele><time>2026-04-18T16:13:40Z</time></trkpt><trkpt lat="45.908489177156014" lon="11.924624201004745"><ele>228.0</ele><time>2026-04-18T16:13:41Z</time></trkpt><trkpt lat="45.90850319904882" lon="11.924418062997638"><ele>228.0</ele><time>2026-04-18T16:13:42Z</time></trkpt><trkpt lat="45.90850506935975" lon="11.924225420627167"><ele>228.0</ele><time>2026-04-18T16:13:43Z</time></trkpt><trkpt lat="45.90850980177653" lon="11.924042776232344"><ele>228.5</ele><time>2026-04-18T16:13:44Z</time></trkpt><trkpt lat="45.908525852345555" lon="11.923851240001495"><ele>229.0</ele><time>2026-04-18T16:13:45Z</time></trkpt><trkpt lat="45.90855943630246" lon="11.923646303365572"><ele>229.5</ele><time>2026-04-18T16:13:46Z</time></trkpt><trkpt lat="45.90859919222661" lon="11.92345376754903"><ele>230.0</ele><time>2026-04-18T16:13:47Z</time></trkpt><trkpt lat="45.908630953363485" lon="11.92325657787153"><ele>231.25</ele><time>2026-04-18T16:13:48Z</time></trkpt><trkpt lat="45.908684594471836" lon="11.92306852885435"><ele>232.5</ele><time>2026-04-18T16:13:49Z</time></trkpt><trkpt lat="45.908736812064596" lon="11.922872222203322"><ele>233.75</ele><time>2026-04-18T16:13:50Z</time></trkpt><trkpt lat="45.90879370518815" lon="11.922670367204622"><ele>235.0</ele><time>2026-04-18T16:13:51Z</time></trkpt><trkpt lat="45.90884661946623" lon="11.922464117424354"><ele>235.0</ele><time>2026-04-18T16:13:52Z</time></trkpt><trkpt lat="45.90890488877416" lon="11.922268213494467"><ele>235.0</ele><time>2026-04-18T16:13:53Z</time></trkpt><trkpt lat="45.90895518126933" lon="11.922081728611467"><ele>235.0</ele><time>2026-04-18T16:13:54Z</time></trkpt><trkpt lat="45.90901586749937" lon="11.921890500489253"><ele>235.0</ele><time>2026-04-18T16:13:55Z</time></trkpt><trkpt lat="45.90909316338472" lon="11.92170698608459"><ele>234.5</ele><time>2026-04-18T16:13:56Z</time></trkpt><trkpt lat="45.90917615026292" lon="11.92153361701073"><ele>234.0</ele><time>2026-04-18T16:13:57Z</time></trkpt><trkpt lat="45.9092610738429" lon="11.921368762044809"><ele>233.5</ele><time>2026-04-18T16:13:58Z</time></trkpt><trkpt lat="45.909327735560346" lon="11.921187018481932"><ele>233.0</ele><time>2026-04-18T16:13:59Z</time></trkpt><trkpt lat="45.909399852248185" lon="11.921015858830508"><ele>235.0</ele><time>2026-04-18T16:14:00Z</time></trkpt><trkpt lat="45.90947985115219" lon="11.920826730586946"><ele>237.0</ele><time>2026-04-18T16:14:01Z</time></trkpt><trkpt lat="45.909551455874954" lon="11.920658753436829"><ele>239.0</ele><time>2026-04-18T16:14:02Z</time></trkpt><trkpt lat="45.909632909480216" lon="11.920468717122903"><ele>241.0</ele><time>2026-04-18T16:14:03Z</time></trkpt><trkpt lat="45.90971567851164" lon="11.920275612334741"><ele>241.0</ele><time>2026-04-18T16:14:04Z</time></trkpt><trkpt lat="45.90979159240854" lon="11.920099500509407"><ele>241.0</ele><time>2026-04-18T16:14:05Z</time></trkpt><trkpt lat="45.909868845044286" lon="11.919921212416963"><ele>241.0</ele><time>2026-04-18T16:14:06Z</time></trkpt><trkpt lat="45.90995180407039" lon="11.919729754536194"><ele>241.0</ele><time>2026-04-18T16:14:07Z</time></trkpt><trkpt lat="45.910028578916396" lon="11.919548136947054"><ele>243.5</ele><time>2026-04-18T16:14:08Z</time></trkpt><trkpt lat="45.910076459363" lon="11.919358892194"><ele>246.0</ele><time>2026-04-18T16:14:09Z</time></trkpt><trkpt lat="45.910141743672924" lon="11.919184933523104"><ele>248.5</ele><time>2026-04-18T16:14:10Z</time></trkpt><trkpt lat="45.9102011486687" lon="11.919002997691184"><ele>251.0</ele><time>2026-04-18T16:14:11Z</time></trkpt><trkpt lat="45.91027650387599" lon="11.9188227398"><ele>251.5</ele><time>2026-04-18T16:14:12Z</time></trkpt><trkpt lat="45.9103339190601" lon="11.918626256163614"><ele>252.0</ele><time>2026-04-18T16:14:13Z</time></trkpt><trkpt lat="45.91038418482594" lon="11.918426648052737"><ele>252.5</ele><time>2026-04-18T16:14:14Z</time></trkpt><trkpt lat="45.910435054538844" lon="11.918219431795825"><ele>253.0</ele><time>2026-04-18T16:14:15Z</time></trkpt><trkpt lat="45.91047101236821" lon="11.918008428570353"><ele>253.0</ele><time>2026-04-18T16:14:16Z</time></trkpt><trkpt lat="45.91052804720557" lon="11.917817916993869"><ele>253.0</ele><time>2026-04-18T16:14:17Z</time></trkpt><trkpt lat="45.910573974174945" lon="11.917641799645606"><ele>253.0</ele><time>2026-04-18T16:14:18Z</time></trkpt><trkpt lat="45.91063918907755" lon="11.917439147732079"><ele>253.0</ele><time>2026-04-18T16:14:19Z</time></trkpt><trkpt lat="45.91070350244945" lon="11.917232282932254"><ele>253.0</ele><time>2026-04-18T16:14:20Z</time></trkpt><trkpt lat="45.91077658151566" lon="11.917054833090305"><ele>253.0</ele><time>2026-04-18T16:14:21Z</time></trkpt><trkpt lat="45.910852971762914" lon="11.916879490240564"><ele>253.0</ele><time>2026-04-18T16:14:22Z</time></trkpt><trkpt lat="45.91094082878712" lon="11.916711770222012"><ele>253.0</ele><time>2026-04-18T16:14:23Z</time></trkpt><trkpt lat="45.91103010328729" lon="11.916544032596597"><ele>255.75</ele><time>2026-04-18T16:14:24Z</time></trkpt><trkpt lat="45.911114581302186" lon="11.91638393866911"><ele>258.5</ele><time>2026-04-18T16:14:25Z</time></trkpt><trkpt lat="45.911189398630114" lon="11.916218420865686"><ele>261.25</ele><time>2026-04-18T16:14:26Z</time></trkpt><trkpt lat="45.91124954849762" lon="11.916052291977241"><ele>264.0</ele><time>2026-04-18T16:14:27Z</time></trkpt><trkpt lat="45.91130995383752" lon="11.915883724505441"><ele>264.0</ele><time>2026-04-18T16:14:27.999Z</time></trkpt><trkpt lat="45.911363785175524" lon="11.915713841268056"><ele>264.0</ele><time>2026-04-18T16:14:28.999Z</time></trkpt><trkpt lat="45.91139491638927" lon="11.91553852205188"><ele>264.0</ele><time>2026-04-18T16:14:29.999Z</time></trkpt><trkpt lat="45.91142467741199" lon="11.915373434512812"><ele>264.0</ele><time>2026-04-18T16:14:30.999Z</time></trkpt><trkpt lat="45.9114302895548" lon="11.915231808363808"><ele>264.0</ele><time>2026-04-18T16:14:31.999Z</time></trkpt><trkpt lat="45.91141795412892" lon="11.915097655090275"><ele>264.0</ele><time>2026-04-18T16:14:32.999Z</time></trkpt><trkpt lat="45.911385315580944" lon="11.914971787413197"><ele>264.0</ele><time>2026-04-18T16:14:33.999Z</time></trkpt><trkpt lat="45.9113228629626" lon="11.914848618965323"><ele>264.0</ele><time>2026-04-18T16:14:34.999Z</time></trkpt><trkpt lat="45.911209088157065" lon="11.914740103255443"><ele>264.0</ele><time>2026-04-18T16:14:35.999Z</time></trkpt><trkpt lat="45.91109475552356" lon="11.914645767699083"><ele>263.25</ele><time>2026-04-18T16:14:36.999Z</time></trkpt><trkpt lat="45.91099335679432" lon="11.914563824069578"><ele>262.5</ele><time>2026-04-18T16:14:37.999Z</time></trkpt><trkpt lat="45.910882825295694" lon="11.91450204035717"><ele>261.75</ele><time>2026-04-18T16:14:38.999Z</time></trkpt><trkpt lat="45.910768874656476" lon="11.914472709005407"><ele>261.0</ele><time>2026-04-18T16:14:39.999Z</time></trkpt><trkpt lat="45.910640385505765" lon="11.9144607712547"><ele>260.0</ele><time>2026-04-18T16:14:40.999Z</time></trkpt><trkpt lat="45.910512655263176" lon="11.914458438633075"><ele>259.0</ele><time>2026-04-18T16:14:41.999Z</time></trkpt><trkpt lat="45.91039357480365" lon="11.91446080975525"><ele>258.0</ele><time>2026-04-18T16:14:42.999Z</time></trkpt><trkpt lat="45.910279809796656" lon="11.914467430822755"><ele>257.0</ele><time>2026-04-18T16:14:43.999Z</time></trkpt><trkpt lat="45.91015637393211" lon="11.914462090721468"><ele>259.0</ele><time>2026-04-18T16:14:44.999Z</time></trkpt><trkpt lat="45.910033873593235" lon="11.914459649631116"><ele>261.0</ele><time>2026-04-18T16:14:45.999Z</time></trkpt><trkpt lat="45.90990195481989" lon="11.914440161751427"><ele>263.0</ele><time>2026-04-18T16:14:46.999Z</time></trkpt><trkpt lat="45.90976798999754" lon="11.914405195398"><ele>265.0</ele><time>2026-04-18T16:14:47.999Z</time></trkpt><trkpt lat="45.90966835821514" lon="11.91436902244868"><ele>265.0</ele><time>2026-04-18T16:14:48.999Z</time></trkpt><trkpt lat="45.909567694904105" lon="11.914324296075371"><ele>265.0</ele><time>2026-04-18T16:14:49.999Z</time></trkpt><trkpt lat="45.90946559976337" lon="11.914274207912007"><ele>265.0</ele><time>2026-04-18T16:14:50.999Z</time></trkpt><trkpt lat="45.90936784976074" lon="11.914231206225258"><ele>265.0</ele><time>2026-04-18T16:14:51.999Z</time></trkpt><trkpt lat="45.90927374935072" lon="11.914183543424835"><ele>265.0</ele><time>2026-04-18T16:14:52.999Z</time></trkpt><trkpt lat="45.90919116194963" lon="11.91411614890988"><ele>266.75</ele><time>2026-04-18T16:14:53.999Z</time></trkpt><trkpt lat="45.90908039492341" lon="11.913938724281419"><ele>268.5</ele><time>2026-04-18T16:14:55.999Z</time></trkpt><trkpt lat="45.909050739789656" lon="11.913782243932955"><ele>270.25</ele><time>2026-04-18T16:14:56.999Z</time></trkpt><trkpt lat="45.90903066017619" lon="11.913639774591735"><ele>272.0</ele><time>2026-04-18T16:14:57.999Z</time></trkpt><trkpt lat="45.90896932640955" lon="11.91349622250603"><ele>272.6</ele><time>2026-04-18T16:14:58.999Z</time></trkpt><trkpt lat="45.9089384102623" lon="11.91335976739316"><ele>273.2</ele><time>2026-04-18T16:14:59.999Z</time></trkpt><trkpt lat="45.90891134157283" lon="11.913215332191989"><ele>273.8</ele><time>2026-04-18T16:15:00.999Z</time></trkpt><trkpt lat="45.908879176887666" lon="11.913052409036132"><ele>274.4</ele><time>2026-04-18T16:15:01.999Z</time></trkpt><trkpt lat="45.90885392140637" lon="11.912890232420091"><ele>275.0</ele><time>2026-04-18T16:15:02.999Z</time></trkpt><trkpt lat="45.908812348885604" lon="11.912715520272805"><ele>275.5</ele><time>2026-04-18T16:15:03.999Z</time></trkpt><trkpt lat="45.90878026572074" lon="11.912554654435853"><ele>276.0</ele><time>2026-04-18T16:15:04.999Z</time></trkpt><trkpt lat="45.908747729796154" lon="11.912384847672325"><ele>276.5</ele><time>2026-04-18T16:15:05.999Z</time></trkpt><trkpt lat="45.908713687260374" lon="11.912204019915587"><ele>277.0</ele><time>2026-04-18T16:15:06.999Z</time></trkpt><trkpt lat="45.9087084608314" lon="11.91204299853201"><ele>277.0</ele><time>2026-04-18T16:15:07.999Z</time></trkpt><trkpt lat="45.908688241618286" lon="11.911885862499819"><ele>277.0</ele><time>2026-04-18T16:15:08.999Z</time></trkpt><trkpt lat="45.90866170660426" lon="11.911717517470477"><ele>277.0</ele><time>2026-04-18T16:15:09.999Z</time></trkpt><trkpt lat="45.908630403068315" lon="11.911544727910917"><ele>277.0</ele><time>2026-04-18T16:15:10.999Z</time></trkpt><trkpt lat="45.90858205494102" lon="11.911374248152404"><ele>277.75</ele><time>2026-04-18T16:15:11.999Z</time></trkpt><trkpt lat="45.90854133895388" lon="11.91121102724219"><ele>278.5</ele><time>2026-04-18T16:15:12.999Z</time></trkpt><trkpt lat="45.90851069881094" lon="11.911047791859572"><ele>279.25</ele><time>2026-04-18T16:15:13.999Z</time></trkpt><trkpt lat="45.90846609144266" lon="11.91088447633573"><ele>280.0</ele><time>2026-04-18T16:15:14.999Z</time></trkpt><trkpt lat="45.908424236444766" lon="11.910717038805199"><ele>282.25</ele><time>2026-04-18T16:15:15.999Z</time></trkpt><trkpt lat="45.908380700913476" lon="11.910545571081505"><ele>284.5</ele><time>2026-04-18T16:15:16.999Z</time></trkpt><trkpt lat="45.90833390721001" lon="11.910365161187078"><ele>286.75</ele><time>2026-04-18T16:15:17.999Z</time></trkpt><trkpt lat="45.908286335122376" lon="11.910205312501851"><ele>289.0</ele><time>2026-04-18T16:15:18.999Z</time></trkpt><trkpt lat="45.908267099877904" lon="11.910068480882138"><ele>289.59999999999997</ele><time>2026-04-18T16:15:19.999Z</time></trkpt><trkpt lat="45.908227352910366" lon="11.909922045853252"><ele>290.2</ele><time>2026-04-18T16:15:20.999Z</time></trkpt><trkpt lat="45.90819926652442" lon="11.909781828064578"><ele>290.79999999999995</ele><time>2026-04-18T16:15:21.999Z</time></trkpt><trkpt lat="45.90816945284389" lon="11.90966646054788"><ele>291.4</ele><time>2026-04-18T16:15:22.999Z</time></trkpt><trkpt lat="45.9081452386497" lon="11.90955285217023"><ele>292.0</ele><time>2026-04-18T16:15:23.999Z</time></trkpt><trkpt lat="45.908115892908945" lon="11.909447417549721"><ele>292.0</ele><time>2026-04-18T16:15:24.999Z</time></trkpt><trkpt lat="45.90808951978054" lon="11.909328294097042"><ele>292.0</ele><time>2026-04-18T16:15:25.999Z</time></trkpt><trkpt lat="45.90808593041297" lon="11.909222790011242"><ele>292.0</ele><time>2026-04-18T16:15:26.999Z</time></trkpt><trkpt lat="45.908073627931586" lon="11.909121674202433"><ele>292.0</ele><time>2026-04-18T16:15:27.999Z</time></trkpt><trkpt lat="45.9082293829903" lon="11.909041179407781"><ele>292.0</ele><time>2026-04-18T16:15:29.999Z</time></trkpt><trkpt lat="45.90833615446979" lon="11.909011170476955"><ele>291.75</ele><time>2026-04-18T16:15:30.999Z</time></trkpt><trkpt lat="45.908428700538174" lon="11.9089730450877"><ele>291.5</ele><time>2026-04-18T16:15:31.999Z</time></trkpt><trkpt lat="45.908535379907924" lon="11.908924148378162"><ele>291.25</ele><time>2026-04-18T16:15:32.999Z</time></trkpt><trkpt lat="45.908654961615795" lon="11.90886556251448"><ele>291.0</ele><time>2026-04-18T16:15:33.999Z</time></trkpt><trkpt lat="45.90876120924207" lon="11.90878328916415"><ele>291.0</ele><time>2026-04-18T16:15:34.999Z</time></trkpt><trkpt lat="45.90886948822177" lon="11.908754607365083"><ele>291.0</ele><time>2026-04-18T16:15:36Z</time></trkpt><trkpt lat="45.90896582854334" lon="11.908709515379195"><ele>291.0</ele><time>2026-04-18T16:15:37Z</time></trkpt><trkpt lat="45.90905085849008" lon="11.908656692810066"><ele>291.0</ele><time>2026-04-18T16:15:38Z</time></trkpt><trkpt lat="45.90910419359647" lon="11.90857763146756"><ele>291.0</ele><time>2026-04-18T16:15:39Z</time></trkpt><trkpt lat="45.90911379741942" lon="11.908375555287162"><ele>291.5</ele><time>2026-04-18T16:15:41Z</time></trkpt><trkpt lat="45.90908679343454" lon="11.90828065177692"><ele>292.0</ele><time>2026-04-18T16:15:42Z</time></trkpt><trkpt lat="45.90907388836895" lon="11.908188171496194"><ele>292.5</ele><time>2026-04-18T16:15:43Z</time></trkpt><trkpt lat="45.90905067582096" lon="11.908080993279611"><ele>293.0</ele><time>2026-04-18T16:15:45Z</time></trkpt><trkpt lat="45.909146414643416" lon="11.907995843483436"><ele>293.5</ele><time>2026-04-18T16:16:08Z</time></trkpt><trkpt lat="45.90918346436277" lon="11.907882959418142"><ele>294.0</ele><time>2026-04-18T16:16:09Z</time></trkpt><trkpt lat="45.90926551301003" lon="11.907843378642507"><ele>292.2</ele><time>2026-04-18T16:16:11Z</time></trkpt><trkpt lat="45.90934063236197" lon="11.907813204081759"><ele>290.4</ele><time>2026-04-18T16:16:13Z</time></trkpt><trkpt lat="45.90945783849423" lon="11.907788584597554"><ele>288.6</ele><time>2026-04-18T16:16:16Z</time></trkpt><trkpt lat="45.909506709452906" lon="11.907688172917448"><ele>286.8</ele><time>2026-04-18T16:16:19Z</time></trkpt><trkpt lat="45.90945804869835" lon="11.9076085014399"><ele>285.0</ele><time>2026-04-18T16:16:30Z</time></trkpt><trkpt lat="45.90937127459499" lon="11.907811179956713"><ele>285.0</ele><time>2026-04-18T16:19:33.999Z</time></trkpt><trkpt lat="45.90935550160909" lon="11.907658799197518"><ele>285.0</ele><time>2026-04-18T16:19:52Z</time></trkpt><trkpt lat="45.90948063713019" lon="11.90758928042479"><ele>285.0</ele><time>2026-04-18T16:20:09Z</time></trkpt><trkpt lat="45.90954217822692" lon="11.907549520306146"><ele>285.0</ele><time>2026-04-18T16:20:12Z</time></trkpt><trkpt lat="45.90947822750953" lon="11.907578032046938"><ele>285.0</ele><time>2026-04-18T16:20:24Z</time></trkpt><trkpt lat="45.90942350220513" lon="11.907528871681457"><ele>285.0</ele><time>2026-04-18T16:20:50.999Z</time></trkpt><trkpt lat="45.909113363445265" lon="11.907561521834186"><ele>285.0</ele><time>2026-04-18T16:20:54.999Z</time></trkpt><trkpt lat="45.90922361918352" lon="11.90748696897623"><ele>285.0</ele><time>2026-04-18T16:21:09.512Z</time></trkpt><trkpt lat="45.90943027823771" lon="11.907398520981891"><ele>285.0</ele><time>2026-04-18T16:21:10.999Z</time></trkpt><trkpt lat="45.90935825930434" lon="11.907663148896564"><ele>285.0</ele><time>2026-04-18T16:21:20.999Z</time></trkpt><trkpt lat="45.909446232691415" lon="11.907694878657583"><ele>285.0</ele><time>2026-04-18T16:21:57Z</time></trkpt></trkseg></trk></gpx>